<?xml version="1.0" encoding="UTF-8" standalone="no" ?>
<gpx xmlns="http://www.topografix.com/GPX/1/1" xmlns:xsi="http://www.w3.org/2001/XMLSchema-instance" xsi:schemaLocation="http://www.topografix.com/GPX/1/1 http://www.topografix.com/GPX/1/1/gpx.xsd" version="1.1" creator="VisuGPX - https://www.visugpx.com">
  <metadata>
    <name>[13/12/2015] Hivernale VTT à Gravigny (27)</name>
    <desc><![CDATA[Rando VTT organisée par l\'US Gravigny.
Parcours de 46 km]]></desc>
  </metadata>
  <trk>
    <name><![CDATA[[13/12/2015] Hivernale VTT à Gravigny (27)_1]]></name>
    <trkseg>
      <trkpt lat="49.04492" lon="1.15685">
        <ele>62.097294</ele>
        <time>2015-12-13T07:34:42Z</time>
      </trkpt>
      <trkpt lat="49.04492" lon="1.15685">
        <ele>62.097294</ele>
        <time>2015-12-13T07:34:43Z</time>
      </trkpt>
      <trkpt lat="49.04481" lon="1.15689">
        <ele>60.147907</ele>
        <time>2015-12-13T07:35:17Z</time>
      </trkpt>
      <trkpt lat="49.04475" lon="1.1568">
        <ele>60.099998</ele>
        <time>2015-12-13T07:35:21Z</time>
      </trkpt>
      <trkpt lat="49.04464" lon="1.15677">
        <ele>60</ele>
        <time>2015-12-13T07:35:26Z</time>
      </trkpt>
      <trkpt lat="49.04453" lon="1.15679">
        <ele>60</ele>
        <time>2015-12-13T07:35:31Z</time>
      </trkpt>
      <trkpt lat="49.04449" lon="1.15664">
        <ele>60</ele>
        <time>2015-12-13T07:35:36Z</time>
      </trkpt>
      <trkpt lat="49.04449" lon="1.15649">
        <ele>60</ele>
        <time>2015-12-13T07:35:40Z</time>
      </trkpt>
      <trkpt lat="49.0445" lon="1.15635">
        <ele>60</ele>
        <time>2015-12-13T07:35:44Z</time>
      </trkpt>
      <trkpt lat="49.04451" lon="1.15621">
        <ele>60.099998</ele>
        <time>2015-12-13T07:35:48Z</time>
      </trkpt>
      <trkpt lat="49.04452" lon="1.15606">
        <ele>60.299999</ele>
        <time>2015-12-13T07:35:52Z</time>
      </trkpt>
      <trkpt lat="49.0445" lon="1.15592">
        <ele>60.5</ele>
        <time>2015-12-13T07:35:56Z</time>
      </trkpt>
      <trkpt lat="49.04448" lon="1.15578">
        <ele>60.700001</ele>
        <time>2015-12-13T07:36:00Z</time>
      </trkpt>
      <trkpt lat="49.04448" lon="1.15562">
        <ele>61.200001</ele>
        <time>2015-12-13T07:36:05Z</time>
      </trkpt>
      <trkpt lat="49.0445" lon="1.15547">
        <ele>61.599998</ele>
        <time>2015-12-13T07:36:10Z</time>
      </trkpt>
      <trkpt lat="49.04451" lon="1.15532">
        <ele>62.099998</ele>
        <time>2015-12-13T07:36:15Z</time>
      </trkpt>
      <trkpt lat="49.0445" lon="1.15516">
        <ele>62.5</ele>
        <time>2015-12-13T07:36:20Z</time>
      </trkpt>
      <trkpt lat="49.04451" lon="1.15501">
        <ele>63</ele>
        <time>2015-12-13T07:36:25Z</time>
      </trkpt>
      <trkpt lat="49.0445" lon="1.15487">
        <ele>63.5</ele>
        <time>2015-12-13T07:36:29Z</time>
      </trkpt>
      <trkpt lat="49.04446" lon="1.15474">
        <ele>63.900002</ele>
        <time>2015-12-13T07:36:33Z</time>
      </trkpt>
      <trkpt lat="49.04436" lon="1.15473">
        <ele>64.099998</ele>
        <time>2015-12-13T07:36:36Z</time>
      </trkpt>
      <trkpt lat="49.04426" lon="1.15473">
        <ele>64.300003</ele>
        <time>2015-12-13T07:36:39Z</time>
      </trkpt>
      <trkpt lat="49.04416" lon="1.15474">
        <ele>64.5</ele>
        <time>2015-12-13T07:36:42Z</time>
      </trkpt>
      <trkpt lat="49.04406" lon="1.15473">
        <ele>64.699997</ele>
        <time>2015-12-13T07:36:45Z</time>
      </trkpt>
      <trkpt lat="49.04396" lon="1.15474">
        <ele>64.800003</ele>
        <time>2015-12-13T07:36:48Z</time>
      </trkpt>
      <trkpt lat="49.04386" lon="1.15475">
        <ele>64.900002</ele>
        <time>2015-12-13T07:36:51Z</time>
      </trkpt>
      <trkpt lat="49.04376" lon="1.15475">
        <ele>65</ele>
        <time>2015-12-13T07:36:54Z</time>
      </trkpt>
      <trkpt lat="49.04366" lon="1.15475">
        <ele>65.099998</ele>
        <time>2015-12-13T07:36:57Z</time>
      </trkpt>
      <trkpt lat="49.04356" lon="1.15476">
        <ele>65.099998</ele>
        <time>2015-12-13T07:37:00Z</time>
      </trkpt>
      <trkpt lat="49.04347" lon="1.15476">
        <ele>65.199997</ele>
        <time>2015-12-13T07:37:03Z</time>
      </trkpt>
      <trkpt lat="49.04337" lon="1.15477">
        <ele>65.199997</ele>
        <time>2015-12-13T07:37:06Z</time>
      </trkpt>
      <trkpt lat="49.04326" lon="1.15478">
        <ele>65.199997</ele>
        <time>2015-12-13T07:37:09Z</time>
      </trkpt>
      <trkpt lat="49.04316" lon="1.15478">
        <ele>65.300003</ele>
        <time>2015-12-13T07:37:12Z</time>
      </trkpt>
      <trkpt lat="49.04306" lon="1.15478">
        <ele>65.300003</ele>
        <time>2015-12-13T07:37:15Z</time>
      </trkpt>
      <trkpt lat="49.04296" lon="1.15479">
        <ele>65.300003</ele>
        <time>2015-12-13T07:37:18Z</time>
      </trkpt>
      <trkpt lat="49.04285" lon="1.1548">
        <ele>65.300003</ele>
        <time>2015-12-13T07:37:21Z</time>
      </trkpt>
      <trkpt lat="49.04275" lon="1.1548">
        <ele>65.300003</ele>
        <time>2015-12-13T07:37:24Z</time>
      </trkpt>
      <trkpt lat="49.04265" lon="1.15481">
        <ele>65.300003</ele>
        <time>2015-12-13T07:37:27Z</time>
      </trkpt>
      <trkpt lat="49.04255" lon="1.15481">
        <ele>65.400002</ele>
        <time>2015-12-13T07:37:30Z</time>
      </trkpt>
      <trkpt lat="49.04245" lon="1.15482">
        <ele>65.400002</ele>
        <time>2015-12-13T07:37:33Z</time>
      </trkpt>
      <trkpt lat="49.04235" lon="1.15483">
        <ele>65.5</ele>
        <time>2015-12-13T07:37:36Z</time>
      </trkpt>
      <trkpt lat="49.04226" lon="1.15484">
        <ele>65.5</ele>
        <time>2015-12-13T07:37:39Z</time>
      </trkpt>
      <trkpt lat="49.04215" lon="1.15484">
        <ele>65.599998</ele>
        <time>2015-12-13T07:37:43Z</time>
      </trkpt>
      <trkpt lat="49.04203" lon="1.15485">
        <ele>65.800003</ele>
        <time>2015-12-13T07:37:47Z</time>
      </trkpt>
      <trkpt lat="49.04191" lon="1.15485">
        <ele>66</ele>
        <time>2015-12-13T07:37:51Z</time>
      </trkpt>
      <trkpt lat="49.04179" lon="1.15486">
        <ele>66.199997</ele>
        <time>2015-12-13T07:37:55Z</time>
      </trkpt>
      <trkpt lat="49.0417" lon="1.15488">
        <ele>66.5</ele>
        <time>2015-12-13T07:37:58Z</time>
      </trkpt>
      <trkpt lat="49.04161" lon="1.15489">
        <ele>66.699997</ele>
        <time>2015-12-13T07:38:01Z</time>
      </trkpt>
      <trkpt lat="49.04149" lon="1.15489">
        <ele>67</ele>
        <time>2015-12-13T07:38:05Z</time>
      </trkpt>
      <trkpt lat="49.04138" lon="1.1549">
        <ele>67.300003</ele>
        <time>2015-12-13T07:38:09Z</time>
      </trkpt>
      <trkpt lat="49.04127" lon="1.1549">
        <ele>67.599998</ele>
        <time>2015-12-13T07:38:13Z</time>
      </trkpt>
      <trkpt lat="49.04115" lon="1.15491">
        <ele>67.800003</ele>
        <time>2015-12-13T07:38:17Z</time>
      </trkpt>
      <trkpt lat="49.04104" lon="1.15491">
        <ele>68</ele>
        <time>2015-12-13T07:38:21Z</time>
      </trkpt>
      <trkpt lat="49.04092" lon="1.15492">
        <ele>68.199997</ele>
        <time>2015-12-13T07:38:25Z</time>
      </trkpt>
      <trkpt lat="49.04081" lon="1.15493">
        <ele>68.300003</ele>
        <time>2015-12-13T07:38:29Z</time>
      </trkpt>
      <trkpt lat="49.04071" lon="1.15493">
        <ele>68.400002</ele>
        <time>2015-12-13T07:38:33Z</time>
      </trkpt>
      <trkpt lat="49.0406" lon="1.15492">
        <ele>68.699997</ele>
        <time>2015-12-13T07:38:37Z</time>
      </trkpt>
      <trkpt lat="49.04049" lon="1.1549">
        <ele>68.900002</ele>
        <time>2015-12-13T07:38:41Z</time>
      </trkpt>
      <trkpt lat="49.04037" lon="1.15488">
        <ele>69.099998</ele>
        <time>2015-12-13T07:38:45Z</time>
      </trkpt>
      <trkpt lat="49.04025" lon="1.15486">
        <ele>69.199997</ele>
        <time>2015-12-13T07:38:49Z</time>
      </trkpt>
      <trkpt lat="49.04014" lon="1.15483">
        <ele>69.300003</ele>
        <time>2015-12-13T07:38:53Z</time>
      </trkpt>
      <trkpt lat="49.04004" lon="1.15482">
        <ele>69.300003</ele>
        <time>2015-12-13T07:38:56Z</time>
      </trkpt>
      <trkpt lat="49.03994" lon="1.1548">
        <ele>69.400002</ele>
        <time>2015-12-13T07:38:59Z</time>
      </trkpt>
      <trkpt lat="49.03984" lon="1.15479">
        <ele>69.400002</ele>
        <time>2015-12-13T07:39:02Z</time>
      </trkpt>
      <trkpt lat="49.03974" lon="1.15478">
        <ele>69.5</ele>
        <time>2015-12-13T07:39:05Z</time>
      </trkpt>
      <trkpt lat="49.03964" lon="1.15476">
        <ele>69.5</ele>
        <time>2015-12-13T07:39:08Z</time>
      </trkpt>
      <trkpt lat="49.03953" lon="1.15475">
        <ele>69.5</ele>
        <time>2015-12-13T07:39:11Z</time>
      </trkpt>
      <trkpt lat="49.03943" lon="1.15473">
        <ele>69.5</ele>
        <time>2015-12-13T07:39:14Z</time>
      </trkpt>
      <trkpt lat="49.03933" lon="1.15472">
        <ele>69.5</ele>
        <time>2015-12-13T07:39:17Z</time>
      </trkpt>
      <trkpt lat="49.03923" lon="1.15471">
        <ele>69.5</ele>
        <time>2015-12-13T07:39:20Z</time>
      </trkpt>
      <trkpt lat="49.03913" lon="1.1547">
        <ele>69.5</ele>
        <time>2015-12-13T07:39:23Z</time>
      </trkpt>
      <trkpt lat="49.03903" lon="1.15468">
        <ele>69.5</ele>
        <time>2015-12-13T07:39:26Z</time>
      </trkpt>
      <trkpt lat="49.03892" lon="1.15467">
        <ele>69.5</ele>
        <time>2015-12-13T07:39:29Z</time>
      </trkpt>
      <trkpt lat="49.03883" lon="1.15466">
        <ele>69.5</ele>
        <time>2015-12-13T07:39:32Z</time>
      </trkpt>
      <trkpt lat="49.03873" lon="1.15465">
        <ele>69.599998</ele>
        <time>2015-12-13T07:39:35Z</time>
      </trkpt>
      <trkpt lat="49.03863" lon="1.15464">
        <ele>69.599998</ele>
        <time>2015-12-13T07:39:38Z</time>
      </trkpt>
      <trkpt lat="49.03854" lon="1.15463">
        <ele>69.699997</ele>
        <time>2015-12-13T07:39:41Z</time>
      </trkpt>
      <trkpt lat="49.03845" lon="1.15462">
        <ele>69.900002</ele>
        <time>2015-12-13T07:39:44Z</time>
      </trkpt>
      <trkpt lat="49.03835" lon="1.15461">
        <ele>70.199997</ele>
        <time>2015-12-13T07:39:47Z</time>
      </trkpt>
      <trkpt lat="49.03824" lon="1.15459">
        <ele>70.5</ele>
        <time>2015-12-13T07:39:51Z</time>
      </trkpt>
      <trkpt lat="49.03812" lon="1.15458">
        <ele>70.900002</ele>
        <time>2015-12-13T07:39:55Z</time>
      </trkpt>
      <trkpt lat="49.038" lon="1.15455">
        <ele>71.300003</ele>
        <time>2015-12-13T07:39:59Z</time>
      </trkpt>
      <trkpt lat="49.03791" lon="1.15454">
        <ele>71.599998</ele>
        <time>2015-12-13T07:40:02Z</time>
      </trkpt>
      <trkpt lat="49.03779" lon="1.15455">
        <ele>72.099998</ele>
        <time>2015-12-13T07:40:06Z</time>
      </trkpt>
      <trkpt lat="49.03773" lon="1.15465">
        <ele>72.5</ele>
        <time>2015-12-13T07:40:10Z</time>
      </trkpt>
      <trkpt lat="49.03773" lon="1.15481">
        <ele>72.800003</ele>
        <time>2015-12-13T07:40:14Z</time>
      </trkpt>
      <trkpt lat="49.03772" lon="1.15499">
        <ele>73</ele>
        <time>2015-12-13T07:40:17Z</time>
      </trkpt>
      <trkpt lat="49.03771" lon="1.15514">
        <ele>72.900002</ele>
        <time>2015-12-13T07:40:19Z</time>
      </trkpt>
      <trkpt lat="49.03769" lon="1.1553">
        <ele>72.900002</ele>
        <time>2015-12-13T07:40:21Z</time>
      </trkpt>
      <trkpt lat="49.03768" lon="1.15546">
        <ele>72.800003</ele>
        <time>2015-12-13T07:40:23Z</time>
      </trkpt>
      <trkpt lat="49.03767" lon="1.15563">
        <ele>72.599998</ele>
        <time>2015-12-13T07:40:25Z</time>
      </trkpt>
      <trkpt lat="49.03767" lon="1.1558">
        <ele>72.400002</ele>
        <time>2015-12-13T07:40:27Z</time>
      </trkpt>
      <trkpt lat="49.03766" lon="1.15599">
        <ele>72.199997</ele>
        <time>2015-12-13T07:40:29Z</time>
      </trkpt>
      <trkpt lat="49.03765" lon="1.15617">
        <ele>71.699997</ele>
        <time>2015-12-13T07:40:31Z</time>
      </trkpt>
      <trkpt lat="49.03761" lon="1.15631">
        <ele>71.300003</ele>
        <time>2015-12-13T07:40:33Z</time>
      </trkpt>
      <trkpt lat="49.03752" lon="1.15636">
        <ele>70.900002</ele>
        <time>2015-12-13T07:40:35Z</time>
      </trkpt>
      <trkpt lat="49.03743" lon="1.15632">
        <ele>70.400002</ele>
        <time>2015-12-13T07:40:37Z</time>
      </trkpt>
      <trkpt lat="49.03732" lon="1.15626">
        <ele>69.900002</ele>
        <time>2015-12-13T07:40:40Z</time>
      </trkpt>
      <trkpt lat="49.03719" lon="1.1562">
        <ele>69.5</ele>
        <time>2015-12-13T07:40:43Z</time>
      </trkpt>
      <trkpt lat="49.03707" lon="1.15614">
        <ele>69.099998</ele>
        <time>2015-12-13T07:40:46Z</time>
      </trkpt>
      <trkpt lat="49.03694" lon="1.15609">
        <ele>68.800003</ele>
        <time>2015-12-13T07:40:49Z</time>
      </trkpt>
      <trkpt lat="49.03681" lon="1.15605">
        <ele>68.5</ele>
        <time>2015-12-13T07:40:52Z</time>
      </trkpt>
      <trkpt lat="49.03672" lon="1.15603">
        <ele>68.400002</ele>
        <time>2015-12-13T07:40:54Z</time>
      </trkpt>
      <trkpt lat="49.03659" lon="1.15602">
        <ele>68.300003</ele>
        <time>2015-12-13T07:40:57Z</time>
      </trkpt>
      <trkpt lat="49.03646" lon="1.156">
        <ele>68.099998</ele>
        <time>2015-12-13T07:41:00Z</time>
      </trkpt>
      <trkpt lat="49.03636" lon="1.15599">
        <ele>68.099998</ele>
        <time>2015-12-13T07:41:02Z</time>
      </trkpt>
      <trkpt lat="49.03627" lon="1.15599">
        <ele>68</ele>
        <time>2015-12-13T07:41:04Z</time>
      </trkpt>
      <trkpt lat="49.03614" lon="1.15599">
        <ele>68</ele>
        <time>2015-12-13T07:41:07Z</time>
      </trkpt>
      <trkpt lat="49.036" lon="1.156">
        <ele>67.900002</ele>
        <time>2015-12-13T07:41:10Z</time>
      </trkpt>
      <trkpt lat="49.03589" lon="1.15599">
        <ele>67.900002</ele>
        <time>2015-12-13T07:41:12Z</time>
      </trkpt>
      <trkpt lat="49.03578" lon="1.15596">
        <ele>67.900002</ele>
        <time>2015-12-13T07:41:14Z</time>
      </trkpt>
      <trkpt lat="49.03567" lon="1.15592">
        <ele>67.800003</ele>
        <time>2015-12-13T07:41:16Z</time>
      </trkpt>
      <trkpt lat="49.03557" lon="1.15585">
        <ele>67.699997</ele>
        <time>2015-12-13T07:41:18Z</time>
      </trkpt>
      <trkpt lat="49.03547" lon="1.15577">
        <ele>67.5</ele>
        <time>2015-12-13T07:41:20Z</time>
      </trkpt>
      <trkpt lat="49.03535" lon="1.15571">
        <ele>67.300003</ele>
        <time>2015-12-13T07:41:22Z</time>
      </trkpt>
      <trkpt lat="49.03523" lon="1.15566">
        <ele>67</ele>
        <time>2015-12-13T07:41:24Z</time>
      </trkpt>
      <trkpt lat="49.0351" lon="1.15561">
        <ele>66.699997</ele>
        <time>2015-12-13T07:41:26Z</time>
      </trkpt>
      <trkpt lat="49.03497" lon="1.15556">
        <ele>66.300003</ele>
        <time>2015-12-13T07:41:28Z</time>
      </trkpt>
      <trkpt lat="49.03485" lon="1.15552">
        <ele>66</ele>
        <time>2015-12-13T07:41:30Z</time>
      </trkpt>
      <trkpt lat="49.03476" lon="1.15549">
        <ele>65.599998</ele>
        <time>2015-12-13T07:41:32Z</time>
      </trkpt>
      <trkpt lat="49.03471" lon="1.15537">
        <ele>65</ele>
        <time>2015-12-13T07:41:35Z</time>
      </trkpt>
      <trkpt lat="49.03474" lon="1.15521">
        <ele>64.400002</ele>
        <time>2015-12-13T07:41:38Z</time>
      </trkpt>
      <trkpt lat="49.03476" lon="1.15503">
        <ele>64</ele>
        <time>2015-12-13T07:41:41Z</time>
      </trkpt>
      <trkpt lat="49.03473" lon="1.15486">
        <ele>63.700001</ele>
        <time>2015-12-13T07:41:44Z</time>
      </trkpt>
      <trkpt lat="49.03469" lon="1.15471">
        <ele>63.599998</ele>
        <time>2015-12-13T07:41:47Z</time>
      </trkpt>
      <trkpt lat="49.03463" lon="1.15456">
        <ele>63.599998</ele>
        <time>2015-12-13T07:41:50Z</time>
      </trkpt>
      <trkpt lat="49.03458" lon="1.15442">
        <ele>63.799999</ele>
        <time>2015-12-13T07:41:53Z</time>
      </trkpt>
      <trkpt lat="49.03453" lon="1.15428">
        <ele>64.099998</ele>
        <time>2015-12-13T07:41:56Z</time>
      </trkpt>
      <trkpt lat="49.03447" lon="1.15414">
        <ele>64.400002</ele>
        <time>2015-12-13T07:41:59Z</time>
      </trkpt>
      <trkpt lat="49.03442" lon="1.154">
        <ele>64.699997</ele>
        <time>2015-12-13T07:42:02Z</time>
      </trkpt>
      <trkpt lat="49.03437" lon="1.15386">
        <ele>65.199997</ele>
        <time>2015-12-13T07:42:05Z</time>
      </trkpt>
      <trkpt lat="49.03433" lon="1.15371">
        <ele>65.599998</ele>
        <time>2015-12-13T07:42:08Z</time>
      </trkpt>
      <trkpt lat="49.03429" lon="1.15358">
        <ele>66.199997</ele>
        <time>2015-12-13T07:42:11Z</time>
      </trkpt>
      <trkpt lat="49.03424" lon="1.15344">
        <ele>66.900002</ele>
        <time>2015-12-13T07:42:14Z</time>
      </trkpt>
      <trkpt lat="49.03419" lon="1.15331">
        <ele>67.5</ele>
        <time>2015-12-13T07:42:17Z</time>
      </trkpt>
      <trkpt lat="49.03416" lon="1.15317">
        <ele>68.099998</ele>
        <time>2015-12-13T07:42:20Z</time>
      </trkpt>
      <trkpt lat="49.03412" lon="1.15302">
        <ele>68.599998</ele>
        <time>2015-12-13T07:42:23Z</time>
      </trkpt>
      <trkpt lat="49.0341" lon="1.15288">
        <ele>69.400002</ele>
        <time>2015-12-13T07:42:26Z</time>
      </trkpt>
      <trkpt lat="49.03408" lon="1.15274">
        <ele>70.099998</ele>
        <time>2015-12-13T07:42:29Z</time>
      </trkpt>
      <trkpt lat="49.03411" lon="1.15261">
        <ele>71</ele>
        <time>2015-12-13T07:42:33Z</time>
      </trkpt>
      <trkpt lat="49.0342" lon="1.1526">
        <ele>72.099998</ele>
        <time>2015-12-13T07:42:39Z</time>
      </trkpt>
      <trkpt lat="49.03431" lon="1.1526">
        <ele>73.599998</ele>
        <time>2015-12-13T07:42:45Z</time>
      </trkpt>
      <trkpt lat="49.03438" lon="1.15252">
        <ele>75.400002</ele>
        <time>2015-12-13T07:42:51Z</time>
      </trkpt>
      <trkpt lat="49.03446" lon="1.15243">
        <ele>77.800003</ele>
        <time>2015-12-13T07:42:58Z</time>
      </trkpt>
      <trkpt lat="49.03455" lon="1.15243">
        <ele>79.900002</ele>
        <time>2015-12-13T07:43:04Z</time>
      </trkpt>
      <trkpt lat="49.03464" lon="1.15248">
        <ele>81.300003</ele>
        <time>2015-12-13T07:43:09Z</time>
      </trkpt>
      <trkpt lat="49.03472" lon="1.15238">
        <ele>82.599998</ele>
        <time>2015-12-13T07:43:14Z</time>
      </trkpt>
      <trkpt lat="49.03478" lon="1.15225">
        <ele>83.699997</ele>
        <time>2015-12-13T07:43:19Z</time>
      </trkpt>
      <trkpt lat="49.03483" lon="1.15212">
        <ele>84.800003</ele>
        <time>2015-12-13T07:43:24Z</time>
      </trkpt>
      <trkpt lat="49.03489" lon="1.15198">
        <ele>85.900002</ele>
        <time>2015-12-13T07:43:29Z</time>
      </trkpt>
      <trkpt lat="49.03495" lon="1.15183">
        <ele>87</ele>
        <time>2015-12-13T07:43:34Z</time>
      </trkpt>
      <trkpt lat="49.035" lon="1.15172">
        <ele>87.699997</ele>
        <time>2015-12-13T07:43:38Z</time>
      </trkpt>
      <trkpt lat="49.03505" lon="1.1516">
        <ele>88.300003</ele>
        <time>2015-12-13T07:43:42Z</time>
      </trkpt>
      <trkpt lat="49.0351" lon="1.15147">
        <ele>89</ele>
        <time>2015-12-13T07:43:46Z</time>
      </trkpt>
      <trkpt lat="49.03515" lon="1.15134">
        <ele>89.800003</ele>
        <time>2015-12-13T07:43:50Z</time>
      </trkpt>
      <trkpt lat="49.0352" lon="1.15122">
        <ele>90.5</ele>
        <time>2015-12-13T07:43:54Z</time>
      </trkpt>
      <trkpt lat="49.03526" lon="1.15109">
        <ele>91.300003</ele>
        <time>2015-12-13T07:43:58Z</time>
      </trkpt>
      <trkpt lat="49.03531" lon="1.15097">
        <ele>92.099998</ele>
        <time>2015-12-13T07:44:02Z</time>
      </trkpt>
      <trkpt lat="49.03535" lon="1.15085">
        <ele>93</ele>
        <time>2015-12-13T07:44:06Z</time>
      </trkpt>
      <trkpt lat="49.0354" lon="1.15073">
        <ele>93.800003</ele>
        <time>2015-12-13T07:44:10Z</time>
      </trkpt>
      <trkpt lat="49.03545" lon="1.15061">
        <ele>94.699997</ele>
        <time>2015-12-13T07:44:14Z</time>
      </trkpt>
      <trkpt lat="49.0355" lon="1.15048">
        <ele>95.699997</ele>
        <time>2015-12-13T07:44:18Z</time>
      </trkpt>
      <trkpt lat="49.03555" lon="1.15036">
        <ele>96.5</ele>
        <time>2015-12-13T07:44:22Z</time>
      </trkpt>
      <trkpt lat="49.03561" lon="1.15026">
        <ele>97.599998</ele>
        <time>2015-12-13T07:44:26Z</time>
      </trkpt>
      <trkpt lat="49.03568" lon="1.15016">
        <ele>99.099998</ele>
        <time>2015-12-13T07:44:31Z</time>
      </trkpt>
      <trkpt lat="49.03573" lon="1.15003">
        <ele>100.699997</ele>
        <time>2015-12-13T07:44:36Z</time>
      </trkpt>
      <trkpt lat="49.03578" lon="1.14989">
        <ele>102.300003</ele>
        <time>2015-12-13T07:44:41Z</time>
      </trkpt>
      <trkpt lat="49.03581" lon="1.14976">
        <ele>103.5</ele>
        <time>2015-12-13T07:44:45Z</time>
      </trkpt>
      <trkpt lat="49.03582" lon="1.14961">
        <ele>104.699997</ele>
        <time>2015-12-13T07:44:49Z</time>
      </trkpt>
      <trkpt lat="49.03579" lon="1.14944">
        <ele>105.5</ele>
        <time>2015-12-13T07:44:52Z</time>
      </trkpt>
      <trkpt lat="49.03578" lon="1.14928">
        <ele>106.099998</ele>
        <time>2015-12-13T07:44:55Z</time>
      </trkpt>
      <trkpt lat="49.03577" lon="1.14913">
        <ele>106.699997</ele>
        <time>2015-12-13T07:44:58Z</time>
      </trkpt>
      <trkpt lat="49.03577" lon="1.14899">
        <ele>107.099998</ele>
        <time>2015-12-13T07:45:01Z</time>
      </trkpt>
      <trkpt lat="49.03578" lon="1.14884">
        <ele>107.599998</ele>
        <time>2015-12-13T07:45:05Z</time>
      </trkpt>
      <trkpt lat="49.03582" lon="1.1487">
        <ele>108.599998</ele>
        <time>2015-12-13T07:45:10Z</time>
      </trkpt>
      <trkpt lat="49.03589" lon="1.14861">
        <ele>110.300003</ele>
        <time>2015-12-13T07:45:16Z</time>
      </trkpt>
      <trkpt lat="49.03595" lon="1.1485">
        <ele>112.599998</ele>
        <time>2015-12-13T07:45:23Z</time>
      </trkpt>
      <trkpt lat="49.03599" lon="1.14835">
        <ele>114.599998</ele>
        <time>2015-12-13T07:45:30Z</time>
      </trkpt>
      <trkpt lat="49.03604" lon="1.1482">
        <ele>116.199997</ele>
        <time>2015-12-13T07:45:36Z</time>
      </trkpt>
      <trkpt lat="49.03613" lon="1.14813">
        <ele>117.699997</ele>
        <time>2015-12-13T07:45:43Z</time>
      </trkpt>
      <trkpt lat="49.03623" lon="1.14809">
        <ele>118.800003</ele>
        <time>2015-12-13T07:45:50Z</time>
      </trkpt>
      <trkpt lat="49.03633" lon="1.14805">
        <ele>119.5</ele>
        <time>2015-12-13T07:45:55Z</time>
      </trkpt>
      <trkpt lat="49.03642" lon="1.14801">
        <ele>120</ele>
        <time>2015-12-13T07:45:59Z</time>
      </trkpt>
      <trkpt lat="49.03652" lon="1.14801">
        <ele>120.599998</ele>
        <time>2015-12-13T07:46:03Z</time>
      </trkpt>
      <trkpt lat="49.0366" lon="1.14794">
        <ele>121</ele>
        <time>2015-12-13T07:46:06Z</time>
      </trkpt>
      <trkpt lat="49.03671" lon="1.1479">
        <ele>121.599998</ele>
        <time>2015-12-13T07:46:10Z</time>
      </trkpt>
      <trkpt lat="49.03681" lon="1.14785">
        <ele>122.199997</ele>
        <time>2015-12-13T07:46:14Z</time>
      </trkpt>
      <trkpt lat="49.03689" lon="1.14776">
        <ele>122.599998</ele>
        <time>2015-12-13T07:46:17Z</time>
      </trkpt>
      <trkpt lat="49.03697" lon="1.14769">
        <ele>123.099998</ele>
        <time>2015-12-13T07:46:20Z</time>
      </trkpt>
      <trkpt lat="49.03712" lon="1.14764">
        <ele>123.5</ele>
        <time>2015-12-13T07:46:24Z</time>
      </trkpt>
      <trkpt lat="49.03722" lon="1.14759">
        <ele>123.800003</ele>
        <time>2015-12-13T07:46:27Z</time>
      </trkpt>
      <trkpt lat="49.03732" lon="1.14754">
        <ele>124.099998</ele>
        <time>2015-12-13T07:46:30Z</time>
      </trkpt>
      <trkpt lat="49.03744" lon="1.14751">
        <ele>124.5</ele>
        <time>2015-12-13T07:46:33Z</time>
      </trkpt>
      <trkpt lat="49.03753" lon="1.14743">
        <ele>124.800003</ele>
        <time>2015-12-13T07:46:36Z</time>
      </trkpt>
      <trkpt lat="49.03762" lon="1.14738">
        <ele>125</ele>
        <time>2015-12-13T07:46:38Z</time>
      </trkpt>
      <trkpt lat="49.03772" lon="1.14732">
        <ele>125.300003</ele>
        <time>2015-12-13T07:46:41Z</time>
      </trkpt>
      <trkpt lat="49.0378" lon="1.14726">
        <ele>125.400002</ele>
        <time>2015-12-13T07:46:43Z</time>
      </trkpt>
      <trkpt lat="49.03783" lon="1.14711">
        <ele>125.699997</ele>
        <time>2015-12-13T07:46:46Z</time>
      </trkpt>
      <trkpt lat="49.03787" lon="1.14696">
        <ele>126</ele>
        <time>2015-12-13T07:46:49Z</time>
      </trkpt>
      <trkpt lat="49.03792" lon="1.14683">
        <ele>126.199997</ele>
        <time>2015-12-13T07:46:52Z</time>
      </trkpt>
      <trkpt lat="49.038" lon="1.14666">
        <ele>126.5</ele>
        <time>2015-12-13T07:46:55Z</time>
      </trkpt>
      <trkpt lat="49.03807" lon="1.14656">
        <ele>126.599998</ele>
        <time>2015-12-13T07:46:57Z</time>
      </trkpt>
      <trkpt lat="49.03813" lon="1.1464">
        <ele>126.800003</ele>
        <time>2015-12-13T07:47:00Z</time>
      </trkpt>
      <trkpt lat="49.03817" lon="1.14622">
        <ele>127</ele>
        <time>2015-12-13T07:47:03Z</time>
      </trkpt>
      <trkpt lat="49.03823" lon="1.14603">
        <ele>127.199997</ele>
        <time>2015-12-13T07:47:06Z</time>
      </trkpt>
      <trkpt lat="49.03824" lon="1.14584">
        <ele>127.599998</ele>
        <time>2015-12-13T07:47:09Z</time>
      </trkpt>
      <trkpt lat="49.0383" lon="1.14567">
        <ele>127.800003</ele>
        <time>2015-12-13T07:47:12Z</time>
      </trkpt>
      <trkpt lat="49.03833" lon="1.14546">
        <ele>128.100006</ele>
        <time>2015-12-13T07:47:15Z</time>
      </trkpt>
      <trkpt lat="49.03836" lon="1.14529">
        <ele>128.199997</ele>
        <time>2015-12-13T07:47:18Z</time>
      </trkpt>
      <trkpt lat="49.03841" lon="1.14511">
        <ele>128.399994</ele>
        <time>2015-12-13T07:47:21Z</time>
      </trkpt>
      <trkpt lat="49.03848" lon="1.145">
        <ele>128.5</ele>
        <time>2015-12-13T07:47:23Z</time>
      </trkpt>
      <trkpt lat="49.03848" lon="1.14485">
        <ele>128.699997</ele>
        <time>2015-12-13T07:47:26Z</time>
      </trkpt>
      <trkpt lat="49.03845" lon="1.14467">
        <ele>128.800003</ele>
        <time>2015-12-13T07:47:29Z</time>
      </trkpt>
      <trkpt lat="49.03846" lon="1.1445">
        <ele>129</ele>
        <time>2015-12-13T07:47:32Z</time>
      </trkpt>
      <trkpt lat="49.03847" lon="1.14436">
        <ele>129.199997</ele>
        <time>2015-12-13T07:47:34Z</time>
      </trkpt>
      <trkpt lat="49.03851" lon="1.14416">
        <ele>129.399994</ele>
        <time>2015-12-13T07:47:37Z</time>
      </trkpt>
      <trkpt lat="49.03857" lon="1.14401">
        <ele>129.5</ele>
        <time>2015-12-13T07:47:40Z</time>
      </trkpt>
      <trkpt lat="49.03864" lon="1.1439">
        <ele>129.600006</ele>
        <time>2015-12-13T07:47:42Z</time>
      </trkpt>
      <trkpt lat="49.0387" lon="1.14378">
        <ele>129.699997</ele>
        <time>2015-12-13T07:47:44Z</time>
      </trkpt>
      <trkpt lat="49.03874" lon="1.1436">
        <ele>129.800003</ele>
        <time>2015-12-13T07:47:47Z</time>
      </trkpt>
      <trkpt lat="49.03879" lon="1.14343">
        <ele>129.899994</ele>
        <time>2015-12-13T07:47:50Z</time>
      </trkpt>
      <trkpt lat="49.03881" lon="1.14326">
        <ele>130</ele>
        <time>2015-12-13T07:47:53Z</time>
      </trkpt>
      <trkpt lat="49.03881" lon="1.14309">
        <ele>130</ele>
        <time>2015-12-13T07:47:56Z</time>
      </trkpt>
      <trkpt lat="49.03882" lon="1.14294">
        <ele>130.100006</ele>
        <time>2015-12-13T07:47:58Z</time>
      </trkpt>
      <trkpt lat="49.03878" lon="1.14281">
        <ele>130.199997</ele>
        <time>2015-12-13T07:48:00Z</time>
      </trkpt>
      <trkpt lat="49.03876" lon="1.14263">
        <ele>130.300003</ele>
        <time>2015-12-13T07:48:03Z</time>
      </trkpt>
      <trkpt lat="49.03876" lon="1.14246">
        <ele>130.399994</ele>
        <time>2015-12-13T07:48:06Z</time>
      </trkpt>
      <trkpt lat="49.03879" lon="1.14229">
        <ele>130.5</ele>
        <time>2015-12-13T07:48:09Z</time>
      </trkpt>
      <trkpt lat="49.03888" lon="1.14222">
        <ele>130.600006</ele>
        <time>2015-12-13T07:48:11Z</time>
      </trkpt>
      <trkpt lat="49.03894" lon="1.14213">
        <ele>130.699997</ele>
        <time>2015-12-13T07:48:13Z</time>
      </trkpt>
      <trkpt lat="49.039" lon="1.14202">
        <ele>130.899994</ele>
        <time>2015-12-13T07:48:16Z</time>
      </trkpt>
      <trkpt lat="49.03909" lon="1.14194">
        <ele>131.100006</ele>
        <time>2015-12-13T07:48:19Z</time>
      </trkpt>
      <trkpt lat="49.0392" lon="1.14185">
        <ele>131.199997</ele>
        <time>2015-12-13T07:48:22Z</time>
      </trkpt>
      <trkpt lat="49.03929" lon="1.14184">
        <ele>131.399994</ele>
        <time>2015-12-13T07:48:25Z</time>
      </trkpt>
      <trkpt lat="49.03939" lon="1.14171">
        <ele>131.5</ele>
        <time>2015-12-13T07:48:28Z</time>
      </trkpt>
      <trkpt lat="49.03944" lon="1.14159">
        <ele>131.5</ele>
        <time>2015-12-13T07:48:30Z</time>
      </trkpt>
      <trkpt lat="49.03949" lon="1.14147">
        <ele>131.600006</ele>
        <time>2015-12-13T07:48:32Z</time>
      </trkpt>
      <trkpt lat="49.03956" lon="1.14134">
        <ele>131.600006</ele>
        <time>2015-12-13T07:48:35Z</time>
      </trkpt>
      <trkpt lat="49.03956" lon="1.14118">
        <ele>131.699997</ele>
        <time>2015-12-13T07:48:38Z</time>
      </trkpt>
      <trkpt lat="49.0396" lon="1.14104">
        <ele>131.800003</ele>
        <time>2015-12-13T07:48:41Z</time>
      </trkpt>
      <trkpt lat="49.03968" lon="1.14094">
        <ele>131.800003</ele>
        <time>2015-12-13T07:48:44Z</time>
      </trkpt>
      <trkpt lat="49.03974" lon="1.14083">
        <ele>131.800003</ele>
        <time>2015-12-13T07:48:46Z</time>
      </trkpt>
      <trkpt lat="49.03979" lon="1.14063">
        <ele>131.899994</ele>
        <time>2015-12-13T07:48:49Z</time>
      </trkpt>
      <trkpt lat="49.0398" lon="1.14049">
        <ele>131.899994</ele>
        <time>2015-12-13T07:48:51Z</time>
      </trkpt>
      <trkpt lat="49.03985" lon="1.14035">
        <ele>131.899994</ele>
        <time>2015-12-13T07:48:53Z</time>
      </trkpt>
      <trkpt lat="49.0399" lon="1.14021">
        <ele>132</ele>
        <time>2015-12-13T07:48:56Z</time>
      </trkpt>
      <trkpt lat="49.03994" lon="1.14003">
        <ele>132</ele>
        <time>2015-12-13T07:48:59Z</time>
      </trkpt>
      <trkpt lat="49.04" lon="1.13986">
        <ele>132.100006</ele>
        <time>2015-12-13T07:49:02Z</time>
      </trkpt>
      <trkpt lat="49.04006" lon="1.13969">
        <ele>132.199997</ele>
        <time>2015-12-13T07:49:05Z</time>
      </trkpt>
      <trkpt lat="49.04008" lon="1.13953">
        <ele>132.300003</ele>
        <time>2015-12-13T07:49:08Z</time>
      </trkpt>
      <trkpt lat="49.04016" lon="1.13944">
        <ele>132.399994</ele>
        <time>2015-12-13T07:49:13Z</time>
      </trkpt>
      <trkpt lat="49.04016" lon="1.1393">
        <ele>132.5</ele>
        <time>2015-12-13T07:49:26Z</time>
      </trkpt>
      <trkpt lat="49.04009" lon="1.13921">
        <ele>132.699997</ele>
        <time>2015-12-13T07:50:15Z</time>
      </trkpt>
      <trkpt lat="49.04" lon="1.13913">
        <ele>132.699997</ele>
        <time>2015-12-13T07:50:19Z</time>
      </trkpt>
      <trkpt lat="49.03992" lon="1.13906">
        <ele>132.699997</ele>
        <time>2015-12-13T07:50:21Z</time>
      </trkpt>
      <trkpt lat="49.03984" lon="1.13899">
        <ele>132.699997</ele>
        <time>2015-12-13T07:50:23Z</time>
      </trkpt>
      <trkpt lat="49.03973" lon="1.13888">
        <ele>132.699997</ele>
        <time>2015-12-13T07:50:26Z</time>
      </trkpt>
      <trkpt lat="49.03962" lon="1.13879">
        <ele>132.699997</ele>
        <time>2015-12-13T07:50:29Z</time>
      </trkpt>
      <trkpt lat="49.03954" lon="1.13872">
        <ele>132.699997</ele>
        <time>2015-12-13T07:50:32Z</time>
      </trkpt>
      <trkpt lat="49.03943" lon="1.13864">
        <ele>132.699997</ele>
        <time>2015-12-13T07:50:35Z</time>
      </trkpt>
      <trkpt lat="49.03933" lon="1.13854">
        <ele>132.699997</ele>
        <time>2015-12-13T07:50:38Z</time>
      </trkpt>
      <trkpt lat="49.03921" lon="1.13845">
        <ele>132.699997</ele>
        <time>2015-12-13T07:50:41Z</time>
      </trkpt>
      <trkpt lat="49.03913" lon="1.13838">
        <ele>132.699997</ele>
        <time>2015-12-13T07:50:43Z</time>
      </trkpt>
      <trkpt lat="49.03902" lon="1.13829">
        <ele>132.699997</ele>
        <time>2015-12-13T07:50:46Z</time>
      </trkpt>
      <trkpt lat="49.03892" lon="1.13822">
        <ele>132.800003</ele>
        <time>2015-12-13T07:50:48Z</time>
      </trkpt>
      <trkpt lat="49.03883" lon="1.13813">
        <ele>132.800003</ele>
        <time>2015-12-13T07:50:50Z</time>
      </trkpt>
      <trkpt lat="49.03874" lon="1.13805">
        <ele>132.800003</ele>
        <time>2015-12-13T07:50:52Z</time>
      </trkpt>
      <trkpt lat="49.03864" lon="1.13797">
        <ele>132.800003</ele>
        <time>2015-12-13T07:50:54Z</time>
      </trkpt>
      <trkpt lat="49.03854" lon="1.1379">
        <ele>132.800003</ele>
        <time>2015-12-13T07:50:56Z</time>
      </trkpt>
      <trkpt lat="49.03844" lon="1.13782">
        <ele>132.800003</ele>
        <time>2015-12-13T07:50:58Z</time>
      </trkpt>
      <trkpt lat="49.03832" lon="1.13771">
        <ele>132.800003</ele>
        <time>2015-12-13T07:51:01Z</time>
      </trkpt>
      <trkpt lat="49.03823" lon="1.13764">
        <ele>132.800003</ele>
        <time>2015-12-13T07:51:03Z</time>
      </trkpt>
      <trkpt lat="49.03814" lon="1.13758">
        <ele>132.800003</ele>
        <time>2015-12-13T07:51:05Z</time>
      </trkpt>
      <trkpt lat="49.03806" lon="1.13752">
        <ele>132.800003</ele>
        <time>2015-12-13T07:51:07Z</time>
      </trkpt>
      <trkpt lat="49.03797" lon="1.13745">
        <ele>132.800003</ele>
        <time>2015-12-13T07:51:09Z</time>
      </trkpt>
      <trkpt lat="49.03788" lon="1.13738">
        <ele>132.699997</ele>
        <time>2015-12-13T07:51:11Z</time>
      </trkpt>
      <trkpt lat="49.03777" lon="1.13729">
        <ele>132.699997</ele>
        <time>2015-12-13T07:51:13Z</time>
      </trkpt>
      <trkpt lat="49.03768" lon="1.13721">
        <ele>132.600006</ele>
        <time>2015-12-13T07:51:15Z</time>
      </trkpt>
      <trkpt lat="49.03757" lon="1.13713">
        <ele>132.5</ele>
        <time>2015-12-13T07:51:17Z</time>
      </trkpt>
      <trkpt lat="49.03748" lon="1.13707">
        <ele>132.300003</ele>
        <time>2015-12-13T07:51:19Z</time>
      </trkpt>
      <trkpt lat="49.03738" lon="1.13701">
        <ele>132.100006</ele>
        <time>2015-12-13T07:51:21Z</time>
      </trkpt>
      <trkpt lat="49.03729" lon="1.13695">
        <ele>131.899994</ele>
        <time>2015-12-13T07:51:23Z</time>
      </trkpt>
      <trkpt lat="49.0372" lon="1.13689">
        <ele>131.800003</ele>
        <time>2015-12-13T07:51:25Z</time>
      </trkpt>
      <trkpt lat="49.0371" lon="1.13677">
        <ele>131.5</ele>
        <time>2015-12-13T07:51:28Z</time>
      </trkpt>
      <trkpt lat="49.03708" lon="1.1366">
        <ele>131.199997</ele>
        <time>2015-12-13T07:51:31Z</time>
      </trkpt>
      <trkpt lat="49.03703" lon="1.13643">
        <ele>130.800003</ele>
        <time>2015-12-13T07:51:35Z</time>
      </trkpt>
      <trkpt lat="49.03693" lon="1.13638">
        <ele>130.600006</ele>
        <time>2015-12-13T07:51:37Z</time>
      </trkpt>
      <trkpt lat="49.03683" lon="1.13632">
        <ele>130.399994</ele>
        <time>2015-12-13T07:51:39Z</time>
      </trkpt>
      <trkpt lat="49.03674" lon="1.13626">
        <ele>130.199997</ele>
        <time>2015-12-13T07:51:41Z</time>
      </trkpt>
      <trkpt lat="49.03664" lon="1.13619">
        <ele>130.100006</ele>
        <time>2015-12-13T07:51:43Z</time>
      </trkpt>
      <trkpt lat="49.03654" lon="1.13612">
        <ele>129.899994</ele>
        <time>2015-12-13T07:51:45Z</time>
      </trkpt>
      <trkpt lat="49.03644" lon="1.13605">
        <ele>129.600006</ele>
        <time>2015-12-13T07:51:47Z</time>
      </trkpt>
      <trkpt lat="49.03633" lon="1.13597">
        <ele>129.399994</ele>
        <time>2015-12-13T07:51:49Z</time>
      </trkpt>
      <trkpt lat="49.03623" lon="1.1359">
        <ele>129.100006</ele>
        <time>2015-12-13T07:51:51Z</time>
      </trkpt>
      <trkpt lat="49.03613" lon="1.13583">
        <ele>128.899994</ele>
        <time>2015-12-13T07:51:53Z</time>
      </trkpt>
      <trkpt lat="49.03603" lon="1.13576">
        <ele>128.600006</ele>
        <time>2015-12-13T07:51:55Z</time>
      </trkpt>
      <trkpt lat="49.03595" lon="1.13567">
        <ele>128.399994</ele>
        <time>2015-12-13T07:51:57Z</time>
      </trkpt>
      <trkpt lat="49.03588" lon="1.13556">
        <ele>128.199997</ele>
        <time>2015-12-13T07:51:59Z</time>
      </trkpt>
      <trkpt lat="49.03582" lon="1.13543">
        <ele>128</ele>
        <time>2015-12-13T07:52:01Z</time>
      </trkpt>
      <trkpt lat="49.03575" lon="1.13531">
        <ele>127.900002</ele>
        <time>2015-12-13T07:52:03Z</time>
      </trkpt>
      <trkpt lat="49.03568" lon="1.1352">
        <ele>127.800003</ele>
        <time>2015-12-13T07:52:05Z</time>
      </trkpt>
      <trkpt lat="49.03562" lon="1.13507">
        <ele>127.599998</ele>
        <time>2015-12-13T07:52:07Z</time>
      </trkpt>
      <trkpt lat="49.03555" lon="1.13495">
        <ele>127.5</ele>
        <time>2015-12-13T07:52:09Z</time>
      </trkpt>
      <trkpt lat="49.03549" lon="1.13482">
        <ele>127.5</ele>
        <time>2015-12-13T07:52:11Z</time>
      </trkpt>
      <trkpt lat="49.03542" lon="1.1347">
        <ele>127.400002</ele>
        <time>2015-12-13T07:52:13Z</time>
      </trkpt>
      <trkpt lat="49.03535" lon="1.13457">
        <ele>127.300003</ele>
        <time>2015-12-13T07:52:15Z</time>
      </trkpt>
      <trkpt lat="49.03528" lon="1.13445">
        <ele>127.300003</ele>
        <time>2015-12-13T07:52:17Z</time>
      </trkpt>
      <trkpt lat="49.03522" lon="1.13433">
        <ele>127.199997</ele>
        <time>2015-12-13T07:52:19Z</time>
      </trkpt>
      <trkpt lat="49.03516" lon="1.13422">
        <ele>127.199997</ele>
        <time>2015-12-13T07:52:21Z</time>
      </trkpt>
      <trkpt lat="49.03509" lon="1.13411">
        <ele>127.099998</ele>
        <time>2015-12-13T07:52:23Z</time>
      </trkpt>
      <trkpt lat="49.03503" lon="1.134">
        <ele>127.099998</ele>
        <time>2015-12-13T07:52:25Z</time>
      </trkpt>
      <trkpt lat="49.03497" lon="1.13388">
        <ele>127.099998</ele>
        <time>2015-12-13T07:52:27Z</time>
      </trkpt>
      <trkpt lat="49.03492" lon="1.13376">
        <ele>127.199997</ele>
        <time>2015-12-13T07:52:29Z</time>
      </trkpt>
      <trkpt lat="49.03486" lon="1.13365">
        <ele>127.300003</ele>
        <time>2015-12-13T07:52:31Z</time>
      </trkpt>
      <trkpt lat="49.0348" lon="1.13353">
        <ele>127.400002</ele>
        <time>2015-12-13T07:52:33Z</time>
      </trkpt>
      <trkpt lat="49.03475" lon="1.13342">
        <ele>127.5</ele>
        <time>2015-12-13T07:52:35Z</time>
      </trkpt>
      <trkpt lat="49.03469" lon="1.1333">
        <ele>127.699997</ele>
        <time>2015-12-13T07:52:37Z</time>
      </trkpt>
      <trkpt lat="49.03464" lon="1.13319">
        <ele>127.800003</ele>
        <time>2015-12-13T07:52:39Z</time>
      </trkpt>
      <trkpt lat="49.0346" lon="1.13306">
        <ele>128</ele>
        <time>2015-12-13T07:52:41Z</time>
      </trkpt>
      <trkpt lat="49.03458" lon="1.13292">
        <ele>128.199997</ele>
        <time>2015-12-13T07:52:43Z</time>
      </trkpt>
      <trkpt lat="49.0346" lon="1.13278">
        <ele>128.399994</ele>
        <time>2015-12-13T07:52:45Z</time>
      </trkpt>
      <trkpt lat="49.03465" lon="1.13265">
        <ele>128.600006</ele>
        <time>2015-12-13T07:52:47Z</time>
      </trkpt>
      <trkpt lat="49.03469" lon="1.13252">
        <ele>128.800003</ele>
        <time>2015-12-13T07:52:49Z</time>
      </trkpt>
      <trkpt lat="49.03474" lon="1.13238">
        <ele>128.899994</ele>
        <time>2015-12-13T07:52:51Z</time>
      </trkpt>
      <trkpt lat="49.03478" lon="1.13224">
        <ele>129.100006</ele>
        <time>2015-12-13T07:52:53Z</time>
      </trkpt>
      <trkpt lat="49.03483" lon="1.13209">
        <ele>129.199997</ele>
        <time>2015-12-13T07:52:55Z</time>
      </trkpt>
      <trkpt lat="49.03487" lon="1.13194">
        <ele>129.399994</ele>
        <time>2015-12-13T07:52:57Z</time>
      </trkpt>
      <trkpt lat="49.03491" lon="1.13179">
        <ele>129.5</ele>
        <time>2015-12-13T07:52:59Z</time>
      </trkpt>
      <trkpt lat="49.03494" lon="1.13163">
        <ele>129.600006</ele>
        <time>2015-12-13T07:53:01Z</time>
      </trkpt>
      <trkpt lat="49.03498" lon="1.13147">
        <ele>129.600006</ele>
        <time>2015-12-13T07:53:03Z</time>
      </trkpt>
      <trkpt lat="49.03501" lon="1.13131">
        <ele>129.699997</ele>
        <time>2015-12-13T07:53:05Z</time>
      </trkpt>
      <trkpt lat="49.03504" lon="1.13115">
        <ele>129.800003</ele>
        <time>2015-12-13T07:53:07Z</time>
      </trkpt>
      <trkpt lat="49.03505" lon="1.13098">
        <ele>129.800003</ele>
        <time>2015-12-13T07:53:09Z</time>
      </trkpt>
      <trkpt lat="49.03505" lon="1.13081">
        <ele>129.899994</ele>
        <time>2015-12-13T07:53:11Z</time>
      </trkpt>
      <trkpt lat="49.03502" lon="1.13065">
        <ele>129.899994</ele>
        <time>2015-12-13T07:53:13Z</time>
      </trkpt>
      <trkpt lat="49.03497" lon="1.13051">
        <ele>130</ele>
        <time>2015-12-13T07:53:15Z</time>
      </trkpt>
      <trkpt lat="49.0349" lon="1.13039">
        <ele>130</ele>
        <time>2015-12-13T07:53:17Z</time>
      </trkpt>
      <trkpt lat="49.03483" lon="1.13028">
        <ele>130</ele>
        <time>2015-12-13T07:53:19Z</time>
      </trkpt>
      <trkpt lat="49.03475" lon="1.13019">
        <ele>130.100006</ele>
        <time>2015-12-13T07:53:21Z</time>
      </trkpt>
      <trkpt lat="49.03466" lon="1.1301">
        <ele>130.100006</ele>
        <time>2015-12-13T07:53:23Z</time>
      </trkpt>
      <trkpt lat="49.03458" lon="1.13">
        <ele>130.100006</ele>
        <time>2015-12-13T07:53:25Z</time>
      </trkpt>
      <trkpt lat="49.03449" lon="1.12992">
        <ele>130.100006</ele>
        <time>2015-12-13T07:53:27Z</time>
      </trkpt>
      <trkpt lat="49.03441" lon="1.12982">
        <ele>130.100006</ele>
        <time>2015-12-13T07:53:29Z</time>
      </trkpt>
      <trkpt lat="49.03432" lon="1.12972">
        <ele>130.100006</ele>
        <time>2015-12-13T07:53:31Z</time>
      </trkpt>
      <trkpt lat="49.03424" lon="1.12962">
        <ele>130.199997</ele>
        <time>2015-12-13T07:53:33Z</time>
      </trkpt>
      <trkpt lat="49.03415" lon="1.12953">
        <ele>130.199997</ele>
        <time>2015-12-13T07:53:35Z</time>
      </trkpt>
      <trkpt lat="49.03408" lon="1.1294">
        <ele>130.199997</ele>
        <time>2015-12-13T07:53:37Z</time>
      </trkpt>
      <trkpt lat="49.0341" lon="1.12926">
        <ele>130.199997</ele>
        <time>2015-12-13T07:53:39Z</time>
      </trkpt>
      <trkpt lat="49.03416" lon="1.12914">
        <ele>130.199997</ele>
        <time>2015-12-13T07:53:41Z</time>
      </trkpt>
      <trkpt lat="49.03424" lon="1.12904">
        <ele>130.199997</ele>
        <time>2015-12-13T07:53:43Z</time>
      </trkpt>
      <trkpt lat="49.0343" lon="1.12893">
        <ele>130.199997</ele>
        <time>2015-12-13T07:53:45Z</time>
      </trkpt>
      <trkpt lat="49.03435" lon="1.12875">
        <ele>130.199997</ele>
        <time>2015-12-13T07:53:48Z</time>
      </trkpt>
      <trkpt lat="49.03436" lon="1.12856">
        <ele>130.100006</ele>
        <time>2015-12-13T07:53:51Z</time>
      </trkpt>
      <trkpt lat="49.03437" lon="1.12838">
        <ele>130.100006</ele>
        <time>2015-12-13T07:53:54Z</time>
      </trkpt>
      <trkpt lat="49.03438" lon="1.12819">
        <ele>130.100006</ele>
        <time>2015-12-13T07:53:57Z</time>
      </trkpt>
      <trkpt lat="49.03438" lon="1.12805">
        <ele>130</ele>
        <time>2015-12-13T07:53:59Z</time>
      </trkpt>
      <trkpt lat="49.03442" lon="1.12791">
        <ele>130</ele>
        <time>2015-12-13T07:54:01Z</time>
      </trkpt>
      <trkpt lat="49.03448" lon="1.12779">
        <ele>130</ele>
        <time>2015-12-13T07:54:03Z</time>
      </trkpt>
      <trkpt lat="49.03453" lon="1.12767">
        <ele>129.899994</ele>
        <time>2015-12-13T07:54:05Z</time>
      </trkpt>
      <trkpt lat="49.0346" lon="1.12756">
        <ele>129.800003</ele>
        <time>2015-12-13T07:54:07Z</time>
      </trkpt>
      <trkpt lat="49.03463" lon="1.12742">
        <ele>129.699997</ele>
        <time>2015-12-13T07:54:09Z</time>
      </trkpt>
      <trkpt lat="49.03469" lon="1.1273">
        <ele>129.5</ele>
        <time>2015-12-13T07:54:11Z</time>
      </trkpt>
      <trkpt lat="49.03475" lon="1.12717">
        <ele>129.300003</ele>
        <time>2015-12-13T07:54:13Z</time>
      </trkpt>
      <trkpt lat="49.03482" lon="1.12706">
        <ele>129.100006</ele>
        <time>2015-12-13T07:54:15Z</time>
      </trkpt>
      <trkpt lat="49.03489" lon="1.12695">
        <ele>128.899994</ele>
        <time>2015-12-13T07:54:17Z</time>
      </trkpt>
      <trkpt lat="49.03496" lon="1.12682">
        <ele>128.699997</ele>
        <time>2015-12-13T07:54:19Z</time>
      </trkpt>
      <trkpt lat="49.03506" lon="1.12671">
        <ele>128.399994</ele>
        <time>2015-12-13T07:54:21Z</time>
      </trkpt>
      <trkpt lat="49.03512" lon="1.1266">
        <ele>128.199997</ele>
        <time>2015-12-13T07:54:23Z</time>
      </trkpt>
      <trkpt lat="49.0352" lon="1.12648">
        <ele>128</ele>
        <time>2015-12-13T07:54:25Z</time>
      </trkpt>
      <trkpt lat="49.03529" lon="1.12634">
        <ele>127.699997</ele>
        <time>2015-12-13T07:54:28Z</time>
      </trkpt>
      <trkpt lat="49.03537" lon="1.12624">
        <ele>127.5</ele>
        <time>2015-12-13T07:54:30Z</time>
      </trkpt>
      <trkpt lat="49.03546" lon="1.12612">
        <ele>127.300003</ele>
        <time>2015-12-13T07:54:32Z</time>
      </trkpt>
      <trkpt lat="49.03556" lon="1.12599">
        <ele>127.199997</ele>
        <time>2015-12-13T07:54:34Z</time>
      </trkpt>
      <trkpt lat="49.03561" lon="1.12587">
        <ele>127</ele>
        <time>2015-12-13T07:54:36Z</time>
      </trkpt>
      <trkpt lat="49.03574" lon="1.12578">
        <ele>126.800003</ele>
        <time>2015-12-13T07:54:39Z</time>
      </trkpt>
      <trkpt lat="49.03582" lon="1.12573">
        <ele>126.699997</ele>
        <time>2015-12-13T07:54:41Z</time>
      </trkpt>
      <trkpt lat="49.03594" lon="1.12567">
        <ele>126.699997</ele>
        <time>2015-12-13T07:54:43Z</time>
      </trkpt>
      <trkpt lat="49.03605" lon="1.12559">
        <ele>126.599998</ele>
        <time>2015-12-13T07:54:45Z</time>
      </trkpt>
      <trkpt lat="49.03614" lon="1.12551">
        <ele>126.599998</ele>
        <time>2015-12-13T07:54:47Z</time>
      </trkpt>
      <trkpt lat="49.03622" lon="1.12543">
        <ele>126.5</ele>
        <time>2015-12-13T07:54:49Z</time>
      </trkpt>
      <trkpt lat="49.03631" lon="1.12532">
        <ele>126.5</ele>
        <time>2015-12-13T07:54:51Z</time>
      </trkpt>
      <trkpt lat="49.03637" lon="1.12517">
        <ele>126.5</ele>
        <time>2015-12-13T07:54:53Z</time>
      </trkpt>
      <trkpt lat="49.03643" lon="1.12504">
        <ele>126.400002</ele>
        <time>2015-12-13T07:54:55Z</time>
      </trkpt>
      <trkpt lat="49.03653" lon="1.1249">
        <ele>126.400002</ele>
        <time>2015-12-13T07:54:57Z</time>
      </trkpt>
      <trkpt lat="49.0366" lon="1.12476">
        <ele>126.400002</ele>
        <time>2015-12-13T07:54:59Z</time>
      </trkpt>
      <trkpt lat="49.03667" lon="1.12464">
        <ele>126.400002</ele>
        <time>2015-12-13T07:55:01Z</time>
      </trkpt>
      <trkpt lat="49.03674" lon="1.12451">
        <ele>126.400002</ele>
        <time>2015-12-13T07:55:04Z</time>
      </trkpt>
      <trkpt lat="49.0368" lon="1.12435">
        <ele>126.599998</ele>
        <time>2015-12-13T07:55:07Z</time>
      </trkpt>
      <trkpt lat="49.03685" lon="1.12421">
        <ele>126.900002</ele>
        <time>2015-12-13T07:55:10Z</time>
      </trkpt>
      <trkpt lat="49.03693" lon="1.12414">
        <ele>127.300003</ele>
        <time>2015-12-13T07:55:13Z</time>
      </trkpt>
      <trkpt lat="49.03704" lon="1.12408">
        <ele>127.699997</ele>
        <time>2015-12-13T07:55:16Z</time>
      </trkpt>
      <trkpt lat="49.03714" lon="1.12405">
        <ele>128.199997</ele>
        <time>2015-12-13T07:55:19Z</time>
      </trkpt>
      <trkpt lat="49.03724" lon="1.12402">
        <ele>128.600006</ele>
        <time>2015-12-13T07:55:22Z</time>
      </trkpt>
      <trkpt lat="49.03734" lon="1.12409">
        <ele>129.100006</ele>
        <time>2015-12-13T07:55:25Z</time>
      </trkpt>
      <trkpt lat="49.03743" lon="1.12419">
        <ele>129.5</ele>
        <time>2015-12-13T07:55:28Z</time>
      </trkpt>
      <trkpt lat="49.03752" lon="1.12416">
        <ele>129.899994</ele>
        <time>2015-12-13T07:55:31Z</time>
      </trkpt>
      <trkpt lat="49.03759" lon="1.12404">
        <ele>130.199997</ele>
        <time>2015-12-13T07:55:34Z</time>
      </trkpt>
      <trkpt lat="49.0377" lon="1.12393">
        <ele>130.600006</ele>
        <time>2015-12-13T07:55:37Z</time>
      </trkpt>
      <trkpt lat="49.03776" lon="1.12382">
        <ele>130.899994</ele>
        <time>2015-12-13T07:55:39Z</time>
      </trkpt>
      <trkpt lat="49.03782" lon="1.12367">
        <ele>131.300003</ele>
        <time>2015-12-13T07:55:42Z</time>
      </trkpt>
      <trkpt lat="49.03784" lon="1.12352">
        <ele>131.699997</ele>
        <time>2015-12-13T07:55:45Z</time>
      </trkpt>
      <trkpt lat="49.03786" lon="1.12332">
        <ele>132.100006</ele>
        <time>2015-12-13T07:55:48Z</time>
      </trkpt>
      <trkpt lat="49.03786" lon="1.12313">
        <ele>132.399994</ele>
        <time>2015-12-13T07:55:51Z</time>
      </trkpt>
      <trkpt lat="49.0379" lon="1.12295">
        <ele>132.600006</ele>
        <time>2015-12-13T07:55:54Z</time>
      </trkpt>
      <trkpt lat="49.03796" lon="1.12283">
        <ele>132.800003</ele>
        <time>2015-12-13T07:55:56Z</time>
      </trkpt>
      <trkpt lat="49.03797" lon="1.12265">
        <ele>133.100006</ele>
        <time>2015-12-13T07:55:59Z</time>
      </trkpt>
      <trkpt lat="49.03798" lon="1.12249">
        <ele>133.300003</ele>
        <time>2015-12-13T07:56:02Z</time>
      </trkpt>
      <trkpt lat="49.03802" lon="1.1223">
        <ele>133.5</ele>
        <time>2015-12-13T07:56:05Z</time>
      </trkpt>
      <trkpt lat="49.0381" lon="1.12216">
        <ele>133.600006</ele>
        <time>2015-12-13T07:56:08Z</time>
      </trkpt>
      <trkpt lat="49.03822" lon="1.1221">
        <ele>133.800003</ele>
        <time>2015-12-13T07:56:12Z</time>
      </trkpt>
      <trkpt lat="49.03834" lon="1.12198">
        <ele>133.899994</ele>
        <time>2015-12-13T07:56:15Z</time>
      </trkpt>
      <trkpt lat="49.03841" lon="1.12188">
        <ele>133.899994</ele>
        <time>2015-12-13T07:56:17Z</time>
      </trkpt>
      <trkpt lat="49.0385" lon="1.12173">
        <ele>134</ele>
        <time>2015-12-13T07:56:20Z</time>
      </trkpt>
      <trkpt lat="49.03857" lon="1.12164">
        <ele>134.100006</ele>
        <time>2015-12-13T07:56:22Z</time>
      </trkpt>
      <trkpt lat="49.03864" lon="1.12154">
        <ele>134.100006</ele>
        <time>2015-12-13T07:56:24Z</time>
      </trkpt>
      <trkpt lat="49.03872" lon="1.12145">
        <ele>134.100006</ele>
        <time>2015-12-13T07:56:26Z</time>
      </trkpt>
      <trkpt lat="49.03884" lon="1.12141">
        <ele>134.199997</ele>
        <time>2015-12-13T07:56:29Z</time>
      </trkpt>
      <trkpt lat="49.03896" lon="1.1214">
        <ele>134.300003</ele>
        <time>2015-12-13T07:56:32Z</time>
      </trkpt>
      <trkpt lat="49.03908" lon="1.12137">
        <ele>134.5</ele>
        <time>2015-12-13T07:56:35Z</time>
      </trkpt>
      <trkpt lat="49.03919" lon="1.12132">
        <ele>134.800003</ele>
        <time>2015-12-13T07:56:38Z</time>
      </trkpt>
      <trkpt lat="49.03928" lon="1.12122">
        <ele>135</ele>
        <time>2015-12-13T07:56:41Z</time>
      </trkpt>
      <trkpt lat="49.03934" lon="1.12109">
        <ele>135.100006</ele>
        <time>2015-12-13T07:56:43Z</time>
      </trkpt>
      <trkpt lat="49.03938" lon="1.12091">
        <ele>135.300003</ele>
        <time>2015-12-13T07:56:46Z</time>
      </trkpt>
      <trkpt lat="49.03942" lon="1.12078">
        <ele>135.399994</ele>
        <time>2015-12-13T07:56:48Z</time>
      </trkpt>
      <trkpt lat="49.03946" lon="1.1206">
        <ele>135.600006</ele>
        <time>2015-12-13T07:56:51Z</time>
      </trkpt>
      <trkpt lat="49.03948" lon="1.12044">
        <ele>135.699997</ele>
        <time>2015-12-13T07:56:54Z</time>
      </trkpt>
      <trkpt lat="49.03951" lon="1.12027">
        <ele>135.800003</ele>
        <time>2015-12-13T07:56:57Z</time>
      </trkpt>
      <trkpt lat="49.03954" lon="1.12012">
        <ele>135.699997</ele>
        <time>2015-12-13T07:57:00Z</time>
      </trkpt>
      <trkpt lat="49.03964" lon="1.12022">
        <ele>135.5</ele>
        <time>2015-12-13T07:57:06Z</time>
      </trkpt>
      <trkpt lat="49.0397" lon="1.12032">
        <ele>135.5</ele>
        <time>2015-12-13T07:57:09Z</time>
      </trkpt>
      <trkpt lat="49.03978" lon="1.12042">
        <ele>135.5</ele>
        <time>2015-12-13T07:57:12Z</time>
      </trkpt>
      <trkpt lat="49.03987" lon="1.12051">
        <ele>135.699997</ele>
        <time>2015-12-13T07:57:15Z</time>
      </trkpt>
      <trkpt lat="49.03996" lon="1.12057">
        <ele>135.699997</ele>
        <time>2015-12-13T07:57:17Z</time>
      </trkpt>
      <trkpt lat="49.04006" lon="1.12065">
        <ele>135.899994</ele>
        <time>2015-12-13T07:57:20Z</time>
      </trkpt>
      <trkpt lat="49.04015" lon="1.12061">
        <ele>136.199997</ele>
        <time>2015-12-13T07:57:24Z</time>
      </trkpt>
      <trkpt lat="49.04023" lon="1.12048">
        <ele>136.399994</ele>
        <time>2015-12-13T07:57:27Z</time>
      </trkpt>
      <trkpt lat="49.04032" lon="1.12033">
        <ele>136.600006</ele>
        <time>2015-12-13T07:57:30Z</time>
      </trkpt>
      <trkpt lat="49.04038" lon="1.12016">
        <ele>136.699997</ele>
        <time>2015-12-13T07:57:33Z</time>
      </trkpt>
      <trkpt lat="49.04043" lon="1.12003">
        <ele>136.899994</ele>
        <time>2015-12-13T07:57:35Z</time>
      </trkpt>
      <trkpt lat="49.04048" lon="1.11989">
        <ele>137</ele>
        <time>2015-12-13T07:57:37Z</time>
      </trkpt>
      <trkpt lat="49.04052" lon="1.11975">
        <ele>137.100006</ele>
        <time>2015-12-13T07:57:39Z</time>
      </trkpt>
      <trkpt lat="49.04058" lon="1.11962">
        <ele>137.199997</ele>
        <time>2015-12-13T07:57:41Z</time>
      </trkpt>
      <trkpt lat="49.04062" lon="1.11948">
        <ele>137.199997</ele>
        <time>2015-12-13T07:57:43Z</time>
      </trkpt>
      <trkpt lat="49.04069" lon="1.11936">
        <ele>137.300003</ele>
        <time>2015-12-13T07:57:45Z</time>
      </trkpt>
      <trkpt lat="49.04077" lon="1.11922">
        <ele>137.300003</ele>
        <time>2015-12-13T07:57:47Z</time>
      </trkpt>
      <trkpt lat="49.04084" lon="1.11909">
        <ele>137.199997</ele>
        <time>2015-12-13T07:57:49Z</time>
      </trkpt>
      <trkpt lat="49.04094" lon="1.11908">
        <ele>136.800003</ele>
        <time>2015-12-13T07:57:53Z</time>
      </trkpt>
      <trkpt lat="49.041" lon="1.11921">
        <ele>136.5</ele>
        <time>2015-12-13T07:57:56Z</time>
      </trkpt>
      <trkpt lat="49.04102" lon="1.11937">
        <ele>136.399994</ele>
        <time>2015-12-13T07:57:59Z</time>
      </trkpt>
      <trkpt lat="49.04103" lon="1.11955">
        <ele>136.399994</ele>
        <time>2015-12-13T07:58:02Z</time>
      </trkpt>
      <trkpt lat="49.04107" lon="1.11971">
        <ele>136.399994</ele>
        <time>2015-12-13T07:58:05Z</time>
      </trkpt>
      <trkpt lat="49.0411" lon="1.11986">
        <ele>136.5</ele>
        <time>2015-12-13T07:58:08Z</time>
      </trkpt>
      <trkpt lat="49.04116" lon="1.12">
        <ele>136.600006</ele>
        <time>2015-12-13T07:58:11Z</time>
      </trkpt>
      <trkpt lat="49.04123" lon="1.12017">
        <ele>136.699997</ele>
        <time>2015-12-13T07:58:14Z</time>
      </trkpt>
      <trkpt lat="49.04127" lon="1.12035">
        <ele>136.800003</ele>
        <time>2015-12-13T07:58:17Z</time>
      </trkpt>
      <trkpt lat="49.0413" lon="1.1205">
        <ele>137</ele>
        <time>2015-12-13T07:58:20Z</time>
      </trkpt>
      <trkpt lat="49.04137" lon="1.12063">
        <ele>137.199997</ele>
        <time>2015-12-13T07:58:23Z</time>
      </trkpt>
      <trkpt lat="49.04142" lon="1.12076">
        <ele>137.399994</ele>
        <time>2015-12-13T07:58:26Z</time>
      </trkpt>
      <trkpt lat="49.04147" lon="1.1209">
        <ele>137.699997</ele>
        <time>2015-12-13T07:58:29Z</time>
      </trkpt>
      <trkpt lat="49.04155" lon="1.12101">
        <ele>137.899994</ele>
        <time>2015-12-13T07:58:32Z</time>
      </trkpt>
      <trkpt lat="49.04159" lon="1.12114">
        <ele>138.199997</ele>
        <time>2015-12-13T07:58:35Z</time>
      </trkpt>
      <trkpt lat="49.04164" lon="1.12132">
        <ele>138.600006</ele>
        <time>2015-12-13T07:58:39Z</time>
      </trkpt>
      <trkpt lat="49.04168" lon="1.1215">
        <ele>138.899994</ele>
        <time>2015-12-13T07:58:42Z</time>
      </trkpt>
      <trkpt lat="49.04177" lon="1.12157">
        <ele>139.100006</ele>
        <time>2015-12-13T07:58:45Z</time>
      </trkpt>
      <trkpt lat="49.04188" lon="1.12152">
        <ele>139.399994</ele>
        <time>2015-12-13T07:58:49Z</time>
      </trkpt>
      <trkpt lat="49.04197" lon="1.12158">
        <ele>139.600006</ele>
        <time>2015-12-13T07:58:52Z</time>
      </trkpt>
      <trkpt lat="49.04204" lon="1.1217">
        <ele>139.699997</ele>
        <time>2015-12-13T07:58:55Z</time>
      </trkpt>
      <trkpt lat="49.0421" lon="1.12184">
        <ele>139.800003</ele>
        <time>2015-12-13T07:58:58Z</time>
      </trkpt>
      <trkpt lat="49.04218" lon="1.12194">
        <ele>139.899994</ele>
        <time>2015-12-13T07:59:01Z</time>
      </trkpt>
      <trkpt lat="49.04226" lon="1.12209">
        <ele>140</ele>
        <time>2015-12-13T07:59:04Z</time>
      </trkpt>
      <trkpt lat="49.04231" lon="1.12227">
        <ele>140.100006</ele>
        <time>2015-12-13T07:59:07Z</time>
      </trkpt>
      <trkpt lat="49.04233" lon="1.12242">
        <ele>140.100006</ele>
        <time>2015-12-13T07:59:10Z</time>
      </trkpt>
      <trkpt lat="49.04236" lon="1.12259">
        <ele>140.199997</ele>
        <time>2015-12-13T07:59:13Z</time>
      </trkpt>
      <trkpt lat="49.04242" lon="1.12276">
        <ele>140.300003</ele>
        <time>2015-12-13T07:59:16Z</time>
      </trkpt>
      <trkpt lat="49.04247" lon="1.12289">
        <ele>140.399994</ele>
        <time>2015-12-13T07:59:18Z</time>
      </trkpt>
      <trkpt lat="49.04252" lon="1.12308">
        <ele>140.5</ele>
        <time>2015-12-13T07:59:21Z</time>
      </trkpt>
      <trkpt lat="49.04255" lon="1.12323">
        <ele>140.600006</ele>
        <time>2015-12-13T07:59:23Z</time>
      </trkpt>
      <trkpt lat="49.04257" lon="1.12339">
        <ele>140.699997</ele>
        <time>2015-12-13T07:59:25Z</time>
      </trkpt>
      <trkpt lat="49.04257" lon="1.12353">
        <ele>140.699997</ele>
        <time>2015-12-13T07:59:27Z</time>
      </trkpt>
      <trkpt lat="49.0426" lon="1.12372">
        <ele>140.800003</ele>
        <time>2015-12-13T07:59:30Z</time>
      </trkpt>
      <trkpt lat="49.04269" lon="1.12366">
        <ele>140.899994</ele>
        <time>2015-12-13T07:59:34Z</time>
      </trkpt>
      <trkpt lat="49.04279" lon="1.12361">
        <ele>140.899994</ele>
        <time>2015-12-13T07:59:36Z</time>
      </trkpt>
      <trkpt lat="49.04287" lon="1.12357">
        <ele>140.899994</ele>
        <time>2015-12-13T07:59:38Z</time>
      </trkpt>
      <trkpt lat="49.04298" lon="1.12347">
        <ele>141</ele>
        <time>2015-12-13T07:59:41Z</time>
      </trkpt>
      <trkpt lat="49.04309" lon="1.12334">
        <ele>141</ele>
        <time>2015-12-13T07:59:44Z</time>
      </trkpt>
      <trkpt lat="49.04316" lon="1.12322">
        <ele>141</ele>
        <time>2015-12-13T07:59:46Z</time>
      </trkpt>
      <trkpt lat="49.04322" lon="1.12306">
        <ele>141</ele>
        <time>2015-12-13T07:59:49Z</time>
      </trkpt>
      <trkpt lat="49.04325" lon="1.12287">
        <ele>140.899994</ele>
        <time>2015-12-13T07:59:52Z</time>
      </trkpt>
      <trkpt lat="49.04329" lon="1.12268">
        <ele>140.800003</ele>
        <time>2015-12-13T07:59:55Z</time>
      </trkpt>
      <trkpt lat="49.04333" lon="1.12255">
        <ele>140.699997</ele>
        <time>2015-12-13T07:59:57Z</time>
      </trkpt>
      <trkpt lat="49.04337" lon="1.12241">
        <ele>140.5</ele>
        <time>2015-12-13T07:59:59Z</time>
      </trkpt>
      <trkpt lat="49.0434" lon="1.12226">
        <ele>140.300003</ele>
        <time>2015-12-13T08:00:01Z</time>
      </trkpt>
      <trkpt lat="49.04344" lon="1.12205">
        <ele>140</ele>
        <time>2015-12-13T08:00:04Z</time>
      </trkpt>
      <trkpt lat="49.04346" lon="1.12188">
        <ele>139.800003</ele>
        <time>2015-12-13T08:00:06Z</time>
      </trkpt>
      <trkpt lat="49.04349" lon="1.12172">
        <ele>139.699997</ele>
        <time>2015-12-13T08:00:08Z</time>
      </trkpt>
      <trkpt lat="49.04352" lon="1.12156">
        <ele>139.5</ele>
        <time>2015-12-13T08:00:10Z</time>
      </trkpt>
      <trkpt lat="49.04355" lon="1.1214">
        <ele>139.199997</ele>
        <time>2015-12-13T08:00:12Z</time>
      </trkpt>
      <trkpt lat="49.04355" lon="1.12123">
        <ele>138.899994</ele>
        <time>2015-12-13T08:00:14Z</time>
      </trkpt>
      <trkpt lat="49.04352" lon="1.12105">
        <ele>138.699997</ele>
        <time>2015-12-13T08:00:16Z</time>
      </trkpt>
      <trkpt lat="49.04349" lon="1.12089">
        <ele>138.100006</ele>
        <time>2015-12-13T08:00:18Z</time>
      </trkpt>
      <trkpt lat="49.04345" lon="1.12075">
        <ele>137.600006</ele>
        <time>2015-12-13T08:00:20Z</time>
      </trkpt>
      <trkpt lat="49.04341" lon="1.12058">
        <ele>137.199997</ele>
        <time>2015-12-13T08:00:22Z</time>
      </trkpt>
      <trkpt lat="49.04336" lon="1.12042">
        <ele>136.899994</ele>
        <time>2015-12-13T08:00:24Z</time>
      </trkpt>
      <trkpt lat="49.04331" lon="1.12029">
        <ele>136.600006</ele>
        <time>2015-12-13T08:00:26Z</time>
      </trkpt>
      <trkpt lat="49.04321" lon="1.12014">
        <ele>136.199997</ele>
        <time>2015-12-13T08:00:29Z</time>
      </trkpt>
      <trkpt lat="49.0431" lon="1.12016">
        <ele>136</ele>
        <time>2015-12-13T08:00:32Z</time>
      </trkpt>
      <trkpt lat="49.04301" lon="1.12024">
        <ele>135.699997</ele>
        <time>2015-12-13T08:00:35Z</time>
      </trkpt>
      <trkpt lat="49.04293" lon="1.1203">
        <ele>135.600006</ele>
        <time>2015-12-13T08:00:38Z</time>
      </trkpt>
      <trkpt lat="49.04284" lon="1.1204">
        <ele>135.699997</ele>
        <time>2015-12-13T08:00:41Z</time>
      </trkpt>
      <trkpt lat="49.04275" lon="1.12052">
        <ele>136</ele>
        <time>2015-12-13T08:00:44Z</time>
      </trkpt>
      <trkpt lat="49.04267" lon="1.12062">
        <ele>136.199997</ele>
        <time>2015-12-13T08:00:47Z</time>
      </trkpt>
      <trkpt lat="49.04257" lon="1.12073">
        <ele>136.399994</ele>
        <time>2015-12-13T08:00:50Z</time>
      </trkpt>
      <trkpt lat="49.04246" lon="1.12084">
        <ele>136.699997</ele>
        <time>2015-12-13T08:00:53Z</time>
      </trkpt>
      <trkpt lat="49.04238" lon="1.12091">
        <ele>136.899994</ele>
        <time>2015-12-13T08:00:55Z</time>
      </trkpt>
      <trkpt lat="49.04226" lon="1.12095">
        <ele>137.300003</ele>
        <time>2015-12-13T08:00:58Z</time>
      </trkpt>
      <trkpt lat="49.04216" lon="1.12083">
        <ele>137.699997</ele>
        <time>2015-12-13T08:01:02Z</time>
      </trkpt>
      <trkpt lat="49.04206" lon="1.12069">
        <ele>138</ele>
        <time>2015-12-13T08:01:05Z</time>
      </trkpt>
      <trkpt lat="49.04199" lon="1.1206">
        <ele>138.100006</ele>
        <time>2015-12-13T08:01:07Z</time>
      </trkpt>
      <trkpt lat="49.04189" lon="1.12044">
        <ele>138.300003</ele>
        <time>2015-12-13T08:01:10Z</time>
      </trkpt>
      <trkpt lat="49.04183" lon="1.12033">
        <ele>138.5</ele>
        <time>2015-12-13T08:01:12Z</time>
      </trkpt>
      <trkpt lat="49.04175" lon="1.1202">
        <ele>138.5</ele>
        <time>2015-12-13T08:01:14Z</time>
      </trkpt>
      <trkpt lat="49.04167" lon="1.12008">
        <ele>138.600006</ele>
        <time>2015-12-13T08:01:16Z</time>
      </trkpt>
      <trkpt lat="49.04159" lon="1.11996">
        <ele>138.600006</ele>
        <time>2015-12-13T08:01:18Z</time>
      </trkpt>
      <trkpt lat="49.04153" lon="1.11985">
        <ele>138.5</ele>
        <time>2015-12-13T08:01:20Z</time>
      </trkpt>
      <trkpt lat="49.04159" lon="1.11974">
        <ele>138</ele>
        <time>2015-12-13T08:01:27Z</time>
      </trkpt>
      <trkpt lat="49.0417" lon="1.11973">
        <ele>137.899994</ele>
        <time>2015-12-13T08:01:30Z</time>
      </trkpt>
      <trkpt lat="49.04181" lon="1.11966">
        <ele>137.699997</ele>
        <time>2015-12-13T08:01:33Z</time>
      </trkpt>
      <trkpt lat="49.04187" lon="1.11955">
        <ele>137.699997</ele>
        <time>2015-12-13T08:01:35Z</time>
      </trkpt>
      <trkpt lat="49.04194" lon="1.1194">
        <ele>137.5</ele>
        <time>2015-12-13T08:01:38Z</time>
      </trkpt>
      <trkpt lat="49.04203" lon="1.11925">
        <ele>137.300003</ele>
        <time>2015-12-13T08:01:41Z</time>
      </trkpt>
      <trkpt lat="49.04211" lon="1.11916">
        <ele>137.199997</ele>
        <time>2015-12-13T08:01:43Z</time>
      </trkpt>
      <trkpt lat="49.04223" lon="1.11908">
        <ele>137</ele>
        <time>2015-12-13T08:01:46Z</time>
      </trkpt>
      <trkpt lat="49.04235" lon="1.119">
        <ele>136.699997</ele>
        <time>2015-12-13T08:01:49Z</time>
      </trkpt>
      <trkpt lat="49.04242" lon="1.11893">
        <ele>136.5</ele>
        <time>2015-12-13T08:01:51Z</time>
      </trkpt>
      <trkpt lat="49.04249" lon="1.1188">
        <ele>136.300003</ele>
        <time>2015-12-13T08:01:53Z</time>
      </trkpt>
      <trkpt lat="49.04255" lon="1.11867">
        <ele>136</ele>
        <time>2015-12-13T08:01:56Z</time>
      </trkpt>
      <trkpt lat="49.04259" lon="1.11848">
        <ele>135.600006</ele>
        <time>2015-12-13T08:01:59Z</time>
      </trkpt>
      <trkpt lat="49.04261" lon="1.11834">
        <ele>135.300003</ele>
        <time>2015-12-13T08:02:01Z</time>
      </trkpt>
      <trkpt lat="49.04264" lon="1.1182">
        <ele>135.100006</ele>
        <time>2015-12-13T08:02:03Z</time>
      </trkpt>
      <trkpt lat="49.0427" lon="1.11808">
        <ele>134.800003</ele>
        <time>2015-12-13T08:02:05Z</time>
      </trkpt>
      <trkpt lat="49.04279" lon="1.11792">
        <ele>134.399994</ele>
        <time>2015-12-13T08:02:08Z</time>
      </trkpt>
      <trkpt lat="49.04286" lon="1.11782">
        <ele>134.100006</ele>
        <time>2015-12-13T08:02:10Z</time>
      </trkpt>
      <trkpt lat="49.04293" lon="1.11771">
        <ele>133.699997</ele>
        <time>2015-12-13T08:02:12Z</time>
      </trkpt>
      <trkpt lat="49.04297" lon="1.11756">
        <ele>133.399994</ele>
        <time>2015-12-13T08:02:14Z</time>
      </trkpt>
      <trkpt lat="49.04293" lon="1.11739">
        <ele>132.899994</ele>
        <time>2015-12-13T08:02:17Z</time>
      </trkpt>
      <trkpt lat="49.04284" lon="1.11726">
        <ele>132.600006</ele>
        <time>2015-12-13T08:02:20Z</time>
      </trkpt>
      <trkpt lat="49.04277" lon="1.11709">
        <ele>132.300003</ele>
        <time>2015-12-13T08:02:23Z</time>
      </trkpt>
      <trkpt lat="49.04269" lon="1.11694">
        <ele>132</ele>
        <time>2015-12-13T08:02:26Z</time>
      </trkpt>
      <trkpt lat="49.04264" lon="1.11683">
        <ele>131.899994</ele>
        <time>2015-12-13T08:02:28Z</time>
      </trkpt>
      <trkpt lat="49.04258" lon="1.11671">
        <ele>131.800003</ele>
        <time>2015-12-13T08:02:30Z</time>
      </trkpt>
      <trkpt lat="49.04252" lon="1.11654">
        <ele>131.600006</ele>
        <time>2015-12-13T08:02:33Z</time>
      </trkpt>
      <trkpt lat="49.04258" lon="1.11636">
        <ele>131.5</ele>
        <time>2015-12-13T08:02:36Z</time>
      </trkpt>
      <trkpt lat="49.04265" lon="1.11617">
        <ele>131.399994</ele>
        <time>2015-12-13T08:02:39Z</time>
      </trkpt>
      <trkpt lat="49.04268" lon="1.11601">
        <ele>131.300003</ele>
        <time>2015-12-13T08:02:41Z</time>
      </trkpt>
      <trkpt lat="49.04271" lon="1.11587">
        <ele>131.300003</ele>
        <time>2015-12-13T08:02:43Z</time>
      </trkpt>
      <trkpt lat="49.04275" lon="1.11571">
        <ele>131.199997</ele>
        <time>2015-12-13T08:02:45Z</time>
      </trkpt>
      <trkpt lat="49.04281" lon="1.11556">
        <ele>131.100006</ele>
        <time>2015-12-13T08:02:47Z</time>
      </trkpt>
      <trkpt lat="49.04284" lon="1.1154">
        <ele>130.899994</ele>
        <time>2015-12-13T08:02:49Z</time>
      </trkpt>
      <trkpt lat="49.04285" lon="1.11522">
        <ele>130.600006</ele>
        <time>2015-12-13T08:02:52Z</time>
      </trkpt>
      <trkpt lat="49.04278" lon="1.11507">
        <ele>130.300003</ele>
        <time>2015-12-13T08:02:55Z</time>
      </trkpt>
      <trkpt lat="49.04269" lon="1.11506">
        <ele>130.100006</ele>
        <time>2015-12-13T08:02:58Z</time>
      </trkpt>
      <trkpt lat="49.04261" lon="1.11498">
        <ele>130</ele>
        <time>2015-12-13T08:03:01Z</time>
      </trkpt>
      <trkpt lat="49.04251" lon="1.11487">
        <ele>129.800003</ele>
        <time>2015-12-13T08:03:05Z</time>
      </trkpt>
      <trkpt lat="49.04242" lon="1.11496">
        <ele>129.699997</ele>
        <time>2015-12-13T08:03:09Z</time>
      </trkpt>
      <trkpt lat="49.04233" lon="1.11507">
        <ele>129.800003</ele>
        <time>2015-12-13T08:03:12Z</time>
      </trkpt>
      <trkpt lat="49.04225" lon="1.1152">
        <ele>130</ele>
        <time>2015-12-13T08:03:15Z</time>
      </trkpt>
      <trkpt lat="49.04216" lon="1.11534">
        <ele>130.300003</ele>
        <time>2015-12-13T08:03:18Z</time>
      </trkpt>
      <trkpt lat="49.04211" lon="1.11545">
        <ele>130.5</ele>
        <time>2015-12-13T08:03:20Z</time>
      </trkpt>
      <trkpt lat="49.04204" lon="1.11555">
        <ele>130.600006</ele>
        <time>2015-12-13T08:03:22Z</time>
      </trkpt>
      <trkpt lat="49.04194" lon="1.11555">
        <ele>130.800003</ele>
        <time>2015-12-13T08:03:24Z</time>
      </trkpt>
      <trkpt lat="49.04185" lon="1.11551">
        <ele>131.100006</ele>
        <time>2015-12-13T08:03:27Z</time>
      </trkpt>
      <trkpt lat="49.04175" lon="1.11542">
        <ele>131.5</ele>
        <time>2015-12-13T08:03:31Z</time>
      </trkpt>
      <trkpt lat="49.04168" lon="1.11527">
        <ele>131.800003</ele>
        <time>2015-12-13T08:03:34Z</time>
      </trkpt>
      <trkpt lat="49.04168" lon="1.11507">
        <ele>132.100006</ele>
        <time>2015-12-13T08:03:37Z</time>
      </trkpt>
      <trkpt lat="49.04167" lon="1.11488">
        <ele>132.300003</ele>
        <time>2015-12-13T08:03:40Z</time>
      </trkpt>
      <trkpt lat="49.04167" lon="1.11473">
        <ele>132.399994</ele>
        <time>2015-12-13T08:03:42Z</time>
      </trkpt>
      <trkpt lat="49.04165" lon="1.11457">
        <ele>132.600006</ele>
        <time>2015-12-13T08:03:44Z</time>
      </trkpt>
      <trkpt lat="49.04167" lon="1.11443">
        <ele>132.699997</ele>
        <time>2015-12-13T08:03:46Z</time>
      </trkpt>
      <trkpt lat="49.0417" lon="1.1143">
        <ele>132.800003</ele>
        <time>2015-12-13T08:03:48Z</time>
      </trkpt>
      <trkpt lat="49.04175" lon="1.11414">
        <ele>132.800003</ele>
        <time>2015-12-13T08:03:50Z</time>
      </trkpt>
      <trkpt lat="49.04183" lon="1.11401">
        <ele>132.899994</ele>
        <time>2015-12-13T08:03:52Z</time>
      </trkpt>
      <trkpt lat="49.04186" lon="1.11387">
        <ele>133</ele>
        <time>2015-12-13T08:03:54Z</time>
      </trkpt>
      <trkpt lat="49.0419" lon="1.11373">
        <ele>133</ele>
        <time>2015-12-13T08:03:56Z</time>
      </trkpt>
      <trkpt lat="49.04191" lon="1.11356">
        <ele>133.100006</ele>
        <time>2015-12-13T08:03:58Z</time>
      </trkpt>
      <trkpt lat="49.04195" lon="1.11338">
        <ele>133.100006</ele>
        <time>2015-12-13T08:04:00Z</time>
      </trkpt>
      <trkpt lat="49.04198" lon="1.11321">
        <ele>133</ele>
        <time>2015-12-13T08:04:02Z</time>
      </trkpt>
      <trkpt lat="49.04202" lon="1.11303">
        <ele>133</ele>
        <time>2015-12-13T08:04:04Z</time>
      </trkpt>
      <trkpt lat="49.04205" lon="1.11287">
        <ele>132.899994</ele>
        <time>2015-12-13T08:04:06Z</time>
      </trkpt>
      <trkpt lat="49.04208" lon="1.1127">
        <ele>132.800003</ele>
        <time>2015-12-13T08:04:08Z</time>
      </trkpt>
      <trkpt lat="49.04211" lon="1.11252">
        <ele>132.699997</ele>
        <time>2015-12-13T08:04:10Z</time>
      </trkpt>
      <trkpt lat="49.04214" lon="1.11233">
        <ele>132.5</ele>
        <time>2015-12-13T08:04:12Z</time>
      </trkpt>
      <trkpt lat="49.04215" lon="1.11219">
        <ele>132.300003</ele>
        <time>2015-12-13T08:04:14Z</time>
      </trkpt>
      <trkpt lat="49.04211" lon="1.11203">
        <ele>132.100006</ele>
        <time>2015-12-13T08:04:16Z</time>
      </trkpt>
      <trkpt lat="49.04206" lon="1.11189">
        <ele>131.899994</ele>
        <time>2015-12-13T08:04:18Z</time>
      </trkpt>
      <trkpt lat="49.04198" lon="1.11182">
        <ele>131.699997</ele>
        <time>2015-12-13T08:04:20Z</time>
      </trkpt>
      <trkpt lat="49.04189" lon="1.11176">
        <ele>131.399994</ele>
        <time>2015-12-13T08:04:23Z</time>
      </trkpt>
      <trkpt lat="49.04181" lon="1.11164">
        <ele>131.100006</ele>
        <time>2015-12-13T08:04:26Z</time>
      </trkpt>
      <trkpt lat="49.04172" lon="1.11153">
        <ele>130.600006</ele>
        <time>2015-12-13T08:04:29Z</time>
      </trkpt>
      <trkpt lat="49.04164" lon="1.11138">
        <ele>129.699997</ele>
        <time>2015-12-13T08:04:32Z</time>
      </trkpt>
      <trkpt lat="49.04157" lon="1.11128">
        <ele>128.800003</ele>
        <time>2015-12-13T08:04:34Z</time>
      </trkpt>
      <trkpt lat="49.04148" lon="1.11115">
        <ele>127.199997</ele>
        <time>2015-12-13T08:04:37Z</time>
      </trkpt>
      <trkpt lat="49.04142" lon="1.11105">
        <ele>125.199997</ele>
        <time>2015-12-13T08:04:40Z</time>
      </trkpt>
      <trkpt lat="49.04133" lon="1.11094">
        <ele>121.599998</ele>
        <time>2015-12-13T08:04:45Z</time>
      </trkpt>
      <trkpt lat="49.04125" lon="1.11082">
        <ele>118.400002</ele>
        <time>2015-12-13T08:04:49Z</time>
      </trkpt>
      <trkpt lat="49.04117" lon="1.11076">
        <ele>116.599998</ele>
        <time>2015-12-13T08:04:51Z</time>
      </trkpt>
      <trkpt lat="49.04107" lon="1.11072">
        <ele>115</ele>
        <time>2015-12-13T08:04:53Z</time>
      </trkpt>
      <trkpt lat="49.04097" lon="1.11071">
        <ele>113</ele>
        <time>2015-12-13T08:04:56Z</time>
      </trkpt>
      <trkpt lat="49.04087" lon="1.11068">
        <ele>111.300003</ele>
        <time>2015-12-13T08:04:59Z</time>
      </trkpt>
      <trkpt lat="49.04078" lon="1.11068">
        <ele>110.300003</ele>
        <time>2015-12-13T08:05:01Z</time>
      </trkpt>
      <trkpt lat="49.04067" lon="1.11067">
        <ele>109.400002</ele>
        <time>2015-12-13T08:05:03Z</time>
      </trkpt>
      <trkpt lat="49.04054" lon="1.11068">
        <ele>108.599998</ele>
        <time>2015-12-13T08:05:05Z</time>
      </trkpt>
      <trkpt lat="49.04043" lon="1.11069">
        <ele>107.900002</ele>
        <time>2015-12-13T08:05:07Z</time>
      </trkpt>
      <trkpt lat="49.04031" lon="1.11069">
        <ele>107.300003</ele>
        <time>2015-12-13T08:05:09Z</time>
      </trkpt>
      <trkpt lat="49.04019" lon="1.11073">
        <ele>106.699997</ele>
        <time>2015-12-13T08:05:11Z</time>
      </trkpt>
      <trkpt lat="49.04007" lon="1.11075">
        <ele>106.099998</ele>
        <time>2015-12-13T08:05:13Z</time>
      </trkpt>
      <trkpt lat="49.03996" lon="1.11076">
        <ele>105.599998</ele>
        <time>2015-12-13T08:05:15Z</time>
      </trkpt>
      <trkpt lat="49.03984" lon="1.11075">
        <ele>105.199997</ele>
        <time>2015-12-13T08:05:17Z</time>
      </trkpt>
      <trkpt lat="49.03973" lon="1.11076">
        <ele>104.800003</ele>
        <time>2015-12-13T08:05:19Z</time>
      </trkpt>
      <trkpt lat="49.0396" lon="1.11076">
        <ele>104.5</ele>
        <time>2015-12-13T08:05:21Z</time>
      </trkpt>
      <trkpt lat="49.03948" lon="1.11077">
        <ele>104.099998</ele>
        <time>2015-12-13T08:05:23Z</time>
      </trkpt>
      <trkpt lat="49.03936" lon="1.11076">
        <ele>103.800003</ele>
        <time>2015-12-13T08:05:25Z</time>
      </trkpt>
      <trkpt lat="49.03926" lon="1.11077">
        <ele>103.5</ele>
        <time>2015-12-13T08:05:27Z</time>
      </trkpt>
      <trkpt lat="49.03914" lon="1.11077">
        <ele>103.300003</ele>
        <time>2015-12-13T08:05:29Z</time>
      </trkpt>
      <trkpt lat="49.03902" lon="1.11076">
        <ele>103</ele>
        <time>2015-12-13T08:05:31Z</time>
      </trkpt>
      <trkpt lat="49.0389" lon="1.11076">
        <ele>102.800003</ele>
        <time>2015-12-13T08:05:33Z</time>
      </trkpt>
      <trkpt lat="49.03879" lon="1.11082">
        <ele>102.599998</ele>
        <time>2015-12-13T08:05:35Z</time>
      </trkpt>
      <trkpt lat="49.03873" lon="1.11093">
        <ele>102.5</ele>
        <time>2015-12-13T08:05:37Z</time>
      </trkpt>
      <trkpt lat="49.03866" lon="1.11105">
        <ele>102.300003</ele>
        <time>2015-12-13T08:05:39Z</time>
      </trkpt>
      <trkpt lat="49.03856" lon="1.11118">
        <ele>102.199997</ele>
        <time>2015-12-13T08:05:41Z</time>
      </trkpt>
      <trkpt lat="49.03847" lon="1.11131">
        <ele>102.099998</ele>
        <time>2015-12-13T08:05:43Z</time>
      </trkpt>
      <trkpt lat="49.03838" lon="1.11145">
        <ele>102</ele>
        <time>2015-12-13T08:05:45Z</time>
      </trkpt>
      <trkpt lat="49.03832" lon="1.11159">
        <ele>101.900002</ele>
        <time>2015-12-13T08:05:47Z</time>
      </trkpt>
      <trkpt lat="49.03825" lon="1.11174">
        <ele>101.800003</ele>
        <time>2015-12-13T08:05:49Z</time>
      </trkpt>
      <trkpt lat="49.03819" lon="1.11187">
        <ele>101.599998</ele>
        <time>2015-12-13T08:05:51Z</time>
      </trkpt>
      <trkpt lat="49.03816" lon="1.11203">
        <ele>101.400002</ele>
        <time>2015-12-13T08:05:53Z</time>
      </trkpt>
      <trkpt lat="49.03814" lon="1.11218">
        <ele>101.199997</ele>
        <time>2015-12-13T08:05:55Z</time>
      </trkpt>
      <trkpt lat="49.03809" lon="1.11235">
        <ele>101</ele>
        <time>2015-12-13T08:05:57Z</time>
      </trkpt>
      <trkpt lat="49.03803" lon="1.11255">
        <ele>100.699997</ele>
        <time>2015-12-13T08:05:59Z</time>
      </trkpt>
      <trkpt lat="49.03797" lon="1.11274">
        <ele>100.5</ele>
        <time>2015-12-13T08:06:01Z</time>
      </trkpt>
      <trkpt lat="49.03794" lon="1.11293">
        <ele>100.199997</ele>
        <time>2015-12-13T08:06:03Z</time>
      </trkpt>
      <trkpt lat="49.03798" lon="1.11309">
        <ele>100</ele>
        <time>2015-12-13T08:06:05Z</time>
      </trkpt>
      <trkpt lat="49.03801" lon="1.11325">
        <ele>99.800003</ele>
        <time>2015-12-13T08:06:07Z</time>
      </trkpt>
      <trkpt lat="49.03806" lon="1.11342">
        <ele>99.599998</ele>
        <time>2015-12-13T08:06:10Z</time>
      </trkpt>
      <trkpt lat="49.03809" lon="1.11357">
        <ele>99.599998</ele>
        <time>2015-12-13T08:06:13Z</time>
      </trkpt>
      <trkpt lat="49.03812" lon="1.1137">
        <ele>99.800003</ele>
        <time>2015-12-13T08:06:16Z</time>
      </trkpt>
      <trkpt lat="49.03816" lon="1.11383">
        <ele>100</ele>
        <time>2015-12-13T08:06:19Z</time>
      </trkpt>
      <trkpt lat="49.03822" lon="1.11396">
        <ele>100.400002</ele>
        <time>2015-12-13T08:06:22Z</time>
      </trkpt>
      <trkpt lat="49.03828" lon="1.1141">
        <ele>100.800003</ele>
        <time>2015-12-13T08:06:25Z</time>
      </trkpt>
      <trkpt lat="49.03834" lon="1.11426">
        <ele>101.199997</ele>
        <time>2015-12-13T08:06:28Z</time>
      </trkpt>
      <trkpt lat="49.03842" lon="1.11441">
        <ele>101.5</ele>
        <time>2015-12-13T08:06:31Z</time>
      </trkpt>
      <trkpt lat="49.03849" lon="1.11455">
        <ele>102</ele>
        <time>2015-12-13T08:06:34Z</time>
      </trkpt>
      <trkpt lat="49.03856" lon="1.11469">
        <ele>102.300003</ele>
        <time>2015-12-13T08:06:37Z</time>
      </trkpt>
      <trkpt lat="49.03861" lon="1.11482">
        <ele>102.800003</ele>
        <time>2015-12-13T08:06:40Z</time>
      </trkpt>
      <trkpt lat="49.03868" lon="1.11497">
        <ele>103.199997</ele>
        <time>2015-12-13T08:06:43Z</time>
      </trkpt>
      <trkpt lat="49.03873" lon="1.1151">
        <ele>103.599998</ele>
        <time>2015-12-13T08:06:46Z</time>
      </trkpt>
      <trkpt lat="49.03879" lon="1.11521">
        <ele>104.199997</ele>
        <time>2015-12-13T08:06:49Z</time>
      </trkpt>
      <trkpt lat="49.03884" lon="1.11535">
        <ele>104.800003</ele>
        <time>2015-12-13T08:06:52Z</time>
      </trkpt>
      <trkpt lat="49.03889" lon="1.11547">
        <ele>105.400002</ele>
        <time>2015-12-13T08:06:55Z</time>
      </trkpt>
      <trkpt lat="49.03894" lon="1.1156">
        <ele>106.099998</ele>
        <time>2015-12-13T08:06:58Z</time>
      </trkpt>
      <trkpt lat="49.03899" lon="1.11574">
        <ele>107</ele>
        <time>2015-12-13T08:07:02Z</time>
      </trkpt>
      <trkpt lat="49.03905" lon="1.11587">
        <ele>108</ele>
        <time>2015-12-13T08:07:06Z</time>
      </trkpt>
      <trkpt lat="49.03909" lon="1.116">
        <ele>109</ele>
        <time>2015-12-13T08:07:10Z</time>
      </trkpt>
      <trkpt lat="49.03913" lon="1.11615">
        <ele>110</ele>
        <time>2015-12-13T08:07:14Z</time>
      </trkpt>
      <trkpt lat="49.03918" lon="1.11628">
        <ele>111.099998</ele>
        <time>2015-12-13T08:07:18Z</time>
      </trkpt>
      <trkpt lat="49.03922" lon="1.11644">
        <ele>112.5</ele>
        <time>2015-12-13T08:07:23Z</time>
      </trkpt>
      <trkpt lat="49.03926" lon="1.11657">
        <ele>114.099998</ele>
        <time>2015-12-13T08:07:28Z</time>
      </trkpt>
      <trkpt lat="49.0393" lon="1.1167">
        <ele>115.599998</ele>
        <time>2015-12-13T08:07:33Z</time>
      </trkpt>
      <trkpt lat="49.03934" lon="1.11683">
        <ele>117.099998</ele>
        <time>2015-12-13T08:07:38Z</time>
      </trkpt>
      <trkpt lat="49.03942" lon="1.11692">
        <ele>118.5</ele>
        <time>2015-12-13T08:07:43Z</time>
      </trkpt>
      <trkpt lat="49.03952" lon="1.11696">
        <ele>120</ele>
        <time>2015-12-13T08:07:48Z</time>
      </trkpt>
      <trkpt lat="49.03951" lon="1.11712">
        <ele>121.800003</ele>
        <time>2015-12-13T08:07:54Z</time>
      </trkpt>
      <trkpt lat="49.03947" lon="1.11726">
        <ele>122.800003</ele>
        <time>2015-12-13T08:07:58Z</time>
      </trkpt>
      <trkpt lat="49.03946" lon="1.11741">
        <ele>123.699997</ele>
        <time>2015-12-13T08:08:02Z</time>
      </trkpt>
      <trkpt lat="49.03944" lon="1.11754">
        <ele>124.400002</ele>
        <time>2015-12-13T08:08:05Z</time>
      </trkpt>
      <trkpt lat="49.03945" lon="1.11772">
        <ele>125.199997</ele>
        <time>2015-12-13T08:08:09Z</time>
      </trkpt>
      <trkpt lat="49.03944" lon="1.11788">
        <ele>126</ele>
        <time>2015-12-13T08:08:13Z</time>
      </trkpt>
      <trkpt lat="49.03943" lon="1.11806">
        <ele>126.599998</ele>
        <time>2015-12-13T08:08:17Z</time>
      </trkpt>
      <trkpt lat="49.03946" lon="1.1182">
        <ele>127.199997</ele>
        <time>2015-12-13T08:08:21Z</time>
      </trkpt>
      <trkpt lat="49.03947" lon="1.11838">
        <ele>127.900002</ele>
        <time>2015-12-13T08:08:25Z</time>
      </trkpt>
      <trkpt lat="49.03944" lon="1.11852">
        <ele>128.399994</ele>
        <time>2015-12-13T08:08:28Z</time>
      </trkpt>
      <trkpt lat="49.03938" lon="1.11865">
        <ele>128.899994</ele>
        <time>2015-12-13T08:08:31Z</time>
      </trkpt>
      <trkpt lat="49.0393" lon="1.11882">
        <ele>129.300003</ele>
        <time>2015-12-13T08:08:34Z</time>
      </trkpt>
      <trkpt lat="49.03924" lon="1.11898">
        <ele>129.5</ele>
        <time>2015-12-13T08:08:36Z</time>
      </trkpt>
      <trkpt lat="49.03918" lon="1.11915">
        <ele>129.600006</ele>
        <time>2015-12-13T08:08:38Z</time>
      </trkpt>
      <trkpt lat="49.0391" lon="1.11928">
        <ele>129.699997</ele>
        <time>2015-12-13T08:08:40Z</time>
      </trkpt>
      <trkpt lat="49.03901" lon="1.11939">
        <ele>129.800003</ele>
        <time>2015-12-13T08:08:42Z</time>
      </trkpt>
      <trkpt lat="49.03891" lon="1.11947">
        <ele>129.800003</ele>
        <time>2015-12-13T08:08:44Z</time>
      </trkpt>
      <trkpt lat="49.03883" lon="1.11957">
        <ele>129.899994</ele>
        <time>2015-12-13T08:08:46Z</time>
      </trkpt>
      <trkpt lat="49.03875" lon="1.1197">
        <ele>129.899994</ele>
        <time>2015-12-13T08:08:48Z</time>
      </trkpt>
      <trkpt lat="49.03866" lon="1.11976">
        <ele>130</ele>
        <time>2015-12-13T08:08:50Z</time>
      </trkpt>
      <trkpt lat="49.03857" lon="1.11975">
        <ele>129.800003</ele>
        <time>2015-12-13T08:08:52Z</time>
      </trkpt>
      <trkpt lat="49.03846" lon="1.11973">
        <ele>129.5</ele>
        <time>2015-12-13T08:08:54Z</time>
      </trkpt>
      <trkpt lat="49.03834" lon="1.11972">
        <ele>129.199997</ele>
        <time>2015-12-13T08:08:56Z</time>
      </trkpt>
      <trkpt lat="49.03822" lon="1.11972">
        <ele>129.100006</ele>
        <time>2015-12-13T08:08:58Z</time>
      </trkpt>
      <trkpt lat="49.03811" lon="1.11973">
        <ele>129</ele>
        <time>2015-12-13T08:09:00Z</time>
      </trkpt>
      <trkpt lat="49.03799" lon="1.11972">
        <ele>128.899994</ele>
        <time>2015-12-13T08:09:02Z</time>
      </trkpt>
      <trkpt lat="49.03789" lon="1.1197">
        <ele>128.800003</ele>
        <time>2015-12-13T08:09:04Z</time>
      </trkpt>
      <trkpt lat="49.03777" lon="1.11966">
        <ele>128.800003</ele>
        <time>2015-12-13T08:09:06Z</time>
      </trkpt>
      <trkpt lat="49.03769" lon="1.11961">
        <ele>128.699997</ele>
        <time>2015-12-13T08:09:08Z</time>
      </trkpt>
      <trkpt lat="49.03759" lon="1.11954">
        <ele>128.600006</ele>
        <time>2015-12-13T08:09:10Z</time>
      </trkpt>
      <trkpt lat="49.0375" lon="1.11949">
        <ele>128.399994</ele>
        <time>2015-12-13T08:09:12Z</time>
      </trkpt>
      <trkpt lat="49.03741" lon="1.11948">
        <ele>128.199997</ele>
        <time>2015-12-13T08:09:14Z</time>
      </trkpt>
      <trkpt lat="49.03728" lon="1.11947">
        <ele>127.900002</ele>
        <time>2015-12-13T08:09:17Z</time>
      </trkpt>
      <trkpt lat="49.03717" lon="1.11945">
        <ele>127.699997</ele>
        <time>2015-12-13T08:09:20Z</time>
      </trkpt>
      <trkpt lat="49.03708" lon="1.11943">
        <ele>127.5</ele>
        <time>2015-12-13T08:09:22Z</time>
      </trkpt>
      <trkpt lat="49.03698" lon="1.11943">
        <ele>127.400002</ele>
        <time>2015-12-13T08:09:24Z</time>
      </trkpt>
      <trkpt lat="49.03688" lon="1.1195">
        <ele>127.099998</ele>
        <time>2015-12-13T08:09:27Z</time>
      </trkpt>
      <trkpt lat="49.03679" lon="1.11955">
        <ele>125.699997</ele>
        <time>2015-12-13T08:09:32Z</time>
      </trkpt>
      <trkpt lat="49.03667" lon="1.1196">
        <ele>123.800003</ele>
        <time>2015-12-13T08:09:40Z</time>
      </trkpt>
      <trkpt lat="49.03657" lon="1.11966">
        <ele>122.699997</ele>
        <time>2015-12-13T08:09:43Z</time>
      </trkpt>
      <trkpt lat="49.03646" lon="1.11966">
        <ele>121.300003</ele>
        <time>2015-12-13T08:09:46Z</time>
      </trkpt>
      <trkpt lat="49.03636" lon="1.11965">
        <ele>119.599998</ele>
        <time>2015-12-13T08:09:49Z</time>
      </trkpt>
      <trkpt lat="49.03633" lon="1.11979">
        <ele>115.199997</ele>
        <time>2015-12-13T08:09:56Z</time>
      </trkpt>
      <trkpt lat="49.03638" lon="1.11991">
        <ele>113.800003</ele>
        <time>2015-12-13T08:09:59Z</time>
      </trkpt>
      <trkpt lat="49.03641" lon="1.12006">
        <ele>112.800003</ele>
        <time>2015-12-13T08:10:02Z</time>
      </trkpt>
      <trkpt lat="49.03644" lon="1.12023">
        <ele>112.099998</ele>
        <time>2015-12-13T08:10:05Z</time>
      </trkpt>
      <trkpt lat="49.03648" lon="1.12038">
        <ele>111.599998</ele>
        <time>2015-12-13T08:10:08Z</time>
      </trkpt>
      <trkpt lat="49.03653" lon="1.12052">
        <ele>111.400002</ele>
        <time>2015-12-13T08:10:11Z</time>
      </trkpt>
      <trkpt lat="49.03657" lon="1.12067">
        <ele>111.400002</ele>
        <time>2015-12-13T08:10:14Z</time>
      </trkpt>
      <trkpt lat="49.03661" lon="1.12084">
        <ele>111.699997</ele>
        <time>2015-12-13T08:10:18Z</time>
      </trkpt>
      <trkpt lat="49.03667" lon="1.12097">
        <ele>112.199997</ele>
        <time>2015-12-13T08:10:22Z</time>
      </trkpt>
      <trkpt lat="49.0367" lon="1.12114">
        <ele>112.900002</ele>
        <time>2015-12-13T08:10:26Z</time>
      </trkpt>
      <trkpt lat="49.03671" lon="1.12128">
        <ele>113.599998</ele>
        <time>2015-12-13T08:10:29Z</time>
      </trkpt>
      <trkpt lat="49.03673" lon="1.12143">
        <ele>114.699997</ele>
        <time>2015-12-13T08:10:33Z</time>
      </trkpt>
      <trkpt lat="49.03675" lon="1.12158">
        <ele>115.800003</ele>
        <time>2015-12-13T08:10:37Z</time>
      </trkpt>
      <trkpt lat="49.03676" lon="1.12178">
        <ele>116.900002</ele>
        <time>2015-12-13T08:10:41Z</time>
      </trkpt>
      <trkpt lat="49.03678" lon="1.12193">
        <ele>117.699997</ele>
        <time>2015-12-13T08:10:44Z</time>
      </trkpt>
      <trkpt lat="49.03682" lon="1.12208">
        <ele>118.400002</ele>
        <time>2015-12-13T08:10:47Z</time>
      </trkpt>
      <trkpt lat="49.03684" lon="1.12224">
        <ele>119.099998</ele>
        <time>2015-12-13T08:10:50Z</time>
      </trkpt>
      <trkpt lat="49.03686" lon="1.12241">
        <ele>120.099998</ele>
        <time>2015-12-13T08:10:54Z</time>
      </trkpt>
      <trkpt lat="49.03685" lon="1.12257">
        <ele>121.099998</ele>
        <time>2015-12-13T08:10:58Z</time>
      </trkpt>
      <trkpt lat="49.03684" lon="1.12273">
        <ele>122</ele>
        <time>2015-12-13T08:11:02Z</time>
      </trkpt>
      <trkpt lat="49.03683" lon="1.12289">
        <ele>122.900002</ele>
        <time>2015-12-13T08:11:06Z</time>
      </trkpt>
      <trkpt lat="49.03681" lon="1.12304">
        <ele>123.599998</ele>
        <time>2015-12-13T08:11:09Z</time>
      </trkpt>
      <trkpt lat="49.03675" lon="1.12317">
        <ele>124.099998</ele>
        <time>2015-12-13T08:11:12Z</time>
      </trkpt>
      <trkpt lat="49.0367" lon="1.12333">
        <ele>124.699997</ele>
        <time>2015-12-13T08:11:16Z</time>
      </trkpt>
      <trkpt lat="49.03666" lon="1.12351">
        <ele>124.900002</ele>
        <time>2015-12-13T08:11:19Z</time>
      </trkpt>
      <trkpt lat="49.03661" lon="1.12366">
        <ele>124.800003</ele>
        <time>2015-12-13T08:11:22Z</time>
      </trkpt>
      <trkpt lat="49.03655" lon="1.12379">
        <ele>124.699997</ele>
        <time>2015-12-13T08:11:25Z</time>
      </trkpt>
      <trkpt lat="49.0365" lon="1.12392">
        <ele>124.599998</ele>
        <time>2015-12-13T08:11:28Z</time>
      </trkpt>
      <trkpt lat="49.03643" lon="1.12407">
        <ele>124.300003</ele>
        <time>2015-12-13T08:11:31Z</time>
      </trkpt>
      <trkpt lat="49.03635" lon="1.12421">
        <ele>123.900002</ele>
        <time>2015-12-13T08:11:34Z</time>
      </trkpt>
      <trkpt lat="49.03632" lon="1.12438">
        <ele>123.5</ele>
        <time>2015-12-13T08:11:37Z</time>
      </trkpt>
      <trkpt lat="49.03628" lon="1.12452">
        <ele>122.800003</ele>
        <time>2015-12-13T08:11:41Z</time>
      </trkpt>
      <trkpt lat="49.03619" lon="1.1246">
        <ele>122.300003</ele>
        <time>2015-12-13T08:11:43Z</time>
      </trkpt>
      <trkpt lat="49.03607" lon="1.1247">
        <ele>121.599998</ele>
        <time>2015-12-13T08:11:46Z</time>
      </trkpt>
      <trkpt lat="49.03598" lon="1.1248">
        <ele>121.099998</ele>
        <time>2015-12-13T08:11:49Z</time>
      </trkpt>
      <trkpt lat="49.03589" lon="1.12491">
        <ele>120.699997</ele>
        <time>2015-12-13T08:11:53Z</time>
      </trkpt>
      <trkpt lat="49.0358" lon="1.12502">
        <ele>120.699997</ele>
        <time>2015-12-13T08:11:56Z</time>
      </trkpt>
      <trkpt lat="49.03571" lon="1.12511">
        <ele>121.099998</ele>
        <time>2015-12-13T08:12:00Z</time>
      </trkpt>
      <trkpt lat="49.03564" lon="1.12519">
        <ele>121.699997</ele>
        <time>2015-12-13T08:12:03Z</time>
      </trkpt>
      <trkpt lat="49.03555" lon="1.12527">
        <ele>122.300003</ele>
        <time>2015-12-13T08:12:06Z</time>
      </trkpt>
      <trkpt lat="49.03543" lon="1.12533">
        <ele>122.800003</ele>
        <time>2015-12-13T08:12:09Z</time>
      </trkpt>
      <trkpt lat="49.0353" lon="1.12537">
        <ele>123.199997</ele>
        <time>2015-12-13T08:12:12Z</time>
      </trkpt>
      <trkpt lat="49.0352" lon="1.12535">
        <ele>123.400002</ele>
        <time>2015-12-13T08:12:15Z</time>
      </trkpt>
      <trkpt lat="49.03507" lon="1.12538">
        <ele>123.099998</ele>
        <time>2015-12-13T08:12:18Z</time>
      </trkpt>
      <trkpt lat="49.03498" lon="1.12539">
        <ele>122.800003</ele>
        <time>2015-12-13T08:12:20Z</time>
      </trkpt>
      <trkpt lat="49.03488" lon="1.12534">
        <ele>122.5</ele>
        <time>2015-12-13T08:12:23Z</time>
      </trkpt>
      <trkpt lat="49.03479" lon="1.12529">
        <ele>122.400002</ele>
        <time>2015-12-13T08:12:27Z</time>
      </trkpt>
      <trkpt lat="49.0347" lon="1.1252">
        <ele>122.5</ele>
        <time>2015-12-13T08:12:31Z</time>
      </trkpt>
      <trkpt lat="49.03459" lon="1.12524">
        <ele>122.599998</ele>
        <time>2015-12-13T08:12:36Z</time>
      </trkpt>
      <trkpt lat="49.03451" lon="1.12535">
        <ele>122.800003</ele>
        <time>2015-12-13T08:12:40Z</time>
      </trkpt>
      <trkpt lat="49.03445" lon="1.12547">
        <ele>122.599998</ele>
        <time>2015-12-13T08:12:43Z</time>
      </trkpt>
      <trkpt lat="49.03439" lon="1.12558">
        <ele>121.800003</ele>
        <time>2015-12-13T08:12:48Z</time>
      </trkpt>
      <trkpt lat="49.03433" lon="1.12541">
        <ele>120.599998</ele>
        <time>2015-12-13T08:12:53Z</time>
      </trkpt>
      <trkpt lat="49.03431" lon="1.12523">
        <ele>120</ele>
        <time>2015-12-13T08:12:55Z</time>
      </trkpt>
      <trkpt lat="49.03426" lon="1.12506">
        <ele>119.300003</ele>
        <time>2015-12-13T08:12:57Z</time>
      </trkpt>
      <trkpt lat="49.03418" lon="1.12485">
        <ele>118.300003</ele>
        <time>2015-12-13T08:12:59Z</time>
      </trkpt>
      <trkpt lat="49.03408" lon="1.12465">
        <ele>117.199997</ele>
        <time>2015-12-13T08:13:01Z</time>
      </trkpt>
      <trkpt lat="49.03401" lon="1.12451">
        <ele>115.900002</ele>
        <time>2015-12-13T08:13:03Z</time>
      </trkpt>
      <trkpt lat="49.03391" lon="1.12435">
        <ele>114.599998</ele>
        <time>2015-12-13T08:13:05Z</time>
      </trkpt>
      <trkpt lat="49.03382" lon="1.12419">
        <ele>113.099998</ele>
        <time>2015-12-13T08:13:07Z</time>
      </trkpt>
      <trkpt lat="49.03376" lon="1.12403">
        <ele>111.599998</ele>
        <time>2015-12-13T08:13:09Z</time>
      </trkpt>
      <trkpt lat="49.03372" lon="1.12385">
        <ele>110</ele>
        <time>2015-12-13T08:13:11Z</time>
      </trkpt>
      <trkpt lat="49.0337" lon="1.12369">
        <ele>108.199997</ele>
        <time>2015-12-13T08:13:13Z</time>
      </trkpt>
      <trkpt lat="49.03367" lon="1.12352">
        <ele>106.599998</ele>
        <time>2015-12-13T08:13:15Z</time>
      </trkpt>
      <trkpt lat="49.03364" lon="1.12338">
        <ele>104.900002</ele>
        <time>2015-12-13T08:13:17Z</time>
      </trkpt>
      <trkpt lat="49.03365" lon="1.12322">
        <ele>103.099998</ele>
        <time>2015-12-13T08:13:19Z</time>
      </trkpt>
      <trkpt lat="49.03369" lon="1.12307">
        <ele>101.400002</ele>
        <time>2015-12-13T08:13:21Z</time>
      </trkpt>
      <trkpt lat="49.03372" lon="1.12289">
        <ele>99.699997</ele>
        <time>2015-12-13T08:13:23Z</time>
      </trkpt>
      <trkpt lat="49.03376" lon="1.12276">
        <ele>97.099998</ele>
        <time>2015-12-13T08:13:26Z</time>
      </trkpt>
      <trkpt lat="49.03377" lon="1.1226">
        <ele>94.900002</ele>
        <time>2015-12-13T08:13:29Z</time>
      </trkpt>
      <trkpt lat="49.03382" lon="1.12246">
        <ele>92.800003</ele>
        <time>2015-12-13T08:13:32Z</time>
      </trkpt>
      <trkpt lat="49.03387" lon="1.12231">
        <ele>91.400002</ele>
        <time>2015-12-13T08:13:34Z</time>
      </trkpt>
      <trkpt lat="49.03394" lon="1.12216">
        <ele>90.199997</ele>
        <time>2015-12-13T08:13:36Z</time>
      </trkpt>
      <trkpt lat="49.03403" lon="1.12204">
        <ele>89</ele>
        <time>2015-12-13T08:13:38Z</time>
      </trkpt>
      <trkpt lat="49.0341" lon="1.12191">
        <ele>88.099998</ele>
        <time>2015-12-13T08:13:40Z</time>
      </trkpt>
      <trkpt lat="49.03416" lon="1.12177">
        <ele>87.199997</ele>
        <time>2015-12-13T08:13:42Z</time>
      </trkpt>
      <trkpt lat="49.03421" lon="1.12165">
        <ele>86.400002</ele>
        <time>2015-12-13T08:13:44Z</time>
      </trkpt>
      <trkpt lat="49.03426" lon="1.12154">
        <ele>85.800003</ele>
        <time>2015-12-13T08:13:46Z</time>
      </trkpt>
      <trkpt lat="49.03435" lon="1.12138">
        <ele>85</ele>
        <time>2015-12-13T08:13:49Z</time>
      </trkpt>
      <trkpt lat="49.0344" lon="1.12123">
        <ele>84.599998</ele>
        <time>2015-12-13T08:13:52Z</time>
      </trkpt>
      <trkpt lat="49.03445" lon="1.1211">
        <ele>84.5</ele>
        <time>2015-12-13T08:13:55Z</time>
      </trkpt>
      <trkpt lat="49.03451" lon="1.12098">
        <ele>84.599998</ele>
        <time>2015-12-13T08:13:58Z</time>
      </trkpt>
      <trkpt lat="49.03456" lon="1.12085">
        <ele>84.900002</ele>
        <time>2015-12-13T08:14:01Z</time>
      </trkpt>
      <trkpt lat="49.03461" lon="1.12074">
        <ele>85.300003</ele>
        <time>2015-12-13T08:14:04Z</time>
      </trkpt>
      <trkpt lat="49.03466" lon="1.12062">
        <ele>85.800003</ele>
        <time>2015-12-13T08:14:07Z</time>
      </trkpt>
      <trkpt lat="49.03469" lon="1.12049">
        <ele>86.5</ele>
        <time>2015-12-13T08:14:10Z</time>
      </trkpt>
      <trkpt lat="49.03471" lon="1.12033">
        <ele>87</ele>
        <time>2015-12-13T08:14:13Z</time>
      </trkpt>
      <trkpt lat="49.03471" lon="1.12017">
        <ele>87.599998</ele>
        <time>2015-12-13T08:14:16Z</time>
      </trkpt>
      <trkpt lat="49.0347" lon="1.12">
        <ele>88</ele>
        <time>2015-12-13T08:14:19Z</time>
      </trkpt>
      <trkpt lat="49.03471" lon="1.11985">
        <ele>88.599998</ele>
        <time>2015-12-13T08:14:22Z</time>
      </trkpt>
      <trkpt lat="49.03471" lon="1.1197">
        <ele>89.199997</ele>
        <time>2015-12-13T08:14:25Z</time>
      </trkpt>
      <trkpt lat="49.0347" lon="1.11956">
        <ele>89.800003</ele>
        <time>2015-12-13T08:14:28Z</time>
      </trkpt>
      <trkpt lat="49.03467" lon="1.11943">
        <ele>90.300003</ele>
        <time>2015-12-13T08:14:31Z</time>
      </trkpt>
      <trkpt lat="49.03461" lon="1.11931">
        <ele>90.800003</ele>
        <time>2015-12-13T08:14:34Z</time>
      </trkpt>
      <trkpt lat="49.03455" lon="1.11918">
        <ele>91.300003</ele>
        <time>2015-12-13T08:14:37Z</time>
      </trkpt>
      <trkpt lat="49.0345" lon="1.11905">
        <ele>91.800003</ele>
        <time>2015-12-13T08:14:40Z</time>
      </trkpt>
      <trkpt lat="49.03446" lon="1.11889">
        <ele>92.599998</ele>
        <time>2015-12-13T08:14:44Z</time>
      </trkpt>
      <trkpt lat="49.03442" lon="1.11875">
        <ele>93.199997</ele>
        <time>2015-12-13T08:14:47Z</time>
      </trkpt>
      <trkpt lat="49.03438" lon="1.11862">
        <ele>93.800003</ele>
        <time>2015-12-13T08:14:50Z</time>
      </trkpt>
      <trkpt lat="49.03434" lon="1.1185">
        <ele>94.300003</ele>
        <time>2015-12-13T08:14:53Z</time>
      </trkpt>
      <trkpt lat="49.03426" lon="1.11836">
        <ele>94.800003</ele>
        <time>2015-12-13T08:14:57Z</time>
      </trkpt>
      <trkpt lat="49.03417" lon="1.11836">
        <ele>95.300003</ele>
        <time>2015-12-13T08:15:00Z</time>
      </trkpt>
      <trkpt lat="49.03407" lon="1.11836">
        <ele>95.599998</ele>
        <time>2015-12-13T08:15:03Z</time>
      </trkpt>
      <trkpt lat="49.03396" lon="1.11831">
        <ele>95.900002</ele>
        <time>2015-12-13T08:15:06Z</time>
      </trkpt>
      <trkpt lat="49.03385" lon="1.11824">
        <ele>96.199997</ele>
        <time>2015-12-13T08:15:09Z</time>
      </trkpt>
      <trkpt lat="49.03379" lon="1.11813">
        <ele>96.400002</ele>
        <time>2015-12-13T08:15:12Z</time>
      </trkpt>
      <trkpt lat="49.03381" lon="1.11799">
        <ele>96.800003</ele>
        <time>2015-12-13T08:15:15Z</time>
      </trkpt>
      <trkpt lat="49.03386" lon="1.11785">
        <ele>97.099998</ele>
        <time>2015-12-13T08:15:18Z</time>
      </trkpt>
      <trkpt lat="49.03391" lon="1.11771">
        <ele>97.5</ele>
        <time>2015-12-13T08:15:21Z</time>
      </trkpt>
      <trkpt lat="49.03397" lon="1.11757">
        <ele>97.699997</ele>
        <time>2015-12-13T08:15:24Z</time>
      </trkpt>
      <trkpt lat="49.03404" lon="1.11743">
        <ele>98.099998</ele>
        <time>2015-12-13T08:15:27Z</time>
      </trkpt>
      <trkpt lat="49.0341" lon="1.11729">
        <ele>98.400002</ele>
        <time>2015-12-13T08:15:30Z</time>
      </trkpt>
      <trkpt lat="49.03417" lon="1.11716">
        <ele>98.699997</ele>
        <time>2015-12-13T08:15:33Z</time>
      </trkpt>
      <trkpt lat="49.03417" lon="1.11701">
        <ele>99</ele>
        <time>2015-12-13T08:15:36Z</time>
      </trkpt>
      <trkpt lat="49.03415" lon="1.11687">
        <ele>99.5</ele>
        <time>2015-12-13T08:15:39Z</time>
      </trkpt>
      <trkpt lat="49.03413" lon="1.11672">
        <ele>99.900002</ele>
        <time>2015-12-13T08:15:42Z</time>
      </trkpt>
      <trkpt lat="49.0341" lon="1.11658">
        <ele>100.400002</ele>
        <time>2015-12-13T08:15:45Z</time>
      </trkpt>
      <trkpt lat="49.03409" lon="1.1164">
        <ele>101</ele>
        <time>2015-12-13T08:15:49Z</time>
      </trkpt>
      <trkpt lat="49.03407" lon="1.11623">
        <ele>101.800003</ele>
        <time>2015-12-13T08:15:53Z</time>
      </trkpt>
      <trkpt lat="49.03407" lon="1.11606">
        <ele>102.5</ele>
        <time>2015-12-13T08:15:57Z</time>
      </trkpt>
      <trkpt lat="49.03407" lon="1.11589">
        <ele>103.199997</ele>
        <time>2015-12-13T08:16:01Z</time>
      </trkpt>
      <trkpt lat="49.03406" lon="1.11573">
        <ele>103.800003</ele>
        <time>2015-12-13T08:16:05Z</time>
      </trkpt>
      <trkpt lat="49.03406" lon="1.11556">
        <ele>104.400002</ele>
        <time>2015-12-13T08:16:09Z</time>
      </trkpt>
      <trkpt lat="49.03406" lon="1.11538">
        <ele>105.199997</ele>
        <time>2015-12-13T08:16:13Z</time>
      </trkpt>
      <trkpt lat="49.03405" lon="1.11522">
        <ele>105.900002</ele>
        <time>2015-12-13T08:16:17Z</time>
      </trkpt>
      <trkpt lat="49.03405" lon="1.11505">
        <ele>106.699997</ele>
        <time>2015-12-13T08:16:21Z</time>
      </trkpt>
      <trkpt lat="49.03405" lon="1.11489">
        <ele>107.400002</ele>
        <time>2015-12-13T08:16:25Z</time>
      </trkpt>
      <trkpt lat="49.03405" lon="1.11471">
        <ele>108.099998</ele>
        <time>2015-12-13T08:16:29Z</time>
      </trkpt>
      <trkpt lat="49.03404" lon="1.11454">
        <ele>108.800003</ele>
        <time>2015-12-13T08:16:33Z</time>
      </trkpt>
      <trkpt lat="49.03401" lon="1.11437">
        <ele>109.5</ele>
        <time>2015-12-13T08:16:37Z</time>
      </trkpt>
      <trkpt lat="49.034" lon="1.1142">
        <ele>110.199997</ele>
        <time>2015-12-13T08:16:41Z</time>
      </trkpt>
      <trkpt lat="49.03404" lon="1.11404">
        <ele>111</ele>
        <time>2015-12-13T08:16:45Z</time>
      </trkpt>
      <trkpt lat="49.03406" lon="1.11387">
        <ele>111.900002</ele>
        <time>2015-12-13T08:16:49Z</time>
      </trkpt>
      <trkpt lat="49.03408" lon="1.1137">
        <ele>112.5</ele>
        <time>2015-12-13T08:16:53Z</time>
      </trkpt>
      <trkpt lat="49.03409" lon="1.11352">
        <ele>113.400002</ele>
        <time>2015-12-13T08:16:57Z</time>
      </trkpt>
      <trkpt lat="49.03409" lon="1.11335">
        <ele>114.099998</ele>
        <time>2015-12-13T08:17:01Z</time>
      </trkpt>
      <trkpt lat="49.03408" lon="1.11319">
        <ele>114.900002</ele>
        <time>2015-12-13T08:17:05Z</time>
      </trkpt>
      <trkpt lat="49.03407" lon="1.11302">
        <ele>115.599998</ele>
        <time>2015-12-13T08:17:09Z</time>
      </trkpt>
      <trkpt lat="49.03405" lon="1.11285">
        <ele>116.300003</ele>
        <time>2015-12-13T08:17:13Z</time>
      </trkpt>
      <trkpt lat="49.03403" lon="1.11269">
        <ele>117</ele>
        <time>2015-12-13T08:17:17Z</time>
      </trkpt>
      <trkpt lat="49.034" lon="1.11253">
        <ele>117.699997</ele>
        <time>2015-12-13T08:17:21Z</time>
      </trkpt>
      <trkpt lat="49.03397" lon="1.11238">
        <ele>118.400002</ele>
        <time>2015-12-13T08:17:25Z</time>
      </trkpt>
      <trkpt lat="49.03393" lon="1.11224">
        <ele>119</ele>
        <time>2015-12-13T08:17:29Z</time>
      </trkpt>
      <trkpt lat="49.03389" lon="1.11209">
        <ele>119.699997</ele>
        <time>2015-12-13T08:17:33Z</time>
      </trkpt>
      <trkpt lat="49.03385" lon="1.11195">
        <ele>120.400002</ele>
        <time>2015-12-13T08:17:37Z</time>
      </trkpt>
      <trkpt lat="49.03381" lon="1.1118">
        <ele>121.099998</ele>
        <time>2015-12-13T08:17:41Z</time>
      </trkpt>
      <trkpt lat="49.03376" lon="1.11165">
        <ele>121.699997</ele>
        <time>2015-12-13T08:17:45Z</time>
      </trkpt>
      <trkpt lat="49.03371" lon="1.1115">
        <ele>122.400002</ele>
        <time>2015-12-13T08:17:49Z</time>
      </trkpt>
      <trkpt lat="49.03365" lon="1.11134">
        <ele>123.099998</ele>
        <time>2015-12-13T08:17:53Z</time>
      </trkpt>
      <trkpt lat="49.03359" lon="1.11119">
        <ele>123.599998</ele>
        <time>2015-12-13T08:17:57Z</time>
      </trkpt>
      <trkpt lat="49.03353" lon="1.11104">
        <ele>124.300003</ele>
        <time>2015-12-13T08:18:01Z</time>
      </trkpt>
      <trkpt lat="49.03346" lon="1.11089">
        <ele>125</ele>
        <time>2015-12-13T08:18:05Z</time>
      </trkpt>
      <trkpt lat="49.0334" lon="1.11074">
        <ele>125.599998</ele>
        <time>2015-12-13T08:18:09Z</time>
      </trkpt>
      <trkpt lat="49.03336" lon="1.11062">
        <ele>126.099998</ele>
        <time>2015-12-13T08:18:12Z</time>
      </trkpt>
      <trkpt lat="49.03333" lon="1.11046">
        <ele>126.699997</ele>
        <time>2015-12-13T08:18:16Z</time>
      </trkpt>
      <trkpt lat="49.03335" lon="1.11029">
        <ele>127.199997</ele>
        <time>2015-12-13T08:18:20Z</time>
      </trkpt>
      <trkpt lat="49.03342" lon="1.11018">
        <ele>127.699997</ele>
        <time>2015-12-13T08:18:24Z</time>
      </trkpt>
      <trkpt lat="49.03349" lon="1.11008">
        <ele>128</ele>
        <time>2015-12-13T08:18:27Z</time>
      </trkpt>
      <trkpt lat="49.03358" lon="1.10996">
        <ele>128.399994</ele>
        <time>2015-12-13T08:18:30Z</time>
      </trkpt>
      <trkpt lat="49.03367" lon="1.10985">
        <ele>128.600006</ele>
        <time>2015-12-13T08:18:33Z</time>
      </trkpt>
      <trkpt lat="49.03376" lon="1.10972">
        <ele>128.800003</ele>
        <time>2015-12-13T08:18:36Z</time>
      </trkpt>
      <trkpt lat="49.03383" lon="1.10958">
        <ele>129</ele>
        <time>2015-12-13T08:18:39Z</time>
      </trkpt>
      <trkpt lat="49.03392" lon="1.10946">
        <ele>129.199997</ele>
        <time>2015-12-13T08:18:42Z</time>
      </trkpt>
      <trkpt lat="49.03401" lon="1.10934">
        <ele>129.399994</ele>
        <time>2015-12-13T08:18:45Z</time>
      </trkpt>
      <trkpt lat="49.0341" lon="1.1092">
        <ele>129.699997</ele>
        <time>2015-12-13T08:18:48Z</time>
      </trkpt>
      <trkpt lat="49.03415" lon="1.10908">
        <ele>129.899994</ele>
        <time>2015-12-13T08:18:50Z</time>
      </trkpt>
      <trkpt lat="49.0342" lon="1.10897">
        <ele>130</ele>
        <time>2015-12-13T08:18:52Z</time>
      </trkpt>
      <trkpt lat="49.03425" lon="1.10885">
        <ele>130.100006</ele>
        <time>2015-12-13T08:18:54Z</time>
      </trkpt>
      <trkpt lat="49.0343" lon="1.10873">
        <ele>130.199997</ele>
        <time>2015-12-13T08:18:56Z</time>
      </trkpt>
      <trkpt lat="49.03435" lon="1.1086">
        <ele>130.300003</ele>
        <time>2015-12-13T08:18:58Z</time>
      </trkpt>
      <trkpt lat="49.03439" lon="1.10847">
        <ele>130.399994</ele>
        <time>2015-12-13T08:19:00Z</time>
      </trkpt>
      <trkpt lat="49.03443" lon="1.10835">
        <ele>130.5</ele>
        <time>2015-12-13T08:19:02Z</time>
      </trkpt>
      <trkpt lat="49.03447" lon="1.10821">
        <ele>130.600006</ele>
        <time>2015-12-13T08:19:04Z</time>
      </trkpt>
      <trkpt lat="49.03451" lon="1.10807">
        <ele>130.600006</ele>
        <time>2015-12-13T08:19:06Z</time>
      </trkpt>
      <trkpt lat="49.03456" lon="1.10793">
        <ele>130.699997</ele>
        <time>2015-12-13T08:19:08Z</time>
      </trkpt>
      <trkpt lat="49.03459" lon="1.10779">
        <ele>130.699997</ele>
        <time>2015-12-13T08:19:10Z</time>
      </trkpt>
      <trkpt lat="49.03464" lon="1.10765">
        <ele>130.800003</ele>
        <time>2015-12-13T08:19:12Z</time>
      </trkpt>
      <trkpt lat="49.03468" lon="1.1075">
        <ele>130.899994</ele>
        <time>2015-12-13T08:19:14Z</time>
      </trkpt>
      <trkpt lat="49.03472" lon="1.10736">
        <ele>130.899994</ele>
        <time>2015-12-13T08:19:16Z</time>
      </trkpt>
      <trkpt lat="49.03477" lon="1.10721">
        <ele>131</ele>
        <time>2015-12-13T08:19:18Z</time>
      </trkpt>
      <trkpt lat="49.03483" lon="1.10706">
        <ele>131.100006</ele>
        <time>2015-12-13T08:19:20Z</time>
      </trkpt>
      <trkpt lat="49.03488" lon="1.10691">
        <ele>131.100006</ele>
        <time>2015-12-13T08:19:22Z</time>
      </trkpt>
      <trkpt lat="49.03493" lon="1.10675">
        <ele>131.199997</ele>
        <time>2015-12-13T08:19:24Z</time>
      </trkpt>
      <trkpt lat="49.03498" lon="1.10658">
        <ele>131.199997</ele>
        <time>2015-12-13T08:19:26Z</time>
      </trkpt>
      <trkpt lat="49.03503" lon="1.10641">
        <ele>131.300003</ele>
        <time>2015-12-13T08:19:28Z</time>
      </trkpt>
      <trkpt lat="49.03508" lon="1.10625">
        <ele>131.300003</ele>
        <time>2015-12-13T08:19:30Z</time>
      </trkpt>
      <trkpt lat="49.03513" lon="1.10609">
        <ele>131.399994</ele>
        <time>2015-12-13T08:19:32Z</time>
      </trkpt>
      <trkpt lat="49.03519" lon="1.10593">
        <ele>131.399994</ele>
        <time>2015-12-13T08:19:34Z</time>
      </trkpt>
      <trkpt lat="49.03526" lon="1.10576">
        <ele>131.399994</ele>
        <time>2015-12-13T08:19:36Z</time>
      </trkpt>
      <trkpt lat="49.03533" lon="1.1056">
        <ele>131.399994</ele>
        <time>2015-12-13T08:19:38Z</time>
      </trkpt>
      <trkpt lat="49.0354" lon="1.10544">
        <ele>131.399994</ele>
        <time>2015-12-13T08:19:40Z</time>
      </trkpt>
      <trkpt lat="49.03548" lon="1.10528">
        <ele>131.300003</ele>
        <time>2015-12-13T08:19:42Z</time>
      </trkpt>
      <trkpt lat="49.03555" lon="1.10513">
        <ele>131.300003</ele>
        <time>2015-12-13T08:19:44Z</time>
      </trkpt>
      <trkpt lat="49.03563" lon="1.10498">
        <ele>131.199997</ele>
        <time>2015-12-13T08:19:46Z</time>
      </trkpt>
      <trkpt lat="49.03571" lon="1.10483">
        <ele>131</ele>
        <time>2015-12-13T08:19:48Z</time>
      </trkpt>
      <trkpt lat="49.0358" lon="1.10468">
        <ele>130.899994</ele>
        <time>2015-12-13T08:19:50Z</time>
      </trkpt>
      <trkpt lat="49.03588" lon="1.10454">
        <ele>130.800003</ele>
        <time>2015-12-13T08:19:52Z</time>
      </trkpt>
      <trkpt lat="49.03596" lon="1.10439">
        <ele>130.600006</ele>
        <time>2015-12-13T08:19:54Z</time>
      </trkpt>
      <trkpt lat="49.03607" lon="1.10427">
        <ele>130.399994</ele>
        <time>2015-12-13T08:19:56Z</time>
      </trkpt>
      <trkpt lat="49.03616" lon="1.10415">
        <ele>130.199997</ele>
        <time>2015-12-13T08:19:58Z</time>
      </trkpt>
      <trkpt lat="49.03625" lon="1.10404">
        <ele>130</ele>
        <time>2015-12-13T08:20:00Z</time>
      </trkpt>
      <trkpt lat="49.03634" lon="1.10393">
        <ele>129.800003</ele>
        <time>2015-12-13T08:20:02Z</time>
      </trkpt>
      <trkpt lat="49.03643" lon="1.10384">
        <ele>129.699997</ele>
        <time>2015-12-13T08:20:04Z</time>
      </trkpt>
      <trkpt lat="49.03651" lon="1.10375">
        <ele>129.600006</ele>
        <time>2015-12-13T08:20:06Z</time>
      </trkpt>
      <trkpt lat="49.0366" lon="1.10365">
        <ele>129.5</ele>
        <time>2015-12-13T08:20:08Z</time>
      </trkpt>
      <trkpt lat="49.03669" lon="1.10358">
        <ele>129.399994</ele>
        <time>2015-12-13T08:20:10Z</time>
      </trkpt>
      <trkpt lat="49.03677" lon="1.1035">
        <ele>129.300003</ele>
        <time>2015-12-13T08:20:12Z</time>
      </trkpt>
      <trkpt lat="49.03684" lon="1.10342">
        <ele>129.199997</ele>
        <time>2015-12-13T08:20:14Z</time>
      </trkpt>
      <trkpt lat="49.03692" lon="1.10335">
        <ele>129.100006</ele>
        <time>2015-12-13T08:20:16Z</time>
      </trkpt>
      <trkpt lat="49.037" lon="1.10328">
        <ele>129.100006</ele>
        <time>2015-12-13T08:20:18Z</time>
      </trkpt>
      <trkpt lat="49.03708" lon="1.1032">
        <ele>129</ele>
        <time>2015-12-13T08:20:20Z</time>
      </trkpt>
      <trkpt lat="49.03716" lon="1.10313">
        <ele>129</ele>
        <time>2015-12-13T08:20:22Z</time>
      </trkpt>
      <trkpt lat="49.03727" lon="1.10302">
        <ele>128.899994</ele>
        <time>2015-12-13T08:20:25Z</time>
      </trkpt>
      <trkpt lat="49.03734" lon="1.10294">
        <ele>128.899994</ele>
        <time>2015-12-13T08:20:27Z</time>
      </trkpt>
      <trkpt lat="49.03746" lon="1.10283">
        <ele>128.899994</ele>
        <time>2015-12-13T08:20:30Z</time>
      </trkpt>
      <trkpt lat="49.03757" lon="1.10272">
        <ele>129</ele>
        <time>2015-12-13T08:20:33Z</time>
      </trkpt>
      <trkpt lat="49.03769" lon="1.10261">
        <ele>129</ele>
        <time>2015-12-13T08:20:36Z</time>
      </trkpt>
      <trkpt lat="49.03779" lon="1.10248">
        <ele>129.100006</ele>
        <time>2015-12-13T08:20:39Z</time>
      </trkpt>
      <trkpt lat="49.03789" lon="1.10234">
        <ele>129.199997</ele>
        <time>2015-12-13T08:20:42Z</time>
      </trkpt>
      <trkpt lat="49.03798" lon="1.1022">
        <ele>129.300003</ele>
        <time>2015-12-13T08:20:45Z</time>
      </trkpt>
      <trkpt lat="49.03806" lon="1.10205">
        <ele>129.5</ele>
        <time>2015-12-13T08:20:48Z</time>
      </trkpt>
      <trkpt lat="49.03813" lon="1.10189">
        <ele>129.899994</ele>
        <time>2015-12-13T08:20:51Z</time>
      </trkpt>
      <trkpt lat="49.03818" lon="1.10172">
        <ele>130.300003</ele>
        <time>2015-12-13T08:20:54Z</time>
      </trkpt>
      <trkpt lat="49.03821" lon="1.10154">
        <ele>130.600006</ele>
        <time>2015-12-13T08:20:57Z</time>
      </trkpt>
      <trkpt lat="49.03825" lon="1.10135">
        <ele>131</ele>
        <time>2015-12-13T08:21:00Z</time>
      </trkpt>
      <trkpt lat="49.03828" lon="1.10117">
        <ele>131.399994</ele>
        <time>2015-12-13T08:21:03Z</time>
      </trkpt>
      <trkpt lat="49.03831" lon="1.10098">
        <ele>131.699997</ele>
        <time>2015-12-13T08:21:06Z</time>
      </trkpt>
      <trkpt lat="49.03835" lon="1.10079">
        <ele>131.899994</ele>
        <time>2015-12-13T08:21:09Z</time>
      </trkpt>
      <trkpt lat="49.03838" lon="1.1006">
        <ele>132.199997</ele>
        <time>2015-12-13T08:21:12Z</time>
      </trkpt>
      <trkpt lat="49.03842" lon="1.10047">
        <ele>132.399994</ele>
        <time>2015-12-13T08:21:14Z</time>
      </trkpt>
      <trkpt lat="49.03846" lon="1.10034">
        <ele>132.699997</ele>
        <time>2015-12-13T08:21:16Z</time>
      </trkpt>
      <trkpt lat="49.03851" lon="1.10021">
        <ele>132.899994</ele>
        <time>2015-12-13T08:21:18Z</time>
      </trkpt>
      <trkpt lat="49.03857" lon="1.10009">
        <ele>133.100006</ele>
        <time>2015-12-13T08:21:20Z</time>
      </trkpt>
      <trkpt lat="49.03863" lon="1.09997">
        <ele>133.300003</ele>
        <time>2015-12-13T08:21:22Z</time>
      </trkpt>
      <trkpt lat="49.03869" lon="1.09985">
        <ele>133.5</ele>
        <time>2015-12-13T08:21:24Z</time>
      </trkpt>
      <trkpt lat="49.03876" lon="1.09973">
        <ele>133.699997</ele>
        <time>2015-12-13T08:21:26Z</time>
      </trkpt>
      <trkpt lat="49.03882" lon="1.09961">
        <ele>133.800003</ele>
        <time>2015-12-13T08:21:28Z</time>
      </trkpt>
      <trkpt lat="49.03888" lon="1.0995">
        <ele>133.899994</ele>
        <time>2015-12-13T08:21:30Z</time>
      </trkpt>
      <trkpt lat="49.03894" lon="1.09938">
        <ele>134</ele>
        <time>2015-12-13T08:21:32Z</time>
      </trkpt>
      <trkpt lat="49.03901" lon="1.09927">
        <ele>134.199997</ele>
        <time>2015-12-13T08:21:34Z</time>
      </trkpt>
      <trkpt lat="49.03907" lon="1.09914">
        <ele>134.300003</ele>
        <time>2015-12-13T08:21:36Z</time>
      </trkpt>
      <trkpt lat="49.03914" lon="1.09902">
        <ele>134.5</ele>
        <time>2015-12-13T08:21:38Z</time>
      </trkpt>
      <trkpt lat="49.0392" lon="1.0989">
        <ele>134.600006</ele>
        <time>2015-12-13T08:21:40Z</time>
      </trkpt>
      <trkpt lat="49.03927" lon="1.09878">
        <ele>134.699997</ele>
        <time>2015-12-13T08:21:42Z</time>
      </trkpt>
      <trkpt lat="49.03934" lon="1.09865">
        <ele>134.699997</ele>
        <time>2015-12-13T08:21:44Z</time>
      </trkpt>
      <trkpt lat="49.03941" lon="1.09853">
        <ele>134.800003</ele>
        <time>2015-12-13T08:21:46Z</time>
      </trkpt>
      <trkpt lat="49.03948" lon="1.09841">
        <ele>134.899994</ele>
        <time>2015-12-13T08:21:48Z</time>
      </trkpt>
      <trkpt lat="49.03954" lon="1.09828">
        <ele>135</ele>
        <time>2015-12-13T08:21:50Z</time>
      </trkpt>
      <trkpt lat="49.03961" lon="1.09816">
        <ele>135.100006</ele>
        <time>2015-12-13T08:21:52Z</time>
      </trkpt>
      <trkpt lat="49.03967" lon="1.09803">
        <ele>135.199997</ele>
        <time>2015-12-13T08:21:54Z</time>
      </trkpt>
      <trkpt lat="49.03973" lon="1.0979">
        <ele>135.199997</ele>
        <time>2015-12-13T08:21:56Z</time>
      </trkpt>
      <trkpt lat="49.03979" lon="1.09776">
        <ele>135.300003</ele>
        <time>2015-12-13T08:21:58Z</time>
      </trkpt>
      <trkpt lat="49.03985" lon="1.09762">
        <ele>135.300003</ele>
        <time>2015-12-13T08:22:00Z</time>
      </trkpt>
      <trkpt lat="49.0399" lon="1.09748">
        <ele>135.399994</ele>
        <time>2015-12-13T08:22:02Z</time>
      </trkpt>
      <trkpt lat="49.03995" lon="1.09734">
        <ele>135.399994</ele>
        <time>2015-12-13T08:22:04Z</time>
      </trkpt>
      <trkpt lat="49.04" lon="1.0972">
        <ele>135.399994</ele>
        <time>2015-12-13T08:22:06Z</time>
      </trkpt>
      <trkpt lat="49.04005" lon="1.09707">
        <ele>135.5</ele>
        <time>2015-12-13T08:22:08Z</time>
      </trkpt>
      <trkpt lat="49.04011" lon="1.09693">
        <ele>135.5</ele>
        <time>2015-12-13T08:22:10Z</time>
      </trkpt>
      <trkpt lat="49.04016" lon="1.0968">
        <ele>135.5</ele>
        <time>2015-12-13T08:22:12Z</time>
      </trkpt>
      <trkpt lat="49.04022" lon="1.09667">
        <ele>135.5</ele>
        <time>2015-12-13T08:22:14Z</time>
      </trkpt>
      <trkpt lat="49.04027" lon="1.09653">
        <ele>135.600006</ele>
        <time>2015-12-13T08:22:16Z</time>
      </trkpt>
      <trkpt lat="49.04032" lon="1.0964">
        <ele>135.600006</ele>
        <time>2015-12-13T08:22:18Z</time>
      </trkpt>
      <trkpt lat="49.04038" lon="1.09627">
        <ele>135.600006</ele>
        <time>2015-12-13T08:22:20Z</time>
      </trkpt>
      <trkpt lat="49.04043" lon="1.09613">
        <ele>135.5</ele>
        <time>2015-12-13T08:22:22Z</time>
      </trkpt>
      <trkpt lat="49.0405" lon="1.096">
        <ele>135.5</ele>
        <time>2015-12-13T08:22:24Z</time>
      </trkpt>
      <trkpt lat="49.04056" lon="1.09588">
        <ele>135.399994</ele>
        <time>2015-12-13T08:22:26Z</time>
      </trkpt>
      <trkpt lat="49.04063" lon="1.09575">
        <ele>135.399994</ele>
        <time>2015-12-13T08:22:28Z</time>
      </trkpt>
      <trkpt lat="49.0407" lon="1.09562">
        <ele>135.399994</ele>
        <time>2015-12-13T08:22:30Z</time>
      </trkpt>
      <trkpt lat="49.04076" lon="1.09548">
        <ele>135.300003</ele>
        <time>2015-12-13T08:22:32Z</time>
      </trkpt>
      <trkpt lat="49.04082" lon="1.09535">
        <ele>135.100006</ele>
        <time>2015-12-13T08:22:34Z</time>
      </trkpt>
      <trkpt lat="49.04087" lon="1.09519">
        <ele>135</ele>
        <time>2015-12-13T08:22:36Z</time>
      </trkpt>
      <trkpt lat="49.04091" lon="1.09503">
        <ele>134.899994</ele>
        <time>2015-12-13T08:22:38Z</time>
      </trkpt>
      <trkpt lat="49.04096" lon="1.09488">
        <ele>134.800003</ele>
        <time>2015-12-13T08:22:40Z</time>
      </trkpt>
      <trkpt lat="49.041" lon="1.09472">
        <ele>134.699997</ele>
        <time>2015-12-13T08:22:42Z</time>
      </trkpt>
      <trkpt lat="49.04105" lon="1.09456">
        <ele>134.600006</ele>
        <time>2015-12-13T08:22:44Z</time>
      </trkpt>
      <trkpt lat="49.04111" lon="1.09441">
        <ele>134.5</ele>
        <time>2015-12-13T08:22:46Z</time>
      </trkpt>
      <trkpt lat="49.04117" lon="1.09425">
        <ele>134.300003</ele>
        <time>2015-12-13T08:22:48Z</time>
      </trkpt>
      <trkpt lat="49.04123" lon="1.0941">
        <ele>134.199997</ele>
        <time>2015-12-13T08:22:50Z</time>
      </trkpt>
      <trkpt lat="49.04128" lon="1.09396">
        <ele>134.100006</ele>
        <time>2015-12-13T08:22:52Z</time>
      </trkpt>
      <trkpt lat="49.04132" lon="1.09382">
        <ele>134</ele>
        <time>2015-12-13T08:22:54Z</time>
      </trkpt>
      <trkpt lat="49.04137" lon="1.09368">
        <ele>134</ele>
        <time>2015-12-13T08:22:56Z</time>
      </trkpt>
      <trkpt lat="49.04141" lon="1.09353">
        <ele>133.899994</ele>
        <time>2015-12-13T08:22:58Z</time>
      </trkpt>
      <trkpt lat="49.04146" lon="1.09339">
        <ele>133.800003</ele>
        <time>2015-12-13T08:23:00Z</time>
      </trkpt>
      <trkpt lat="49.04151" lon="1.09324">
        <ele>133.800003</ele>
        <time>2015-12-13T08:23:02Z</time>
      </trkpt>
      <trkpt lat="49.04156" lon="1.09309">
        <ele>133.699997</ele>
        <time>2015-12-13T08:23:04Z</time>
      </trkpt>
      <trkpt lat="49.04161" lon="1.09294">
        <ele>133.699997</ele>
        <time>2015-12-13T08:23:06Z</time>
      </trkpt>
      <trkpt lat="49.04165" lon="1.09279">
        <ele>133.699997</ele>
        <time>2015-12-13T08:23:08Z</time>
      </trkpt>
      <trkpt lat="49.0417" lon="1.09265">
        <ele>133.600006</ele>
        <time>2015-12-13T08:23:10Z</time>
      </trkpt>
      <trkpt lat="49.04175" lon="1.0925">
        <ele>133.600006</ele>
        <time>2015-12-13T08:23:12Z</time>
      </trkpt>
      <trkpt lat="49.04181" lon="1.09236">
        <ele>133.600006</ele>
        <time>2015-12-13T08:23:14Z</time>
      </trkpt>
      <trkpt lat="49.04187" lon="1.09222">
        <ele>133.600006</ele>
        <time>2015-12-13T08:23:16Z</time>
      </trkpt>
      <trkpt lat="49.04193" lon="1.09209">
        <ele>133.600006</ele>
        <time>2015-12-13T08:23:18Z</time>
      </trkpt>
      <trkpt lat="49.042" lon="1.09196">
        <ele>133.5</ele>
        <time>2015-12-13T08:23:20Z</time>
      </trkpt>
      <trkpt lat="49.04207" lon="1.09184">
        <ele>133.5</ele>
        <time>2015-12-13T08:23:22Z</time>
      </trkpt>
      <trkpt lat="49.04214" lon="1.0917">
        <ele>133.5</ele>
        <time>2015-12-13T08:23:24Z</time>
      </trkpt>
      <trkpt lat="49.04221" lon="1.09157">
        <ele>133.5</ele>
        <time>2015-12-13T08:23:26Z</time>
      </trkpt>
      <trkpt lat="49.04227" lon="1.09143">
        <ele>133.5</ele>
        <time>2015-12-13T08:23:28Z</time>
      </trkpt>
      <trkpt lat="49.04233" lon="1.0913">
        <ele>133.5</ele>
        <time>2015-12-13T08:23:30Z</time>
      </trkpt>
      <trkpt lat="49.04239" lon="1.09117">
        <ele>133.5</ele>
        <time>2015-12-13T08:23:32Z</time>
      </trkpt>
      <trkpt lat="49.04245" lon="1.09105">
        <ele>133.5</ele>
        <time>2015-12-13T08:23:34Z</time>
      </trkpt>
      <trkpt lat="49.04251" lon="1.09094">
        <ele>133.5</ele>
        <time>2015-12-13T08:23:36Z</time>
      </trkpt>
      <trkpt lat="49.04256" lon="1.09082">
        <ele>133.5</ele>
        <time>2015-12-13T08:23:38Z</time>
      </trkpt>
      <trkpt lat="49.04262" lon="1.0907">
        <ele>133.600006</ele>
        <time>2015-12-13T08:23:40Z</time>
      </trkpt>
      <trkpt lat="49.04268" lon="1.09058">
        <ele>133.600006</ele>
        <time>2015-12-13T08:23:42Z</time>
      </trkpt>
      <trkpt lat="49.04275" lon="1.09046">
        <ele>133.600006</ele>
        <time>2015-12-13T08:23:44Z</time>
      </trkpt>
      <trkpt lat="49.04281" lon="1.09034">
        <ele>133.600006</ele>
        <time>2015-12-13T08:23:46Z</time>
      </trkpt>
      <trkpt lat="49.04287" lon="1.09021">
        <ele>133.600006</ele>
        <time>2015-12-13T08:23:48Z</time>
      </trkpt>
      <trkpt lat="49.04295" lon="1.09009">
        <ele>133.600006</ele>
        <time>2015-12-13T08:23:50Z</time>
      </trkpt>
      <trkpt lat="49.04302" lon="1.08997">
        <ele>133.600006</ele>
        <time>2015-12-13T08:23:52Z</time>
      </trkpt>
      <trkpt lat="49.04308" lon="1.08984">
        <ele>133.600006</ele>
        <time>2015-12-13T08:23:54Z</time>
      </trkpt>
      <trkpt lat="49.04315" lon="1.08971">
        <ele>133.600006</ele>
        <time>2015-12-13T08:23:56Z</time>
      </trkpt>
      <trkpt lat="49.04323" lon="1.08957">
        <ele>133.600006</ele>
        <time>2015-12-13T08:23:58Z</time>
      </trkpt>
      <trkpt lat="49.0433" lon="1.08943">
        <ele>133.600006</ele>
        <time>2015-12-13T08:24:00Z</time>
      </trkpt>
      <trkpt lat="49.04337" lon="1.08929">
        <ele>133.600006</ele>
        <time>2015-12-13T08:24:02Z</time>
      </trkpt>
      <trkpt lat="49.04345" lon="1.08914">
        <ele>133.399994</ele>
        <time>2015-12-13T08:24:04Z</time>
      </trkpt>
      <trkpt lat="49.04353" lon="1.089">
        <ele>133.300003</ele>
        <time>2015-12-13T08:24:06Z</time>
      </trkpt>
      <trkpt lat="49.04361" lon="1.08886">
        <ele>133</ele>
        <time>2015-12-13T08:24:08Z</time>
      </trkpt>
      <trkpt lat="49.04369" lon="1.08871">
        <ele>132.800003</ele>
        <time>2015-12-13T08:24:10Z</time>
      </trkpt>
      <trkpt lat="49.04376" lon="1.08857">
        <ele>132.600006</ele>
        <time>2015-12-13T08:24:12Z</time>
      </trkpt>
      <trkpt lat="49.04385" lon="1.08844">
        <ele>132.300003</ele>
        <time>2015-12-13T08:24:14Z</time>
      </trkpt>
      <trkpt lat="49.04396" lon="1.08832">
        <ele>132.100006</ele>
        <time>2015-12-13T08:24:16Z</time>
      </trkpt>
      <trkpt lat="49.04407" lon="1.08821">
        <ele>131.699997</ele>
        <time>2015-12-13T08:24:18Z</time>
      </trkpt>
      <trkpt lat="49.04418" lon="1.0881">
        <ele>131.300003</ele>
        <time>2015-12-13T08:24:20Z</time>
      </trkpt>
      <trkpt lat="49.04428" lon="1.08798">
        <ele>130.899994</ele>
        <time>2015-12-13T08:24:22Z</time>
      </trkpt>
      <trkpt lat="49.04438" lon="1.08785">
        <ele>130.5</ele>
        <time>2015-12-13T08:24:24Z</time>
      </trkpt>
      <trkpt lat="49.04447" lon="1.08773">
        <ele>130.100006</ele>
        <time>2015-12-13T08:24:26Z</time>
      </trkpt>
      <trkpt lat="49.04456" lon="1.08762">
        <ele>129.699997</ele>
        <time>2015-12-13T08:24:28Z</time>
      </trkpt>
      <trkpt lat="49.04468" lon="1.08761">
        <ele>129.199997</ele>
        <time>2015-12-13T08:24:31Z</time>
      </trkpt>
      <trkpt lat="49.04478" lon="1.08765">
        <ele>128.300003</ele>
        <time>2015-12-13T08:24:36Z</time>
      </trkpt>
      <trkpt lat="49.04486" lon="1.0877">
        <ele>127.800003</ele>
        <time>2015-12-13T08:24:39Z</time>
      </trkpt>
      <trkpt lat="49.04498" lon="1.08779">
        <ele>127.300003</ele>
        <time>2015-12-13T08:24:42Z</time>
      </trkpt>
      <trkpt lat="49.04508" lon="1.08785">
        <ele>127.099998</ele>
        <time>2015-12-13T08:24:44Z</time>
      </trkpt>
      <trkpt lat="49.04519" lon="1.08789">
        <ele>126.800003</ele>
        <time>2015-12-13T08:24:46Z</time>
      </trkpt>
      <trkpt lat="49.0453" lon="1.08792">
        <ele>126.699997</ele>
        <time>2015-12-13T08:24:48Z</time>
      </trkpt>
      <trkpt lat="49.0454" lon="1.08793">
        <ele>126.599998</ele>
        <time>2015-12-13T08:24:50Z</time>
      </trkpt>
      <trkpt lat="49.0455" lon="1.08793">
        <ele>126.599998</ele>
        <time>2015-12-13T08:24:52Z</time>
      </trkpt>
      <trkpt lat="49.04559" lon="1.08793">
        <ele>126.699997</ele>
        <time>2015-12-13T08:24:54Z</time>
      </trkpt>
      <trkpt lat="49.04562" lon="1.08808">
        <ele>126.900002</ele>
        <time>2015-12-13T08:24:57Z</time>
      </trkpt>
      <trkpt lat="49.04554" lon="1.08822">
        <ele>127.099998</ele>
        <time>2015-12-13T08:25:00Z</time>
      </trkpt>
      <trkpt lat="49.04547" lon="1.08832">
        <ele>127.300003</ele>
        <time>2015-12-13T08:25:02Z</time>
      </trkpt>
      <trkpt lat="49.04539" lon="1.08848">
        <ele>127.599998</ele>
        <time>2015-12-13T08:25:05Z</time>
      </trkpt>
      <trkpt lat="49.04531" lon="1.08864">
        <ele>128</ele>
        <time>2015-12-13T08:25:08Z</time>
      </trkpt>
      <trkpt lat="49.04525" lon="1.08882">
        <ele>128.5</ele>
        <time>2015-12-13T08:25:11Z</time>
      </trkpt>
      <trkpt lat="49.04523" lon="1.08895">
        <ele>128.699997</ele>
        <time>2015-12-13T08:25:13Z</time>
      </trkpt>
      <trkpt lat="49.04523" lon="1.08909">
        <ele>129</ele>
        <time>2015-12-13T08:25:15Z</time>
      </trkpt>
      <trkpt lat="49.04524" lon="1.08923">
        <ele>129.300003</ele>
        <time>2015-12-13T08:25:17Z</time>
      </trkpt>
      <trkpt lat="49.04525" lon="1.08937">
        <ele>129.600006</ele>
        <time>2015-12-13T08:25:19Z</time>
      </trkpt>
      <trkpt lat="49.04527" lon="1.08951">
        <ele>129.899994</ele>
        <time>2015-12-13T08:25:21Z</time>
      </trkpt>
      <trkpt lat="49.04529" lon="1.08964">
        <ele>130.100006</ele>
        <time>2015-12-13T08:25:23Z</time>
      </trkpt>
      <trkpt lat="49.0453" lon="1.08978">
        <ele>130.399994</ele>
        <time>2015-12-13T08:25:25Z</time>
      </trkpt>
      <trkpt lat="49.04532" lon="1.08992">
        <ele>130.600006</ele>
        <time>2015-12-13T08:25:27Z</time>
      </trkpt>
      <trkpt lat="49.04534" lon="1.09006">
        <ele>130.899994</ele>
        <time>2015-12-13T08:25:29Z</time>
      </trkpt>
      <trkpt lat="49.04536" lon="1.0902">
        <ele>131.100006</ele>
        <time>2015-12-13T08:25:31Z</time>
      </trkpt>
      <trkpt lat="49.04538" lon="1.09035">
        <ele>131.399994</ele>
        <time>2015-12-13T08:25:33Z</time>
      </trkpt>
      <trkpt lat="49.0454" lon="1.09048">
        <ele>131.699997</ele>
        <time>2015-12-13T08:25:35Z</time>
      </trkpt>
      <trkpt lat="49.04542" lon="1.09062">
        <ele>131.899994</ele>
        <time>2015-12-13T08:25:37Z</time>
      </trkpt>
      <trkpt lat="49.04544" lon="1.09077">
        <ele>132.199997</ele>
        <time>2015-12-13T08:25:39Z</time>
      </trkpt>
      <trkpt lat="49.04546" lon="1.0909">
        <ele>132.399994</ele>
        <time>2015-12-13T08:25:41Z</time>
      </trkpt>
      <trkpt lat="49.04549" lon="1.09104">
        <ele>132.699997</ele>
        <time>2015-12-13T08:25:43Z</time>
      </trkpt>
      <trkpt lat="49.04551" lon="1.09118">
        <ele>132.899994</ele>
        <time>2015-12-13T08:25:45Z</time>
      </trkpt>
      <trkpt lat="49.04553" lon="1.09132">
        <ele>133.199997</ele>
        <time>2015-12-13T08:25:47Z</time>
      </trkpt>
      <trkpt lat="49.04555" lon="1.09146">
        <ele>133.399994</ele>
        <time>2015-12-13T08:25:49Z</time>
      </trkpt>
      <trkpt lat="49.04556" lon="1.09161">
        <ele>133.800003</ele>
        <time>2015-12-13T08:25:51Z</time>
      </trkpt>
      <trkpt lat="49.04558" lon="1.09176">
        <ele>134.100006</ele>
        <time>2015-12-13T08:25:53Z</time>
      </trkpt>
      <trkpt lat="49.0456" lon="1.0919">
        <ele>134.399994</ele>
        <time>2015-12-13T08:25:55Z</time>
      </trkpt>
      <trkpt lat="49.04562" lon="1.09205">
        <ele>134.600006</ele>
        <time>2015-12-13T08:25:57Z</time>
      </trkpt>
      <trkpt lat="49.04564" lon="1.0922">
        <ele>134.899994</ele>
        <time>2015-12-13T08:25:59Z</time>
      </trkpt>
      <trkpt lat="49.04565" lon="1.09235">
        <ele>135.100006</ele>
        <time>2015-12-13T08:26:01Z</time>
      </trkpt>
      <trkpt lat="49.04567" lon="1.0925">
        <ele>135.399994</ele>
        <time>2015-12-13T08:26:03Z</time>
      </trkpt>
      <trkpt lat="49.04569" lon="1.09265">
        <ele>135.600006</ele>
        <time>2015-12-13T08:26:05Z</time>
      </trkpt>
      <trkpt lat="49.04571" lon="1.09281">
        <ele>135.899994</ele>
        <time>2015-12-13T08:26:07Z</time>
      </trkpt>
      <trkpt lat="49.04573" lon="1.09296">
        <ele>136.100006</ele>
        <time>2015-12-13T08:26:09Z</time>
      </trkpt>
      <trkpt lat="49.04575" lon="1.09312">
        <ele>136.300003</ele>
        <time>2015-12-13T08:26:11Z</time>
      </trkpt>
      <trkpt lat="49.04578" lon="1.09327">
        <ele>136.5</ele>
        <time>2015-12-13T08:26:13Z</time>
      </trkpt>
      <trkpt lat="49.0458" lon="1.09343">
        <ele>136.699997</ele>
        <time>2015-12-13T08:26:15Z</time>
      </trkpt>
      <trkpt lat="49.04582" lon="1.09359">
        <ele>136.800003</ele>
        <time>2015-12-13T08:26:17Z</time>
      </trkpt>
      <trkpt lat="49.04584" lon="1.09375">
        <ele>137</ele>
        <time>2015-12-13T08:26:19Z</time>
      </trkpt>
      <trkpt lat="49.04586" lon="1.0939">
        <ele>137.100006</ele>
        <time>2015-12-13T08:26:21Z</time>
      </trkpt>
      <trkpt lat="49.04588" lon="1.09406">
        <ele>137.300003</ele>
        <time>2015-12-13T08:26:23Z</time>
      </trkpt>
      <trkpt lat="49.0459" lon="1.09421">
        <ele>137.399994</ele>
        <time>2015-12-13T08:26:25Z</time>
      </trkpt>
      <trkpt lat="49.04593" lon="1.09437">
        <ele>137.5</ele>
        <time>2015-12-13T08:26:27Z</time>
      </trkpt>
      <trkpt lat="49.04595" lon="1.09453">
        <ele>137.699997</ele>
        <time>2015-12-13T08:26:29Z</time>
      </trkpt>
      <trkpt lat="49.04598" lon="1.09469">
        <ele>137.800003</ele>
        <time>2015-12-13T08:26:31Z</time>
      </trkpt>
      <trkpt lat="49.046" lon="1.09485">
        <ele>137.899994</ele>
        <time>2015-12-13T08:26:33Z</time>
      </trkpt>
      <trkpt lat="49.04602" lon="1.09501">
        <ele>137.899994</ele>
        <time>2015-12-13T08:26:35Z</time>
      </trkpt>
      <trkpt lat="49.04604" lon="1.09518">
        <ele>138</ele>
        <time>2015-12-13T08:26:37Z</time>
      </trkpt>
      <trkpt lat="49.04607" lon="1.09534">
        <ele>138.100006</ele>
        <time>2015-12-13T08:26:39Z</time>
      </trkpt>
      <trkpt lat="49.04609" lon="1.0955">
        <ele>138.100006</ele>
        <time>2015-12-13T08:26:41Z</time>
      </trkpt>
      <trkpt lat="49.0461" lon="1.09566">
        <ele>138.199997</ele>
        <time>2015-12-13T08:26:43Z</time>
      </trkpt>
      <trkpt lat="49.0461" lon="1.09583">
        <ele>138.199997</ele>
        <time>2015-12-13T08:26:45Z</time>
      </trkpt>
      <trkpt lat="49.04608" lon="1.09601">
        <ele>138.199997</ele>
        <time>2015-12-13T08:26:47Z</time>
      </trkpt>
      <trkpt lat="49.04604" lon="1.09619">
        <ele>138.100006</ele>
        <time>2015-12-13T08:26:49Z</time>
      </trkpt>
      <trkpt lat="49.04599" lon="1.09636">
        <ele>138.100006</ele>
        <time>2015-12-13T08:26:51Z</time>
      </trkpt>
      <trkpt lat="49.04595" lon="1.09653">
        <ele>138</ele>
        <time>2015-12-13T08:26:53Z</time>
      </trkpt>
      <trkpt lat="49.0459" lon="1.0967">
        <ele>137.899994</ele>
        <time>2015-12-13T08:26:55Z</time>
      </trkpt>
      <trkpt lat="49.04585" lon="1.09687">
        <ele>137.899994</ele>
        <time>2015-12-13T08:26:57Z</time>
      </trkpt>
      <trkpt lat="49.0458" lon="1.09705">
        <ele>137.800003</ele>
        <time>2015-12-13T08:26:59Z</time>
      </trkpt>
      <trkpt lat="49.04575" lon="1.09722">
        <ele>137.5</ele>
        <time>2015-12-13T08:27:01Z</time>
      </trkpt>
      <trkpt lat="49.0457" lon="1.09739">
        <ele>137.300003</ele>
        <time>2015-12-13T08:27:03Z</time>
      </trkpt>
      <trkpt lat="49.04567" lon="1.09753">
        <ele>137.199997</ele>
        <time>2015-12-13T08:27:05Z</time>
      </trkpt>
      <trkpt lat="49.04565" lon="1.09768">
        <ele>137</ele>
        <time>2015-12-13T08:27:07Z</time>
      </trkpt>
      <trkpt lat="49.04563" lon="1.09782">
        <ele>136.699997</ele>
        <time>2015-12-13T08:27:09Z</time>
      </trkpt>
      <trkpt lat="49.0456" lon="1.098">
        <ele>136.399994</ele>
        <time>2015-12-13T08:27:11Z</time>
      </trkpt>
      <trkpt lat="49.04556" lon="1.09819">
        <ele>136.100006</ele>
        <time>2015-12-13T08:27:13Z</time>
      </trkpt>
      <trkpt lat="49.04552" lon="1.09836">
        <ele>135.899994</ele>
        <time>2015-12-13T08:27:15Z</time>
      </trkpt>
      <trkpt lat="49.0455" lon="1.09857">
        <ele>135.5</ele>
        <time>2015-12-13T08:27:17Z</time>
      </trkpt>
      <trkpt lat="49.04548" lon="1.0988">
        <ele>135.199997</ele>
        <time>2015-12-13T08:27:19Z</time>
      </trkpt>
      <trkpt lat="49.04546" lon="1.09906">
        <ele>134.899994</ele>
        <time>2015-12-13T08:27:21Z</time>
      </trkpt>
      <trkpt lat="49.04546" lon="1.09931">
        <ele>134.600006</ele>
        <time>2015-12-13T08:27:23Z</time>
      </trkpt>
      <trkpt lat="49.04545" lon="1.09952">
        <ele>134.399994</ele>
        <time>2015-12-13T08:27:25Z</time>
      </trkpt>
      <trkpt lat="49.04544" lon="1.09972">
        <ele>134.199997</ele>
        <time>2015-12-13T08:27:27Z</time>
      </trkpt>
      <trkpt lat="49.04543" lon="1.09989">
        <ele>133.800003</ele>
        <time>2015-12-13T08:27:29Z</time>
      </trkpt>
      <trkpt lat="49.04543" lon="1.10005">
        <ele>133.399994</ele>
        <time>2015-12-13T08:27:31Z</time>
      </trkpt>
      <trkpt lat="49.04542" lon="1.10022">
        <ele>133.100006</ele>
        <time>2015-12-13T08:27:33Z</time>
      </trkpt>
      <trkpt lat="49.04541" lon="1.1004">
        <ele>132.800003</ele>
        <time>2015-12-13T08:27:35Z</time>
      </trkpt>
      <trkpt lat="49.0454" lon="1.10057">
        <ele>132.5</ele>
        <time>2015-12-13T08:27:37Z</time>
      </trkpt>
      <trkpt lat="49.04537" lon="1.10074">
        <ele>132.300003</ele>
        <time>2015-12-13T08:27:39Z</time>
      </trkpt>
      <trkpt lat="49.04532" lon="1.1009">
        <ele>132.100006</ele>
        <time>2015-12-13T08:27:41Z</time>
      </trkpt>
      <trkpt lat="49.04526" lon="1.10106">
        <ele>132</ele>
        <time>2015-12-13T08:27:43Z</time>
      </trkpt>
      <trkpt lat="49.04521" lon="1.10121">
        <ele>131.899994</ele>
        <time>2015-12-13T08:27:45Z</time>
      </trkpt>
      <trkpt lat="49.04518" lon="1.10137">
        <ele>131.800003</ele>
        <time>2015-12-13T08:27:47Z</time>
      </trkpt>
      <trkpt lat="49.04517" lon="1.10154">
        <ele>131.699997</ele>
        <time>2015-12-13T08:27:49Z</time>
      </trkpt>
      <trkpt lat="49.04516" lon="1.10169">
        <ele>131.600006</ele>
        <time>2015-12-13T08:27:51Z</time>
      </trkpt>
      <trkpt lat="49.04515" lon="1.10184">
        <ele>131.399994</ele>
        <time>2015-12-13T08:27:53Z</time>
      </trkpt>
      <trkpt lat="49.04515" lon="1.10199">
        <ele>131.300003</ele>
        <time>2015-12-13T08:27:55Z</time>
      </trkpt>
      <trkpt lat="49.04515" lon="1.10213">
        <ele>131.300003</ele>
        <time>2015-12-13T08:27:57Z</time>
      </trkpt>
      <trkpt lat="49.04515" lon="1.10234">
        <ele>131.199997</ele>
        <time>2015-12-13T08:28:00Z</time>
      </trkpt>
      <trkpt lat="49.04514" lon="1.10248">
        <ele>131.100006</ele>
        <time>2015-12-13T08:28:02Z</time>
      </trkpt>
      <trkpt lat="49.0451" lon="1.10263">
        <ele>131.199997</ele>
        <time>2015-12-13T08:28:04Z</time>
      </trkpt>
      <trkpt lat="49.04507" lon="1.10276">
        <ele>131.300003</ele>
        <time>2015-12-13T08:28:06Z</time>
      </trkpt>
      <trkpt lat="49.04504" lon="1.1029">
        <ele>131.300003</ele>
        <time>2015-12-13T08:28:08Z</time>
      </trkpt>
      <trkpt lat="49.04502" lon="1.10306">
        <ele>131.399994</ele>
        <time>2015-12-13T08:28:10Z</time>
      </trkpt>
      <trkpt lat="49.04503" lon="1.10322">
        <ele>131.5</ele>
        <time>2015-12-13T08:28:12Z</time>
      </trkpt>
      <trkpt lat="49.04505" lon="1.1034">
        <ele>131.5</ele>
        <time>2015-12-13T08:28:14Z</time>
      </trkpt>
      <trkpt lat="49.04504" lon="1.10358">
        <ele>131.5</ele>
        <time>2015-12-13T08:28:16Z</time>
      </trkpt>
      <trkpt lat="49.04502" lon="1.10376">
        <ele>131.5</ele>
        <time>2015-12-13T08:28:18Z</time>
      </trkpt>
      <trkpt lat="49.04498" lon="1.10392">
        <ele>131.399994</ele>
        <time>2015-12-13T08:28:20Z</time>
      </trkpt>
      <trkpt lat="49.04491" lon="1.1041">
        <ele>131.300003</ele>
        <time>2015-12-13T08:28:23Z</time>
      </trkpt>
      <trkpt lat="49.04486" lon="1.10426">
        <ele>131.199997</ele>
        <time>2015-12-13T08:28:25Z</time>
      </trkpt>
      <trkpt lat="49.04483" lon="1.10439">
        <ele>131</ele>
        <time>2015-12-13T08:28:27Z</time>
      </trkpt>
      <trkpt lat="49.04479" lon="1.10453">
        <ele>130.800003</ele>
        <time>2015-12-13T08:28:29Z</time>
      </trkpt>
      <trkpt lat="49.04475" lon="1.10471">
        <ele>130.600006</ele>
        <time>2015-12-13T08:28:31Z</time>
      </trkpt>
      <trkpt lat="49.04474" lon="1.10486">
        <ele>130.399994</ele>
        <time>2015-12-13T08:28:33Z</time>
      </trkpt>
      <trkpt lat="49.04475" lon="1.105">
        <ele>130.100006</ele>
        <time>2015-12-13T08:28:35Z</time>
      </trkpt>
      <trkpt lat="49.0448" lon="1.10517">
        <ele>129.699997</ele>
        <time>2015-12-13T08:28:37Z</time>
      </trkpt>
      <trkpt lat="49.0449" lon="1.1053">
        <ele>129.100006</ele>
        <time>2015-12-13T08:28:39Z</time>
      </trkpt>
      <trkpt lat="49.04498" lon="1.10544">
        <ele>128.600006</ele>
        <time>2015-12-13T08:28:41Z</time>
      </trkpt>
      <trkpt lat="49.045" lon="1.1056">
        <ele>128.100006</ele>
        <time>2015-12-13T08:28:43Z</time>
      </trkpt>
      <trkpt lat="49.04498" lon="1.10577">
        <ele>127.5</ele>
        <time>2015-12-13T08:28:46Z</time>
      </trkpt>
      <trkpt lat="49.04492" lon="1.10588">
        <ele>127.099998</ele>
        <time>2015-12-13T08:28:49Z</time>
      </trkpt>
      <trkpt lat="49.04483" lon="1.10604">
        <ele>126.699997</ele>
        <time>2015-12-13T08:28:52Z</time>
      </trkpt>
      <trkpt lat="49.04477" lon="1.1062">
        <ele>126.400002</ele>
        <time>2015-12-13T08:28:55Z</time>
      </trkpt>
      <trkpt lat="49.04472" lon="1.10632">
        <ele>126.199997</ele>
        <time>2015-12-13T08:28:57Z</time>
      </trkpt>
      <trkpt lat="49.04465" lon="1.10644">
        <ele>126</ele>
        <time>2015-12-13T08:28:59Z</time>
      </trkpt>
      <trkpt lat="49.04461" lon="1.10657">
        <ele>125.699997</ele>
        <time>2015-12-13T08:29:02Z</time>
      </trkpt>
      <trkpt lat="49.04456" lon="1.1067">
        <ele>125.5</ele>
        <time>2015-12-13T08:29:05Z</time>
      </trkpt>
      <trkpt lat="49.0445" lon="1.10685">
        <ele>125.099998</ele>
        <time>2015-12-13T08:29:08Z</time>
      </trkpt>
      <trkpt lat="49.04444" lon="1.107">
        <ele>124.900002</ele>
        <time>2015-12-13T08:29:10Z</time>
      </trkpt>
      <trkpt lat="49.04438" lon="1.10716">
        <ele>124.599998</ele>
        <time>2015-12-13T08:29:12Z</time>
      </trkpt>
      <trkpt lat="49.04434" lon="1.10729">
        <ele>124.300003</ele>
        <time>2015-12-13T08:29:14Z</time>
      </trkpt>
      <trkpt lat="49.0443" lon="1.10743">
        <ele>124</ele>
        <time>2015-12-13T08:29:16Z</time>
      </trkpt>
      <trkpt lat="49.04425" lon="1.1076">
        <ele>123.599998</ele>
        <time>2015-12-13T08:29:19Z</time>
      </trkpt>
      <trkpt lat="49.0442" lon="1.10774">
        <ele>123.400002</ele>
        <time>2015-12-13T08:29:21Z</time>
      </trkpt>
      <trkpt lat="49.04415" lon="1.10789">
        <ele>123</ele>
        <time>2015-12-13T08:29:23Z</time>
      </trkpt>
      <trkpt lat="49.04409" lon="1.10808">
        <ele>122.5</ele>
        <time>2015-12-13T08:29:25Z</time>
      </trkpt>
      <trkpt lat="49.04404" lon="1.10823">
        <ele>122.199997</ele>
        <time>2015-12-13T08:29:27Z</time>
      </trkpt>
      <trkpt lat="49.04398" lon="1.10841">
        <ele>121.900002</ele>
        <time>2015-12-13T08:29:30Z</time>
      </trkpt>
      <trkpt lat="49.04394" lon="1.10856">
        <ele>121.599998</ele>
        <time>2015-12-13T08:29:33Z</time>
      </trkpt>
      <trkpt lat="49.04389" lon="1.10876">
        <ele>121.400002</ele>
        <time>2015-12-13T08:29:36Z</time>
      </trkpt>
      <trkpt lat="49.04383" lon="1.10891">
        <ele>120.800003</ele>
        <time>2015-12-13T08:29:39Z</time>
      </trkpt>
      <trkpt lat="49.04379" lon="1.10904">
        <ele>120.300003</ele>
        <time>2015-12-13T08:29:41Z</time>
      </trkpt>
      <trkpt lat="49.04372" lon="1.10916">
        <ele>119.199997</ele>
        <time>2015-12-13T08:29:44Z</time>
      </trkpt>
      <trkpt lat="49.04362" lon="1.10926">
        <ele>117.900002</ele>
        <time>2015-12-13T08:29:47Z</time>
      </trkpt>
      <trkpt lat="49.04349" lon="1.10928">
        <ele>116.599998</ele>
        <time>2015-12-13T08:29:50Z</time>
      </trkpt>
      <trkpt lat="49.04336" lon="1.10923">
        <ele>115.300003</ele>
        <time>2015-12-13T08:29:53Z</time>
      </trkpt>
      <trkpt lat="49.04327" lon="1.10925">
        <ele>114.400002</ele>
        <time>2015-12-13T08:29:55Z</time>
      </trkpt>
      <trkpt lat="49.04327" lon="1.10941">
        <ele>112.800003</ele>
        <time>2015-12-13T08:29:59Z</time>
      </trkpt>
      <trkpt lat="49.04332" lon="1.10955">
        <ele>111.800003</ele>
        <time>2015-12-13T08:30:02Z</time>
      </trkpt>
      <trkpt lat="49.0434" lon="1.10967">
        <ele>111</ele>
        <time>2015-12-13T08:30:05Z</time>
      </trkpt>
      <trkpt lat="49.04346" lon="1.10978">
        <ele>110.400002</ele>
        <time>2015-12-13T08:30:08Z</time>
      </trkpt>
      <trkpt lat="49.04352" lon="1.10994">
        <ele>109.900002</ele>
        <time>2015-12-13T08:30:12Z</time>
      </trkpt>
      <trkpt lat="49.04355" lon="1.11008">
        <ele>109.699997</ele>
        <time>2015-12-13T08:30:15Z</time>
      </trkpt>
      <trkpt lat="49.04356" lon="1.11022">
        <ele>109.5</ele>
        <time>2015-12-13T08:30:18Z</time>
      </trkpt>
      <trkpt lat="49.04356" lon="1.1104">
        <ele>109.400002</ele>
        <time>2015-12-13T08:30:22Z</time>
      </trkpt>
      <trkpt lat="49.04359" lon="1.11057">
        <ele>109.5</ele>
        <time>2015-12-13T08:30:26Z</time>
      </trkpt>
      <trkpt lat="49.04359" lon="1.11073">
        <ele>109.599998</ele>
        <time>2015-12-13T08:30:29Z</time>
      </trkpt>
      <trkpt lat="49.04358" lon="1.11092">
        <ele>109.800003</ele>
        <time>2015-12-13T08:30:32Z</time>
      </trkpt>
      <trkpt lat="49.04358" lon="1.11107">
        <ele>109.900002</ele>
        <time>2015-12-13T08:30:35Z</time>
      </trkpt>
      <trkpt lat="49.04356" lon="1.11122">
        <ele>110.199997</ele>
        <time>2015-12-13T08:30:38Z</time>
      </trkpt>
      <trkpt lat="49.04352" lon="1.11136">
        <ele>110.599998</ele>
        <time>2015-12-13T08:30:41Z</time>
      </trkpt>
      <trkpt lat="49.04347" lon="1.11149">
        <ele>111</ele>
        <time>2015-12-13T08:30:44Z</time>
      </trkpt>
      <trkpt lat="49.04341" lon="1.11163">
        <ele>111.5</ele>
        <time>2015-12-13T08:30:48Z</time>
      </trkpt>
      <trkpt lat="49.04333" lon="1.11177">
        <ele>111.800003</ele>
        <time>2015-12-13T08:30:51Z</time>
      </trkpt>
      <trkpt lat="49.04326" lon="1.1119">
        <ele>112.199997</ele>
        <time>2015-12-13T08:30:54Z</time>
      </trkpt>
      <trkpt lat="49.04321" lon="1.11204">
        <ele>112.599998</ele>
        <time>2015-12-13T08:30:57Z</time>
      </trkpt>
      <trkpt lat="49.04316" lon="1.11221">
        <ele>113</ele>
        <time>2015-12-13T08:31:00Z</time>
      </trkpt>
      <trkpt lat="49.04315" lon="1.11239">
        <ele>113.5</ele>
        <time>2015-12-13T08:31:03Z</time>
      </trkpt>
      <trkpt lat="49.04314" lon="1.11257">
        <ele>113.900002</ele>
        <time>2015-12-13T08:31:06Z</time>
      </trkpt>
      <trkpt lat="49.04315" lon="1.11273">
        <ele>114.400002</ele>
        <time>2015-12-13T08:31:09Z</time>
      </trkpt>
      <trkpt lat="49.04314" lon="1.1129">
        <ele>114.800003</ele>
        <time>2015-12-13T08:31:12Z</time>
      </trkpt>
      <trkpt lat="49.04313" lon="1.11307">
        <ele>115.300003</ele>
        <time>2015-12-13T08:31:15Z</time>
      </trkpt>
      <trkpt lat="49.04312" lon="1.11325">
        <ele>115.900002</ele>
        <time>2015-12-13T08:31:18Z</time>
      </trkpt>
      <trkpt lat="49.04311" lon="1.11343">
        <ele>116.400002</ele>
        <time>2015-12-13T08:31:21Z</time>
      </trkpt>
      <trkpt lat="49.04312" lon="1.1136">
        <ele>116.900002</ele>
        <time>2015-12-13T08:31:24Z</time>
      </trkpt>
      <trkpt lat="49.04316" lon="1.11375">
        <ele>117.5</ele>
        <time>2015-12-13T08:31:27Z</time>
      </trkpt>
      <trkpt lat="49.04318" lon="1.1139">
        <ele>118</ele>
        <time>2015-12-13T08:31:30Z</time>
      </trkpt>
      <trkpt lat="49.04328" lon="1.11398">
        <ele>118.599998</ele>
        <time>2015-12-13T08:31:34Z</time>
      </trkpt>
      <trkpt lat="49.04338" lon="1.11396">
        <ele>119.300003</ele>
        <time>2015-12-13T08:31:38Z</time>
      </trkpt>
      <trkpt lat="49.04348" lon="1.11392">
        <ele>120.300003</ele>
        <time>2015-12-13T08:31:43Z</time>
      </trkpt>
      <trkpt lat="49.04357" lon="1.11388">
        <ele>121.400002</ele>
        <time>2015-12-13T08:31:48Z</time>
      </trkpt>
      <trkpt lat="49.04367" lon="1.11386">
        <ele>122.599998</ele>
        <time>2015-12-13T08:31:53Z</time>
      </trkpt>
      <trkpt lat="49.04378" lon="1.11387">
        <ele>123.400002</ele>
        <time>2015-12-13T08:31:57Z</time>
      </trkpt>
      <trkpt lat="49.04388" lon="1.11391">
        <ele>124</ele>
        <time>2015-12-13T08:32:00Z</time>
      </trkpt>
      <trkpt lat="49.04396" lon="1.11397">
        <ele>124.599998</ele>
        <time>2015-12-13T08:32:03Z</time>
      </trkpt>
      <trkpt lat="49.04406" lon="1.11402">
        <ele>125.199997</ele>
        <time>2015-12-13T08:32:06Z</time>
      </trkpt>
      <trkpt lat="49.04415" lon="1.11408">
        <ele>125.699997</ele>
        <time>2015-12-13T08:32:09Z</time>
      </trkpt>
      <trkpt lat="49.04425" lon="1.11414">
        <ele>126.400002</ele>
        <time>2015-12-13T08:32:13Z</time>
      </trkpt>
      <trkpt lat="49.04436" lon="1.11419">
        <ele>126.900002</ele>
        <time>2015-12-13T08:32:17Z</time>
      </trkpt>
      <trkpt lat="49.04446" lon="1.11426">
        <ele>127.400002</ele>
        <time>2015-12-13T08:32:20Z</time>
      </trkpt>
      <trkpt lat="49.04456" lon="1.11434">
        <ele>127.800003</ele>
        <time>2015-12-13T08:32:23Z</time>
      </trkpt>
      <trkpt lat="49.04467" lon="1.1144">
        <ele>128.199997</ele>
        <time>2015-12-13T08:32:26Z</time>
      </trkpt>
      <trkpt lat="49.0448" lon="1.11448">
        <ele>128.600006</ele>
        <time>2015-12-13T08:32:29Z</time>
      </trkpt>
      <trkpt lat="49.04493" lon="1.11453">
        <ele>129</ele>
        <time>2015-12-13T08:32:32Z</time>
      </trkpt>
      <trkpt lat="49.04503" lon="1.11458">
        <ele>129.300003</ele>
        <time>2015-12-13T08:32:35Z</time>
      </trkpt>
      <trkpt lat="49.04515" lon="1.11464">
        <ele>129.600006</ele>
        <time>2015-12-13T08:32:38Z</time>
      </trkpt>
      <trkpt lat="49.04527" lon="1.1147">
        <ele>130</ele>
        <time>2015-12-13T08:32:41Z</time>
      </trkpt>
      <trkpt lat="49.04539" lon="1.11477">
        <ele>130.300003</ele>
        <time>2015-12-13T08:32:44Z</time>
      </trkpt>
      <trkpt lat="49.0455" lon="1.11482">
        <ele>130.5</ele>
        <time>2015-12-13T08:32:47Z</time>
      </trkpt>
      <trkpt lat="49.04562" lon="1.11485">
        <ele>130.699997</ele>
        <time>2015-12-13T08:32:49Z</time>
      </trkpt>
      <trkpt lat="49.04572" lon="1.11485">
        <ele>130.800003</ele>
        <time>2015-12-13T08:32:51Z</time>
      </trkpt>
      <trkpt lat="49.04583" lon="1.11484">
        <ele>131</ele>
        <time>2015-12-13T08:32:53Z</time>
      </trkpt>
      <trkpt lat="49.04596" lon="1.11483">
        <ele>131.100006</ele>
        <time>2015-12-13T08:32:56Z</time>
      </trkpt>
      <trkpt lat="49.04605" lon="1.11483">
        <ele>131.199997</ele>
        <time>2015-12-13T08:32:58Z</time>
      </trkpt>
      <trkpt lat="49.04617" lon="1.11484">
        <ele>131.300003</ele>
        <time>2015-12-13T08:33:00Z</time>
      </trkpt>
      <trkpt lat="49.04626" lon="1.11487">
        <ele>131.300003</ele>
        <time>2015-12-13T08:33:02Z</time>
      </trkpt>
      <trkpt lat="49.04637" lon="1.11491">
        <ele>131.399994</ele>
        <time>2015-12-13T08:33:04Z</time>
      </trkpt>
      <trkpt lat="49.04648" lon="1.11497">
        <ele>131.5</ele>
        <time>2015-12-13T08:33:06Z</time>
      </trkpt>
      <trkpt lat="49.0466" lon="1.11502">
        <ele>131.5</ele>
        <time>2015-12-13T08:33:08Z</time>
      </trkpt>
      <trkpt lat="49.04674" lon="1.11504">
        <ele>131.5</ele>
        <time>2015-12-13T08:33:10Z</time>
      </trkpt>
      <trkpt lat="49.04687" lon="1.11507">
        <ele>131.600006</ele>
        <time>2015-12-13T08:33:12Z</time>
      </trkpt>
      <trkpt lat="49.04699" lon="1.1151">
        <ele>131.600006</ele>
        <time>2015-12-13T08:33:14Z</time>
      </trkpt>
      <trkpt lat="49.04711" lon="1.11515">
        <ele>131.5</ele>
        <time>2015-12-13T08:33:16Z</time>
      </trkpt>
      <trkpt lat="49.04723" lon="1.1152">
        <ele>131.5</ele>
        <time>2015-12-13T08:33:18Z</time>
      </trkpt>
      <trkpt lat="49.04734" lon="1.11525">
        <ele>131.5</ele>
        <time>2015-12-13T08:33:20Z</time>
      </trkpt>
      <trkpt lat="49.04745" lon="1.11531">
        <ele>131.5</ele>
        <time>2015-12-13T08:33:22Z</time>
      </trkpt>
      <trkpt lat="49.04756" lon="1.11534">
        <ele>131.5</ele>
        <time>2015-12-13T08:33:24Z</time>
      </trkpt>
      <trkpt lat="49.04767" lon="1.1154">
        <ele>131.399994</ele>
        <time>2015-12-13T08:33:26Z</time>
      </trkpt>
      <trkpt lat="49.04778" lon="1.11544">
        <ele>131.399994</ele>
        <time>2015-12-13T08:33:28Z</time>
      </trkpt>
      <trkpt lat="49.04788" lon="1.11547">
        <ele>131.399994</ele>
        <time>2015-12-13T08:33:30Z</time>
      </trkpt>
      <trkpt lat="49.04799" lon="1.11552">
        <ele>131.399994</ele>
        <time>2015-12-13T08:33:32Z</time>
      </trkpt>
      <trkpt lat="49.04809" lon="1.11556">
        <ele>131.399994</ele>
        <time>2015-12-13T08:33:34Z</time>
      </trkpt>
      <trkpt lat="49.04819" lon="1.1156">
        <ele>131.399994</ele>
        <time>2015-12-13T08:33:36Z</time>
      </trkpt>
      <trkpt lat="49.04829" lon="1.11565">
        <ele>131.399994</ele>
        <time>2015-12-13T08:33:38Z</time>
      </trkpt>
      <trkpt lat="49.04838" lon="1.11572">
        <ele>131.399994</ele>
        <time>2015-12-13T08:33:40Z</time>
      </trkpt>
      <trkpt lat="49.04848" lon="1.11579">
        <ele>131.399994</ele>
        <time>2015-12-13T08:33:42Z</time>
      </trkpt>
      <trkpt lat="49.04857" lon="1.11587">
        <ele>131.399994</ele>
        <time>2015-12-13T08:33:44Z</time>
      </trkpt>
      <trkpt lat="49.04866" lon="1.11595">
        <ele>131.399994</ele>
        <time>2015-12-13T08:33:46Z</time>
      </trkpt>
      <trkpt lat="49.04874" lon="1.11604">
        <ele>131.399994</ele>
        <time>2015-12-13T08:33:48Z</time>
      </trkpt>
      <trkpt lat="49.04883" lon="1.11613">
        <ele>131.5</ele>
        <time>2015-12-13T08:33:50Z</time>
      </trkpt>
      <trkpt lat="49.04891" lon="1.11622">
        <ele>131.600006</ele>
        <time>2015-12-13T08:33:52Z</time>
      </trkpt>
      <trkpt lat="49.04898" lon="1.1163">
        <ele>131.699997</ele>
        <time>2015-12-13T08:33:54Z</time>
      </trkpt>
      <trkpt lat="49.04908" lon="1.11638">
        <ele>131.800003</ele>
        <time>2015-12-13T08:33:57Z</time>
      </trkpt>
      <trkpt lat="49.04918" lon="1.11634">
        <ele>132.199997</ele>
        <time>2015-12-13T08:34:04Z</time>
      </trkpt>
      <trkpt lat="49.04927" lon="1.11623">
        <ele>132.300003</ele>
        <time>2015-12-13T08:34:07Z</time>
      </trkpt>
      <trkpt lat="49.04937" lon="1.1161">
        <ele>132.399994</ele>
        <time>2015-12-13T08:34:10Z</time>
      </trkpt>
      <trkpt lat="49.04944" lon="1.11601">
        <ele>132.5</ele>
        <time>2015-12-13T08:34:12Z</time>
      </trkpt>
      <trkpt lat="49.04952" lon="1.11592">
        <ele>132.600006</ele>
        <time>2015-12-13T08:34:14Z</time>
      </trkpt>
      <trkpt lat="49.04961" lon="1.11584">
        <ele>132.699997</ele>
        <time>2015-12-13T08:34:16Z</time>
      </trkpt>
      <trkpt lat="49.0497" lon="1.11576">
        <ele>132.800003</ele>
        <time>2015-12-13T08:34:18Z</time>
      </trkpt>
      <trkpt lat="49.04979" lon="1.1157">
        <ele>132.899994</ele>
        <time>2015-12-13T08:34:20Z</time>
      </trkpt>
      <trkpt lat="49.04989" lon="1.11564">
        <ele>133.100006</ele>
        <time>2015-12-13T08:34:22Z</time>
      </trkpt>
      <trkpt lat="49.04999" lon="1.11559">
        <ele>133.300003</ele>
        <time>2015-12-13T08:34:24Z</time>
      </trkpt>
      <trkpt lat="49.05008" lon="1.11553">
        <ele>133.399994</ele>
        <time>2015-12-13T08:34:26Z</time>
      </trkpt>
      <trkpt lat="49.05018" lon="1.11547">
        <ele>133.600006</ele>
        <time>2015-12-13T08:34:28Z</time>
      </trkpt>
      <trkpt lat="49.05027" lon="1.11541">
        <ele>133.800003</ele>
        <time>2015-12-13T08:34:30Z</time>
      </trkpt>
      <trkpt lat="49.05036" lon="1.11536">
        <ele>133.899994</ele>
        <time>2015-12-13T08:34:32Z</time>
      </trkpt>
      <trkpt lat="49.05046" lon="1.1153">
        <ele>134.100006</ele>
        <time>2015-12-13T08:34:34Z</time>
      </trkpt>
      <trkpt lat="49.05056" lon="1.11524">
        <ele>134.300003</ele>
        <time>2015-12-13T08:34:36Z</time>
      </trkpt>
      <trkpt lat="49.05066" lon="1.11517">
        <ele>134.5</ele>
        <time>2015-12-13T08:34:38Z</time>
      </trkpt>
      <trkpt lat="49.05076" lon="1.11511">
        <ele>134.600006</ele>
        <time>2015-12-13T08:34:40Z</time>
      </trkpt>
      <trkpt lat="49.05085" lon="1.11504">
        <ele>134.800003</ele>
        <time>2015-12-13T08:34:42Z</time>
      </trkpt>
      <trkpt lat="49.05095" lon="1.11497">
        <ele>134.899994</ele>
        <time>2015-12-13T08:34:44Z</time>
      </trkpt>
      <trkpt lat="49.05105" lon="1.11496">
        <ele>135</ele>
        <time>2015-12-13T08:34:46Z</time>
      </trkpt>
      <trkpt lat="49.05112" lon="1.11504">
        <ele>135.100006</ele>
        <time>2015-12-13T08:34:48Z</time>
      </trkpt>
      <trkpt lat="49.05118" lon="1.11518">
        <ele>135.199997</ele>
        <time>2015-12-13T08:34:50Z</time>
      </trkpt>
      <trkpt lat="49.05123" lon="1.11532">
        <ele>135.300003</ele>
        <time>2015-12-13T08:34:52Z</time>
      </trkpt>
      <trkpt lat="49.05129" lon="1.11546">
        <ele>135.399994</ele>
        <time>2015-12-13T08:34:54Z</time>
      </trkpt>
      <trkpt lat="49.05135" lon="1.1156">
        <ele>135.5</ele>
        <time>2015-12-13T08:34:56Z</time>
      </trkpt>
      <trkpt lat="49.05141" lon="1.11573">
        <ele>135.5</ele>
        <time>2015-12-13T08:34:58Z</time>
      </trkpt>
      <trkpt lat="49.05146" lon="1.11586">
        <ele>135.600006</ele>
        <time>2015-12-13T08:35:00Z</time>
      </trkpt>
      <trkpt lat="49.05152" lon="1.11596">
        <ele>135.699997</ele>
        <time>2015-12-13T08:35:02Z</time>
      </trkpt>
      <trkpt lat="49.05162" lon="1.11595">
        <ele>135.800003</ele>
        <time>2015-12-13T08:35:08Z</time>
      </trkpt>
      <trkpt lat="49.0517" lon="1.11588">
        <ele>135.899994</ele>
        <time>2015-12-13T08:35:13Z</time>
      </trkpt>
      <trkpt lat="49.05179" lon="1.1158">
        <ele>135.899994</ele>
        <time>2015-12-13T08:35:16Z</time>
      </trkpt>
      <trkpt lat="49.05191" lon="1.11571">
        <ele>136.100006</ele>
        <time>2015-12-13T08:35:19Z</time>
      </trkpt>
      <trkpt lat="49.05199" lon="1.11564">
        <ele>136.300003</ele>
        <time>2015-12-13T08:35:21Z</time>
      </trkpt>
      <trkpt lat="49.05207" lon="1.11558">
        <ele>136.399994</ele>
        <time>2015-12-13T08:35:23Z</time>
      </trkpt>
      <trkpt lat="49.05215" lon="1.11552">
        <ele>136.600006</ele>
        <time>2015-12-13T08:35:25Z</time>
      </trkpt>
      <trkpt lat="49.05224" lon="1.11545">
        <ele>136.699997</ele>
        <time>2015-12-13T08:35:27Z</time>
      </trkpt>
      <trkpt lat="49.05233" lon="1.11538">
        <ele>136.800003</ele>
        <time>2015-12-13T08:35:29Z</time>
      </trkpt>
      <trkpt lat="49.05241" lon="1.1153">
        <ele>136.899994</ele>
        <time>2015-12-13T08:35:31Z</time>
      </trkpt>
      <trkpt lat="49.0525" lon="1.11522">
        <ele>137</ele>
        <time>2015-12-13T08:35:33Z</time>
      </trkpt>
      <trkpt lat="49.05259" lon="1.11514">
        <ele>137.100006</ele>
        <time>2015-12-13T08:35:35Z</time>
      </trkpt>
      <trkpt lat="49.05268" lon="1.11505">
        <ele>137.100006</ele>
        <time>2015-12-13T08:35:37Z</time>
      </trkpt>
      <trkpt lat="49.05276" lon="1.11496">
        <ele>137.199997</ele>
        <time>2015-12-13T08:35:39Z</time>
      </trkpt>
      <trkpt lat="49.05285" lon="1.11488">
        <ele>137.199997</ele>
        <time>2015-12-13T08:35:41Z</time>
      </trkpt>
      <trkpt lat="49.05294" lon="1.1148">
        <ele>137.300003</ele>
        <time>2015-12-13T08:35:43Z</time>
      </trkpt>
      <trkpt lat="49.05302" lon="1.11471">
        <ele>137.300003</ele>
        <time>2015-12-13T08:35:45Z</time>
      </trkpt>
      <trkpt lat="49.0531" lon="1.11462">
        <ele>137.399994</ele>
        <time>2015-12-13T08:35:47Z</time>
      </trkpt>
      <trkpt lat="49.05319" lon="1.11454">
        <ele>137.399994</ele>
        <time>2015-12-13T08:35:49Z</time>
      </trkpt>
      <trkpt lat="49.05327" lon="1.11445">
        <ele>137.5</ele>
        <time>2015-12-13T08:35:51Z</time>
      </trkpt>
      <trkpt lat="49.05335" lon="1.11438">
        <ele>137.600006</ele>
        <time>2015-12-13T08:35:53Z</time>
      </trkpt>
      <trkpt lat="49.05343" lon="1.1143">
        <ele>137.600006</ele>
        <time>2015-12-13T08:35:55Z</time>
      </trkpt>
      <trkpt lat="49.05352" lon="1.11424">
        <ele>137.699997</ele>
        <time>2015-12-13T08:35:57Z</time>
      </trkpt>
      <trkpt lat="49.05361" lon="1.11418">
        <ele>137.800003</ele>
        <time>2015-12-13T08:35:59Z</time>
      </trkpt>
      <trkpt lat="49.0537" lon="1.11413">
        <ele>138</ele>
        <time>2015-12-13T08:36:01Z</time>
      </trkpt>
      <trkpt lat="49.05379" lon="1.11408">
        <ele>138.100006</ele>
        <time>2015-12-13T08:36:03Z</time>
      </trkpt>
      <trkpt lat="49.05389" lon="1.11404">
        <ele>138.199997</ele>
        <time>2015-12-13T08:36:05Z</time>
      </trkpt>
      <trkpt lat="49.05398" lon="1.114">
        <ele>138.399994</ele>
        <time>2015-12-13T08:36:07Z</time>
      </trkpt>
      <trkpt lat="49.05407" lon="1.11396">
        <ele>138.600006</ele>
        <time>2015-12-13T08:36:09Z</time>
      </trkpt>
      <trkpt lat="49.05417" lon="1.11393">
        <ele>138.800003</ele>
        <time>2015-12-13T08:36:11Z</time>
      </trkpt>
      <trkpt lat="49.05429" lon="1.11387">
        <ele>139</ele>
        <time>2015-12-13T08:36:14Z</time>
      </trkpt>
      <trkpt lat="49.05441" lon="1.11381">
        <ele>139.300003</ele>
        <time>2015-12-13T08:36:17Z</time>
      </trkpt>
      <trkpt lat="49.05454" lon="1.11377">
        <ele>139.600006</ele>
        <time>2015-12-13T08:36:20Z</time>
      </trkpt>
      <trkpt lat="49.05463" lon="1.11375">
        <ele>139.800003</ele>
        <time>2015-12-13T08:36:22Z</time>
      </trkpt>
      <trkpt lat="49.05473" lon="1.11374">
        <ele>139.899994</ele>
        <time>2015-12-13T08:36:24Z</time>
      </trkpt>
      <trkpt lat="49.05482" lon="1.11373">
        <ele>140.100006</ele>
        <time>2015-12-13T08:36:26Z</time>
      </trkpt>
      <trkpt lat="49.05491" lon="1.11372">
        <ele>140.199997</ele>
        <time>2015-12-13T08:36:28Z</time>
      </trkpt>
      <trkpt lat="49.05504" lon="1.11371">
        <ele>140.399994</ele>
        <time>2015-12-13T08:36:31Z</time>
      </trkpt>
      <trkpt lat="49.05514" lon="1.11369">
        <ele>140.399994</ele>
        <time>2015-12-13T08:36:33Z</time>
      </trkpt>
      <trkpt lat="49.05523" lon="1.11369">
        <ele>140.5</ele>
        <time>2015-12-13T08:36:35Z</time>
      </trkpt>
      <trkpt lat="49.05532" lon="1.11368">
        <ele>140.600006</ele>
        <time>2015-12-13T08:36:37Z</time>
      </trkpt>
      <trkpt lat="49.05542" lon="1.11366">
        <ele>140.699997</ele>
        <time>2015-12-13T08:36:39Z</time>
      </trkpt>
      <trkpt lat="49.05552" lon="1.11365">
        <ele>140.800003</ele>
        <time>2015-12-13T08:36:41Z</time>
      </trkpt>
      <trkpt lat="49.05563" lon="1.11364">
        <ele>140.899994</ele>
        <time>2015-12-13T08:36:43Z</time>
      </trkpt>
      <trkpt lat="49.05575" lon="1.11362">
        <ele>141</ele>
        <time>2015-12-13T08:36:45Z</time>
      </trkpt>
      <trkpt lat="49.05586" lon="1.11361">
        <ele>141.100006</ele>
        <time>2015-12-13T08:36:47Z</time>
      </trkpt>
      <trkpt lat="49.05598" lon="1.11359">
        <ele>141.100006</ele>
        <time>2015-12-13T08:36:49Z</time>
      </trkpt>
      <trkpt lat="49.0561" lon="1.11357">
        <ele>141.199997</ele>
        <time>2015-12-13T08:36:51Z</time>
      </trkpt>
      <trkpt lat="49.05621" lon="1.11354">
        <ele>141.199997</ele>
        <time>2015-12-13T08:36:53Z</time>
      </trkpt>
      <trkpt lat="49.05633" lon="1.11351">
        <ele>141.300003</ele>
        <time>2015-12-13T08:36:55Z</time>
      </trkpt>
      <trkpt lat="49.05645" lon="1.11348">
        <ele>141.199997</ele>
        <time>2015-12-13T08:36:57Z</time>
      </trkpt>
      <trkpt lat="49.05657" lon="1.11345">
        <ele>141.199997</ele>
        <time>2015-12-13T08:36:59Z</time>
      </trkpt>
      <trkpt lat="49.05668" lon="1.11342">
        <ele>141.100006</ele>
        <time>2015-12-13T08:37:01Z</time>
      </trkpt>
      <trkpt lat="49.05679" lon="1.11337">
        <ele>141</ele>
        <time>2015-12-13T08:37:03Z</time>
      </trkpt>
      <trkpt lat="49.05691" lon="1.11332">
        <ele>141</ele>
        <time>2015-12-13T08:37:05Z</time>
      </trkpt>
      <trkpt lat="49.05702" lon="1.11329">
        <ele>140.899994</ele>
        <time>2015-12-13T08:37:07Z</time>
      </trkpt>
      <trkpt lat="49.05712" lon="1.11323">
        <ele>140.899994</ele>
        <time>2015-12-13T08:37:09Z</time>
      </trkpt>
      <trkpt lat="49.05722" lon="1.1132">
        <ele>140.800003</ele>
        <time>2015-12-13T08:37:11Z</time>
      </trkpt>
      <trkpt lat="49.05733" lon="1.11316">
        <ele>140.699997</ele>
        <time>2015-12-13T08:37:14Z</time>
      </trkpt>
      <trkpt lat="49.05741" lon="1.11304">
        <ele>140.5</ele>
        <time>2015-12-13T08:37:17Z</time>
      </trkpt>
      <trkpt lat="49.05752" lon="1.11299">
        <ele>139.800003</ele>
        <time>2015-12-13T08:42:33Z</time>
      </trkpt>
      <trkpt lat="49.0576" lon="1.11296">
        <ele>139.800003</ele>
        <time>2015-12-13T08:42:36Z</time>
      </trkpt>
      <trkpt lat="49.05772" lon="1.11292">
        <ele>139.800003</ele>
        <time>2015-12-13T08:42:39Z</time>
      </trkpt>
      <trkpt lat="49.05783" lon="1.11284">
        <ele>139.800003</ele>
        <time>2015-12-13T08:42:42Z</time>
      </trkpt>
      <trkpt lat="49.05793" lon="1.11273">
        <ele>139.800003</ele>
        <time>2015-12-13T08:42:45Z</time>
      </trkpt>
      <trkpt lat="49.05802" lon="1.11259">
        <ele>139.800003</ele>
        <time>2015-12-13T08:42:48Z</time>
      </trkpt>
      <trkpt lat="49.05809" lon="1.11245">
        <ele>139.800003</ele>
        <time>2015-12-13T08:42:51Z</time>
      </trkpt>
      <trkpt lat="49.05815" lon="1.11231">
        <ele>139.800003</ele>
        <time>2015-12-13T08:42:54Z</time>
      </trkpt>
      <trkpt lat="49.05821" lon="1.11218">
        <ele>139.899994</ele>
        <time>2015-12-13T08:42:57Z</time>
      </trkpt>
      <trkpt lat="49.05827" lon="1.11206">
        <ele>140</ele>
        <time>2015-12-13T08:43:00Z</time>
      </trkpt>
      <trkpt lat="49.05833" lon="1.11193">
        <ele>140.199997</ele>
        <time>2015-12-13T08:43:03Z</time>
      </trkpt>
      <trkpt lat="49.05839" lon="1.1118">
        <ele>140.300003</ele>
        <time>2015-12-13T08:43:06Z</time>
      </trkpt>
      <trkpt lat="49.05845" lon="1.11166">
        <ele>140.5</ele>
        <time>2015-12-13T08:43:09Z</time>
      </trkpt>
      <trkpt lat="49.05851" lon="1.11152">
        <ele>140.600006</ele>
        <time>2015-12-13T08:43:12Z</time>
      </trkpt>
      <trkpt lat="49.05857" lon="1.11137">
        <ele>140.800003</ele>
        <time>2015-12-13T08:43:15Z</time>
      </trkpt>
      <trkpt lat="49.05863" lon="1.11124">
        <ele>140.899994</ele>
        <time>2015-12-13T08:43:18Z</time>
      </trkpt>
      <trkpt lat="49.05868" lon="1.1111">
        <ele>141.100006</ele>
        <time>2015-12-13T08:43:21Z</time>
      </trkpt>
      <trkpt lat="49.05872" lon="1.11097">
        <ele>141.199997</ele>
        <time>2015-12-13T08:43:24Z</time>
      </trkpt>
      <trkpt lat="49.05877" lon="1.11083">
        <ele>141.399994</ele>
        <time>2015-12-13T08:43:27Z</time>
      </trkpt>
      <trkpt lat="49.05881" lon="1.11069">
        <ele>141.5</ele>
        <time>2015-12-13T08:43:30Z</time>
      </trkpt>
      <trkpt lat="49.05885" lon="1.11053">
        <ele>141.699997</ele>
        <time>2015-12-13T08:43:33Z</time>
      </trkpt>
      <trkpt lat="49.05889" lon="1.11037">
        <ele>141.800003</ele>
        <time>2015-12-13T08:43:36Z</time>
      </trkpt>
      <trkpt lat="49.05893" lon="1.11021">
        <ele>142</ele>
        <time>2015-12-13T08:43:39Z</time>
      </trkpt>
      <trkpt lat="49.05897" lon="1.11005">
        <ele>142.199997</ele>
        <time>2015-12-13T08:43:42Z</time>
      </trkpt>
      <trkpt lat="49.05903" lon="1.10989">
        <ele>142.399994</ele>
        <time>2015-12-13T08:43:45Z</time>
      </trkpt>
      <trkpt lat="49.05909" lon="1.10973">
        <ele>142.5</ele>
        <time>2015-12-13T08:43:48Z</time>
      </trkpt>
      <trkpt lat="49.05916" lon="1.10958">
        <ele>142.699997</ele>
        <time>2015-12-13T08:43:51Z</time>
      </trkpt>
      <trkpt lat="49.05923" lon="1.10943">
        <ele>142.800003</ele>
        <time>2015-12-13T08:43:54Z</time>
      </trkpt>
      <trkpt lat="49.05931" lon="1.10928">
        <ele>142.899994</ele>
        <time>2015-12-13T08:43:57Z</time>
      </trkpt>
      <trkpt lat="49.05939" lon="1.10915">
        <ele>143</ele>
        <time>2015-12-13T08:44:00Z</time>
      </trkpt>
      <trkpt lat="49.05948" lon="1.10903">
        <ele>143.100006</ele>
        <time>2015-12-13T08:44:03Z</time>
      </trkpt>
      <trkpt lat="49.0596" lon="1.10896">
        <ele>143.100006</ele>
        <time>2015-12-13T08:44:06Z</time>
      </trkpt>
      <trkpt lat="49.05972" lon="1.10895">
        <ele>143.199997</ele>
        <time>2015-12-13T08:44:09Z</time>
      </trkpt>
      <trkpt lat="49.05985" lon="1.10899">
        <ele>143.199997</ele>
        <time>2015-12-13T08:44:12Z</time>
      </trkpt>
      <trkpt lat="49.05994" lon="1.10902">
        <ele>143.300003</ele>
        <time>2015-12-13T08:44:14Z</time>
      </trkpt>
      <trkpt lat="49.06003" lon="1.10905">
        <ele>143.300003</ele>
        <time>2015-12-13T08:44:16Z</time>
      </trkpt>
      <trkpt lat="49.06012" lon="1.10908">
        <ele>143.300003</ele>
        <time>2015-12-13T08:44:18Z</time>
      </trkpt>
      <trkpt lat="49.06021" lon="1.10911">
        <ele>143.399994</ele>
        <time>2015-12-13T08:44:20Z</time>
      </trkpt>
      <trkpt lat="49.06031" lon="1.10914">
        <ele>143.399994</ele>
        <time>2015-12-13T08:44:22Z</time>
      </trkpt>
      <trkpt lat="49.06041" lon="1.10916">
        <ele>143.399994</ele>
        <time>2015-12-13T08:44:24Z</time>
      </trkpt>
      <trkpt lat="49.06051" lon="1.10918">
        <ele>143.399994</ele>
        <time>2015-12-13T08:44:26Z</time>
      </trkpt>
      <trkpt lat="49.06061" lon="1.10919">
        <ele>143.399994</ele>
        <time>2015-12-13T08:44:28Z</time>
      </trkpt>
      <trkpt lat="49.06071" lon="1.10919">
        <ele>143.399994</ele>
        <time>2015-12-13T08:44:30Z</time>
      </trkpt>
      <trkpt lat="49.06082" lon="1.10919">
        <ele>143.5</ele>
        <time>2015-12-13T08:44:32Z</time>
      </trkpt>
      <trkpt lat="49.06092" lon="1.10918">
        <ele>143.5</ele>
        <time>2015-12-13T08:44:34Z</time>
      </trkpt>
      <trkpt lat="49.06103" lon="1.10916">
        <ele>143.5</ele>
        <time>2015-12-13T08:44:36Z</time>
      </trkpt>
      <trkpt lat="49.06113" lon="1.10915">
        <ele>143.5</ele>
        <time>2015-12-13T08:44:38Z</time>
      </trkpt>
      <trkpt lat="49.06124" lon="1.10913">
        <ele>143.5</ele>
        <time>2015-12-13T08:44:40Z</time>
      </trkpt>
      <trkpt lat="49.06134" lon="1.10909">
        <ele>143.5</ele>
        <time>2015-12-13T08:44:42Z</time>
      </trkpt>
      <trkpt lat="49.06145" lon="1.10905">
        <ele>143.5</ele>
        <time>2015-12-13T08:44:44Z</time>
      </trkpt>
      <trkpt lat="49.06156" lon="1.10899">
        <ele>143.5</ele>
        <time>2015-12-13T08:44:46Z</time>
      </trkpt>
      <trkpt lat="49.06167" lon="1.10893">
        <ele>143.399994</ele>
        <time>2015-12-13T08:44:48Z</time>
      </trkpt>
      <trkpt lat="49.06178" lon="1.10886">
        <ele>143.300003</ele>
        <time>2015-12-13T08:44:50Z</time>
      </trkpt>
      <trkpt lat="49.06189" lon="1.10879">
        <ele>143.199997</ele>
        <time>2015-12-13T08:44:52Z</time>
      </trkpt>
      <trkpt lat="49.062" lon="1.10871">
        <ele>143.100006</ele>
        <time>2015-12-13T08:44:54Z</time>
      </trkpt>
      <trkpt lat="49.06211" lon="1.10863">
        <ele>143</ele>
        <time>2015-12-13T08:44:56Z</time>
      </trkpt>
      <trkpt lat="49.06222" lon="1.10855">
        <ele>142.899994</ele>
        <time>2015-12-13T08:44:58Z</time>
      </trkpt>
      <trkpt lat="49.06232" lon="1.10847">
        <ele>142.800003</ele>
        <time>2015-12-13T08:45:00Z</time>
      </trkpt>
      <trkpt lat="49.06243" lon="1.10839">
        <ele>142.699997</ele>
        <time>2015-12-13T08:45:02Z</time>
      </trkpt>
      <trkpt lat="49.06253" lon="1.10831">
        <ele>142.5</ele>
        <time>2015-12-13T08:45:04Z</time>
      </trkpt>
      <trkpt lat="49.06263" lon="1.10822">
        <ele>142.399994</ele>
        <time>2015-12-13T08:45:06Z</time>
      </trkpt>
      <trkpt lat="49.06274" lon="1.10813">
        <ele>142.300003</ele>
        <time>2015-12-13T08:45:08Z</time>
      </trkpt>
      <trkpt lat="49.06283" lon="1.10806">
        <ele>142.199997</ele>
        <time>2015-12-13T08:45:10Z</time>
      </trkpt>
      <trkpt lat="49.06293" lon="1.10798">
        <ele>142.100006</ele>
        <time>2015-12-13T08:45:12Z</time>
      </trkpt>
      <trkpt lat="49.06303" lon="1.10791">
        <ele>141.899994</ele>
        <time>2015-12-13T08:45:14Z</time>
      </trkpt>
      <trkpt lat="49.06313" lon="1.10783">
        <ele>141.800003</ele>
        <time>2015-12-13T08:45:16Z</time>
      </trkpt>
      <trkpt lat="49.06322" lon="1.10775">
        <ele>141.699997</ele>
        <time>2015-12-13T08:45:18Z</time>
      </trkpt>
      <trkpt lat="49.06332" lon="1.10766">
        <ele>141.600006</ele>
        <time>2015-12-13T08:45:20Z</time>
      </trkpt>
      <trkpt lat="49.06341" lon="1.10758">
        <ele>141.5</ele>
        <time>2015-12-13T08:45:22Z</time>
      </trkpt>
      <trkpt lat="49.06351" lon="1.10749">
        <ele>141.399994</ele>
        <time>2015-12-13T08:45:24Z</time>
      </trkpt>
      <trkpt lat="49.0636" lon="1.10739">
        <ele>141.399994</ele>
        <time>2015-12-13T08:45:26Z</time>
      </trkpt>
      <trkpt lat="49.06369" lon="1.1073">
        <ele>141.300003</ele>
        <time>2015-12-13T08:45:28Z</time>
      </trkpt>
      <trkpt lat="49.06378" lon="1.1072">
        <ele>141.199997</ele>
        <time>2015-12-13T08:45:30Z</time>
      </trkpt>
      <trkpt lat="49.06388" lon="1.1071">
        <ele>141.100006</ele>
        <time>2015-12-13T08:45:32Z</time>
      </trkpt>
      <trkpt lat="49.06397" lon="1.10701">
        <ele>140.899994</ele>
        <time>2015-12-13T08:45:34Z</time>
      </trkpt>
      <trkpt lat="49.06407" lon="1.10691">
        <ele>140.800003</ele>
        <time>2015-12-13T08:45:36Z</time>
      </trkpt>
      <trkpt lat="49.06417" lon="1.10682">
        <ele>140.699997</ele>
        <time>2015-12-13T08:45:38Z</time>
      </trkpt>
      <trkpt lat="49.06426" lon="1.10672">
        <ele>140.600006</ele>
        <time>2015-12-13T08:45:40Z</time>
      </trkpt>
      <trkpt lat="49.06436" lon="1.10662">
        <ele>140.5</ele>
        <time>2015-12-13T08:45:42Z</time>
      </trkpt>
      <trkpt lat="49.06445" lon="1.10652">
        <ele>140.300003</ele>
        <time>2015-12-13T08:45:44Z</time>
      </trkpt>
      <trkpt lat="49.06455" lon="1.10643">
        <ele>140.199997</ele>
        <time>2015-12-13T08:45:46Z</time>
      </trkpt>
      <trkpt lat="49.06465" lon="1.10633">
        <ele>140.199997</ele>
        <time>2015-12-13T08:45:48Z</time>
      </trkpt>
      <trkpt lat="49.06474" lon="1.10622">
        <ele>140.100006</ele>
        <time>2015-12-13T08:45:50Z</time>
      </trkpt>
      <trkpt lat="49.06484" lon="1.10612">
        <ele>140</ele>
        <time>2015-12-13T08:45:52Z</time>
      </trkpt>
      <trkpt lat="49.06494" lon="1.10601">
        <ele>140</ele>
        <time>2015-12-13T08:45:54Z</time>
      </trkpt>
      <trkpt lat="49.06503" lon="1.10591">
        <ele>139.899994</ele>
        <time>2015-12-13T08:45:56Z</time>
      </trkpt>
      <trkpt lat="49.06513" lon="1.10581">
        <ele>139.899994</ele>
        <time>2015-12-13T08:45:58Z</time>
      </trkpt>
      <trkpt lat="49.06523" lon="1.1057">
        <ele>139.800003</ele>
        <time>2015-12-13T08:46:00Z</time>
      </trkpt>
      <trkpt lat="49.06533" lon="1.1056">
        <ele>139.800003</ele>
        <time>2015-12-13T08:46:02Z</time>
      </trkpt>
      <trkpt lat="49.06542" lon="1.1055">
        <ele>139.699997</ele>
        <time>2015-12-13T08:46:04Z</time>
      </trkpt>
      <trkpt lat="49.06552" lon="1.1054">
        <ele>139.699997</ele>
        <time>2015-12-13T08:46:06Z</time>
      </trkpt>
      <trkpt lat="49.06561" lon="1.1053">
        <ele>139.699997</ele>
        <time>2015-12-13T08:46:08Z</time>
      </trkpt>
      <trkpt lat="49.06571" lon="1.1052">
        <ele>139.699997</ele>
        <time>2015-12-13T08:46:10Z</time>
      </trkpt>
      <trkpt lat="49.06581" lon="1.1051">
        <ele>139.600006</ele>
        <time>2015-12-13T08:46:12Z</time>
      </trkpt>
      <trkpt lat="49.06591" lon="1.105">
        <ele>139.600006</ele>
        <time>2015-12-13T08:46:14Z</time>
      </trkpt>
      <trkpt lat="49.066" lon="1.1049">
        <ele>139.600006</ele>
        <time>2015-12-13T08:46:16Z</time>
      </trkpt>
      <trkpt lat="49.0661" lon="1.1048">
        <ele>139.600006</ele>
        <time>2015-12-13T08:46:18Z</time>
      </trkpt>
      <trkpt lat="49.0662" lon="1.1047">
        <ele>139.600006</ele>
        <time>2015-12-13T08:46:20Z</time>
      </trkpt>
      <trkpt lat="49.06629" lon="1.10461">
        <ele>139.5</ele>
        <time>2015-12-13T08:46:22Z</time>
      </trkpt>
      <trkpt lat="49.06639" lon="1.10451">
        <ele>139.5</ele>
        <time>2015-12-13T08:46:24Z</time>
      </trkpt>
      <trkpt lat="49.06648" lon="1.10441">
        <ele>139.5</ele>
        <time>2015-12-13T08:46:26Z</time>
      </trkpt>
      <trkpt lat="49.06658" lon="1.10431">
        <ele>139.5</ele>
        <time>2015-12-13T08:46:28Z</time>
      </trkpt>
      <trkpt lat="49.06668" lon="1.10422">
        <ele>139.5</ele>
        <time>2015-12-13T08:46:30Z</time>
      </trkpt>
      <trkpt lat="49.06677" lon="1.10412">
        <ele>139.399994</ele>
        <time>2015-12-13T08:46:32Z</time>
      </trkpt>
      <trkpt lat="49.06687" lon="1.10402">
        <ele>139.399994</ele>
        <time>2015-12-13T08:46:34Z</time>
      </trkpt>
      <trkpt lat="49.06697" lon="1.10393">
        <ele>139.399994</ele>
        <time>2015-12-13T08:46:36Z</time>
      </trkpt>
      <trkpt lat="49.06707" lon="1.10383">
        <ele>139.399994</ele>
        <time>2015-12-13T08:46:38Z</time>
      </trkpt>
      <trkpt lat="49.06716" lon="1.10373">
        <ele>139.399994</ele>
        <time>2015-12-13T08:46:40Z</time>
      </trkpt>
      <trkpt lat="49.06726" lon="1.10363">
        <ele>139.300003</ele>
        <time>2015-12-13T08:46:42Z</time>
      </trkpt>
      <trkpt lat="49.06736" lon="1.10353">
        <ele>139.300003</ele>
        <time>2015-12-13T08:46:44Z</time>
      </trkpt>
      <trkpt lat="49.06745" lon="1.10343">
        <ele>139.199997</ele>
        <time>2015-12-13T08:46:46Z</time>
      </trkpt>
      <trkpt lat="49.06755" lon="1.10334">
        <ele>139.199997</ele>
        <time>2015-12-13T08:46:48Z</time>
      </trkpt>
      <trkpt lat="49.06764" lon="1.10325">
        <ele>139.199997</ele>
        <time>2015-12-13T08:46:50Z</time>
      </trkpt>
      <trkpt lat="49.06773" lon="1.10315">
        <ele>139.100006</ele>
        <time>2015-12-13T08:46:52Z</time>
      </trkpt>
      <trkpt lat="49.06783" lon="1.10306">
        <ele>139.100006</ele>
        <time>2015-12-13T08:46:54Z</time>
      </trkpt>
      <trkpt lat="49.06792" lon="1.10297">
        <ele>139.100006</ele>
        <time>2015-12-13T08:46:56Z</time>
      </trkpt>
      <trkpt lat="49.06802" lon="1.10288">
        <ele>139.100006</ele>
        <time>2015-12-13T08:46:58Z</time>
      </trkpt>
      <trkpt lat="49.06811" lon="1.10278">
        <ele>139.199997</ele>
        <time>2015-12-13T08:47:00Z</time>
      </trkpt>
      <trkpt lat="49.06821" lon="1.10269">
        <ele>139.199997</ele>
        <time>2015-12-13T08:47:02Z</time>
      </trkpt>
      <trkpt lat="49.0683" lon="1.10261">
        <ele>139.199997</ele>
        <time>2015-12-13T08:47:04Z</time>
      </trkpt>
      <trkpt lat="49.06839" lon="1.10254">
        <ele>139.199997</ele>
        <time>2015-12-13T08:47:06Z</time>
      </trkpt>
      <trkpt lat="49.06849" lon="1.10246">
        <ele>139.199997</ele>
        <time>2015-12-13T08:47:08Z</time>
      </trkpt>
      <trkpt lat="49.06858" lon="1.10239">
        <ele>139.199997</ele>
        <time>2015-12-13T08:47:10Z</time>
      </trkpt>
      <trkpt lat="49.06868" lon="1.10231">
        <ele>139.199997</ele>
        <time>2015-12-13T08:47:12Z</time>
      </trkpt>
      <trkpt lat="49.06877" lon="1.10223">
        <ele>139.199997</ele>
        <time>2015-12-13T08:47:14Z</time>
      </trkpt>
      <trkpt lat="49.06887" lon="1.10215">
        <ele>139.199997</ele>
        <time>2015-12-13T08:47:16Z</time>
      </trkpt>
      <trkpt lat="49.06896" lon="1.10208">
        <ele>139.199997</ele>
        <time>2015-12-13T08:47:18Z</time>
      </trkpt>
      <trkpt lat="49.06904" lon="1.102">
        <ele>139.199997</ele>
        <time>2015-12-13T08:47:20Z</time>
      </trkpt>
      <trkpt lat="49.06908" lon="1.1018">
        <ele>139.199997</ele>
        <time>2015-12-13T08:47:23Z</time>
      </trkpt>
      <trkpt lat="49.0691" lon="1.10165">
        <ele>139.199997</ele>
        <time>2015-12-13T08:47:25Z</time>
      </trkpt>
      <trkpt lat="49.06912" lon="1.10149">
        <ele>139.199997</ele>
        <time>2015-12-13T08:47:27Z</time>
      </trkpt>
      <trkpt lat="49.06916" lon="1.10134">
        <ele>139.199997</ele>
        <time>2015-12-13T08:47:29Z</time>
      </trkpt>
      <trkpt lat="49.06921" lon="1.10118">
        <ele>139.199997</ele>
        <time>2015-12-13T08:47:31Z</time>
      </trkpt>
      <trkpt lat="49.06926" lon="1.10102">
        <ele>139.199997</ele>
        <time>2015-12-13T08:47:33Z</time>
      </trkpt>
      <trkpt lat="49.06931" lon="1.10086">
        <ele>139.199997</ele>
        <time>2015-12-13T08:47:35Z</time>
      </trkpt>
      <trkpt lat="49.06936" lon="1.10071">
        <ele>139.199997</ele>
        <time>2015-12-13T08:47:37Z</time>
      </trkpt>
      <trkpt lat="49.06941" lon="1.10055">
        <ele>139.100006</ele>
        <time>2015-12-13T08:47:39Z</time>
      </trkpt>
      <trkpt lat="49.06949" lon="1.10043">
        <ele>139.100006</ele>
        <time>2015-12-13T08:47:41Z</time>
      </trkpt>
      <trkpt lat="49.06959" lon="1.10038">
        <ele>139</ele>
        <time>2015-12-13T08:47:43Z</time>
      </trkpt>
      <trkpt lat="49.06968" lon="1.10046">
        <ele>139</ele>
        <time>2015-12-13T08:47:45Z</time>
      </trkpt>
      <trkpt lat="49.06977" lon="1.10056">
        <ele>139</ele>
        <time>2015-12-13T08:47:47Z</time>
      </trkpt>
      <trkpt lat="49.06988" lon="1.10068">
        <ele>138.899994</ele>
        <time>2015-12-13T08:47:49Z</time>
      </trkpt>
      <trkpt lat="49.06998" lon="1.10079">
        <ele>138.899994</ele>
        <time>2015-12-13T08:47:51Z</time>
      </trkpt>
      <trkpt lat="49.07008" lon="1.1009">
        <ele>138.899994</ele>
        <time>2015-12-13T08:47:53Z</time>
      </trkpt>
      <trkpt lat="49.07018" lon="1.10102">
        <ele>138.899994</ele>
        <time>2015-12-13T08:47:55Z</time>
      </trkpt>
      <trkpt lat="49.07028" lon="1.10114">
        <ele>138.899994</ele>
        <time>2015-12-13T08:47:57Z</time>
      </trkpt>
      <trkpt lat="49.07038" lon="1.10126">
        <ele>138.899994</ele>
        <time>2015-12-13T08:47:59Z</time>
      </trkpt>
      <trkpt lat="49.07048" lon="1.10138">
        <ele>138.899994</ele>
        <time>2015-12-13T08:48:01Z</time>
      </trkpt>
      <trkpt lat="49.07057" lon="1.10151">
        <ele>138.800003</ele>
        <time>2015-12-13T08:48:03Z</time>
      </trkpt>
      <trkpt lat="49.07066" lon="1.10164">
        <ele>138.800003</ele>
        <time>2015-12-13T08:48:05Z</time>
      </trkpt>
      <trkpt lat="49.07074" lon="1.10178">
        <ele>138.800003</ele>
        <time>2015-12-13T08:48:07Z</time>
      </trkpt>
      <trkpt lat="49.07081" lon="1.10194">
        <ele>138.800003</ele>
        <time>2015-12-13T08:48:09Z</time>
      </trkpt>
      <trkpt lat="49.07087" lon="1.1021">
        <ele>138.800003</ele>
        <time>2015-12-13T08:48:11Z</time>
      </trkpt>
      <trkpt lat="49.07093" lon="1.10227">
        <ele>138.800003</ele>
        <time>2015-12-13T08:48:13Z</time>
      </trkpt>
      <trkpt lat="49.07098" lon="1.10244">
        <ele>138.800003</ele>
        <time>2015-12-13T08:48:15Z</time>
      </trkpt>
      <trkpt lat="49.07102" lon="1.10262">
        <ele>138.800003</ele>
        <time>2015-12-13T08:48:17Z</time>
      </trkpt>
      <trkpt lat="49.07106" lon="1.10282">
        <ele>138.800003</ele>
        <time>2015-12-13T08:48:19Z</time>
      </trkpt>
      <trkpt lat="49.07109" lon="1.10302">
        <ele>138.800003</ele>
        <time>2015-12-13T08:48:21Z</time>
      </trkpt>
      <trkpt lat="49.07112" lon="1.10321">
        <ele>138.800003</ele>
        <time>2015-12-13T08:48:23Z</time>
      </trkpt>
      <trkpt lat="49.07114" lon="1.10341">
        <ele>138.800003</ele>
        <time>2015-12-13T08:48:25Z</time>
      </trkpt>
      <trkpt lat="49.07117" lon="1.1036">
        <ele>138.800003</ele>
        <time>2015-12-13T08:48:27Z</time>
      </trkpt>
      <trkpt lat="49.0712" lon="1.10379">
        <ele>138.800003</ele>
        <time>2015-12-13T08:48:29Z</time>
      </trkpt>
      <trkpt lat="49.07124" lon="1.10397">
        <ele>138.800003</ele>
        <time>2015-12-13T08:48:31Z</time>
      </trkpt>
      <trkpt lat="49.07131" lon="1.10414">
        <ele>138.800003</ele>
        <time>2015-12-13T08:48:33Z</time>
      </trkpt>
      <trkpt lat="49.07139" lon="1.10428">
        <ele>138.800003</ele>
        <time>2015-12-13T08:48:35Z</time>
      </trkpt>
      <trkpt lat="49.07147" lon="1.10441">
        <ele>138.800003</ele>
        <time>2015-12-13T08:48:37Z</time>
      </trkpt>
      <trkpt lat="49.07155" lon="1.10454">
        <ele>138.899994</ele>
        <time>2015-12-13T08:48:39Z</time>
      </trkpt>
      <trkpt lat="49.07163" lon="1.10466">
        <ele>138.899994</ele>
        <time>2015-12-13T08:48:41Z</time>
      </trkpt>
      <trkpt lat="49.07169" lon="1.10478">
        <ele>138.899994</ele>
        <time>2015-12-13T08:48:43Z</time>
      </trkpt>
      <trkpt lat="49.07179" lon="1.10482">
        <ele>139</ele>
        <time>2015-12-13T08:48:46Z</time>
      </trkpt>
      <trkpt lat="49.07187" lon="1.10468">
        <ele>139</ele>
        <time>2015-12-13T08:48:49Z</time>
      </trkpt>
      <trkpt lat="49.07193" lon="1.10456">
        <ele>139</ele>
        <time>2015-12-13T08:48:51Z</time>
      </trkpt>
      <trkpt lat="49.072" lon="1.10443">
        <ele>139.100006</ele>
        <time>2015-12-13T08:48:53Z</time>
      </trkpt>
      <trkpt lat="49.07207" lon="1.1043">
        <ele>139.199997</ele>
        <time>2015-12-13T08:48:55Z</time>
      </trkpt>
      <trkpt lat="49.07213" lon="1.10418">
        <ele>139.300003</ele>
        <time>2015-12-13T08:48:57Z</time>
      </trkpt>
      <trkpt lat="49.0722" lon="1.10406">
        <ele>139.399994</ele>
        <time>2015-12-13T08:48:59Z</time>
      </trkpt>
      <trkpt lat="49.07226" lon="1.10394">
        <ele>139.5</ele>
        <time>2015-12-13T08:49:01Z</time>
      </trkpt>
      <trkpt lat="49.07232" lon="1.10382">
        <ele>139.600006</ele>
        <time>2015-12-13T08:49:03Z</time>
      </trkpt>
      <trkpt lat="49.07239" lon="1.10371">
        <ele>139.699997</ele>
        <time>2015-12-13T08:49:05Z</time>
      </trkpt>
      <trkpt lat="49.07245" lon="1.10359">
        <ele>139.800003</ele>
        <time>2015-12-13T08:49:07Z</time>
      </trkpt>
      <trkpt lat="49.07251" lon="1.10347">
        <ele>139.899994</ele>
        <time>2015-12-13T08:49:09Z</time>
      </trkpt>
      <trkpt lat="49.07257" lon="1.10335">
        <ele>140</ele>
        <time>2015-12-13T08:49:11Z</time>
      </trkpt>
      <trkpt lat="49.07264" lon="1.10324">
        <ele>140</ele>
        <time>2015-12-13T08:49:13Z</time>
      </trkpt>
      <trkpt lat="49.0727" lon="1.10311">
        <ele>140.100006</ele>
        <time>2015-12-13T08:49:15Z</time>
      </trkpt>
      <trkpt lat="49.07277" lon="1.10299">
        <ele>140.199997</ele>
        <time>2015-12-13T08:49:17Z</time>
      </trkpt>
      <trkpt lat="49.07283" lon="1.10287">
        <ele>140.300003</ele>
        <time>2015-12-13T08:49:19Z</time>
      </trkpt>
      <trkpt lat="49.0729" lon="1.10275">
        <ele>140.399994</ele>
        <time>2015-12-13T08:49:21Z</time>
      </trkpt>
      <trkpt lat="49.07297" lon="1.10262">
        <ele>140.5</ele>
        <time>2015-12-13T08:49:23Z</time>
      </trkpt>
      <trkpt lat="49.07303" lon="1.1025">
        <ele>140.5</ele>
        <time>2015-12-13T08:49:25Z</time>
      </trkpt>
      <trkpt lat="49.0731" lon="1.10237">
        <ele>140.699997</ele>
        <time>2015-12-13T08:49:27Z</time>
      </trkpt>
      <trkpt lat="49.07316" lon="1.10225">
        <ele>140.699997</ele>
        <time>2015-12-13T08:49:29Z</time>
      </trkpt>
      <trkpt lat="49.07323" lon="1.10213">
        <ele>140.800003</ele>
        <time>2015-12-13T08:49:31Z</time>
      </trkpt>
      <trkpt lat="49.07329" lon="1.10201">
        <ele>141</ele>
        <time>2015-12-13T08:49:33Z</time>
      </trkpt>
      <trkpt lat="49.07335" lon="1.1019">
        <ele>141.199997</ele>
        <time>2015-12-13T08:49:35Z</time>
      </trkpt>
      <trkpt lat="49.07341" lon="1.10179">
        <ele>141.399994</ele>
        <time>2015-12-13T08:49:37Z</time>
      </trkpt>
      <trkpt lat="49.07347" lon="1.10167">
        <ele>141.5</ele>
        <time>2015-12-13T08:49:39Z</time>
      </trkpt>
      <trkpt lat="49.07354" lon="1.10154">
        <ele>141.600006</ele>
        <time>2015-12-13T08:49:41Z</time>
      </trkpt>
      <trkpt lat="49.0736" lon="1.10141">
        <ele>141.699997</ele>
        <time>2015-12-13T08:49:43Z</time>
      </trkpt>
      <trkpt lat="49.07368" lon="1.10129">
        <ele>141.800003</ele>
        <time>2015-12-13T08:49:45Z</time>
      </trkpt>
      <trkpt lat="49.07375" lon="1.10116">
        <ele>141.899994</ele>
        <time>2015-12-13T08:49:47Z</time>
      </trkpt>
      <trkpt lat="49.07382" lon="1.10103">
        <ele>141.899994</ele>
        <time>2015-12-13T08:49:49Z</time>
      </trkpt>
      <trkpt lat="49.0739" lon="1.1009">
        <ele>142</ele>
        <time>2015-12-13T08:49:51Z</time>
      </trkpt>
      <trkpt lat="49.07397" lon="1.10077">
        <ele>142.100006</ele>
        <time>2015-12-13T08:49:53Z</time>
      </trkpt>
      <trkpt lat="49.07404" lon="1.10065">
        <ele>142.100006</ele>
        <time>2015-12-13T08:49:55Z</time>
      </trkpt>
      <trkpt lat="49.07411" lon="1.10052">
        <ele>142.199997</ele>
        <time>2015-12-13T08:49:57Z</time>
      </trkpt>
      <trkpt lat="49.07418" lon="1.1004">
        <ele>142.199997</ele>
        <time>2015-12-13T08:49:59Z</time>
      </trkpt>
      <trkpt lat="49.07425" lon="1.10028">
        <ele>142.199997</ele>
        <time>2015-12-13T08:50:01Z</time>
      </trkpt>
      <trkpt lat="49.07432" lon="1.10015">
        <ele>142.199997</ele>
        <time>2015-12-13T08:50:03Z</time>
      </trkpt>
      <trkpt lat="49.07439" lon="1.10003">
        <ele>142.199997</ele>
        <time>2015-12-13T08:50:05Z</time>
      </trkpt>
      <trkpt lat="49.07446" lon="1.09991">
        <ele>142.199997</ele>
        <time>2015-12-13T08:50:07Z</time>
      </trkpt>
      <trkpt lat="49.07453" lon="1.0998">
        <ele>142.100006</ele>
        <time>2015-12-13T08:50:09Z</time>
      </trkpt>
      <trkpt lat="49.07459" lon="1.09967">
        <ele>142.100006</ele>
        <time>2015-12-13T08:50:11Z</time>
      </trkpt>
      <trkpt lat="49.07466" lon="1.09955">
        <ele>142.100006</ele>
        <time>2015-12-13T08:50:13Z</time>
      </trkpt>
      <trkpt lat="49.07473" lon="1.09943">
        <ele>142.100006</ele>
        <time>2015-12-13T08:50:15Z</time>
      </trkpt>
      <trkpt lat="49.0748" lon="1.09932">
        <ele>142.100006</ele>
        <time>2015-12-13T08:50:17Z</time>
      </trkpt>
      <trkpt lat="49.07487" lon="1.0992">
        <ele>142.100006</ele>
        <time>2015-12-13T08:50:19Z</time>
      </trkpt>
      <trkpt lat="49.07493" lon="1.09909">
        <ele>142.100006</ele>
        <time>2015-12-13T08:50:21Z</time>
      </trkpt>
      <trkpt lat="49.075" lon="1.09898">
        <ele>142.100006</ele>
        <time>2015-12-13T08:50:23Z</time>
      </trkpt>
      <trkpt lat="49.07507" lon="1.09888">
        <ele>142.100006</ele>
        <time>2015-12-13T08:50:25Z</time>
      </trkpt>
      <trkpt lat="49.07516" lon="1.09878">
        <ele>142.100006</ele>
        <time>2015-12-13T08:50:27Z</time>
      </trkpt>
      <trkpt lat="49.07524" lon="1.09869">
        <ele>142</ele>
        <time>2015-12-13T08:50:29Z</time>
      </trkpt>
      <trkpt lat="49.07532" lon="1.0986">
        <ele>142</ele>
        <time>2015-12-13T08:50:31Z</time>
      </trkpt>
      <trkpt lat="49.07541" lon="1.09851">
        <ele>142</ele>
        <time>2015-12-13T08:50:33Z</time>
      </trkpt>
      <trkpt lat="49.0755" lon="1.09843">
        <ele>141.899994</ele>
        <time>2015-12-13T08:50:35Z</time>
      </trkpt>
      <trkpt lat="49.07559" lon="1.09835">
        <ele>141.899994</ele>
        <time>2015-12-13T08:50:37Z</time>
      </trkpt>
      <trkpt lat="49.07569" lon="1.09826">
        <ele>141.899994</ele>
        <time>2015-12-13T08:50:39Z</time>
      </trkpt>
      <trkpt lat="49.07578" lon="1.09817">
        <ele>141.800003</ele>
        <time>2015-12-13T08:50:41Z</time>
      </trkpt>
      <trkpt lat="49.07587" lon="1.09808">
        <ele>141.800003</ele>
        <time>2015-12-13T08:50:43Z</time>
      </trkpt>
      <trkpt lat="49.07596" lon="1.09799">
        <ele>141.800003</ele>
        <time>2015-12-13T08:50:45Z</time>
      </trkpt>
      <trkpt lat="49.07605" lon="1.09789">
        <ele>141.699997</ele>
        <time>2015-12-13T08:50:47Z</time>
      </trkpt>
      <trkpt lat="49.07614" lon="1.09779">
        <ele>141.699997</ele>
        <time>2015-12-13T08:50:49Z</time>
      </trkpt>
      <trkpt lat="49.07623" lon="1.0977">
        <ele>141.699997</ele>
        <time>2015-12-13T08:50:51Z</time>
      </trkpt>
      <trkpt lat="49.07632" lon="1.09761">
        <ele>141.600006</ele>
        <time>2015-12-13T08:50:53Z</time>
      </trkpt>
      <trkpt lat="49.07641" lon="1.09751">
        <ele>141.600006</ele>
        <time>2015-12-13T08:50:55Z</time>
      </trkpt>
      <trkpt lat="49.0765" lon="1.09742">
        <ele>141.600006</ele>
        <time>2015-12-13T08:50:57Z</time>
      </trkpt>
      <trkpt lat="49.07659" lon="1.09733">
        <ele>141.600006</ele>
        <time>2015-12-13T08:50:59Z</time>
      </trkpt>
      <trkpt lat="49.07668" lon="1.09724">
        <ele>141.600006</ele>
        <time>2015-12-13T08:51:01Z</time>
      </trkpt>
      <trkpt lat="49.07677" lon="1.09715">
        <ele>141.5</ele>
        <time>2015-12-13T08:51:03Z</time>
      </trkpt>
      <trkpt lat="49.07686" lon="1.09705">
        <ele>141.5</ele>
        <time>2015-12-13T08:51:05Z</time>
      </trkpt>
      <trkpt lat="49.07695" lon="1.09696">
        <ele>141.5</ele>
        <time>2015-12-13T08:51:07Z</time>
      </trkpt>
      <trkpt lat="49.07704" lon="1.09686">
        <ele>141.5</ele>
        <time>2015-12-13T08:51:09Z</time>
      </trkpt>
      <trkpt lat="49.07713" lon="1.09677">
        <ele>141.5</ele>
        <time>2015-12-13T08:51:11Z</time>
      </trkpt>
      <trkpt lat="49.07722" lon="1.09668">
        <ele>141.5</ele>
        <time>2015-12-13T08:51:13Z</time>
      </trkpt>
      <trkpt lat="49.07731" lon="1.09659">
        <ele>141.5</ele>
        <time>2015-12-13T08:51:15Z</time>
      </trkpt>
      <trkpt lat="49.0774" lon="1.0965">
        <ele>141.5</ele>
        <time>2015-12-13T08:51:17Z</time>
      </trkpt>
      <trkpt lat="49.07749" lon="1.09641">
        <ele>141.600006</ele>
        <time>2015-12-13T08:51:19Z</time>
      </trkpt>
      <trkpt lat="49.07758" lon="1.09631">
        <ele>141.699997</ele>
        <time>2015-12-13T08:51:21Z</time>
      </trkpt>
      <trkpt lat="49.07767" lon="1.09621">
        <ele>141.800003</ele>
        <time>2015-12-13T08:51:23Z</time>
      </trkpt>
      <trkpt lat="49.07776" lon="1.09611">
        <ele>142</ele>
        <time>2015-12-13T08:51:25Z</time>
      </trkpt>
      <trkpt lat="49.07785" lon="1.09602">
        <ele>142.100006</ele>
        <time>2015-12-13T08:51:27Z</time>
      </trkpt>
      <trkpt lat="49.07794" lon="1.09592">
        <ele>142.199997</ele>
        <time>2015-12-13T08:51:29Z</time>
      </trkpt>
      <trkpt lat="49.07803" lon="1.09582">
        <ele>142.300003</ele>
        <time>2015-12-13T08:51:31Z</time>
      </trkpt>
      <trkpt lat="49.07813" lon="1.09573">
        <ele>142.399994</ele>
        <time>2015-12-13T08:51:33Z</time>
      </trkpt>
      <trkpt lat="49.07822" lon="1.09563">
        <ele>142.5</ele>
        <time>2015-12-13T08:51:35Z</time>
      </trkpt>
      <trkpt lat="49.07831" lon="1.09555">
        <ele>142.600006</ele>
        <time>2015-12-13T08:51:37Z</time>
      </trkpt>
      <trkpt lat="49.07841" lon="1.09548">
        <ele>142.600006</ele>
        <time>2015-12-13T08:51:39Z</time>
      </trkpt>
      <trkpt lat="49.07852" lon="1.09541">
        <ele>142.699997</ele>
        <time>2015-12-13T08:51:41Z</time>
      </trkpt>
      <trkpt lat="49.07862" lon="1.09533">
        <ele>142.699997</ele>
        <time>2015-12-13T08:51:43Z</time>
      </trkpt>
      <trkpt lat="49.07873" lon="1.09525">
        <ele>142.699997</ele>
        <time>2015-12-13T08:51:45Z</time>
      </trkpt>
      <trkpt lat="49.07883" lon="1.09518">
        <ele>142.800003</ele>
        <time>2015-12-13T08:51:47Z</time>
      </trkpt>
      <trkpt lat="49.07894" lon="1.09511">
        <ele>142.800003</ele>
        <time>2015-12-13T08:51:49Z</time>
      </trkpt>
      <trkpt lat="49.07905" lon="1.09503">
        <ele>142.800003</ele>
        <time>2015-12-13T08:51:51Z</time>
      </trkpt>
      <trkpt lat="49.07915" lon="1.09496">
        <ele>142.800003</ele>
        <time>2015-12-13T08:51:53Z</time>
      </trkpt>
      <trkpt lat="49.07926" lon="1.09489">
        <ele>142.800003</ele>
        <time>2015-12-13T08:51:55Z</time>
      </trkpt>
      <trkpt lat="49.07937" lon="1.09482">
        <ele>142.800003</ele>
        <time>2015-12-13T08:51:57Z</time>
      </trkpt>
      <trkpt lat="49.07948" lon="1.09475">
        <ele>142.800003</ele>
        <time>2015-12-13T08:51:59Z</time>
      </trkpt>
      <trkpt lat="49.07959" lon="1.09468">
        <ele>142.800003</ele>
        <time>2015-12-13T08:52:01Z</time>
      </trkpt>
      <trkpt lat="49.0797" lon="1.09461">
        <ele>142.899994</ele>
        <time>2015-12-13T08:52:03Z</time>
      </trkpt>
      <trkpt lat="49.07982" lon="1.09453">
        <ele>142.899994</ele>
        <time>2015-12-13T08:52:05Z</time>
      </trkpt>
      <trkpt lat="49.07993" lon="1.09446">
        <ele>142.899994</ele>
        <time>2015-12-13T08:52:07Z</time>
      </trkpt>
      <trkpt lat="49.08004" lon="1.09438">
        <ele>142.899994</ele>
        <time>2015-12-13T08:52:09Z</time>
      </trkpt>
      <trkpt lat="49.08015" lon="1.0943">
        <ele>142.899994</ele>
        <time>2015-12-13T08:52:11Z</time>
      </trkpt>
      <trkpt lat="49.08026" lon="1.09423">
        <ele>142.899994</ele>
        <time>2015-12-13T08:52:13Z</time>
      </trkpt>
      <trkpt lat="49.08037" lon="1.09415">
        <ele>142.699997</ele>
        <time>2015-12-13T08:52:15Z</time>
      </trkpt>
      <trkpt lat="49.08049" lon="1.09407">
        <ele>142.699997</ele>
        <time>2015-12-13T08:52:17Z</time>
      </trkpt>
      <trkpt lat="49.0806" lon="1.09399">
        <ele>142.5</ele>
        <time>2015-12-13T08:52:19Z</time>
      </trkpt>
      <trkpt lat="49.08072" lon="1.09391">
        <ele>142.399994</ele>
        <time>2015-12-13T08:52:21Z</time>
      </trkpt>
      <trkpt lat="49.08083" lon="1.09384">
        <ele>142.300003</ele>
        <time>2015-12-13T08:52:23Z</time>
      </trkpt>
      <trkpt lat="49.08095" lon="1.09377">
        <ele>142.199997</ele>
        <time>2015-12-13T08:52:25Z</time>
      </trkpt>
      <trkpt lat="49.08107" lon="1.09372">
        <ele>142.100006</ele>
        <time>2015-12-13T08:52:27Z</time>
      </trkpt>
      <trkpt lat="49.0812" lon="1.09367">
        <ele>142</ele>
        <time>2015-12-13T08:52:29Z</time>
      </trkpt>
      <trkpt lat="49.08133" lon="1.09363">
        <ele>141.800003</ele>
        <time>2015-12-13T08:52:31Z</time>
      </trkpt>
      <trkpt lat="49.08145" lon="1.09358">
        <ele>141.699997</ele>
        <time>2015-12-13T08:52:33Z</time>
      </trkpt>
      <trkpt lat="49.08158" lon="1.09353">
        <ele>141.5</ele>
        <time>2015-12-13T08:52:35Z</time>
      </trkpt>
      <trkpt lat="49.0817" lon="1.09348">
        <ele>141.399994</ele>
        <time>2015-12-13T08:52:37Z</time>
      </trkpt>
      <trkpt lat="49.08183" lon="1.09344">
        <ele>141</ele>
        <time>2015-12-13T08:52:39Z</time>
      </trkpt>
      <trkpt lat="49.08196" lon="1.0934">
        <ele>140.699997</ele>
        <time>2015-12-13T08:52:41Z</time>
      </trkpt>
      <trkpt lat="49.08208" lon="1.09336">
        <ele>140.5</ele>
        <time>2015-12-13T08:52:43Z</time>
      </trkpt>
      <trkpt lat="49.0822" lon="1.09331">
        <ele>140.300003</ele>
        <time>2015-12-13T08:52:45Z</time>
      </trkpt>
      <trkpt lat="49.08232" lon="1.09327">
        <ele>140</ele>
        <time>2015-12-13T08:52:47Z</time>
      </trkpt>
      <trkpt lat="49.08245" lon="1.09322">
        <ele>139.699997</ele>
        <time>2015-12-13T08:52:49Z</time>
      </trkpt>
      <trkpt lat="49.08256" lon="1.09318">
        <ele>139.399994</ele>
        <time>2015-12-13T08:52:51Z</time>
      </trkpt>
      <trkpt lat="49.08267" lon="1.09316">
        <ele>139.100006</ele>
        <time>2015-12-13T08:52:53Z</time>
      </trkpt>
      <trkpt lat="49.08278" lon="1.09314">
        <ele>138.899994</ele>
        <time>2015-12-13T08:52:55Z</time>
      </trkpt>
      <trkpt lat="49.08289" lon="1.09308">
        <ele>138.600006</ele>
        <time>2015-12-13T08:52:57Z</time>
      </trkpt>
      <trkpt lat="49.08299" lon="1.093">
        <ele>138.399994</ele>
        <time>2015-12-13T08:52:59Z</time>
      </trkpt>
      <trkpt lat="49.08307" lon="1.09293">
        <ele>138.199997</ele>
        <time>2015-12-13T08:53:01Z</time>
      </trkpt>
      <trkpt lat="49.08318" lon="1.09299">
        <ele>137.899994</ele>
        <time>2015-12-13T08:53:04Z</time>
      </trkpt>
      <trkpt lat="49.08326" lon="1.09312">
        <ele>137.699997</ele>
        <time>2015-12-13T08:53:06Z</time>
      </trkpt>
      <trkpt lat="49.08334" lon="1.09324">
        <ele>137.5</ele>
        <time>2015-12-13T08:53:08Z</time>
      </trkpt>
      <trkpt lat="49.08341" lon="1.09336">
        <ele>137.399994</ele>
        <time>2015-12-13T08:53:10Z</time>
      </trkpt>
      <trkpt lat="49.0835" lon="1.09349">
        <ele>137.100006</ele>
        <time>2015-12-13T08:53:12Z</time>
      </trkpt>
      <trkpt lat="49.08359" lon="1.09362">
        <ele>136.899994</ele>
        <time>2015-12-13T08:53:14Z</time>
      </trkpt>
      <trkpt lat="49.08367" lon="1.09376">
        <ele>136.699997</ele>
        <time>2015-12-13T08:53:16Z</time>
      </trkpt>
      <trkpt lat="49.08376" lon="1.09391">
        <ele>136.5</ele>
        <time>2015-12-13T08:53:18Z</time>
      </trkpt>
      <trkpt lat="49.08386" lon="1.09407">
        <ele>136.300003</ele>
        <time>2015-12-13T08:53:20Z</time>
      </trkpt>
      <trkpt lat="49.08395" lon="1.0942">
        <ele>136.100006</ele>
        <time>2015-12-13T08:53:22Z</time>
      </trkpt>
      <trkpt lat="49.08405" lon="1.09433">
        <ele>135.899994</ele>
        <time>2015-12-13T08:53:24Z</time>
      </trkpt>
      <trkpt lat="49.08415" lon="1.09444">
        <ele>135.699997</ele>
        <time>2015-12-13T08:53:26Z</time>
      </trkpt>
      <trkpt lat="49.08422" lon="1.09455">
        <ele>135.399994</ele>
        <time>2015-12-13T08:53:28Z</time>
      </trkpt>
      <trkpt lat="49.08431" lon="1.09464">
        <ele>135.100006</ele>
        <time>2015-12-13T08:53:30Z</time>
      </trkpt>
      <trkpt lat="49.0844" lon="1.09478">
        <ele>134.699997</ele>
        <time>2015-12-13T08:53:32Z</time>
      </trkpt>
      <trkpt lat="49.08449" lon="1.09495">
        <ele>134</ele>
        <time>2015-12-13T08:53:35Z</time>
      </trkpt>
      <trkpt lat="49.08457" lon="1.09502">
        <ele>133.399994</ele>
        <time>2015-12-13T08:53:37Z</time>
      </trkpt>
      <trkpt lat="49.08466" lon="1.09506">
        <ele>132.899994</ele>
        <time>2015-12-13T08:53:39Z</time>
      </trkpt>
      <trkpt lat="49.08482" lon="1.09509">
        <ele>132.199997</ele>
        <time>2015-12-13T08:53:41Z</time>
      </trkpt>
      <trkpt lat="49.08495" lon="1.09512">
        <ele>131.899994</ele>
        <time>2015-12-13T08:53:42Z</time>
      </trkpt>
      <trkpt lat="49.08505" lon="1.0951">
        <ele>131.600006</ele>
        <time>2015-12-13T08:53:43Z</time>
      </trkpt>
      <trkpt lat="49.08517" lon="1.09508">
        <ele>130.800003</ele>
        <time>2015-12-13T08:53:45Z</time>
      </trkpt>
      <trkpt lat="49.0853" lon="1.09505">
        <ele>129.899994</ele>
        <time>2015-12-13T08:53:47Z</time>
      </trkpt>
      <trkpt lat="49.08544" lon="1.09503">
        <ele>128.899994</ele>
        <time>2015-12-13T08:53:49Z</time>
      </trkpt>
      <trkpt lat="49.08558" lon="1.09499">
        <ele>128</ele>
        <time>2015-12-13T08:53:51Z</time>
      </trkpt>
      <trkpt lat="49.08567" lon="1.09493">
        <ele>126.900002</ele>
        <time>2015-12-13T08:53:53Z</time>
      </trkpt>
      <trkpt lat="49.08579" lon="1.09492">
        <ele>125.699997</ele>
        <time>2015-12-13T08:53:55Z</time>
      </trkpt>
      <trkpt lat="49.08593" lon="1.09492">
        <ele>124.5</ele>
        <time>2015-12-13T08:53:57Z</time>
      </trkpt>
      <trkpt lat="49.08602" lon="1.09492">
        <ele>123.800003</ele>
        <time>2015-12-13T08:53:58Z</time>
      </trkpt>
      <trkpt lat="49.08617" lon="1.09492">
        <ele>122.599998</ele>
        <time>2015-12-13T08:54:00Z</time>
      </trkpt>
      <trkpt lat="49.08631" lon="1.09494">
        <ele>121.300003</ele>
        <time>2015-12-13T08:54:02Z</time>
      </trkpt>
      <trkpt lat="49.08646" lon="1.09501">
        <ele>119.800003</ele>
        <time>2015-12-13T08:54:04Z</time>
      </trkpt>
      <trkpt lat="49.08659" lon="1.09508">
        <ele>118.099998</ele>
        <time>2015-12-13T08:54:06Z</time>
      </trkpt>
      <trkpt lat="49.08669" lon="1.0951">
        <ele>117.300003</ele>
        <time>2015-12-13T08:54:07Z</time>
      </trkpt>
      <trkpt lat="49.08683" lon="1.09514">
        <ele>115.900002</ele>
        <time>2015-12-13T08:54:09Z</time>
      </trkpt>
      <trkpt lat="49.08697" lon="1.09516">
        <ele>114.400002</ele>
        <time>2015-12-13T08:54:11Z</time>
      </trkpt>
      <trkpt lat="49.08711" lon="1.09516">
        <ele>112.900002</ele>
        <time>2015-12-13T08:54:13Z</time>
      </trkpt>
      <trkpt lat="49.08727" lon="1.09514">
        <ele>111.400002</ele>
        <time>2015-12-13T08:54:15Z</time>
      </trkpt>
      <trkpt lat="49.08736" lon="1.09515">
        <ele>110.5</ele>
        <time>2015-12-13T08:54:16Z</time>
      </trkpt>
      <trkpt lat="49.08747" lon="1.09515">
        <ele>109.699997</ele>
        <time>2015-12-13T08:54:17Z</time>
      </trkpt>
      <trkpt lat="49.08756" lon="1.09515">
        <ele>108.900002</ele>
        <time>2015-12-13T08:54:18Z</time>
      </trkpt>
      <trkpt lat="49.08774" lon="1.09515">
        <ele>107.199997</ele>
        <time>2015-12-13T08:54:20Z</time>
      </trkpt>
      <trkpt lat="49.08789" lon="1.09513">
        <ele>105.300003</ele>
        <time>2015-12-13T08:54:22Z</time>
      </trkpt>
      <trkpt lat="49.08803" lon="1.09514">
        <ele>103.5</ele>
        <time>2015-12-13T08:54:24Z</time>
      </trkpt>
      <trkpt lat="49.08819" lon="1.09516">
        <ele>101.599998</ele>
        <time>2015-12-13T08:54:26Z</time>
      </trkpt>
      <trkpt lat="49.08834" lon="1.09521">
        <ele>99.800003</ele>
        <time>2015-12-13T08:54:28Z</time>
      </trkpt>
      <trkpt lat="49.08843" lon="1.09526">
        <ele>98.900002</ele>
        <time>2015-12-13T08:54:29Z</time>
      </trkpt>
      <trkpt lat="49.08853" lon="1.09532">
        <ele>98</ele>
        <time>2015-12-13T08:54:30Z</time>
      </trkpt>
      <trkpt lat="49.0886" lon="1.0954">
        <ele>97.199997</ele>
        <time>2015-12-13T08:54:31Z</time>
      </trkpt>
      <trkpt lat="49.08875" lon="1.09553">
        <ele>95.599998</ele>
        <time>2015-12-13T08:54:33Z</time>
      </trkpt>
      <trkpt lat="49.08891" lon="1.09565">
        <ele>94.199997</ele>
        <time>2015-12-13T08:54:35Z</time>
      </trkpt>
      <trkpt lat="49.08899" lon="1.09569">
        <ele>93.5</ele>
        <time>2015-12-13T08:54:36Z</time>
      </trkpt>
      <trkpt lat="49.08914" lon="1.09579">
        <ele>92.300003</ele>
        <time>2015-12-13T08:54:38Z</time>
      </trkpt>
      <trkpt lat="49.08926" lon="1.0959">
        <ele>91</ele>
        <time>2015-12-13T08:54:40Z</time>
      </trkpt>
      <trkpt lat="49.08936" lon="1.09601">
        <ele>89.900002</ele>
        <time>2015-12-13T08:54:42Z</time>
      </trkpt>
      <trkpt lat="49.08947" lon="1.09604">
        <ele>88.800003</ele>
        <time>2015-12-13T08:54:44Z</time>
      </trkpt>
      <trkpt lat="49.08958" lon="1.0961">
        <ele>87.800003</ele>
        <time>2015-12-13T08:54:46Z</time>
      </trkpt>
      <trkpt lat="49.08968" lon="1.09613">
        <ele>86.900002</ele>
        <time>2015-12-13T08:54:48Z</time>
      </trkpt>
      <trkpt lat="49.08982" lon="1.09614">
        <ele>86.099998</ele>
        <time>2015-12-13T08:54:50Z</time>
      </trkpt>
      <trkpt lat="49.08994" lon="1.09613">
        <ele>85</ele>
        <time>2015-12-13T08:54:53Z</time>
      </trkpt>
      <trkpt lat="49.09004" lon="1.09614">
        <ele>84</ele>
        <time>2015-12-13T08:54:56Z</time>
      </trkpt>
      <trkpt lat="49.09019" lon="1.09613">
        <ele>83.199997</ele>
        <time>2015-12-13T08:54:59Z</time>
      </trkpt>
      <trkpt lat="49.09028" lon="1.09612">
        <ele>82.599998</ele>
        <time>2015-12-13T08:55:01Z</time>
      </trkpt>
      <trkpt lat="49.09042" lon="1.09613">
        <ele>82.099998</ele>
        <time>2015-12-13T08:55:03Z</time>
      </trkpt>
      <trkpt lat="49.09053" lon="1.09612">
        <ele>81.599998</ele>
        <time>2015-12-13T08:55:05Z</time>
      </trkpt>
      <trkpt lat="49.09065" lon="1.09612">
        <ele>81.199997</ele>
        <time>2015-12-13T08:55:07Z</time>
      </trkpt>
      <trkpt lat="49.09077" lon="1.09611">
        <ele>80.699997</ele>
        <time>2015-12-13T08:55:09Z</time>
      </trkpt>
      <trkpt lat="49.09091" lon="1.0961">
        <ele>80.199997</ele>
        <time>2015-12-13T08:55:11Z</time>
      </trkpt>
      <trkpt lat="49.09105" lon="1.0961">
        <ele>79.699997</ele>
        <time>2015-12-13T08:55:13Z</time>
      </trkpt>
      <trkpt lat="49.09121" lon="1.09611">
        <ele>79.199997</ele>
        <time>2015-12-13T08:55:15Z</time>
      </trkpt>
      <trkpt lat="49.09134" lon="1.0961">
        <ele>78.699997</ele>
        <time>2015-12-13T08:55:17Z</time>
      </trkpt>
      <trkpt lat="49.09146" lon="1.09611">
        <ele>77.900002</ele>
        <time>2015-12-13T08:55:19Z</time>
      </trkpt>
      <trkpt lat="49.09158" lon="1.09609">
        <ele>77.300003</ele>
        <time>2015-12-13T08:55:21Z</time>
      </trkpt>
      <trkpt lat="49.09172" lon="1.09602">
        <ele>76.699997</ele>
        <time>2015-12-13T08:55:23Z</time>
      </trkpt>
      <trkpt lat="49.09185" lon="1.09597">
        <ele>76.199997</ele>
        <time>2015-12-13T08:55:25Z</time>
      </trkpt>
      <trkpt lat="49.09198" lon="1.09591">
        <ele>75.699997</ele>
        <time>2015-12-13T08:55:27Z</time>
      </trkpt>
      <trkpt lat="49.09211" lon="1.09587">
        <ele>75.199997</ele>
        <time>2015-12-13T08:55:29Z</time>
      </trkpt>
      <trkpt lat="49.09223" lon="1.09583">
        <ele>74.699997</ele>
        <time>2015-12-13T08:55:31Z</time>
      </trkpt>
      <trkpt lat="49.09234" lon="1.09578">
        <ele>74.199997</ele>
        <time>2015-12-13T08:55:33Z</time>
      </trkpt>
      <trkpt lat="49.09248" lon="1.09574">
        <ele>73.699997</ele>
        <time>2015-12-13T08:55:35Z</time>
      </trkpt>
      <trkpt lat="49.0926" lon="1.09568">
        <ele>73.300003</ele>
        <time>2015-12-13T08:55:37Z</time>
      </trkpt>
      <trkpt lat="49.09274" lon="1.09563">
        <ele>72.800003</ele>
        <time>2015-12-13T08:55:39Z</time>
      </trkpt>
      <trkpt lat="49.09285" lon="1.09558">
        <ele>72.300003</ele>
        <time>2015-12-13T08:55:41Z</time>
      </trkpt>
      <trkpt lat="49.09297" lon="1.09552">
        <ele>72</ele>
        <time>2015-12-13T08:55:43Z</time>
      </trkpt>
      <trkpt lat="49.09309" lon="1.09547">
        <ele>71.5</ele>
        <time>2015-12-13T08:55:45Z</time>
      </trkpt>
      <trkpt lat="49.09321" lon="1.09543">
        <ele>71.099998</ele>
        <time>2015-12-13T08:55:47Z</time>
      </trkpt>
      <trkpt lat="49.09333" lon="1.0954">
        <ele>70.599998</ele>
        <time>2015-12-13T08:55:49Z</time>
      </trkpt>
      <trkpt lat="49.09345" lon="1.09535">
        <ele>70</ele>
        <time>2015-12-13T08:55:51Z</time>
      </trkpt>
      <trkpt lat="49.09354" lon="1.09529">
        <ele>69.300003</ele>
        <time>2015-12-13T08:55:53Z</time>
      </trkpt>
      <trkpt lat="49.09363" lon="1.09524">
        <ele>68.099998</ele>
        <time>2015-12-13T08:55:57Z</time>
      </trkpt>
      <trkpt lat="49.09374" lon="1.09517">
        <ele>67.300003</ele>
        <time>2015-12-13T08:56:00Z</time>
      </trkpt>
      <trkpt lat="49.09386" lon="1.09508">
        <ele>66.5</ele>
        <time>2015-12-13T08:56:03Z</time>
      </trkpt>
      <trkpt lat="49.09394" lon="1.095">
        <ele>65.800003</ele>
        <time>2015-12-13T08:56:05Z</time>
      </trkpt>
      <trkpt lat="49.09405" lon="1.09497">
        <ele>65.300003</ele>
        <time>2015-12-13T08:56:07Z</time>
      </trkpt>
      <trkpt lat="49.09415" lon="1.09493">
        <ele>64.5</ele>
        <time>2015-12-13T08:56:09Z</time>
      </trkpt>
      <trkpt lat="49.09424" lon="1.09486">
        <ele>63.900002</ele>
        <time>2015-12-13T08:56:11Z</time>
      </trkpt>
      <trkpt lat="49.09434" lon="1.09479">
        <ele>63.299999</ele>
        <time>2015-12-13T08:56:13Z</time>
      </trkpt>
      <trkpt lat="49.09446" lon="1.09476">
        <ele>62.400002</ele>
        <time>2015-12-13T08:56:16Z</time>
      </trkpt>
      <trkpt lat="49.09456" lon="1.09478">
        <ele>61.700001</ele>
        <time>2015-12-13T08:56:19Z</time>
      </trkpt>
      <trkpt lat="49.09465" lon="1.0948">
        <ele>59.799999</ele>
        <time>2015-12-13T08:56:32Z</time>
      </trkpt>
      <trkpt lat="49.09465" lon="1.09465">
        <ele>57.700001</ele>
        <time>2015-12-13T08:57:35Z</time>
      </trkpt>
      <trkpt lat="49.0946" lon="1.0945">
        <ele>57.799999</ele>
        <time>2015-12-13T08:57:40Z</time>
      </trkpt>
      <trkpt lat="49.09458" lon="1.09435">
        <ele>58</ele>
        <time>2015-12-13T08:57:43Z</time>
      </trkpt>
      <trkpt lat="49.09452" lon="1.09424">
        <ele>58.299999</ele>
        <time>2015-12-13T08:57:47Z</time>
      </trkpt>
      <trkpt lat="49.09446" lon="1.09413">
        <ele>58.599998</ele>
        <time>2015-12-13T08:57:51Z</time>
      </trkpt>
      <trkpt lat="49.09439" lon="1.09401">
        <ele>58.900002</ele>
        <time>2015-12-13T08:57:55Z</time>
      </trkpt>
      <trkpt lat="49.09433" lon="1.09386">
        <ele>59.400002</ele>
        <time>2015-12-13T08:58:00Z</time>
      </trkpt>
      <trkpt lat="49.09428" lon="1.09371">
        <ele>59.700001</ele>
        <time>2015-12-13T08:58:03Z</time>
      </trkpt>
      <trkpt lat="49.09425" lon="1.09356">
        <ele>60.200001</ele>
        <time>2015-12-13T08:58:07Z</time>
      </trkpt>
      <trkpt lat="49.09421" lon="1.09341">
        <ele>60.400002</ele>
        <time>2015-12-13T08:58:10Z</time>
      </trkpt>
      <trkpt lat="49.09419" lon="1.09326">
        <ele>60.700001</ele>
        <time>2015-12-13T08:58:13Z</time>
      </trkpt>
      <trkpt lat="49.09418" lon="1.0931">
        <ele>61</ele>
        <time>2015-12-13T08:58:16Z</time>
      </trkpt>
      <trkpt lat="49.09416" lon="1.09296">
        <ele>61.299999</ele>
        <time>2015-12-13T08:58:19Z</time>
      </trkpt>
      <trkpt lat="49.09415" lon="1.09274">
        <ele>61.599998</ele>
        <time>2015-12-13T08:58:22Z</time>
      </trkpt>
      <trkpt lat="49.09414" lon="1.0926">
        <ele>61.700001</ele>
        <time>2015-12-13T08:58:24Z</time>
      </trkpt>
      <trkpt lat="49.09415" lon="1.09244">
        <ele>62</ele>
        <time>2015-12-13T08:58:27Z</time>
      </trkpt>
      <trkpt lat="49.09419" lon="1.09228">
        <ele>62.299999</ele>
        <time>2015-12-13T08:58:30Z</time>
      </trkpt>
      <trkpt lat="49.09422" lon="1.09211">
        <ele>62.700001</ele>
        <time>2015-12-13T08:58:33Z</time>
      </trkpt>
      <trkpt lat="49.09424" lon="1.09195">
        <ele>62.900002</ele>
        <time>2015-12-13T08:58:36Z</time>
      </trkpt>
      <trkpt lat="49.09423" lon="1.09181">
        <ele>63.200001</ele>
        <time>2015-12-13T08:58:40Z</time>
      </trkpt>
      <trkpt lat="49.09424" lon="1.09166">
        <ele>63.5</ele>
        <time>2015-12-13T08:58:44Z</time>
      </trkpt>
      <trkpt lat="49.09425" lon="1.09149">
        <ele>63.799999</ele>
        <time>2015-12-13T08:58:48Z</time>
      </trkpt>
      <trkpt lat="49.09426" lon="1.09133">
        <ele>64</ele>
        <time>2015-12-13T08:58:52Z</time>
      </trkpt>
      <trkpt lat="49.09426" lon="1.09118">
        <ele>64.300003</ele>
        <time>2015-12-13T08:58:55Z</time>
      </trkpt>
      <trkpt lat="49.09425" lon="1.09104">
        <ele>64.5</ele>
        <time>2015-12-13T08:58:58Z</time>
      </trkpt>
      <trkpt lat="49.09425" lon="1.09086">
        <ele>65</ele>
        <time>2015-12-13T08:59:02Z</time>
      </trkpt>
      <trkpt lat="49.09422" lon="1.09072">
        <ele>65.300003</ele>
        <time>2015-12-13T08:59:04Z</time>
      </trkpt>
      <trkpt lat="49.09419" lon="1.09059">
        <ele>65.5</ele>
        <time>2015-12-13T08:59:06Z</time>
      </trkpt>
      <trkpt lat="49.09416" lon="1.09042">
        <ele>66.099998</ele>
        <time>2015-12-13T08:59:10Z</time>
      </trkpt>
      <trkpt lat="49.09414" lon="1.09028">
        <ele>66.800003</ele>
        <time>2015-12-13T08:59:14Z</time>
      </trkpt>
      <trkpt lat="49.09411" lon="1.09014">
        <ele>67.5</ele>
        <time>2015-12-13T08:59:18Z</time>
      </trkpt>
      <trkpt lat="49.09409" lon="1.09001">
        <ele>68.400002</ele>
        <time>2015-12-13T08:59:22Z</time>
      </trkpt>
      <trkpt lat="49.09406" lon="1.08985">
        <ele>69.300003</ele>
        <time>2015-12-13T08:59:26Z</time>
      </trkpt>
      <trkpt lat="49.09402" lon="1.08969">
        <ele>70.400002</ele>
        <time>2015-12-13T08:59:31Z</time>
      </trkpt>
      <trkpt lat="49.094" lon="1.08952">
        <ele>71.5</ele>
        <time>2015-12-13T08:59:36Z</time>
      </trkpt>
      <trkpt lat="49.094" lon="1.08937">
        <ele>72.599998</ele>
        <time>2015-12-13T08:59:41Z</time>
      </trkpt>
      <trkpt lat="49.09399" lon="1.08922">
        <ele>73.900002</ele>
        <time>2015-12-13T08:59:47Z</time>
      </trkpt>
      <trkpt lat="49.09399" lon="1.08907">
        <ele>75</ele>
        <time>2015-12-13T08:59:52Z</time>
      </trkpt>
      <trkpt lat="49.094" lon="1.08891">
        <ele>76.199997</ele>
        <time>2015-12-13T08:59:58Z</time>
      </trkpt>
      <trkpt lat="49.09401" lon="1.08877">
        <ele>77</ele>
        <time>2015-12-13T09:00:02Z</time>
      </trkpt>
      <trkpt lat="49.09402" lon="1.08862">
        <ele>77.900002</ele>
        <time>2015-12-13T09:00:07Z</time>
      </trkpt>
      <trkpt lat="49.09404" lon="1.08846">
        <ele>78.800003</ele>
        <time>2015-12-13T09:00:12Z</time>
      </trkpt>
      <trkpt lat="49.09405" lon="1.08832">
        <ele>79.5</ele>
        <time>2015-12-13T09:00:16Z</time>
      </trkpt>
      <trkpt lat="49.09407" lon="1.08817">
        <ele>80.599998</ele>
        <time>2015-12-13T09:00:21Z</time>
      </trkpt>
      <trkpt lat="49.09409" lon="1.08803">
        <ele>81.699997</ele>
        <time>2015-12-13T09:00:26Z</time>
      </trkpt>
      <trkpt lat="49.09411" lon="1.08789">
        <ele>82.699997</ele>
        <time>2015-12-13T09:00:31Z</time>
      </trkpt>
      <trkpt lat="49.09413" lon="1.08776">
        <ele>83.800003</ele>
        <time>2015-12-13T09:00:36Z</time>
      </trkpt>
      <trkpt lat="49.09414" lon="1.08762">
        <ele>84.699997</ele>
        <time>2015-12-13T09:00:41Z</time>
      </trkpt>
      <trkpt lat="49.09416" lon="1.08747">
        <ele>85.900002</ele>
        <time>2015-12-13T09:00:47Z</time>
      </trkpt>
      <trkpt lat="49.09418" lon="1.0873">
        <ele>87.099998</ele>
        <time>2015-12-13T09:00:53Z</time>
      </trkpt>
      <trkpt lat="49.0942" lon="1.08714">
        <ele>88</ele>
        <time>2015-12-13T09:00:58Z</time>
      </trkpt>
      <trkpt lat="49.0942" lon="1.08699">
        <ele>88.900002</ele>
        <time>2015-12-13T09:01:03Z</time>
      </trkpt>
      <trkpt lat="49.09421" lon="1.08682">
        <ele>89.800003</ele>
        <time>2015-12-13T09:01:08Z</time>
      </trkpt>
      <trkpt lat="49.09422" lon="1.08667">
        <ele>90.800003</ele>
        <time>2015-12-13T09:01:13Z</time>
      </trkpt>
      <trkpt lat="49.09424" lon="1.08652">
        <ele>91.900002</ele>
        <time>2015-12-13T09:01:18Z</time>
      </trkpt>
      <trkpt lat="49.09425" lon="1.08638">
        <ele>93</ele>
        <time>2015-12-13T09:01:23Z</time>
      </trkpt>
      <trkpt lat="49.09426" lon="1.08624">
        <ele>94.099998</ele>
        <time>2015-12-13T09:01:28Z</time>
      </trkpt>
      <trkpt lat="49.09427" lon="1.08609">
        <ele>95.199997</ele>
        <time>2015-12-13T09:01:33Z</time>
      </trkpt>
      <trkpt lat="49.09428" lon="1.08596">
        <ele>96.300003</ele>
        <time>2015-12-13T09:01:38Z</time>
      </trkpt>
      <trkpt lat="49.0943" lon="1.0858">
        <ele>97.900002</ele>
        <time>2015-12-13T09:01:44Z</time>
      </trkpt>
      <trkpt lat="49.09432" lon="1.08564">
        <ele>99.199997</ele>
        <time>2015-12-13T09:01:50Z</time>
      </trkpt>
      <trkpt lat="49.09434" lon="1.08549">
        <ele>100.400002</ele>
        <time>2015-12-13T09:01:56Z</time>
      </trkpt>
      <trkpt lat="49.09436" lon="1.08535">
        <ele>101.400002</ele>
        <time>2015-12-13T09:02:01Z</time>
      </trkpt>
      <trkpt lat="49.09437" lon="1.0852">
        <ele>102.699997</ele>
        <time>2015-12-13T09:02:07Z</time>
      </trkpt>
      <trkpt lat="49.09436" lon="1.08506">
        <ele>103.699997</ele>
        <time>2015-12-13T09:02:12Z</time>
      </trkpt>
      <trkpt lat="49.09433" lon="1.0849">
        <ele>104.800003</ele>
        <time>2015-12-13T09:02:18Z</time>
      </trkpt>
      <trkpt lat="49.0943" lon="1.08476">
        <ele>106.099998</ele>
        <time>2015-12-13T09:02:25Z</time>
      </trkpt>
      <trkpt lat="49.09425" lon="1.08461">
        <ele>107.400002</ele>
        <time>2015-12-13T09:02:32Z</time>
      </trkpt>
      <trkpt lat="49.09426" lon="1.08447">
        <ele>108.5</ele>
        <time>2015-12-13T09:02:37Z</time>
      </trkpt>
      <trkpt lat="49.09428" lon="1.08432">
        <ele>109.5</ele>
        <time>2015-12-13T09:02:42Z</time>
      </trkpt>
      <trkpt lat="49.09432" lon="1.08418">
        <ele>110.5</ele>
        <time>2015-12-13T09:02:47Z</time>
      </trkpt>
      <trkpt lat="49.09436" lon="1.08403">
        <ele>111.599998</ele>
        <time>2015-12-13T09:02:52Z</time>
      </trkpt>
      <trkpt lat="49.09441" lon="1.08387">
        <ele>112.5</ele>
        <time>2015-12-13T09:02:57Z</time>
      </trkpt>
      <trkpt lat="49.09444" lon="1.08373">
        <ele>113.199997</ele>
        <time>2015-12-13T09:03:01Z</time>
      </trkpt>
      <trkpt lat="49.09445" lon="1.08359">
        <ele>114.199997</ele>
        <time>2015-12-13T09:03:06Z</time>
      </trkpt>
      <trkpt lat="49.09444" lon="1.08343">
        <ele>115.400002</ele>
        <time>2015-12-13T09:03:12Z</time>
      </trkpt>
      <trkpt lat="49.09444" lon="1.08329">
        <ele>116.300003</ele>
        <time>2015-12-13T09:03:16Z</time>
      </trkpt>
      <trkpt lat="49.09445" lon="1.08315">
        <ele>117.099998</ele>
        <time>2015-12-13T09:03:20Z</time>
      </trkpt>
      <trkpt lat="49.09447" lon="1.083">
        <ele>117.900002</ele>
        <time>2015-12-13T09:03:24Z</time>
      </trkpt>
      <trkpt lat="49.0945" lon="1.08285">
        <ele>118.900002</ele>
        <time>2015-12-13T09:03:29Z</time>
      </trkpt>
      <trkpt lat="49.09453" lon="1.08271">
        <ele>119.699997</ele>
        <time>2015-12-13T09:03:33Z</time>
      </trkpt>
      <trkpt lat="49.09456" lon="1.08257">
        <ele>120.5</ele>
        <time>2015-12-13T09:03:37Z</time>
      </trkpt>
      <trkpt lat="49.09459" lon="1.08242">
        <ele>121.400002</ele>
        <time>2015-12-13T09:03:41Z</time>
      </trkpt>
      <trkpt lat="49.09462" lon="1.08228">
        <ele>122.300003</ele>
        <time>2015-12-13T09:03:46Z</time>
      </trkpt>
      <trkpt lat="49.09465" lon="1.08215">
        <ele>123.199997</ele>
        <time>2015-12-13T09:03:50Z</time>
      </trkpt>
      <trkpt lat="49.09472" lon="1.08204">
        <ele>123.900002</ele>
        <time>2015-12-13T09:03:54Z</time>
      </trkpt>
      <trkpt lat="49.09481" lon="1.08198">
        <ele>124.400002</ele>
        <time>2015-12-13T09:03:57Z</time>
      </trkpt>
      <trkpt lat="49.0949" lon="1.08193">
        <ele>124.699997</ele>
        <time>2015-12-13T09:04:00Z</time>
      </trkpt>
      <trkpt lat="49.09501" lon="1.08183">
        <ele>125.300003</ele>
        <time>2015-12-13T09:04:04Z</time>
      </trkpt>
      <trkpt lat="49.09507" lon="1.0817">
        <ele>125.800003</ele>
        <time>2015-12-13T09:04:07Z</time>
      </trkpt>
      <trkpt lat="49.09514" lon="1.08159">
        <ele>126.400002</ele>
        <time>2015-12-13T09:04:10Z</time>
      </trkpt>
      <trkpt lat="49.09519" lon="1.08147">
        <ele>126.900002</ele>
        <time>2015-12-13T09:04:13Z</time>
      </trkpt>
      <trkpt lat="49.09523" lon="1.08133">
        <ele>127.400002</ele>
        <time>2015-12-13T09:04:16Z</time>
      </trkpt>
      <trkpt lat="49.09528" lon="1.08119">
        <ele>127.900002</ele>
        <time>2015-12-13T09:04:19Z</time>
      </trkpt>
      <trkpt lat="49.09531" lon="1.08104">
        <ele>128.399994</ele>
        <time>2015-12-13T09:04:22Z</time>
      </trkpt>
      <trkpt lat="49.09532" lon="1.08088">
        <ele>129</ele>
        <time>2015-12-13T09:04:26Z</time>
      </trkpt>
      <trkpt lat="49.09529" lon="1.08072">
        <ele>129.5</ele>
        <time>2015-12-13T09:04:29Z</time>
      </trkpt>
      <trkpt lat="49.09523" lon="1.08058">
        <ele>129.899994</ele>
        <time>2015-12-13T09:04:32Z</time>
      </trkpt>
      <trkpt lat="49.09515" lon="1.08045">
        <ele>130.300003</ele>
        <time>2015-12-13T09:04:35Z</time>
      </trkpt>
      <trkpt lat="49.09506" lon="1.08033">
        <ele>130.800003</ele>
        <time>2015-12-13T09:04:38Z</time>
      </trkpt>
      <trkpt lat="49.09498" lon="1.08018">
        <ele>131.199997</ele>
        <time>2015-12-13T09:04:41Z</time>
      </trkpt>
      <trkpt lat="49.09494" lon="1.08">
        <ele>131.600006</ele>
        <time>2015-12-13T09:04:45Z</time>
      </trkpt>
      <trkpt lat="49.09492" lon="1.07983">
        <ele>131.899994</ele>
        <time>2015-12-13T09:04:48Z</time>
      </trkpt>
      <trkpt lat="49.0949" lon="1.07968">
        <ele>132</ele>
        <time>2015-12-13T09:04:50Z</time>
      </trkpt>
      <trkpt lat="49.09488" lon="1.07948">
        <ele>132.199997</ele>
        <time>2015-12-13T09:04:53Z</time>
      </trkpt>
      <trkpt lat="49.09487" lon="1.07934">
        <ele>132.399994</ele>
        <time>2015-12-13T09:04:56Z</time>
      </trkpt>
      <trkpt lat="49.09486" lon="1.07918">
        <ele>132.5</ele>
        <time>2015-12-13T09:04:59Z</time>
      </trkpt>
      <trkpt lat="49.09483" lon="1.07894">
        <ele>132</ele>
        <time>2015-12-13T09:05:03Z</time>
      </trkpt>
      <trkpt lat="49.09482" lon="1.07874">
        <ele>133.199997</ele>
        <time>2015-12-13T09:05:06Z</time>
      </trkpt>
      <trkpt lat="49.0948" lon="1.07857">
        <ele>133.5</ele>
        <time>2015-12-13T09:05:09Z</time>
      </trkpt>
      <trkpt lat="49.09478" lon="1.07844">
        <ele>133.699997</ele>
        <time>2015-12-13T09:05:11Z</time>
      </trkpt>
      <trkpt lat="49.09476" lon="1.07825">
        <ele>134</ele>
        <time>2015-12-13T09:05:14Z</time>
      </trkpt>
      <trkpt lat="49.09474" lon="1.07812">
        <ele>134.199997</ele>
        <time>2015-12-13T09:05:16Z</time>
      </trkpt>
      <trkpt lat="49.09472" lon="1.07796">
        <ele>134.399994</ele>
        <time>2015-12-13T09:05:19Z</time>
      </trkpt>
      <trkpt lat="49.09469" lon="1.07782">
        <ele>134.5</ele>
        <time>2015-12-13T09:05:21Z</time>
      </trkpt>
      <trkpt lat="49.09466" lon="1.07765">
        <ele>134.600006</ele>
        <time>2015-12-13T09:05:24Z</time>
      </trkpt>
      <trkpt lat="49.09463" lon="1.07746">
        <ele>134.699997</ele>
        <time>2015-12-13T09:05:27Z</time>
      </trkpt>
      <trkpt lat="49.0946" lon="1.0773">
        <ele>134.800003</ele>
        <time>2015-12-13T09:05:29Z</time>
      </trkpt>
      <trkpt lat="49.09458" lon="1.07714">
        <ele>134.899994</ele>
        <time>2015-12-13T09:05:31Z</time>
      </trkpt>
      <trkpt lat="49.09457" lon="1.07699">
        <ele>135</ele>
        <time>2015-12-13T09:05:33Z</time>
      </trkpt>
      <trkpt lat="49.09455" lon="1.07683">
        <ele>135.100006</ele>
        <time>2015-12-13T09:05:35Z</time>
      </trkpt>
      <trkpt lat="49.09453" lon="1.07667">
        <ele>135.100006</ele>
        <time>2015-12-13T09:05:37Z</time>
      </trkpt>
      <trkpt lat="49.0945" lon="1.07654">
        <ele>135.199997</ele>
        <time>2015-12-13T09:05:39Z</time>
      </trkpt>
      <trkpt lat="49.09446" lon="1.07641">
        <ele>135.300003</ele>
        <time>2015-12-13T09:05:41Z</time>
      </trkpt>
      <trkpt lat="49.09441" lon="1.07628">
        <ele>135.300003</ele>
        <time>2015-12-13T09:05:43Z</time>
      </trkpt>
      <trkpt lat="49.09433" lon="1.07612">
        <ele>135.399994</ele>
        <time>2015-12-13T09:05:46Z</time>
      </trkpt>
      <trkpt lat="49.09427" lon="1.07597">
        <ele>135.5</ele>
        <time>2015-12-13T09:05:48Z</time>
      </trkpt>
      <trkpt lat="49.09421" lon="1.07584">
        <ele>135.600006</ele>
        <time>2015-12-13T09:05:50Z</time>
      </trkpt>
      <trkpt lat="49.09416" lon="1.07571">
        <ele>135.600006</ele>
        <time>2015-12-13T09:05:52Z</time>
      </trkpt>
      <trkpt lat="49.09408" lon="1.07553">
        <ele>135.800003</ele>
        <time>2015-12-13T09:05:55Z</time>
      </trkpt>
      <trkpt lat="49.09402" lon="1.07542">
        <ele>135.899994</ele>
        <time>2015-12-13T09:05:57Z</time>
      </trkpt>
      <trkpt lat="49.09396" lon="1.07531">
        <ele>136</ele>
        <time>2015-12-13T09:05:59Z</time>
      </trkpt>
      <trkpt lat="49.0939" lon="1.0752">
        <ele>136.199997</ele>
        <time>2015-12-13T09:06:01Z</time>
      </trkpt>
      <trkpt lat="49.09384" lon="1.0751">
        <ele>136.399994</ele>
        <time>2015-12-13T09:06:03Z</time>
      </trkpt>
      <trkpt lat="49.09375" lon="1.07497">
        <ele>136.600006</ele>
        <time>2015-12-13T09:06:06Z</time>
      </trkpt>
      <trkpt lat="49.09368" lon="1.07488">
        <ele>136.800003</ele>
        <time>2015-12-13T09:06:08Z</time>
      </trkpt>
      <trkpt lat="49.09358" lon="1.07477">
        <ele>137</ele>
        <time>2015-12-13T09:06:11Z</time>
      </trkpt>
      <trkpt lat="49.09347" lon="1.07469">
        <ele>137.300003</ele>
        <time>2015-12-13T09:06:14Z</time>
      </trkpt>
      <trkpt lat="49.09335" lon="1.07466">
        <ele>137.600006</ele>
        <time>2015-12-13T09:06:17Z</time>
      </trkpt>
      <trkpt lat="49.09325" lon="1.07464">
        <ele>137.899994</ele>
        <time>2015-12-13T09:06:20Z</time>
      </trkpt>
      <trkpt lat="49.09314" lon="1.07456">
        <ele>138.199997</ele>
        <time>2015-12-13T09:06:23Z</time>
      </trkpt>
      <trkpt lat="49.09302" lon="1.07451">
        <ele>138.5</ele>
        <time>2015-12-13T09:06:26Z</time>
      </trkpt>
      <trkpt lat="49.0929" lon="1.07446">
        <ele>138.800003</ele>
        <time>2015-12-13T09:06:29Z</time>
      </trkpt>
      <trkpt lat="49.09278" lon="1.0744">
        <ele>139.100006</ele>
        <time>2015-12-13T09:06:32Z</time>
      </trkpt>
      <trkpt lat="49.09269" lon="1.07435">
        <ele>139.300003</ele>
        <time>2015-12-13T09:06:34Z</time>
      </trkpt>
      <trkpt lat="49.09257" lon="1.07431">
        <ele>139.600006</ele>
        <time>2015-12-13T09:06:37Z</time>
      </trkpt>
      <trkpt lat="49.09244" lon="1.07433">
        <ele>139.800003</ele>
        <time>2015-12-13T09:06:40Z</time>
      </trkpt>
      <trkpt lat="49.09235" lon="1.07434">
        <ele>139.899994</ele>
        <time>2015-12-13T09:06:42Z</time>
      </trkpt>
      <trkpt lat="49.09222" lon="1.07438">
        <ele>140.100006</ele>
        <time>2015-12-13T09:06:45Z</time>
      </trkpt>
      <trkpt lat="49.0921" lon="1.07441">
        <ele>140.199997</ele>
        <time>2015-12-13T09:06:48Z</time>
      </trkpt>
      <trkpt lat="49.09201" lon="1.07443">
        <ele>140.300003</ele>
        <time>2015-12-13T09:06:50Z</time>
      </trkpt>
      <trkpt lat="49.09188" lon="1.07449">
        <ele>140.399994</ele>
        <time>2015-12-13T09:06:53Z</time>
      </trkpt>
      <trkpt lat="49.09179" lon="1.07453">
        <ele>140.399994</ele>
        <time>2015-12-13T09:06:55Z</time>
      </trkpt>
      <trkpt lat="49.0917" lon="1.07456">
        <ele>140.399994</ele>
        <time>2015-12-13T09:06:57Z</time>
      </trkpt>
      <trkpt lat="49.0916" lon="1.0746">
        <ele>140.300003</ele>
        <time>2015-12-13T09:06:59Z</time>
      </trkpt>
      <trkpt lat="49.0915" lon="1.07462">
        <ele>140.300003</ele>
        <time>2015-12-13T09:07:01Z</time>
      </trkpt>
      <trkpt lat="49.09139" lon="1.07463">
        <ele>140.199997</ele>
        <time>2015-12-13T09:07:03Z</time>
      </trkpt>
      <trkpt lat="49.09127" lon="1.07464">
        <ele>140.100006</ele>
        <time>2015-12-13T09:07:05Z</time>
      </trkpt>
      <trkpt lat="49.09118" lon="1.07468">
        <ele>140</ele>
        <time>2015-12-13T09:07:07Z</time>
      </trkpt>
      <trkpt lat="49.09108" lon="1.07473">
        <ele>139.899994</ele>
        <time>2015-12-13T09:07:09Z</time>
      </trkpt>
      <trkpt lat="49.09098" lon="1.07478">
        <ele>139.699997</ele>
        <time>2015-12-13T09:07:11Z</time>
      </trkpt>
      <trkpt lat="49.09089" lon="1.07484">
        <ele>139.300003</ele>
        <time>2015-12-13T09:07:13Z</time>
      </trkpt>
      <trkpt lat="49.09078" lon="1.0749">
        <ele>138.800003</ele>
        <time>2015-12-13T09:07:16Z</time>
      </trkpt>
      <trkpt lat="49.09066" lon="1.07486">
        <ele>138.300003</ele>
        <time>2015-12-13T09:07:19Z</time>
      </trkpt>
      <trkpt lat="49.09055" lon="1.07478">
        <ele>137.600006</ele>
        <time>2015-12-13T09:07:22Z</time>
      </trkpt>
      <trkpt lat="49.09048" lon="1.07468">
        <ele>136.300003</ele>
        <time>2015-12-13T09:07:25Z</time>
      </trkpt>
      <trkpt lat="49.0905" lon="1.07454">
        <ele>134</ele>
        <time>2015-12-13T09:07:30Z</time>
      </trkpt>
      <trkpt lat="49.09059" lon="1.07445">
        <ele>132.899994</ele>
        <time>2015-12-13T09:07:33Z</time>
      </trkpt>
      <trkpt lat="49.09071" lon="1.07434">
        <ele>131.800003</ele>
        <time>2015-12-13T09:07:36Z</time>
      </trkpt>
      <trkpt lat="49.09079" lon="1.07424">
        <ele>131.199997</ele>
        <time>2015-12-13T09:07:38Z</time>
      </trkpt>
      <trkpt lat="49.09088" lon="1.07415">
        <ele>130.600006</ele>
        <time>2015-12-13T09:07:40Z</time>
      </trkpt>
      <trkpt lat="49.09098" lon="1.07406">
        <ele>130</ele>
        <time>2015-12-13T09:07:42Z</time>
      </trkpt>
      <trkpt lat="49.09109" lon="1.07395">
        <ele>129.399994</ele>
        <time>2015-12-13T09:07:44Z</time>
      </trkpt>
      <trkpt lat="49.09121" lon="1.07387">
        <ele>128.800003</ele>
        <time>2015-12-13T09:07:46Z</time>
      </trkpt>
      <trkpt lat="49.09133" lon="1.07379">
        <ele>128.300003</ele>
        <time>2015-12-13T09:07:48Z</time>
      </trkpt>
      <trkpt lat="49.09142" lon="1.07367">
        <ele>127.800003</ele>
        <time>2015-12-13T09:07:50Z</time>
      </trkpt>
      <trkpt lat="49.09154" lon="1.07357">
        <ele>127.300003</ele>
        <time>2015-12-13T09:07:52Z</time>
      </trkpt>
      <trkpt lat="49.09166" lon="1.07348">
        <ele>126.800003</ele>
        <time>2015-12-13T09:07:54Z</time>
      </trkpt>
      <trkpt lat="49.09179" lon="1.0734">
        <ele>126.300003</ele>
        <time>2015-12-13T09:07:56Z</time>
      </trkpt>
      <trkpt lat="49.09191" lon="1.07331">
        <ele>125.900002</ele>
        <time>2015-12-13T09:07:58Z</time>
      </trkpt>
      <trkpt lat="49.09203" lon="1.0732">
        <ele>125.400002</ele>
        <time>2015-12-13T09:08:00Z</time>
      </trkpt>
      <trkpt lat="49.09215" lon="1.07311">
        <ele>125</ele>
        <time>2015-12-13T09:08:02Z</time>
      </trkpt>
      <trkpt lat="49.09226" lon="1.07301">
        <ele>124.5</ele>
        <time>2015-12-13T09:08:04Z</time>
      </trkpt>
      <trkpt lat="49.09238" lon="1.07292">
        <ele>124.199997</ele>
        <time>2015-12-13T09:08:06Z</time>
      </trkpt>
      <trkpt lat="49.0925" lon="1.07282">
        <ele>123.699997</ele>
        <time>2015-12-13T09:08:08Z</time>
      </trkpt>
      <trkpt lat="49.09261" lon="1.07272">
        <ele>123.300003</ele>
        <time>2015-12-13T09:08:10Z</time>
      </trkpt>
      <trkpt lat="49.0927" lon="1.07263">
        <ele>122.900002</ele>
        <time>2015-12-13T09:08:12Z</time>
      </trkpt>
      <trkpt lat="49.09278" lon="1.07253">
        <ele>122.5</ele>
        <time>2015-12-13T09:08:14Z</time>
      </trkpt>
      <trkpt lat="49.09288" lon="1.0724">
        <ele>121.800003</ele>
        <time>2015-12-13T09:08:17Z</time>
      </trkpt>
      <trkpt lat="49.09298" lon="1.07233">
        <ele>121.400002</ele>
        <time>2015-12-13T09:08:19Z</time>
      </trkpt>
      <trkpt lat="49.09308" lon="1.07227">
        <ele>121</ele>
        <time>2015-12-13T09:08:21Z</time>
      </trkpt>
      <trkpt lat="49.09316" lon="1.07219">
        <ele>120.5</ele>
        <time>2015-12-13T09:08:23Z</time>
      </trkpt>
      <trkpt lat="49.09328" lon="1.07215">
        <ele>119.800003</ele>
        <time>2015-12-13T09:08:26Z</time>
      </trkpt>
      <trkpt lat="49.09341" lon="1.07217">
        <ele>119.099998</ele>
        <time>2015-12-13T09:08:29Z</time>
      </trkpt>
      <trkpt lat="49.09355" lon="1.0722">
        <ele>118.5</ele>
        <time>2015-12-13T09:08:32Z</time>
      </trkpt>
      <trkpt lat="49.09367" lon="1.07227">
        <ele>118.099998</ele>
        <time>2015-12-13T09:08:34Z</time>
      </trkpt>
      <trkpt lat="49.09379" lon="1.07235">
        <ele>117.699997</ele>
        <time>2015-12-13T09:08:36Z</time>
      </trkpt>
      <trkpt lat="49.0939" lon="1.07241">
        <ele>117.400002</ele>
        <time>2015-12-13T09:08:38Z</time>
      </trkpt>
      <trkpt lat="49.09403" lon="1.07246">
        <ele>117</ele>
        <time>2015-12-13T09:08:40Z</time>
      </trkpt>
      <trkpt lat="49.09415" lon="1.07252">
        <ele>116.599998</ele>
        <time>2015-12-13T09:08:42Z</time>
      </trkpt>
      <trkpt lat="49.09426" lon="1.0726">
        <ele>116.099998</ele>
        <time>2015-12-13T09:08:44Z</time>
      </trkpt>
      <trkpt lat="49.09437" lon="1.07268">
        <ele>115.699997</ele>
        <time>2015-12-13T09:08:46Z</time>
      </trkpt>
      <trkpt lat="49.09447" lon="1.07275">
        <ele>115.300003</ele>
        <time>2015-12-13T09:08:48Z</time>
      </trkpt>
      <trkpt lat="49.09456" lon="1.07282">
        <ele>114.900002</ele>
        <time>2015-12-13T09:08:50Z</time>
      </trkpt>
      <trkpt lat="49.09466" lon="1.0729">
        <ele>114.599998</ele>
        <time>2015-12-13T09:08:52Z</time>
      </trkpt>
      <trkpt lat="49.09474" lon="1.07295">
        <ele>114.199997</ele>
        <time>2015-12-13T09:08:54Z</time>
      </trkpt>
      <trkpt lat="49.09484" lon="1.07304">
        <ele>113.900002</ele>
        <time>2015-12-13T09:08:56Z</time>
      </trkpt>
      <trkpt lat="49.09495" lon="1.07313">
        <ele>113.599998</ele>
        <time>2015-12-13T09:08:58Z</time>
      </trkpt>
      <trkpt lat="49.09503" lon="1.07323">
        <ele>113.300003</ele>
        <time>2015-12-13T09:09:00Z</time>
      </trkpt>
      <trkpt lat="49.09511" lon="1.07335">
        <ele>113</ele>
        <time>2015-12-13T09:09:02Z</time>
      </trkpt>
      <trkpt lat="49.09519" lon="1.07347">
        <ele>112.599998</ele>
        <time>2015-12-13T09:09:04Z</time>
      </trkpt>
      <trkpt lat="49.09529" lon="1.07358">
        <ele>112.199997</ele>
        <time>2015-12-13T09:09:06Z</time>
      </trkpt>
      <trkpt lat="49.09539" lon="1.0737">
        <ele>111.699997</ele>
        <time>2015-12-13T09:09:08Z</time>
      </trkpt>
      <trkpt lat="49.0955" lon="1.07381">
        <ele>111.300003</ele>
        <time>2015-12-13T09:09:10Z</time>
      </trkpt>
      <trkpt lat="49.0956" lon="1.07392">
        <ele>110.800003</ele>
        <time>2015-12-13T09:09:12Z</time>
      </trkpt>
      <trkpt lat="49.09568" lon="1.07404">
        <ele>110.300003</ele>
        <time>2015-12-13T09:09:14Z</time>
      </trkpt>
      <trkpt lat="49.09577" lon="1.07419">
        <ele>109.800003</ele>
        <time>2015-12-13T09:09:16Z</time>
      </trkpt>
      <trkpt lat="49.09584" lon="1.07432">
        <ele>109.300003</ele>
        <time>2015-12-13T09:09:18Z</time>
      </trkpt>
      <trkpt lat="49.09592" lon="1.07441">
        <ele>108.900002</ele>
        <time>2015-12-13T09:09:20Z</time>
      </trkpt>
      <trkpt lat="49.09602" lon="1.07452">
        <ele>108.400002</ele>
        <time>2015-12-13T09:09:22Z</time>
      </trkpt>
      <trkpt lat="49.09612" lon="1.07464">
        <ele>108</ele>
        <time>2015-12-13T09:09:24Z</time>
      </trkpt>
      <trkpt lat="49.0962" lon="1.07477">
        <ele>107.5</ele>
        <time>2015-12-13T09:09:26Z</time>
      </trkpt>
      <trkpt lat="49.09626" lon="1.07491">
        <ele>107</ele>
        <time>2015-12-13T09:09:28Z</time>
      </trkpt>
      <trkpt lat="49.09633" lon="1.07505">
        <ele>106.5</ele>
        <time>2015-12-13T09:09:30Z</time>
      </trkpt>
      <trkpt lat="49.09637" lon="1.07519">
        <ele>106.099998</ele>
        <time>2015-12-13T09:09:32Z</time>
      </trkpt>
      <trkpt lat="49.09647" lon="1.07534">
        <ele>105.699997</ele>
        <time>2015-12-13T09:09:34Z</time>
      </trkpt>
      <trkpt lat="49.09654" lon="1.07548">
        <ele>105.300003</ele>
        <time>2015-12-13T09:09:36Z</time>
      </trkpt>
      <trkpt lat="49.09661" lon="1.07561">
        <ele>104.900002</ele>
        <time>2015-12-13T09:09:38Z</time>
      </trkpt>
      <trkpt lat="49.0967" lon="1.07578">
        <ele>104.599998</ele>
        <time>2015-12-13T09:09:40Z</time>
      </trkpt>
      <trkpt lat="49.09679" lon="1.07592">
        <ele>104.300003</ele>
        <time>2015-12-13T09:09:42Z</time>
      </trkpt>
      <trkpt lat="49.09687" lon="1.07608">
        <ele>104</ele>
        <time>2015-12-13T09:09:44Z</time>
      </trkpt>
      <trkpt lat="49.09695" lon="1.07626">
        <ele>103.800003</ele>
        <time>2015-12-13T09:09:46Z</time>
      </trkpt>
      <trkpt lat="49.09703" lon="1.07641">
        <ele>103.5</ele>
        <time>2015-12-13T09:09:48Z</time>
      </trkpt>
      <trkpt lat="49.0971" lon="1.07658">
        <ele>103.199997</ele>
        <time>2015-12-13T09:09:50Z</time>
      </trkpt>
      <trkpt lat="49.09717" lon="1.07675">
        <ele>102.800003</ele>
        <time>2015-12-13T09:09:52Z</time>
      </trkpt>
      <trkpt lat="49.09724" lon="1.0769">
        <ele>102.5</ele>
        <time>2015-12-13T09:09:54Z</time>
      </trkpt>
      <trkpt lat="49.09731" lon="1.07704">
        <ele>102.199997</ele>
        <time>2015-12-13T09:09:56Z</time>
      </trkpt>
      <trkpt lat="49.09739" lon="1.07719">
        <ele>101.699997</ele>
        <time>2015-12-13T09:09:58Z</time>
      </trkpt>
      <trkpt lat="49.09745" lon="1.07734">
        <ele>101.199997</ele>
        <time>2015-12-13T09:10:00Z</time>
      </trkpt>
      <trkpt lat="49.09751" lon="1.0775">
        <ele>100.800003</ele>
        <time>2015-12-13T09:10:02Z</time>
      </trkpt>
      <trkpt lat="49.09756" lon="1.07763">
        <ele>100.5</ele>
        <time>2015-12-13T09:10:04Z</time>
      </trkpt>
      <trkpt lat="49.09763" lon="1.07776">
        <ele>100.199997</ele>
        <time>2015-12-13T09:10:06Z</time>
      </trkpt>
      <trkpt lat="49.09771" lon="1.07788">
        <ele>99.800003</ele>
        <time>2015-12-13T09:10:08Z</time>
      </trkpt>
      <trkpt lat="49.09781" lon="1.07795">
        <ele>99.300003</ele>
        <time>2015-12-13T09:10:10Z</time>
      </trkpt>
      <trkpt lat="49.09789" lon="1.07805">
        <ele>98.900002</ele>
        <time>2015-12-13T09:10:12Z</time>
      </trkpt>
      <trkpt lat="49.098" lon="1.07813">
        <ele>98.599998</ele>
        <time>2015-12-13T09:10:14Z</time>
      </trkpt>
      <trkpt lat="49.0981" lon="1.07814">
        <ele>98.099998</ele>
        <time>2015-12-13T09:10:16Z</time>
      </trkpt>
      <trkpt lat="49.09822" lon="1.07811">
        <ele>97.5</ele>
        <time>2015-12-13T09:10:19Z</time>
      </trkpt>
      <trkpt lat="49.09831" lon="1.07801">
        <ele>97</ele>
        <time>2015-12-13T09:10:22Z</time>
      </trkpt>
      <trkpt lat="49.09841" lon="1.0779">
        <ele>96.599998</ele>
        <time>2015-12-13T09:10:25Z</time>
      </trkpt>
      <trkpt lat="49.09849" lon="1.0778">
        <ele>96.300003</ele>
        <time>2015-12-13T09:10:28Z</time>
      </trkpt>
      <trkpt lat="49.09859" lon="1.07772">
        <ele>96.099998</ele>
        <time>2015-12-13T09:10:31Z</time>
      </trkpt>
      <trkpt lat="49.09868" lon="1.07764">
        <ele>96</ele>
        <time>2015-12-13T09:10:34Z</time>
      </trkpt>
      <trkpt lat="49.0988" lon="1.07757">
        <ele>96.099998</ele>
        <time>2015-12-13T09:10:37Z</time>
      </trkpt>
      <trkpt lat="49.09891" lon="1.0775">
        <ele>96.300003</ele>
        <time>2015-12-13T09:10:40Z</time>
      </trkpt>
      <trkpt lat="49.09902" lon="1.07742">
        <ele>96.599998</ele>
        <time>2015-12-13T09:10:43Z</time>
      </trkpt>
      <trkpt lat="49.09913" lon="1.07734">
        <ele>96.800003</ele>
        <time>2015-12-13T09:10:46Z</time>
      </trkpt>
      <trkpt lat="49.09922" lon="1.07728">
        <ele>97.199997</ele>
        <time>2015-12-13T09:10:49Z</time>
      </trkpt>
      <trkpt lat="49.09932" lon="1.07723">
        <ele>97.5</ele>
        <time>2015-12-13T09:10:52Z</time>
      </trkpt>
      <trkpt lat="49.09941" lon="1.07718">
        <ele>98</ele>
        <time>2015-12-13T09:10:55Z</time>
      </trkpt>
      <trkpt lat="49.0995" lon="1.07714">
        <ele>98.400002</ele>
        <time>2015-12-13T09:10:58Z</time>
      </trkpt>
      <trkpt lat="49.0996" lon="1.07713">
        <ele>98.800003</ele>
        <time>2015-12-13T09:11:01Z</time>
      </trkpt>
      <trkpt lat="49.0997" lon="1.07713">
        <ele>99.199997</ele>
        <time>2015-12-13T09:11:04Z</time>
      </trkpt>
      <trkpt lat="49.0998" lon="1.07712">
        <ele>99.599998</ele>
        <time>2015-12-13T09:11:07Z</time>
      </trkpt>
      <trkpt lat="49.09991" lon="1.07709">
        <ele>100.300003</ele>
        <time>2015-12-13T09:11:11Z</time>
      </trkpt>
      <trkpt lat="49.10002" lon="1.07703">
        <ele>100.900002</ele>
        <time>2015-12-13T09:11:15Z</time>
      </trkpt>
      <trkpt lat="49.1001" lon="1.07697">
        <ele>101.400002</ele>
        <time>2015-12-13T09:11:18Z</time>
      </trkpt>
      <trkpt lat="49.10018" lon="1.07691">
        <ele>101.900002</ele>
        <time>2015-12-13T09:11:21Z</time>
      </trkpt>
      <trkpt lat="49.10027" lon="1.07684">
        <ele>102.300003</ele>
        <time>2015-12-13T09:11:24Z</time>
      </trkpt>
      <trkpt lat="49.10036" lon="1.07674">
        <ele>102.699997</ele>
        <time>2015-12-13T09:11:27Z</time>
      </trkpt>
      <trkpt lat="49.10043" lon="1.07664">
        <ele>103.300003</ele>
        <time>2015-12-13T09:11:30Z</time>
      </trkpt>
      <trkpt lat="49.10049" lon="1.0765">
        <ele>103.800003</ele>
        <time>2015-12-13T09:11:33Z</time>
      </trkpt>
      <trkpt lat="49.10055" lon="1.07636">
        <ele>104.300003</ele>
        <time>2015-12-13T09:11:36Z</time>
      </trkpt>
      <trkpt lat="49.10062" lon="1.07623">
        <ele>104.800003</ele>
        <time>2015-12-13T09:11:39Z</time>
      </trkpt>
      <trkpt lat="49.10069" lon="1.0761">
        <ele>105.300003</ele>
        <time>2015-12-13T09:11:42Z</time>
      </trkpt>
      <trkpt lat="49.10076" lon="1.07599">
        <ele>105.900002</ele>
        <time>2015-12-13T09:11:45Z</time>
      </trkpt>
      <trkpt lat="49.10083" lon="1.07586">
        <ele>106.5</ele>
        <time>2015-12-13T09:11:48Z</time>
      </trkpt>
      <trkpt lat="49.1009" lon="1.07573">
        <ele>107</ele>
        <time>2015-12-13T09:11:51Z</time>
      </trkpt>
      <trkpt lat="49.10097" lon="1.07562">
        <ele>107.400002</ele>
        <time>2015-12-13T09:11:54Z</time>
      </trkpt>
      <trkpt lat="49.10104" lon="1.07551">
        <ele>108</ele>
        <time>2015-12-13T09:11:57Z</time>
      </trkpt>
      <trkpt lat="49.10112" lon="1.07539">
        <ele>108.599998</ele>
        <time>2015-12-13T09:12:00Z</time>
      </trkpt>
      <trkpt lat="49.10119" lon="1.07528">
        <ele>109.099998</ele>
        <time>2015-12-13T09:12:03Z</time>
      </trkpt>
      <trkpt lat="49.10127" lon="1.07519">
        <ele>109.5</ele>
        <time>2015-12-13T09:12:06Z</time>
      </trkpt>
      <trkpt lat="49.10135" lon="1.07509">
        <ele>110</ele>
        <time>2015-12-13T09:12:09Z</time>
      </trkpt>
      <trkpt lat="49.10144" lon="1.075">
        <ele>110.5</ele>
        <time>2015-12-13T09:12:12Z</time>
      </trkpt>
      <trkpt lat="49.10154" lon="1.07493">
        <ele>111</ele>
        <time>2015-12-13T09:12:15Z</time>
      </trkpt>
      <trkpt lat="49.10163" lon="1.07485">
        <ele>111.5</ele>
        <time>2015-12-13T09:12:18Z</time>
      </trkpt>
      <trkpt lat="49.10173" lon="1.07477">
        <ele>111.900002</ele>
        <time>2015-12-13T09:12:21Z</time>
      </trkpt>
      <trkpt lat="49.10183" lon="1.0747">
        <ele>112.400002</ele>
        <time>2015-12-13T09:12:24Z</time>
      </trkpt>
      <trkpt lat="49.10193" lon="1.07464">
        <ele>112.900002</ele>
        <time>2015-12-13T09:12:27Z</time>
      </trkpt>
      <trkpt lat="49.10202" lon="1.07458">
        <ele>113.400002</ele>
        <time>2015-12-13T09:12:30Z</time>
      </trkpt>
      <trkpt lat="49.10211" lon="1.07453">
        <ele>113.900002</ele>
        <time>2015-12-13T09:12:33Z</time>
      </trkpt>
      <trkpt lat="49.1022" lon="1.07447">
        <ele>114.400002</ele>
        <time>2015-12-13T09:12:36Z</time>
      </trkpt>
      <trkpt lat="49.10228" lon="1.07442">
        <ele>115.099998</ele>
        <time>2015-12-13T09:12:39Z</time>
      </trkpt>
      <trkpt lat="49.10237" lon="1.07436">
        <ele>115.699997</ele>
        <time>2015-12-13T09:12:42Z</time>
      </trkpt>
      <trkpt lat="49.10246" lon="1.07431">
        <ele>116.300003</ele>
        <time>2015-12-13T09:12:45Z</time>
      </trkpt>
      <trkpt lat="49.10255" lon="1.07426">
        <ele>116.900002</ele>
        <time>2015-12-13T09:12:48Z</time>
      </trkpt>
      <trkpt lat="49.10264" lon="1.07422">
        <ele>117.5</ele>
        <time>2015-12-13T09:12:51Z</time>
      </trkpt>
      <trkpt lat="49.10275" lon="1.07417">
        <ele>118.199997</ele>
        <time>2015-12-13T09:12:55Z</time>
      </trkpt>
      <trkpt lat="49.10285" lon="1.07411">
        <ele>119</ele>
        <time>2015-12-13T09:12:59Z</time>
      </trkpt>
      <trkpt lat="49.10294" lon="1.07407">
        <ele>119.599998</ele>
        <time>2015-12-13T09:13:02Z</time>
      </trkpt>
      <trkpt lat="49.10306" lon="1.07404">
        <ele>120.300003</ele>
        <time>2015-12-13T09:13:06Z</time>
      </trkpt>
      <trkpt lat="49.10315" lon="1.07402">
        <ele>120.800003</ele>
        <time>2015-12-13T09:13:09Z</time>
      </trkpt>
      <trkpt lat="49.10324" lon="1.07402">
        <ele>121.400002</ele>
        <time>2015-12-13T09:13:12Z</time>
      </trkpt>
      <trkpt lat="49.10333" lon="1.07401">
        <ele>122</ele>
        <time>2015-12-13T09:13:15Z</time>
      </trkpt>
      <trkpt lat="49.10343" lon="1.07403">
        <ele>122.599998</ele>
        <time>2015-12-13T09:13:18Z</time>
      </trkpt>
      <trkpt lat="49.10353" lon="1.07408">
        <ele>123.099998</ele>
        <time>2015-12-13T09:13:21Z</time>
      </trkpt>
      <trkpt lat="49.10364" lon="1.07414">
        <ele>123.699997</ele>
        <time>2015-12-13T09:13:24Z</time>
      </trkpt>
      <trkpt lat="49.10375" lon="1.07421">
        <ele>124.199997</ele>
        <time>2015-12-13T09:13:27Z</time>
      </trkpt>
      <trkpt lat="49.10385" lon="1.07426">
        <ele>124.699997</ele>
        <time>2015-12-13T09:13:30Z</time>
      </trkpt>
      <trkpt lat="49.10395" lon="1.07431">
        <ele>125.199997</ele>
        <time>2015-12-13T09:13:33Z</time>
      </trkpt>
      <trkpt lat="49.10405" lon="1.07434">
        <ele>125.699997</ele>
        <time>2015-12-13T09:13:36Z</time>
      </trkpt>
      <trkpt lat="49.10417" lon="1.07437">
        <ele>126.199997</ele>
        <time>2015-12-13T09:13:39Z</time>
      </trkpt>
      <trkpt lat="49.10429" lon="1.0744">
        <ele>126.699997</ele>
        <time>2015-12-13T09:13:42Z</time>
      </trkpt>
      <trkpt lat="49.1044" lon="1.07442">
        <ele>127.099998</ele>
        <time>2015-12-13T09:13:45Z</time>
      </trkpt>
      <trkpt lat="49.10452" lon="1.07442">
        <ele>127.5</ele>
        <time>2015-12-13T09:13:48Z</time>
      </trkpt>
      <trkpt lat="49.10465" lon="1.07444">
        <ele>127.900002</ele>
        <time>2015-12-13T09:13:51Z</time>
      </trkpt>
      <trkpt lat="49.10477" lon="1.07444">
        <ele>128.300003</ele>
        <time>2015-12-13T09:13:54Z</time>
      </trkpt>
      <trkpt lat="49.10489" lon="1.07442">
        <ele>128.600006</ele>
        <time>2015-12-13T09:13:57Z</time>
      </trkpt>
      <trkpt lat="49.105" lon="1.07439">
        <ele>129.100006</ele>
        <time>2015-12-13T09:14:00Z</time>
      </trkpt>
      <trkpt lat="49.10511" lon="1.07435">
        <ele>129.600006</ele>
        <time>2015-12-13T09:14:03Z</time>
      </trkpt>
      <trkpt lat="49.10522" lon="1.07431">
        <ele>129.899994</ele>
        <time>2015-12-13T09:14:06Z</time>
      </trkpt>
      <trkpt lat="49.10532" lon="1.07427">
        <ele>130.300003</ele>
        <time>2015-12-13T09:14:09Z</time>
      </trkpt>
      <trkpt lat="49.10543" lon="1.07423">
        <ele>130.5</ele>
        <time>2015-12-13T09:14:12Z</time>
      </trkpt>
      <trkpt lat="49.10555" lon="1.0742">
        <ele>130.800003</ele>
        <time>2015-12-13T09:14:15Z</time>
      </trkpt>
      <trkpt lat="49.10566" lon="1.07416">
        <ele>131.100006</ele>
        <time>2015-12-13T09:14:18Z</time>
      </trkpt>
      <trkpt lat="49.10578" lon="1.07411">
        <ele>131.399994</ele>
        <time>2015-12-13T09:14:21Z</time>
      </trkpt>
      <trkpt lat="49.10589" lon="1.07407">
        <ele>131.899994</ele>
        <time>2015-12-13T09:14:24Z</time>
      </trkpt>
      <trkpt lat="49.10599" lon="1.07398">
        <ele>132.300003</ele>
        <time>2015-12-13T09:14:27Z</time>
      </trkpt>
      <trkpt lat="49.10604" lon="1.07379">
        <ele>132.699997</ele>
        <time>2015-12-13T09:14:30Z</time>
      </trkpt>
      <trkpt lat="49.10608" lon="1.07361">
        <ele>132.899994</ele>
        <time>2015-12-13T09:14:33Z</time>
      </trkpt>
      <trkpt lat="49.10614" lon="1.07344">
        <ele>133.199997</ele>
        <time>2015-12-13T09:14:36Z</time>
      </trkpt>
      <trkpt lat="49.1062" lon="1.07333">
        <ele>133.300003</ele>
        <time>2015-12-13T09:14:38Z</time>
      </trkpt>
      <trkpt lat="49.10626" lon="1.07323">
        <ele>133.399994</ele>
        <time>2015-12-13T09:14:40Z</time>
      </trkpt>
      <trkpt lat="49.10633" lon="1.07314">
        <ele>133.5</ele>
        <time>2015-12-13T09:14:42Z</time>
      </trkpt>
      <trkpt lat="49.10641" lon="1.07306">
        <ele>133.600006</ele>
        <time>2015-12-13T09:14:44Z</time>
      </trkpt>
      <trkpt lat="49.10652" lon="1.07294">
        <ele>133.699997</ele>
        <time>2015-12-13T09:14:47Z</time>
      </trkpt>
      <trkpt lat="49.10663" lon="1.07284">
        <ele>133.800003</ele>
        <time>2015-12-13T09:14:50Z</time>
      </trkpt>
      <trkpt lat="49.10672" lon="1.0727">
        <ele>133.899994</ele>
        <time>2015-12-13T09:14:53Z</time>
      </trkpt>
      <trkpt lat="49.10679" lon="1.07254">
        <ele>134</ele>
        <time>2015-12-13T09:14:56Z</time>
      </trkpt>
      <trkpt lat="49.10685" lon="1.07238">
        <ele>134.100006</ele>
        <time>2015-12-13T09:14:59Z</time>
      </trkpt>
      <trkpt lat="49.10691" lon="1.07222">
        <ele>134.300003</ele>
        <time>2015-12-13T09:15:02Z</time>
      </trkpt>
      <trkpt lat="49.10697" lon="1.07205">
        <ele>134.5</ele>
        <time>2015-12-13T09:15:05Z</time>
      </trkpt>
      <trkpt lat="49.10705" lon="1.0719">
        <ele>134.699997</ele>
        <time>2015-12-13T09:15:08Z</time>
      </trkpt>
      <trkpt lat="49.10714" lon="1.07176">
        <ele>134.800003</ele>
        <time>2015-12-13T09:15:11Z</time>
      </trkpt>
      <trkpt lat="49.10723" lon="1.07163">
        <ele>135</ele>
        <time>2015-12-13T09:15:14Z</time>
      </trkpt>
      <trkpt lat="49.10733" lon="1.0715">
        <ele>135.100006</ele>
        <time>2015-12-13T09:15:17Z</time>
      </trkpt>
      <trkpt lat="49.1074" lon="1.07141">
        <ele>135.199997</ele>
        <time>2015-12-13T09:15:19Z</time>
      </trkpt>
      <trkpt lat="49.10749" lon="1.07125">
        <ele>135.300003</ele>
        <time>2015-12-13T09:15:22Z</time>
      </trkpt>
      <trkpt lat="49.10754" lon="1.07114">
        <ele>135.5</ele>
        <time>2015-12-13T09:15:24Z</time>
      </trkpt>
      <trkpt lat="49.10759" lon="1.07101">
        <ele>135.600006</ele>
        <time>2015-12-13T09:15:26Z</time>
      </trkpt>
      <trkpt lat="49.10763" lon="1.07088">
        <ele>135.800003</ele>
        <time>2015-12-13T09:15:28Z</time>
      </trkpt>
      <trkpt lat="49.10766" lon="1.07075">
        <ele>135.899994</ele>
        <time>2015-12-13T09:15:30Z</time>
      </trkpt>
      <trkpt lat="49.1077" lon="1.07062">
        <ele>136.100006</ele>
        <time>2015-12-13T09:15:32Z</time>
      </trkpt>
      <trkpt lat="49.10773" lon="1.07048">
        <ele>136.300003</ele>
        <time>2015-12-13T09:15:34Z</time>
      </trkpt>
      <trkpt lat="49.10776" lon="1.07035">
        <ele>136.5</ele>
        <time>2015-12-13T09:15:36Z</time>
      </trkpt>
      <trkpt lat="49.1078" lon="1.07022">
        <ele>136.699997</ele>
        <time>2015-12-13T09:15:38Z</time>
      </trkpt>
      <trkpt lat="49.10783" lon="1.07009">
        <ele>136.899994</ele>
        <time>2015-12-13T09:15:40Z</time>
      </trkpt>
      <trkpt lat="49.10788" lon="1.06996">
        <ele>137</ele>
        <time>2015-12-13T09:15:42Z</time>
      </trkpt>
      <trkpt lat="49.10794" lon="1.06978">
        <ele>137.399994</ele>
        <time>2015-12-13T09:15:45Z</time>
      </trkpt>
      <trkpt lat="49.10801" lon="1.06961">
        <ele>137.699997</ele>
        <time>2015-12-13T09:15:48Z</time>
      </trkpt>
      <trkpt lat="49.10811" lon="1.06952">
        <ele>137.899994</ele>
        <time>2015-12-13T09:15:51Z</time>
      </trkpt>
      <trkpt lat="49.10823" lon="1.06951">
        <ele>138.100006</ele>
        <time>2015-12-13T09:15:54Z</time>
      </trkpt>
      <trkpt lat="49.10836" lon="1.06952">
        <ele>138.300003</ele>
        <time>2015-12-13T09:15:57Z</time>
      </trkpt>
      <trkpt lat="49.10848" lon="1.06949">
        <ele>138.399994</ele>
        <time>2015-12-13T09:16:00Z</time>
      </trkpt>
      <trkpt lat="49.10859" lon="1.06956">
        <ele>138.5</ele>
        <time>2015-12-13T09:16:03Z</time>
      </trkpt>
      <trkpt lat="49.10868" lon="1.0697">
        <ele>138.600006</ele>
        <time>2015-12-13T09:16:06Z</time>
      </trkpt>
      <trkpt lat="49.10876" lon="1.06978">
        <ele>138.699997</ele>
        <time>2015-12-13T09:16:08Z</time>
      </trkpt>
      <trkpt lat="49.10884" lon="1.06985">
        <ele>138.800003</ele>
        <time>2015-12-13T09:16:10Z</time>
      </trkpt>
      <trkpt lat="49.10892" lon="1.06993">
        <ele>139</ele>
        <time>2015-12-13T09:16:12Z</time>
      </trkpt>
      <trkpt lat="49.10901" lon="1.07001">
        <ele>139.100006</ele>
        <time>2015-12-13T09:16:14Z</time>
      </trkpt>
      <trkpt lat="49.10909" lon="1.07008">
        <ele>139.199997</ele>
        <time>2015-12-13T09:16:16Z</time>
      </trkpt>
      <trkpt lat="49.10917" lon="1.07016">
        <ele>139.300003</ele>
        <time>2015-12-13T09:16:18Z</time>
      </trkpt>
      <trkpt lat="49.10926" lon="1.07024">
        <ele>139.399994</ele>
        <time>2015-12-13T09:16:20Z</time>
      </trkpt>
      <trkpt lat="49.10934" lon="1.07033">
        <ele>139.5</ele>
        <time>2015-12-13T09:16:22Z</time>
      </trkpt>
      <trkpt lat="49.10942" lon="1.07043">
        <ele>139.699997</ele>
        <time>2015-12-13T09:16:24Z</time>
      </trkpt>
      <trkpt lat="49.1095" lon="1.07053">
        <ele>139.899994</ele>
        <time>2015-12-13T09:16:26Z</time>
      </trkpt>
      <trkpt lat="49.10958" lon="1.07063">
        <ele>140</ele>
        <time>2015-12-13T09:16:28Z</time>
      </trkpt>
      <trkpt lat="49.10966" lon="1.07073">
        <ele>140.199997</ele>
        <time>2015-12-13T09:16:30Z</time>
      </trkpt>
      <trkpt lat="49.10974" lon="1.07084">
        <ele>140.300003</ele>
        <time>2015-12-13T09:16:32Z</time>
      </trkpt>
      <trkpt lat="49.10982" lon="1.07095">
        <ele>140.399994</ele>
        <time>2015-12-13T09:16:34Z</time>
      </trkpt>
      <trkpt lat="49.10989" lon="1.07107">
        <ele>140.5</ele>
        <time>2015-12-13T09:16:36Z</time>
      </trkpt>
      <trkpt lat="49.10996" lon="1.07119">
        <ele>140.600006</ele>
        <time>2015-12-13T09:16:38Z</time>
      </trkpt>
      <trkpt lat="49.11003" lon="1.07131">
        <ele>140.699997</ele>
        <time>2015-12-13T09:16:40Z</time>
      </trkpt>
      <trkpt lat="49.1101" lon="1.07143">
        <ele>140.800003</ele>
        <time>2015-12-13T09:16:42Z</time>
      </trkpt>
      <trkpt lat="49.11017" lon="1.07155">
        <ele>140.899994</ele>
        <time>2015-12-13T09:16:44Z</time>
      </trkpt>
      <trkpt lat="49.11024" lon="1.07167">
        <ele>141</ele>
        <time>2015-12-13T09:16:46Z</time>
      </trkpt>
      <trkpt lat="49.11032" lon="1.07179">
        <ele>141.100006</ele>
        <time>2015-12-13T09:16:48Z</time>
      </trkpt>
      <trkpt lat="49.1104" lon="1.0719">
        <ele>141.300003</ele>
        <time>2015-12-13T09:16:50Z</time>
      </trkpt>
      <trkpt lat="49.11048" lon="1.07199">
        <ele>141.399994</ele>
        <time>2015-12-13T09:16:52Z</time>
      </trkpt>
      <trkpt lat="49.11058" lon="1.07208">
        <ele>141.5</ele>
        <time>2015-12-13T09:16:54Z</time>
      </trkpt>
      <trkpt lat="49.11067" lon="1.07216">
        <ele>141.600006</ele>
        <time>2015-12-13T09:16:56Z</time>
      </trkpt>
      <trkpt lat="49.11076" lon="1.07225">
        <ele>141.699997</ele>
        <time>2015-12-13T09:16:58Z</time>
      </trkpt>
      <trkpt lat="49.11083" lon="1.07234">
        <ele>141.800003</ele>
        <time>2015-12-13T09:17:00Z</time>
      </trkpt>
      <trkpt lat="49.11086" lon="1.07247">
        <ele>141.800003</ele>
        <time>2015-12-13T09:17:02Z</time>
      </trkpt>
      <trkpt lat="49.11087" lon="1.07262">
        <ele>141.899994</ele>
        <time>2015-12-13T09:17:04Z</time>
      </trkpt>
      <trkpt lat="49.11089" lon="1.07278">
        <ele>142</ele>
        <time>2015-12-13T09:17:06Z</time>
      </trkpt>
      <trkpt lat="49.11093" lon="1.07293">
        <ele>142.100006</ele>
        <time>2015-12-13T09:17:08Z</time>
      </trkpt>
      <trkpt lat="49.11097" lon="1.07308">
        <ele>142.199997</ele>
        <time>2015-12-13T09:17:10Z</time>
      </trkpt>
      <trkpt lat="49.11101" lon="1.07323">
        <ele>142.199997</ele>
        <time>2015-12-13T09:17:12Z</time>
      </trkpt>
      <trkpt lat="49.11105" lon="1.07339">
        <ele>142.300003</ele>
        <time>2015-12-13T09:17:14Z</time>
      </trkpt>
      <trkpt lat="49.11108" lon="1.07356">
        <ele>142.399994</ele>
        <time>2015-12-13T09:17:16Z</time>
      </trkpt>
      <trkpt lat="49.11111" lon="1.07373">
        <ele>142.399994</ele>
        <time>2015-12-13T09:17:18Z</time>
      </trkpt>
      <trkpt lat="49.11113" lon="1.0739">
        <ele>142.399994</ele>
        <time>2015-12-13T09:17:20Z</time>
      </trkpt>
      <trkpt lat="49.11114" lon="1.07408">
        <ele>142.5</ele>
        <time>2015-12-13T09:17:22Z</time>
      </trkpt>
      <trkpt lat="49.11114" lon="1.07425">
        <ele>142.5</ele>
        <time>2015-12-13T09:17:24Z</time>
      </trkpt>
      <trkpt lat="49.11113" lon="1.07443">
        <ele>142.399994</ele>
        <time>2015-12-13T09:17:26Z</time>
      </trkpt>
      <trkpt lat="49.11112" lon="1.07461">
        <ele>142.399994</ele>
        <time>2015-12-13T09:17:28Z</time>
      </trkpt>
      <trkpt lat="49.11109" lon="1.07479">
        <ele>142.300003</ele>
        <time>2015-12-13T09:17:30Z</time>
      </trkpt>
      <trkpt lat="49.11106" lon="1.07496">
        <ele>142.199997</ele>
        <time>2015-12-13T09:17:32Z</time>
      </trkpt>
      <trkpt lat="49.11104" lon="1.07512">
        <ele>142.100006</ele>
        <time>2015-12-13T09:17:34Z</time>
      </trkpt>
      <trkpt lat="49.111" lon="1.07527">
        <ele>142</ele>
        <time>2015-12-13T09:17:36Z</time>
      </trkpt>
      <trkpt lat="49.11097" lon="1.07542">
        <ele>141.899994</ele>
        <time>2015-12-13T09:17:38Z</time>
      </trkpt>
      <trkpt lat="49.11094" lon="1.07558">
        <ele>141.800003</ele>
        <time>2015-12-13T09:17:40Z</time>
      </trkpt>
      <trkpt lat="49.11091" lon="1.07572">
        <ele>141.699997</ele>
        <time>2015-12-13T09:17:42Z</time>
      </trkpt>
      <trkpt lat="49.11088" lon="1.07587">
        <ele>141.600006</ele>
        <time>2015-12-13T09:17:44Z</time>
      </trkpt>
      <trkpt lat="49.11084" lon="1.07602">
        <ele>141.5</ele>
        <time>2015-12-13T09:17:46Z</time>
      </trkpt>
      <trkpt lat="49.11081" lon="1.07616">
        <ele>141.300003</ele>
        <time>2015-12-13T09:17:48Z</time>
      </trkpt>
      <trkpt lat="49.11077" lon="1.07631">
        <ele>141.199997</ele>
        <time>2015-12-13T09:17:50Z</time>
      </trkpt>
      <trkpt lat="49.11074" lon="1.07646">
        <ele>141.100006</ele>
        <time>2015-12-13T09:17:52Z</time>
      </trkpt>
      <trkpt lat="49.11071" lon="1.07661">
        <ele>140.899994</ele>
        <time>2015-12-13T09:17:54Z</time>
      </trkpt>
      <trkpt lat="49.11069" lon="1.07675">
        <ele>140.800003</ele>
        <time>2015-12-13T09:17:56Z</time>
      </trkpt>
      <trkpt lat="49.11067" lon="1.0769">
        <ele>140.600006</ele>
        <time>2015-12-13T09:17:58Z</time>
      </trkpt>
      <trkpt lat="49.11065" lon="1.07705">
        <ele>140.399994</ele>
        <time>2015-12-13T09:18:00Z</time>
      </trkpt>
      <trkpt lat="49.11064" lon="1.0772">
        <ele>140.199997</ele>
        <time>2015-12-13T09:18:02Z</time>
      </trkpt>
      <trkpt lat="49.11063" lon="1.07736">
        <ele>140</ele>
        <time>2015-12-13T09:18:04Z</time>
      </trkpt>
      <trkpt lat="49.11062" lon="1.07752">
        <ele>139.899994</ele>
        <time>2015-12-13T09:18:06Z</time>
      </trkpt>
      <trkpt lat="49.11062" lon="1.07767">
        <ele>139.699997</ele>
        <time>2015-12-13T09:18:08Z</time>
      </trkpt>
      <trkpt lat="49.11063" lon="1.07783">
        <ele>139.600006</ele>
        <time>2015-12-13T09:18:10Z</time>
      </trkpt>
      <trkpt lat="49.11063" lon="1.07799">
        <ele>139.5</ele>
        <time>2015-12-13T09:18:12Z</time>
      </trkpt>
      <trkpt lat="49.11065" lon="1.07814">
        <ele>139.399994</ele>
        <time>2015-12-13T09:18:14Z</time>
      </trkpt>
      <trkpt lat="49.11066" lon="1.07829">
        <ele>139.300003</ele>
        <time>2015-12-13T09:18:16Z</time>
      </trkpt>
      <trkpt lat="49.11068" lon="1.07845">
        <ele>139.199997</ele>
        <time>2015-12-13T09:18:18Z</time>
      </trkpt>
      <trkpt lat="49.1107" lon="1.0786">
        <ele>139.199997</ele>
        <time>2015-12-13T09:18:20Z</time>
      </trkpt>
      <trkpt lat="49.11072" lon="1.07876">
        <ele>139.100006</ele>
        <time>2015-12-13T09:18:22Z</time>
      </trkpt>
      <trkpt lat="49.11074" lon="1.07892">
        <ele>139</ele>
        <time>2015-12-13T09:18:24Z</time>
      </trkpt>
      <trkpt lat="49.11076" lon="1.07908">
        <ele>138.899994</ele>
        <time>2015-12-13T09:18:26Z</time>
      </trkpt>
      <trkpt lat="49.11078" lon="1.07925">
        <ele>138.800003</ele>
        <time>2015-12-13T09:18:28Z</time>
      </trkpt>
      <trkpt lat="49.11081" lon="1.07941">
        <ele>138.699997</ele>
        <time>2015-12-13T09:18:30Z</time>
      </trkpt>
      <trkpt lat="49.11083" lon="1.07958">
        <ele>138.600006</ele>
        <time>2015-12-13T09:18:32Z</time>
      </trkpt>
      <trkpt lat="49.11085" lon="1.07973">
        <ele>138.5</ele>
        <time>2015-12-13T09:18:34Z</time>
      </trkpt>
      <trkpt lat="49.11087" lon="1.07989">
        <ele>138.399994</ele>
        <time>2015-12-13T09:18:36Z</time>
      </trkpt>
      <trkpt lat="49.11088" lon="1.08005">
        <ele>138.300003</ele>
        <time>2015-12-13T09:18:38Z</time>
      </trkpt>
      <trkpt lat="49.1109" lon="1.0802">
        <ele>138.199997</ele>
        <time>2015-12-13T09:18:40Z</time>
      </trkpt>
      <trkpt lat="49.1109" lon="1.08036">
        <ele>138.100006</ele>
        <time>2015-12-13T09:18:42Z</time>
      </trkpt>
      <trkpt lat="49.11091" lon="1.08052">
        <ele>138</ele>
        <time>2015-12-13T09:18:44Z</time>
      </trkpt>
      <trkpt lat="49.11091" lon="1.08068">
        <ele>138</ele>
        <time>2015-12-13T09:18:46Z</time>
      </trkpt>
      <trkpt lat="49.11091" lon="1.08084">
        <ele>137.899994</ele>
        <time>2015-12-13T09:18:48Z</time>
      </trkpt>
      <trkpt lat="49.11091" lon="1.081">
        <ele>137.899994</ele>
        <time>2015-12-13T09:18:50Z</time>
      </trkpt>
      <trkpt lat="49.11091" lon="1.08116">
        <ele>137.800003</ele>
        <time>2015-12-13T09:18:52Z</time>
      </trkpt>
      <trkpt lat="49.1109" lon="1.08132">
        <ele>137.800003</ele>
        <time>2015-12-13T09:18:54Z</time>
      </trkpt>
      <trkpt lat="49.1109" lon="1.08147">
        <ele>137.699997</ele>
        <time>2015-12-13T09:18:56Z</time>
      </trkpt>
      <trkpt lat="49.1109" lon="1.08162">
        <ele>137.699997</ele>
        <time>2015-12-13T09:18:58Z</time>
      </trkpt>
      <trkpt lat="49.1109" lon="1.08177">
        <ele>137.699997</ele>
        <time>2015-12-13T09:19:00Z</time>
      </trkpt>
      <trkpt lat="49.11089" lon="1.08191">
        <ele>137.800003</ele>
        <time>2015-12-13T09:19:02Z</time>
      </trkpt>
      <trkpt lat="49.11089" lon="1.08206">
        <ele>137.899994</ele>
        <time>2015-12-13T09:19:04Z</time>
      </trkpt>
      <trkpt lat="49.1109" lon="1.08221">
        <ele>138</ele>
        <time>2015-12-13T09:19:06Z</time>
      </trkpt>
      <trkpt lat="49.1109" lon="1.08235">
        <ele>138.100006</ele>
        <time>2015-12-13T09:19:08Z</time>
      </trkpt>
      <trkpt lat="49.11091" lon="1.0825">
        <ele>138.300003</ele>
        <time>2015-12-13T09:19:10Z</time>
      </trkpt>
      <trkpt lat="49.11093" lon="1.08265">
        <ele>138.399994</ele>
        <time>2015-12-13T09:19:12Z</time>
      </trkpt>
      <trkpt lat="49.11095" lon="1.0828">
        <ele>138.600006</ele>
        <time>2015-12-13T09:19:14Z</time>
      </trkpt>
      <trkpt lat="49.11096" lon="1.08297">
        <ele>138.800003</ele>
        <time>2015-12-13T09:19:17Z</time>
      </trkpt>
      <trkpt lat="49.11098" lon="1.08317">
        <ele>139.100006</ele>
        <time>2015-12-13T09:19:20Z</time>
      </trkpt>
      <trkpt lat="49.11101" lon="1.0833">
        <ele>139.199997</ele>
        <time>2015-12-13T09:19:22Z</time>
      </trkpt>
      <trkpt lat="49.11107" lon="1.08349">
        <ele>139.5</ele>
        <time>2015-12-13T09:19:25Z</time>
      </trkpt>
      <trkpt lat="49.11109" lon="1.08362">
        <ele>139.600006</ele>
        <time>2015-12-13T09:19:27Z</time>
      </trkpt>
      <trkpt lat="49.11112" lon="1.08377">
        <ele>139.699997</ele>
        <time>2015-12-13T09:19:29Z</time>
      </trkpt>
      <trkpt lat="49.11115" lon="1.08393">
        <ele>139.899994</ele>
        <time>2015-12-13T09:19:31Z</time>
      </trkpt>
      <trkpt lat="49.11115" lon="1.08408">
        <ele>140</ele>
        <time>2015-12-13T09:19:33Z</time>
      </trkpt>
      <trkpt lat="49.11115" lon="1.0843">
        <ele>140.199997</ele>
        <time>2015-12-13T09:19:36Z</time>
      </trkpt>
      <trkpt lat="49.11113" lon="1.08449">
        <ele>140.300003</ele>
        <time>2015-12-13T09:19:38Z</time>
      </trkpt>
      <trkpt lat="49.11115" lon="1.08467">
        <ele>140.300003</ele>
        <time>2015-12-13T09:19:40Z</time>
      </trkpt>
      <trkpt lat="49.11116" lon="1.08484">
        <ele>140.399994</ele>
        <time>2015-12-13T09:19:42Z</time>
      </trkpt>
      <trkpt lat="49.11116" lon="1.08501">
        <ele>140.5</ele>
        <time>2015-12-13T09:19:44Z</time>
      </trkpt>
      <trkpt lat="49.11117" lon="1.08516">
        <ele>140.600006</ele>
        <time>2015-12-13T09:19:46Z</time>
      </trkpt>
      <trkpt lat="49.11118" lon="1.08534">
        <ele>140.699997</ele>
        <time>2015-12-13T09:19:48Z</time>
      </trkpt>
      <trkpt lat="49.11118" lon="1.08551">
        <ele>140.699997</ele>
        <time>2015-12-13T09:19:50Z</time>
      </trkpt>
      <trkpt lat="49.11117" lon="1.08568">
        <ele>140.800003</ele>
        <time>2015-12-13T09:19:52Z</time>
      </trkpt>
      <trkpt lat="49.11116" lon="1.08584">
        <ele>140.800003</ele>
        <time>2015-12-13T09:19:54Z</time>
      </trkpt>
      <trkpt lat="49.11114" lon="1.08598">
        <ele>140.899994</ele>
        <time>2015-12-13T09:19:56Z</time>
      </trkpt>
      <trkpt lat="49.11111" lon="1.08612">
        <ele>140.899994</ele>
        <time>2015-12-13T09:19:58Z</time>
      </trkpt>
      <trkpt lat="49.11109" lon="1.08628">
        <ele>140.699997</ele>
        <time>2015-12-13T09:20:00Z</time>
      </trkpt>
      <trkpt lat="49.11106" lon="1.08643">
        <ele>140.600006</ele>
        <time>2015-12-13T09:20:02Z</time>
      </trkpt>
      <trkpt lat="49.11103" lon="1.08659">
        <ele>140.5</ele>
        <time>2015-12-13T09:20:04Z</time>
      </trkpt>
      <trkpt lat="49.11101" lon="1.08675">
        <ele>140.5</ele>
        <time>2015-12-13T09:20:06Z</time>
      </trkpt>
      <trkpt lat="49.11099" lon="1.08691">
        <ele>140.399994</ele>
        <time>2015-12-13T09:20:08Z</time>
      </trkpt>
      <trkpt lat="49.11096" lon="1.08708">
        <ele>140.300003</ele>
        <time>2015-12-13T09:20:10Z</time>
      </trkpt>
      <trkpt lat="49.11094" lon="1.08725">
        <ele>140.100006</ele>
        <time>2015-12-13T09:20:12Z</time>
      </trkpt>
      <trkpt lat="49.11092" lon="1.08741">
        <ele>140</ele>
        <time>2015-12-13T09:20:14Z</time>
      </trkpt>
      <trkpt lat="49.1109" lon="1.08758">
        <ele>139.800003</ele>
        <time>2015-12-13T09:20:16Z</time>
      </trkpt>
      <trkpt lat="49.11088" lon="1.08775">
        <ele>139.699997</ele>
        <time>2015-12-13T09:20:18Z</time>
      </trkpt>
      <trkpt lat="49.11086" lon="1.08791">
        <ele>139.5</ele>
        <time>2015-12-13T09:20:20Z</time>
      </trkpt>
      <trkpt lat="49.11084" lon="1.08808">
        <ele>139.199997</ele>
        <time>2015-12-13T09:20:22Z</time>
      </trkpt>
      <trkpt lat="49.11083" lon="1.08826">
        <ele>139</ele>
        <time>2015-12-13T09:20:24Z</time>
      </trkpt>
      <trkpt lat="49.11081" lon="1.08844">
        <ele>138.800003</ele>
        <time>2015-12-13T09:20:26Z</time>
      </trkpt>
      <trkpt lat="49.11079" lon="1.08863">
        <ele>138.600006</ele>
        <time>2015-12-13T09:20:28Z</time>
      </trkpt>
      <trkpt lat="49.11077" lon="1.08883">
        <ele>138.300003</ele>
        <time>2015-12-13T09:20:30Z</time>
      </trkpt>
      <trkpt lat="49.11075" lon="1.08904">
        <ele>138</ele>
        <time>2015-12-13T09:20:32Z</time>
      </trkpt>
      <trkpt lat="49.11072" lon="1.08926">
        <ele>137.699997</ele>
        <time>2015-12-13T09:20:34Z</time>
      </trkpt>
      <trkpt lat="49.1107" lon="1.08948">
        <ele>137.399994</ele>
        <time>2015-12-13T09:20:36Z</time>
      </trkpt>
      <trkpt lat="49.11069" lon="1.08971">
        <ele>137</ele>
        <time>2015-12-13T09:20:38Z</time>
      </trkpt>
      <trkpt lat="49.11068" lon="1.08994">
        <ele>136.600006</ele>
        <time>2015-12-13T09:20:40Z</time>
      </trkpt>
      <trkpt lat="49.11066" lon="1.09017">
        <ele>136.100006</ele>
        <time>2015-12-13T09:20:42Z</time>
      </trkpt>
      <trkpt lat="49.11066" lon="1.09039">
        <ele>135.699997</ele>
        <time>2015-12-13T09:20:44Z</time>
      </trkpt>
      <trkpt lat="49.11065" lon="1.0906">
        <ele>135.300003</ele>
        <time>2015-12-13T09:20:46Z</time>
      </trkpt>
      <trkpt lat="49.11063" lon="1.0908">
        <ele>134.899994</ele>
        <time>2015-12-13T09:20:48Z</time>
      </trkpt>
      <trkpt lat="49.11062" lon="1.09097">
        <ele>134.600006</ele>
        <time>2015-12-13T09:20:50Z</time>
      </trkpt>
      <trkpt lat="49.11062" lon="1.09111">
        <ele>134.300003</ele>
        <time>2015-12-13T09:20:52Z</time>
      </trkpt>
      <trkpt lat="49.11062" lon="1.09132">
        <ele>134.199997</ele>
        <time>2015-12-13T09:20:55Z</time>
      </trkpt>
      <trkpt lat="49.11058" lon="1.09151">
        <ele>134.100006</ele>
        <time>2015-12-13T09:20:58Z</time>
      </trkpt>
      <trkpt lat="49.11051" lon="1.09163">
        <ele>134.100006</ele>
        <time>2015-12-13T09:21:00Z</time>
      </trkpt>
      <trkpt lat="49.11041" lon="1.09173">
        <ele>134.199997</ele>
        <time>2015-12-13T09:21:02Z</time>
      </trkpt>
      <trkpt lat="49.11032" lon="1.09183">
        <ele>134.199997</ele>
        <time>2015-12-13T09:21:04Z</time>
      </trkpt>
      <trkpt lat="49.11024" lon="1.09196">
        <ele>134.199997</ele>
        <time>2015-12-13T09:21:06Z</time>
      </trkpt>
      <trkpt lat="49.11018" lon="1.09209">
        <ele>134.300003</ele>
        <time>2015-12-13T09:21:08Z</time>
      </trkpt>
      <trkpt lat="49.11008" lon="1.09214">
        <ele>134.300003</ele>
        <time>2015-12-13T09:21:10Z</time>
      </trkpt>
      <trkpt lat="49.10996" lon="1.09212">
        <ele>134.100006</ele>
        <time>2015-12-13T09:21:12Z</time>
      </trkpt>
      <trkpt lat="49.10986" lon="1.09208">
        <ele>133.899994</ele>
        <time>2015-12-13T09:21:14Z</time>
      </trkpt>
      <trkpt lat="49.10975" lon="1.09206">
        <ele>133.100006</ele>
        <time>2015-12-13T09:21:17Z</time>
      </trkpt>
      <trkpt lat="49.10965" lon="1.09207">
        <ele>132.399994</ele>
        <time>2015-12-13T09:21:19Z</time>
      </trkpt>
      <trkpt lat="49.10954" lon="1.09211">
        <ele>131.699997</ele>
        <time>2015-12-13T09:21:21Z</time>
      </trkpt>
      <trkpt lat="49.10943" lon="1.09217">
        <ele>130.699997</ele>
        <time>2015-12-13T09:21:23Z</time>
      </trkpt>
      <trkpt lat="49.10934" lon="1.09222">
        <ele>129.600006</ele>
        <time>2015-12-13T09:21:25Z</time>
      </trkpt>
      <trkpt lat="49.10923" lon="1.09236">
        <ele>128.300003</ele>
        <time>2015-12-13T09:21:27Z</time>
      </trkpt>
      <trkpt lat="49.10914" lon="1.09252">
        <ele>127.199997</ele>
        <time>2015-12-13T09:21:29Z</time>
      </trkpt>
      <trkpt lat="49.10905" lon="1.09267">
        <ele>126</ele>
        <time>2015-12-13T09:21:31Z</time>
      </trkpt>
      <trkpt lat="49.10898" lon="1.09277">
        <ele>124.800003</ele>
        <time>2015-12-13T09:21:33Z</time>
      </trkpt>
      <trkpt lat="49.10887" lon="1.09287">
        <ele>123.599998</ele>
        <time>2015-12-13T09:21:35Z</time>
      </trkpt>
      <trkpt lat="49.10878" lon="1.093">
        <ele>122.599998</ele>
        <time>2015-12-13T09:21:37Z</time>
      </trkpt>
      <trkpt lat="49.10871" lon="1.09315">
        <ele>121.599998</ele>
        <time>2015-12-13T09:21:39Z</time>
      </trkpt>
      <trkpt lat="49.10864" lon="1.09328">
        <ele>120.599998</ele>
        <time>2015-12-13T09:21:41Z</time>
      </trkpt>
      <trkpt lat="49.10856" lon="1.09344">
        <ele>119</ele>
        <time>2015-12-13T09:21:44Z</time>
      </trkpt>
      <trkpt lat="49.10849" lon="1.09359">
        <ele>118.099998</ele>
        <time>2015-12-13T09:21:46Z</time>
      </trkpt>
      <trkpt lat="49.10841" lon="1.09374">
        <ele>117.300003</ele>
        <time>2015-12-13T09:21:48Z</time>
      </trkpt>
      <trkpt lat="49.10832" lon="1.09384">
        <ele>116.599998</ele>
        <time>2015-12-13T09:21:50Z</time>
      </trkpt>
      <trkpt lat="49.10823" lon="1.09399">
        <ele>115.800003</ele>
        <time>2015-12-13T09:21:52Z</time>
      </trkpt>
      <trkpt lat="49.10814" lon="1.09412">
        <ele>115</ele>
        <time>2015-12-13T09:21:54Z</time>
      </trkpt>
      <trkpt lat="49.10804" lon="1.09424">
        <ele>114.300003</ele>
        <time>2015-12-13T09:21:56Z</time>
      </trkpt>
      <trkpt lat="49.10796" lon="1.09434">
        <ele>113.599998</ele>
        <time>2015-12-13T09:21:58Z</time>
      </trkpt>
      <trkpt lat="49.10788" lon="1.09446">
        <ele>112.900002</ele>
        <time>2015-12-13T09:22:00Z</time>
      </trkpt>
      <trkpt lat="49.10779" lon="1.09467">
        <ele>112.199997</ele>
        <time>2015-12-13T09:22:02Z</time>
      </trkpt>
      <trkpt lat="49.1077" lon="1.09484">
        <ele>111.599998</ele>
        <time>2015-12-13T09:22:04Z</time>
      </trkpt>
      <trkpt lat="49.10761" lon="1.09498">
        <ele>110.800003</ele>
        <time>2015-12-13T09:22:06Z</time>
      </trkpt>
      <trkpt lat="49.10756" lon="1.0951">
        <ele>110.400002</ele>
        <time>2015-12-13T09:22:07Z</time>
      </trkpt>
      <trkpt lat="49.10746" lon="1.09527">
        <ele>109.599998</ele>
        <time>2015-12-13T09:22:09Z</time>
      </trkpt>
      <trkpt lat="49.10735" lon="1.09541">
        <ele>109</ele>
        <time>2015-12-13T09:22:11Z</time>
      </trkpt>
      <trkpt lat="49.10725" lon="1.09559">
        <ele>108.199997</ele>
        <time>2015-12-13T09:22:13Z</time>
      </trkpt>
      <trkpt lat="49.10714" lon="1.09578">
        <ele>107.199997</ele>
        <time>2015-12-13T09:22:15Z</time>
      </trkpt>
      <trkpt lat="49.10702" lon="1.09595">
        <ele>106.199997</ele>
        <time>2015-12-13T09:22:17Z</time>
      </trkpt>
      <trkpt lat="49.10691" lon="1.09609">
        <ele>105.300003</ele>
        <time>2015-12-13T09:22:19Z</time>
      </trkpt>
      <trkpt lat="49.10682" lon="1.09622">
        <ele>104.199997</ele>
        <time>2015-12-13T09:22:21Z</time>
      </trkpt>
      <trkpt lat="49.10673" lon="1.09638">
        <ele>103.199997</ele>
        <time>2015-12-13T09:22:23Z</time>
      </trkpt>
      <trkpt lat="49.10664" lon="1.09651">
        <ele>102.199997</ele>
        <time>2015-12-13T09:22:25Z</time>
      </trkpt>
      <trkpt lat="49.10659" lon="1.09665">
        <ele>101.300003</ele>
        <time>2015-12-13T09:22:27Z</time>
      </trkpt>
      <trkpt lat="49.1065" lon="1.09683">
        <ele>100.300003</ele>
        <time>2015-12-13T09:22:29Z</time>
      </trkpt>
      <trkpt lat="49.10642" lon="1.09701">
        <ele>99.300003</ele>
        <time>2015-12-13T09:22:31Z</time>
      </trkpt>
      <trkpt lat="49.10634" lon="1.09716">
        <ele>98.400002</ele>
        <time>2015-12-13T09:22:33Z</time>
      </trkpt>
      <trkpt lat="49.10625" lon="1.09729">
        <ele>97.400002</ele>
        <time>2015-12-13T09:22:35Z</time>
      </trkpt>
      <trkpt lat="49.10614" lon="1.0974">
        <ele>96.5</ele>
        <time>2015-12-13T09:22:37Z</time>
      </trkpt>
      <trkpt lat="49.10606" lon="1.09754">
        <ele>95.5</ele>
        <time>2015-12-13T09:22:39Z</time>
      </trkpt>
      <trkpt lat="49.10596" lon="1.09769">
        <ele>94.400002</ele>
        <time>2015-12-13T09:22:41Z</time>
      </trkpt>
      <trkpt lat="49.10586" lon="1.09784">
        <ele>93.400002</ele>
        <time>2015-12-13T09:22:43Z</time>
      </trkpt>
      <trkpt lat="49.10575" lon="1.09796">
        <ele>92.400002</ele>
        <time>2015-12-13T09:22:45Z</time>
      </trkpt>
      <trkpt lat="49.10564" lon="1.09809">
        <ele>91.300003</ele>
        <time>2015-12-13T09:22:47Z</time>
      </trkpt>
      <trkpt lat="49.10555" lon="1.09818">
        <ele>90.199997</ele>
        <time>2015-12-13T09:22:49Z</time>
      </trkpt>
      <trkpt lat="49.10544" lon="1.09826">
        <ele>89.099998</ele>
        <time>2015-12-13T09:22:51Z</time>
      </trkpt>
      <trkpt lat="49.10532" lon="1.0984">
        <ele>88</ele>
        <time>2015-12-13T09:22:53Z</time>
      </trkpt>
      <trkpt lat="49.10521" lon="1.09857">
        <ele>87</ele>
        <time>2015-12-13T09:22:55Z</time>
      </trkpt>
      <trkpt lat="49.10512" lon="1.09875">
        <ele>85.900002</ele>
        <time>2015-12-13T09:22:57Z</time>
      </trkpt>
      <trkpt lat="49.10503" lon="1.09891">
        <ele>84.800003</ele>
        <time>2015-12-13T09:22:59Z</time>
      </trkpt>
      <trkpt lat="49.10496" lon="1.0991">
        <ele>83.699997</ele>
        <time>2015-12-13T09:23:01Z</time>
      </trkpt>
      <trkpt lat="49.1049" lon="1.0993">
        <ele>82.699997</ele>
        <time>2015-12-13T09:23:03Z</time>
      </trkpt>
      <trkpt lat="49.10483" lon="1.09945">
        <ele>81.699997</ele>
        <time>2015-12-13T09:23:05Z</time>
      </trkpt>
      <trkpt lat="49.10481" lon="1.09967">
        <ele>80.699997</ele>
        <time>2015-12-13T09:23:07Z</time>
      </trkpt>
      <trkpt lat="49.10476" lon="1.09985">
        <ele>79.699997</ele>
        <time>2015-12-13T09:23:09Z</time>
      </trkpt>
      <trkpt lat="49.1047" lon="1.10004">
        <ele>78.699997</ele>
        <time>2015-12-13T09:23:11Z</time>
      </trkpt>
      <trkpt lat="49.10465" lon="1.1002">
        <ele>77.199997</ele>
        <time>2015-12-13T09:23:14Z</time>
      </trkpt>
      <trkpt lat="49.10463" lon="1.10035">
        <ele>75.800003</ele>
        <time>2015-12-13T09:23:17Z</time>
      </trkpt>
      <trkpt lat="49.1046" lon="1.10049">
        <ele>74.300003</ele>
        <time>2015-12-13T09:23:21Z</time>
      </trkpt>
      <trkpt lat="49.10458" lon="1.10064">
        <ele>72.599998</ele>
        <time>2015-12-13T09:23:27Z</time>
      </trkpt>
      <trkpt lat="49.10455" lon="1.10078">
        <ele>71.5</ele>
        <time>2015-12-13T09:23:32Z</time>
      </trkpt>
      <trkpt lat="49.10451" lon="1.10091">
        <ele>70.199997</ele>
        <time>2015-12-13T09:23:40Z</time>
      </trkpt>
      <trkpt lat="49.10457" lon="1.1008">
        <ele>69.099998</ele>
        <time>2015-12-13T09:23:53Z</time>
      </trkpt>
      <trkpt lat="49.10464" lon="1.1007">
        <ele>69.900002</ele>
        <time>2015-12-13T09:24:01Z</time>
      </trkpt>
      <trkpt lat="49.10471" lon="1.1006">
        <ele>71.300003</ele>
        <time>2015-12-13T09:24:08Z</time>
      </trkpt>
      <trkpt lat="49.10477" lon="1.10048">
        <ele>73.199997</ele>
        <time>2015-12-13T09:24:16Z</time>
      </trkpt>
      <trkpt lat="49.10483" lon="1.10035">
        <ele>75.099998</ele>
        <time>2015-12-13T09:24:24Z</time>
      </trkpt>
      <trkpt lat="49.10488" lon="1.10023">
        <ele>76.699997</ele>
        <time>2015-12-13T09:24:31Z</time>
      </trkpt>
      <trkpt lat="49.10494" lon="1.10011">
        <ele>78.300003</ele>
        <time>2015-12-13T09:24:38Z</time>
      </trkpt>
      <trkpt lat="49.105" lon="1.09999">
        <ele>80</ele>
        <time>2015-12-13T09:24:45Z</time>
      </trkpt>
      <trkpt lat="49.10505" lon="1.09987">
        <ele>81.599998</ele>
        <time>2015-12-13T09:24:51Z</time>
      </trkpt>
      <trkpt lat="49.10511" lon="1.09974">
        <ele>83</ele>
        <time>2015-12-13T09:24:57Z</time>
      </trkpt>
      <trkpt lat="49.10515" lon="1.09961">
        <ele>84.400002</ele>
        <time>2015-12-13T09:25:03Z</time>
      </trkpt>
      <trkpt lat="49.10521" lon="1.0995">
        <ele>85.800003</ele>
        <time>2015-12-13T09:25:09Z</time>
      </trkpt>
      <trkpt lat="49.10528" lon="1.0994">
        <ele>87.300003</ele>
        <time>2015-12-13T09:25:16Z</time>
      </trkpt>
      <trkpt lat="49.10536" lon="1.09932">
        <ele>88.5</ele>
        <time>2015-12-13T09:25:22Z</time>
      </trkpt>
      <trkpt lat="49.10545" lon="1.09926">
        <ele>89.900002</ele>
        <time>2015-12-13T09:25:29Z</time>
      </trkpt>
      <trkpt lat="49.10543" lon="1.09941">
        <ele>93.099998</ele>
        <time>2015-12-13T09:25:43Z</time>
      </trkpt>
      <trkpt lat="49.10539" lon="1.09954">
        <ele>94.900002</ele>
        <time>2015-12-13T09:25:51Z</time>
      </trkpt>
      <trkpt lat="49.10535" lon="1.09967">
        <ele>96.300003</ele>
        <time>2015-12-13T09:25:58Z</time>
      </trkpt>
      <trkpt lat="49.10535" lon="1.09983">
        <ele>98</ele>
        <time>2015-12-13T09:26:05Z</time>
      </trkpt>
      <trkpt lat="49.10535" lon="1.09997">
        <ele>98.900002</ele>
        <time>2015-12-13T09:26:09Z</time>
      </trkpt>
      <trkpt lat="49.10535" lon="1.10012">
        <ele>100.800003</ele>
        <time>2015-12-13T09:26:16Z</time>
      </trkpt>
      <trkpt lat="49.10537" lon="1.10029">
        <ele>102.400002</ele>
        <time>2015-12-13T09:26:23Z</time>
      </trkpt>
      <trkpt lat="49.10536" lon="1.10043">
        <ele>103.800003</ele>
        <time>2015-12-13T09:26:29Z</time>
      </trkpt>
      <trkpt lat="49.10537" lon="1.10057">
        <ele>104.800003</ele>
        <time>2015-12-13T09:26:34Z</time>
      </trkpt>
      <trkpt lat="49.10541" lon="1.10073">
        <ele>105.599998</ele>
        <time>2015-12-13T09:26:38Z</time>
      </trkpt>
      <trkpt lat="49.10545" lon="1.1009">
        <ele>106.599998</ele>
        <time>2015-12-13T09:26:43Z</time>
      </trkpt>
      <trkpt lat="49.10551" lon="1.10103">
        <ele>107.699997</ele>
        <time>2015-12-13T09:26:48Z</time>
      </trkpt>
      <trkpt lat="49.10557" lon="1.10114">
        <ele>108.699997</ele>
        <time>2015-12-13T09:26:53Z</time>
      </trkpt>
      <trkpt lat="49.10563" lon="1.10124">
        <ele>109.699997</ele>
        <time>2015-12-13T09:26:58Z</time>
      </trkpt>
      <trkpt lat="49.10571" lon="1.10129">
        <ele>111.199997</ele>
        <time>2015-12-13T09:27:05Z</time>
      </trkpt>
      <trkpt lat="49.10581" lon="1.10135">
        <ele>112.5</ele>
        <time>2015-12-13T09:27:11Z</time>
      </trkpt>
      <trkpt lat="49.10589" lon="1.1014">
        <ele>113.400002</ele>
        <time>2015-12-13T09:27:15Z</time>
      </trkpt>
      <trkpt lat="49.10599" lon="1.10148">
        <ele>114.099998</ele>
        <time>2015-12-13T09:27:19Z</time>
      </trkpt>
      <trkpt lat="49.10609" lon="1.10153">
        <ele>114.900002</ele>
        <time>2015-12-13T09:27:24Z</time>
      </trkpt>
      <trkpt lat="49.10619" lon="1.10158">
        <ele>115.400002</ele>
        <time>2015-12-13T09:27:28Z</time>
      </trkpt>
      <trkpt lat="49.10629" lon="1.10161">
        <ele>115.800003</ele>
        <time>2015-12-13T09:27:31Z</time>
      </trkpt>
      <trkpt lat="49.10639" lon="1.10162">
        <ele>116.199997</ele>
        <time>2015-12-13T09:27:34Z</time>
      </trkpt>
      <trkpt lat="49.10651" lon="1.10166">
        <ele>116.5</ele>
        <time>2015-12-13T09:27:37Z</time>
      </trkpt>
      <trkpt lat="49.10663" lon="1.10169">
        <ele>116.699997</ele>
        <time>2015-12-13T09:27:40Z</time>
      </trkpt>
      <trkpt lat="49.10674" lon="1.10171">
        <ele>116.699997</ele>
        <time>2015-12-13T09:27:42Z</time>
      </trkpt>
      <trkpt lat="49.10687" lon="1.10181">
        <ele>116.699997</ele>
        <time>2015-12-13T09:27:45Z</time>
      </trkpt>
      <trkpt lat="49.10695" lon="1.10188">
        <ele>116.599998</ele>
        <time>2015-12-13T09:27:47Z</time>
      </trkpt>
      <trkpt lat="49.10704" lon="1.10195">
        <ele>116.699997</ele>
        <time>2015-12-13T09:27:50Z</time>
      </trkpt>
      <trkpt lat="49.10713" lon="1.10203">
        <ele>116.900002</ele>
        <time>2015-12-13T09:27:53Z</time>
      </trkpt>
      <trkpt lat="49.10722" lon="1.10206">
        <ele>117.199997</ele>
        <time>2015-12-13T09:27:56Z</time>
      </trkpt>
      <trkpt lat="49.10732" lon="1.10212">
        <ele>117.599998</ele>
        <time>2015-12-13T09:27:59Z</time>
      </trkpt>
      <trkpt lat="49.10741" lon="1.10214">
        <ele>118.099998</ele>
        <time>2015-12-13T09:28:03Z</time>
      </trkpt>
      <trkpt lat="49.10753" lon="1.10221">
        <ele>118.699997</ele>
        <time>2015-12-13T09:28:07Z</time>
      </trkpt>
      <trkpt lat="49.10763" lon="1.10224">
        <ele>119.300003</ele>
        <time>2015-12-13T09:28:10Z</time>
      </trkpt>
      <trkpt lat="49.10775" lon="1.10229">
        <ele>119.699997</ele>
        <time>2015-12-13T09:28:13Z</time>
      </trkpt>
      <trkpt lat="49.10784" lon="1.10231">
        <ele>120.199997</ele>
        <time>2015-12-13T09:28:16Z</time>
      </trkpt>
      <trkpt lat="49.10794" lon="1.10235">
        <ele>120.699997</ele>
        <time>2015-12-13T09:28:19Z</time>
      </trkpt>
      <trkpt lat="49.10804" lon="1.1024">
        <ele>121</ele>
        <time>2015-12-13T09:28:22Z</time>
      </trkpt>
      <trkpt lat="49.10814" lon="1.10244">
        <ele>121.5</ele>
        <time>2015-12-13T09:28:25Z</time>
      </trkpt>
      <trkpt lat="49.10825" lon="1.1025">
        <ele>121.900002</ele>
        <time>2015-12-13T09:28:28Z</time>
      </trkpt>
      <trkpt lat="49.10835" lon="1.10257">
        <ele>122.300003</ele>
        <time>2015-12-13T09:28:31Z</time>
      </trkpt>
      <trkpt lat="49.10847" lon="1.10264">
        <ele>122.699997</ele>
        <time>2015-12-13T09:28:34Z</time>
      </trkpt>
      <trkpt lat="49.10857" lon="1.1027">
        <ele>123.099998</ele>
        <time>2015-12-13T09:28:37Z</time>
      </trkpt>
      <trkpt lat="49.10868" lon="1.10277">
        <ele>123.5</ele>
        <time>2015-12-13T09:28:40Z</time>
      </trkpt>
      <trkpt lat="49.10878" lon="1.10283">
        <ele>123.900002</ele>
        <time>2015-12-13T09:28:43Z</time>
      </trkpt>
      <trkpt lat="49.10898" lon="1.10293">
        <ele>124.5</ele>
        <time>2015-12-13T09:28:48Z</time>
      </trkpt>
      <trkpt lat="49.10911" lon="1.10299">
        <ele>124.900002</ele>
        <time>2015-12-13T09:28:51Z</time>
      </trkpt>
      <trkpt lat="49.10922" lon="1.10303">
        <ele>125.300003</ele>
        <time>2015-12-13T09:28:54Z</time>
      </trkpt>
      <trkpt lat="49.10931" lon="1.10306">
        <ele>125.599998</ele>
        <time>2015-12-13T09:28:56Z</time>
      </trkpt>
      <trkpt lat="49.10943" lon="1.10311">
        <ele>125.900002</ele>
        <time>2015-12-13T09:28:59Z</time>
      </trkpt>
      <trkpt lat="49.10952" lon="1.10314">
        <ele>126.199997</ele>
        <time>2015-12-13T09:29:01Z</time>
      </trkpt>
      <trkpt lat="49.10961" lon="1.10318">
        <ele>126.300003</ele>
        <time>2015-12-13T09:29:03Z</time>
      </trkpt>
      <trkpt lat="49.10971" lon="1.10322">
        <ele>126.5</ele>
        <time>2015-12-13T09:29:05Z</time>
      </trkpt>
      <trkpt lat="49.10981" lon="1.10326">
        <ele>126.599998</ele>
        <time>2015-12-13T09:29:07Z</time>
      </trkpt>
      <trkpt lat="49.10991" lon="1.10329">
        <ele>126.800003</ele>
        <time>2015-12-13T09:29:09Z</time>
      </trkpt>
      <trkpt lat="49.11001" lon="1.10333">
        <ele>126.900002</ele>
        <time>2015-12-13T09:29:11Z</time>
      </trkpt>
      <trkpt lat="49.11011" lon="1.10336">
        <ele>127</ele>
        <time>2015-12-13T09:29:13Z</time>
      </trkpt>
      <trkpt lat="49.11022" lon="1.1034">
        <ele>127</ele>
        <time>2015-12-13T09:29:15Z</time>
      </trkpt>
      <trkpt lat="49.11034" lon="1.10344">
        <ele>127</ele>
        <time>2015-12-13T09:29:17Z</time>
      </trkpt>
      <trkpt lat="49.11047" lon="1.10349">
        <ele>126.900002</ele>
        <time>2015-12-13T09:29:19Z</time>
      </trkpt>
      <trkpt lat="49.1106" lon="1.10355">
        <ele>126.800003</ele>
        <time>2015-12-13T09:29:21Z</time>
      </trkpt>
      <trkpt lat="49.11073" lon="1.10363">
        <ele>126.5</ele>
        <time>2015-12-13T09:29:23Z</time>
      </trkpt>
      <trkpt lat="49.11084" lon="1.10369">
        <ele>126.199997</ele>
        <time>2015-12-13T09:29:25Z</time>
      </trkpt>
      <trkpt lat="49.11095" lon="1.10376">
        <ele>126</ele>
        <time>2015-12-13T09:29:27Z</time>
      </trkpt>
      <trkpt lat="49.11106" lon="1.10381">
        <ele>125.800003</ele>
        <time>2015-12-13T09:29:29Z</time>
      </trkpt>
      <trkpt lat="49.11117" lon="1.10386">
        <ele>125.599998</ele>
        <time>2015-12-13T09:29:31Z</time>
      </trkpt>
      <trkpt lat="49.11128" lon="1.10391">
        <ele>125.300003</ele>
        <time>2015-12-13T09:29:33Z</time>
      </trkpt>
      <trkpt lat="49.11139" lon="1.10396">
        <ele>125.099998</ele>
        <time>2015-12-13T09:29:35Z</time>
      </trkpt>
      <trkpt lat="49.11152" lon="1.10401">
        <ele>124.800003</ele>
        <time>2015-12-13T09:29:37Z</time>
      </trkpt>
      <trkpt lat="49.11163" lon="1.10406">
        <ele>124.599998</ele>
        <time>2015-12-13T09:29:39Z</time>
      </trkpt>
      <trkpt lat="49.11175" lon="1.10409">
        <ele>124.199997</ele>
        <time>2015-12-13T09:29:41Z</time>
      </trkpt>
      <trkpt lat="49.11185" lon="1.10416">
        <ele>123.800003</ele>
        <time>2015-12-13T09:29:43Z</time>
      </trkpt>
      <trkpt lat="49.11194" lon="1.10432">
        <ele>122.800003</ele>
        <time>2015-12-13T09:29:46Z</time>
      </trkpt>
      <trkpt lat="49.112" lon="1.10445">
        <ele>122</ele>
        <time>2015-12-13T09:29:48Z</time>
      </trkpt>
      <trkpt lat="49.11206" lon="1.10459">
        <ele>121.199997</ele>
        <time>2015-12-13T09:29:50Z</time>
      </trkpt>
      <trkpt lat="49.11212" lon="1.10475">
        <ele>120.300003</ele>
        <time>2015-12-13T09:29:52Z</time>
      </trkpt>
      <trkpt lat="49.11221" lon="1.10492">
        <ele>119.199997</ele>
        <time>2015-12-13T09:29:54Z</time>
      </trkpt>
      <trkpt lat="49.11227" lon="1.10518">
        <ele>118.099998</ele>
        <time>2015-12-13T09:29:56Z</time>
      </trkpt>
      <trkpt lat="49.11232" lon="1.1053">
        <ele>117.5</ele>
        <time>2015-12-13T09:29:57Z</time>
      </trkpt>
      <trkpt lat="49.1124" lon="1.10553">
        <ele>116.300003</ele>
        <time>2015-12-13T09:29:59Z</time>
      </trkpt>
      <trkpt lat="49.11248" lon="1.10573">
        <ele>115</ele>
        <time>2015-12-13T09:30:01Z</time>
      </trkpt>
      <trkpt lat="49.11255" lon="1.10592">
        <ele>113.699997</ele>
        <time>2015-12-13T09:30:03Z</time>
      </trkpt>
      <trkpt lat="49.11261" lon="1.10614">
        <ele>112.300003</ele>
        <time>2015-12-13T09:30:05Z</time>
      </trkpt>
      <trkpt lat="49.11265" lon="1.10635">
        <ele>110.599998</ele>
        <time>2015-12-13T09:30:07Z</time>
      </trkpt>
      <trkpt lat="49.1127" lon="1.10657">
        <ele>109</ele>
        <time>2015-12-13T09:30:09Z</time>
      </trkpt>
      <trkpt lat="49.11274" lon="1.1068">
        <ele>107.300003</ele>
        <time>2015-12-13T09:30:11Z</time>
      </trkpt>
      <trkpt lat="49.11275" lon="1.10704">
        <ele>105.5</ele>
        <time>2015-12-13T09:30:13Z</time>
      </trkpt>
      <trkpt lat="49.11272" lon="1.10725">
        <ele>103.699997</ele>
        <time>2015-12-13T09:30:15Z</time>
      </trkpt>
      <trkpt lat="49.11268" lon="1.10742">
        <ele>102</ele>
        <time>2015-12-13T09:30:17Z</time>
      </trkpt>
      <trkpt lat="49.11263" lon="1.10761">
        <ele>100.300003</ele>
        <time>2015-12-13T09:30:19Z</time>
      </trkpt>
      <trkpt lat="49.11256" lon="1.10777">
        <ele>98.599998</ele>
        <time>2015-12-13T09:30:21Z</time>
      </trkpt>
      <trkpt lat="49.11242" lon="1.1079">
        <ele>96.900002</ele>
        <time>2015-12-13T09:30:23Z</time>
      </trkpt>
      <trkpt lat="49.11226" lon="1.10799">
        <ele>95.300003</ele>
        <time>2015-12-13T09:30:25Z</time>
      </trkpt>
      <trkpt lat="49.11211" lon="1.10803">
        <ele>93.800003</ele>
        <time>2015-12-13T09:30:27Z</time>
      </trkpt>
      <trkpt lat="49.11194" lon="1.10803">
        <ele>92.199997</ele>
        <time>2015-12-13T09:30:29Z</time>
      </trkpt>
      <trkpt lat="49.11177" lon="1.10803">
        <ele>90.599998</ele>
        <time>2015-12-13T09:30:31Z</time>
      </trkpt>
      <trkpt lat="49.11161" lon="1.10806">
        <ele>89.099998</ele>
        <time>2015-12-13T09:30:33Z</time>
      </trkpt>
      <trkpt lat="49.11149" lon="1.10811">
        <ele>87.400002</ele>
        <time>2015-12-13T09:30:35Z</time>
      </trkpt>
      <trkpt lat="49.11146" lon="1.10827">
        <ele>85.699997</ele>
        <time>2015-12-13T09:30:37Z</time>
      </trkpt>
      <trkpt lat="49.11157" lon="1.10844">
        <ele>84.099998</ele>
        <time>2015-12-13T09:30:39Z</time>
      </trkpt>
      <trkpt lat="49.11167" lon="1.10863">
        <ele>82.400002</ele>
        <time>2015-12-13T09:30:41Z</time>
      </trkpt>
      <trkpt lat="49.11177" lon="1.10883">
        <ele>80.599998</ele>
        <time>2015-12-13T09:30:43Z</time>
      </trkpt>
      <trkpt lat="49.11185" lon="1.10906">
        <ele>78.900002</ele>
        <time>2015-12-13T09:30:45Z</time>
      </trkpt>
      <trkpt lat="49.11189" lon="1.10932">
        <ele>77.199997</ele>
        <time>2015-12-13T09:30:47Z</time>
      </trkpt>
      <trkpt lat="49.11191" lon="1.10957">
        <ele>75.5</ele>
        <time>2015-12-13T09:30:49Z</time>
      </trkpt>
      <trkpt lat="49.11192" lon="1.10985">
        <ele>73.599998</ele>
        <time>2015-12-13T09:30:51Z</time>
      </trkpt>
      <trkpt lat="49.11192" lon="1.11011">
        <ele>71.800003</ele>
        <time>2015-12-13T09:30:53Z</time>
      </trkpt>
      <trkpt lat="49.11193" lon="1.11033">
        <ele>70</ele>
        <time>2015-12-13T09:30:55Z</time>
      </trkpt>
      <trkpt lat="49.11193" lon="1.11052">
        <ele>68.199997</ele>
        <time>2015-12-13T09:30:57Z</time>
      </trkpt>
      <trkpt lat="49.11194" lon="1.11071">
        <ele>66.199997</ele>
        <time>2015-12-13T09:30:59Z</time>
      </trkpt>
      <trkpt lat="49.11193" lon="1.11091">
        <ele>64.300003</ele>
        <time>2015-12-13T09:31:01Z</time>
      </trkpt>
      <trkpt lat="49.11189" lon="1.11108">
        <ele>62.599998</ele>
        <time>2015-12-13T09:31:03Z</time>
      </trkpt>
      <trkpt lat="49.11183" lon="1.11128">
        <ele>61</ele>
        <time>2015-12-13T09:31:05Z</time>
      </trkpt>
      <trkpt lat="49.11177" lon="1.11147">
        <ele>59.200001</ele>
        <time>2015-12-13T09:31:07Z</time>
      </trkpt>
      <trkpt lat="49.1117" lon="1.11168">
        <ele>57.400002</ele>
        <time>2015-12-13T09:31:09Z</time>
      </trkpt>
      <trkpt lat="49.11166" lon="1.11189">
        <ele>55.799999</ele>
        <time>2015-12-13T09:31:11Z</time>
      </trkpt>
      <trkpt lat="49.11166" lon="1.1121">
        <ele>54.099998</ele>
        <time>2015-12-13T09:31:13Z</time>
      </trkpt>
      <trkpt lat="49.11165" lon="1.11233">
        <ele>52.400002</ele>
        <time>2015-12-13T09:31:15Z</time>
      </trkpt>
      <trkpt lat="49.11165" lon="1.11256">
        <ele>50.700001</ele>
        <time>2015-12-13T09:31:17Z</time>
      </trkpt>
      <trkpt lat="49.11165" lon="1.11279">
        <ele>49.099998</ele>
        <time>2015-12-13T09:31:19Z</time>
      </trkpt>
      <trkpt lat="49.11165" lon="1.11302">
        <ele>47.700001</ele>
        <time>2015-12-13T09:31:21Z</time>
      </trkpt>
      <trkpt lat="49.11164" lon="1.11325">
        <ele>46.400002</ele>
        <time>2015-12-13T09:31:23Z</time>
      </trkpt>
      <trkpt lat="49.11164" lon="1.11346">
        <ele>45.200001</ele>
        <time>2015-12-13T09:31:25Z</time>
      </trkpt>
      <trkpt lat="49.11164" lon="1.11367">
        <ele>44</ele>
        <time>2015-12-13T09:31:27Z</time>
      </trkpt>
      <trkpt lat="49.11164" lon="1.1139">
        <ele>42.799999</ele>
        <time>2015-12-13T09:31:29Z</time>
      </trkpt>
      <trkpt lat="49.11163" lon="1.1141">
        <ele>41.700001</ele>
        <time>2015-12-13T09:31:31Z</time>
      </trkpt>
      <trkpt lat="49.11159" lon="1.11423">
        <ele>40.599998</ele>
        <time>2015-12-13T09:31:33Z</time>
      </trkpt>
      <trkpt lat="49.11148" lon="1.11426">
        <ele>39.299999</ele>
        <time>2015-12-13T09:31:36Z</time>
      </trkpt>
      <trkpt lat="49.1114" lon="1.11417">
        <ele>38.5</ele>
        <time>2015-12-13T09:31:38Z</time>
      </trkpt>
      <trkpt lat="49.11132" lon="1.11406">
        <ele>37.799999</ele>
        <time>2015-12-13T09:31:40Z</time>
      </trkpt>
      <trkpt lat="49.11124" lon="1.11395">
        <ele>37.200001</ele>
        <time>2015-12-13T09:31:42Z</time>
      </trkpt>
      <trkpt lat="49.11114" lon="1.11384">
        <ele>36.599998</ele>
        <time>2015-12-13T09:31:44Z</time>
      </trkpt>
      <trkpt lat="49.11105" lon="1.11373">
        <ele>36.099998</ele>
        <time>2015-12-13T09:31:46Z</time>
      </trkpt>
      <trkpt lat="49.11095" lon="1.11363">
        <ele>35.700001</ele>
        <time>2015-12-13T09:31:48Z</time>
      </trkpt>
      <trkpt lat="49.11085" lon="1.11353">
        <ele>35.299999</ele>
        <time>2015-12-13T09:31:50Z</time>
      </trkpt>
      <trkpt lat="49.11075" lon="1.11342">
        <ele>35</ele>
        <time>2015-12-13T09:31:52Z</time>
      </trkpt>
      <trkpt lat="49.11065" lon="1.11332">
        <ele>34.700001</ele>
        <time>2015-12-13T09:31:54Z</time>
      </trkpt>
      <trkpt lat="49.11055" lon="1.11322">
        <ele>34.5</ele>
        <time>2015-12-13T09:31:56Z</time>
      </trkpt>
      <trkpt lat="49.11044" lon="1.11312">
        <ele>34.200001</ele>
        <time>2015-12-13T09:31:58Z</time>
      </trkpt>
      <trkpt lat="49.11034" lon="1.11302">
        <ele>34.099998</ele>
        <time>2015-12-13T09:32:00Z</time>
      </trkpt>
      <trkpt lat="49.11024" lon="1.11292">
        <ele>33.900002</ele>
        <time>2015-12-13T09:32:02Z</time>
      </trkpt>
      <trkpt lat="49.11014" lon="1.11282">
        <ele>33.700001</ele>
        <time>2015-12-13T09:32:04Z</time>
      </trkpt>
      <trkpt lat="49.11005" lon="1.11271">
        <ele>33.599998</ele>
        <time>2015-12-13T09:32:06Z</time>
      </trkpt>
      <trkpt lat="49.10998" lon="1.1126">
        <ele>33.5</ele>
        <time>2015-12-13T09:32:08Z</time>
      </trkpt>
      <trkpt lat="49.10987" lon="1.11266">
        <ele>33.299999</ele>
        <time>2015-12-13T09:32:11Z</time>
      </trkpt>
      <trkpt lat="49.1098" lon="1.11276">
        <ele>33.200001</ele>
        <time>2015-12-13T09:32:13Z</time>
      </trkpt>
      <trkpt lat="49.10971" lon="1.11281">
        <ele>33.099998</ele>
        <time>2015-12-13T09:32:15Z</time>
      </trkpt>
      <trkpt lat="49.10961" lon="1.1128">
        <ele>33</ele>
        <time>2015-12-13T09:32:17Z</time>
      </trkpt>
      <trkpt lat="49.1095" lon="1.11279">
        <ele>32.799999</ele>
        <time>2015-12-13T09:32:19Z</time>
      </trkpt>
      <trkpt lat="49.10941" lon="1.11288">
        <ele>32.599998</ele>
        <time>2015-12-13T09:32:22Z</time>
      </trkpt>
      <trkpt lat="49.10931" lon="1.11286">
        <ele>32.400002</ele>
        <time>2015-12-13T09:32:25Z</time>
      </trkpt>
      <trkpt lat="49.10925" lon="1.11273">
        <ele>32.299999</ele>
        <time>2015-12-13T09:32:28Z</time>
      </trkpt>
      <trkpt lat="49.10919" lon="1.1126">
        <ele>32.200001</ele>
        <time>2015-12-13T09:32:30Z</time>
      </trkpt>
      <trkpt lat="49.10913" lon="1.11248">
        <ele>32.099998</ele>
        <time>2015-12-13T09:32:32Z</time>
      </trkpt>
      <trkpt lat="49.10904" lon="1.11239">
        <ele>32.099998</ele>
        <time>2015-12-13T09:32:34Z</time>
      </trkpt>
      <trkpt lat="49.10894" lon="1.11233">
        <ele>32</ele>
        <time>2015-12-13T09:32:36Z</time>
      </trkpt>
      <trkpt lat="49.10884" lon="1.11227">
        <ele>32</ele>
        <time>2015-12-13T09:32:38Z</time>
      </trkpt>
      <trkpt lat="49.10874" lon="1.11222">
        <ele>31.9</ele>
        <time>2015-12-13T09:32:40Z</time>
      </trkpt>
      <trkpt lat="49.10863" lon="1.11219">
        <ele>31.9</ele>
        <time>2015-12-13T09:32:42Z</time>
      </trkpt>
      <trkpt lat="49.10853" lon="1.11215">
        <ele>31.9</ele>
        <time>2015-12-13T09:32:44Z</time>
      </trkpt>
      <trkpt lat="49.10843" lon="1.11209">
        <ele>31.9</ele>
        <time>2015-12-13T09:32:46Z</time>
      </trkpt>
      <trkpt lat="49.10834" lon="1.11205">
        <ele>31.799999</ele>
        <time>2015-12-13T09:32:48Z</time>
      </trkpt>
      <trkpt lat="49.10824" lon="1.112">
        <ele>31.799999</ele>
        <time>2015-12-13T09:32:50Z</time>
      </trkpt>
      <trkpt lat="49.10815" lon="1.11196">
        <ele>31.799999</ele>
        <time>2015-12-13T09:32:52Z</time>
      </trkpt>
      <trkpt lat="49.10806" lon="1.11191">
        <ele>31.799999</ele>
        <time>2015-12-13T09:32:54Z</time>
      </trkpt>
      <trkpt lat="49.10797" lon="1.11187">
        <ele>31.799999</ele>
        <time>2015-12-13T09:32:56Z</time>
      </trkpt>
      <trkpt lat="49.10787" lon="1.11187">
        <ele>31.9</ele>
        <time>2015-12-13T09:32:58Z</time>
      </trkpt>
      <trkpt lat="49.10779" lon="1.11194">
        <ele>31.9</ele>
        <time>2015-12-13T09:33:00Z</time>
      </trkpt>
      <trkpt lat="49.1077" lon="1.112">
        <ele>31.9</ele>
        <time>2015-12-13T09:33:02Z</time>
      </trkpt>
      <trkpt lat="49.10762" lon="1.11207">
        <ele>32</ele>
        <time>2015-12-13T09:33:04Z</time>
      </trkpt>
      <trkpt lat="49.10754" lon="1.11214">
        <ele>32</ele>
        <time>2015-12-13T09:33:06Z</time>
      </trkpt>
      <trkpt lat="49.10746" lon="1.1122">
        <ele>32</ele>
        <time>2015-12-13T09:33:08Z</time>
      </trkpt>
      <trkpt lat="49.10738" lon="1.11226">
        <ele>32</ele>
        <time>2015-12-13T09:33:10Z</time>
      </trkpt>
      <trkpt lat="49.10729" lon="1.11233">
        <ele>32</ele>
        <time>2015-12-13T09:33:12Z</time>
      </trkpt>
      <trkpt lat="49.10718" lon="1.11242">
        <ele>32</ele>
        <time>2015-12-13T09:33:15Z</time>
      </trkpt>
      <trkpt lat="49.10706" lon="1.11252">
        <ele>32</ele>
        <time>2015-12-13T09:33:18Z</time>
      </trkpt>
      <trkpt lat="49.10695" lon="1.1126">
        <ele>32</ele>
        <time>2015-12-13T09:33:21Z</time>
      </trkpt>
      <trkpt lat="49.10683" lon="1.1127">
        <ele>32.099998</ele>
        <time>2015-12-13T09:33:24Z</time>
      </trkpt>
      <trkpt lat="49.10675" lon="1.11278">
        <ele>32.099998</ele>
        <time>2015-12-13T09:33:26Z</time>
      </trkpt>
      <trkpt lat="49.10664" lon="1.11288">
        <ele>32.099998</ele>
        <time>2015-12-13T09:33:29Z</time>
      </trkpt>
      <trkpt lat="49.10652" lon="1.11297">
        <ele>32.200001</ele>
        <time>2015-12-13T09:33:32Z</time>
      </trkpt>
      <trkpt lat="49.10646" lon="1.11307">
        <ele>32.299999</ele>
        <time>2015-12-13T09:33:34Z</time>
      </trkpt>
      <trkpt lat="49.10639" lon="1.11317">
        <ele>32.400002</ele>
        <time>2015-12-13T09:33:36Z</time>
      </trkpt>
      <trkpt lat="49.10631" lon="1.11326">
        <ele>32.5</ele>
        <time>2015-12-13T09:33:38Z</time>
      </trkpt>
      <trkpt lat="49.10621" lon="1.1133">
        <ele>32.5</ele>
        <time>2015-12-13T09:33:40Z</time>
      </trkpt>
      <trkpt lat="49.10611" lon="1.11329">
        <ele>32.599998</ele>
        <time>2015-12-13T09:33:42Z</time>
      </trkpt>
      <trkpt lat="49.10602" lon="1.11325">
        <ele>32.599998</ele>
        <time>2015-12-13T09:33:44Z</time>
      </trkpt>
      <trkpt lat="49.10593" lon="1.1132">
        <ele>32.700001</ele>
        <time>2015-12-13T09:33:46Z</time>
      </trkpt>
      <trkpt lat="49.10581" lon="1.11318">
        <ele>32.799999</ele>
        <time>2015-12-13T09:33:49Z</time>
      </trkpt>
      <trkpt lat="49.10575" lon="1.11333">
        <ele>32.900002</ele>
        <time>2015-12-13T09:33:52Z</time>
      </trkpt>
      <trkpt lat="49.10573" lon="1.11347">
        <ele>32.900002</ele>
        <time>2015-12-13T09:33:54Z</time>
      </trkpt>
      <trkpt lat="49.1057" lon="1.11361">
        <ele>33</ele>
        <time>2015-12-13T09:33:56Z</time>
      </trkpt>
      <trkpt lat="49.10568" lon="1.11377">
        <ele>33</ele>
        <time>2015-12-13T09:33:58Z</time>
      </trkpt>
      <trkpt lat="49.10567" lon="1.11392">
        <ele>33.099998</ele>
        <time>2015-12-13T09:34:00Z</time>
      </trkpt>
      <trkpt lat="49.10566" lon="1.11409">
        <ele>33.099998</ele>
        <time>2015-12-13T09:34:02Z</time>
      </trkpt>
      <trkpt lat="49.10564" lon="1.11425">
        <ele>33.200001</ele>
        <time>2015-12-13T09:34:04Z</time>
      </trkpt>
      <trkpt lat="49.10562" lon="1.11441">
        <ele>33.299999</ele>
        <time>2015-12-13T09:34:06Z</time>
      </trkpt>
      <trkpt lat="49.10557" lon="1.11453">
        <ele>33.5</ele>
        <time>2015-12-13T09:34:08Z</time>
      </trkpt>
      <trkpt lat="49.10544" lon="1.11455">
        <ele>33.700001</ele>
        <time>2015-12-13T09:34:11Z</time>
      </trkpt>
      <trkpt lat="49.10534" lon="1.11454">
        <ele>33.900002</ele>
        <time>2015-12-13T09:34:13Z</time>
      </trkpt>
      <trkpt lat="49.10525" lon="1.11452">
        <ele>34.099998</ele>
        <time>2015-12-13T09:34:15Z</time>
      </trkpt>
      <trkpt lat="49.10515" lon="1.11451">
        <ele>34.299999</ele>
        <time>2015-12-13T09:34:17Z</time>
      </trkpt>
      <trkpt lat="49.10505" lon="1.1145">
        <ele>34.400002</ele>
        <time>2015-12-13T09:34:19Z</time>
      </trkpt>
      <trkpt lat="49.10495" lon="1.11449">
        <ele>34.599998</ele>
        <time>2015-12-13T09:34:21Z</time>
      </trkpt>
      <trkpt lat="49.10485" lon="1.11447">
        <ele>34.700001</ele>
        <time>2015-12-13T09:34:23Z</time>
      </trkpt>
      <trkpt lat="49.10475" lon="1.11446">
        <ele>34.799999</ele>
        <time>2015-12-13T09:34:25Z</time>
      </trkpt>
      <trkpt lat="49.10465" lon="1.11445">
        <ele>34.900002</ele>
        <time>2015-12-13T09:34:27Z</time>
      </trkpt>
      <trkpt lat="49.10456" lon="1.11443">
        <ele>35.099998</ele>
        <time>2015-12-13T09:34:29Z</time>
      </trkpt>
      <trkpt lat="49.10446" lon="1.11444">
        <ele>35.200001</ele>
        <time>2015-12-13T09:34:31Z</time>
      </trkpt>
      <trkpt lat="49.10438" lon="1.11452">
        <ele>35.400002</ele>
        <time>2015-12-13T09:34:33Z</time>
      </trkpt>
      <trkpt lat="49.10431" lon="1.11463">
        <ele>35.599998</ele>
        <time>2015-12-13T09:34:35Z</time>
      </trkpt>
      <trkpt lat="49.10422" lon="1.11463">
        <ele>35.700001</ele>
        <time>2015-12-13T09:34:37Z</time>
      </trkpt>
      <trkpt lat="49.10414" lon="1.11456">
        <ele>35.900002</ele>
        <time>2015-12-13T09:34:39Z</time>
      </trkpt>
      <trkpt lat="49.10406" lon="1.11451">
        <ele>36</ele>
        <time>2015-12-13T09:34:41Z</time>
      </trkpt>
      <trkpt lat="49.10397" lon="1.11447">
        <ele>36.099998</ele>
        <time>2015-12-13T09:34:43Z</time>
      </trkpt>
      <trkpt lat="49.10388" lon="1.11444">
        <ele>36.200001</ele>
        <time>2015-12-13T09:34:45Z</time>
      </trkpt>
      <trkpt lat="49.10379" lon="1.1144">
        <ele>36.400002</ele>
        <time>2015-12-13T09:34:47Z</time>
      </trkpt>
      <trkpt lat="49.1037" lon="1.11436">
        <ele>36.5</ele>
        <time>2015-12-13T09:34:49Z</time>
      </trkpt>
      <trkpt lat="49.1036" lon="1.11433">
        <ele>36.700001</ele>
        <time>2015-12-13T09:34:51Z</time>
      </trkpt>
      <trkpt lat="49.1035" lon="1.1143">
        <ele>36.799999</ele>
        <time>2015-12-13T09:34:53Z</time>
      </trkpt>
      <trkpt lat="49.10341" lon="1.11427">
        <ele>36.900002</ele>
        <time>2015-12-13T09:34:55Z</time>
      </trkpt>
      <trkpt lat="49.10332" lon="1.11424">
        <ele>37</ele>
        <time>2015-12-13T09:34:57Z</time>
      </trkpt>
      <trkpt lat="49.10323" lon="1.11421">
        <ele>37.099998</ele>
        <time>2015-12-13T09:34:59Z</time>
      </trkpt>
      <trkpt lat="49.10314" lon="1.11418">
        <ele>37.200001</ele>
        <time>2015-12-13T09:35:01Z</time>
      </trkpt>
      <trkpt lat="49.10305" lon="1.11419">
        <ele>37.299999</ele>
        <time>2015-12-13T09:35:03Z</time>
      </trkpt>
      <trkpt lat="49.10295" lon="1.11423">
        <ele>37.5</ele>
        <time>2015-12-13T09:35:06Z</time>
      </trkpt>
      <trkpt lat="49.1029" lon="1.11439">
        <ele>37.799999</ele>
        <time>2015-12-13T09:35:10Z</time>
      </trkpt>
      <trkpt lat="49.10288" lon="1.11455">
        <ele>38.299999</ele>
        <time>2015-12-13T09:35:14Z</time>
      </trkpt>
      <trkpt lat="49.10286" lon="1.11471">
        <ele>38.900002</ele>
        <time>2015-12-13T09:35:18Z</time>
      </trkpt>
      <trkpt lat="49.10284" lon="1.11485">
        <ele>39.5</ele>
        <time>2015-12-13T09:35:22Z</time>
      </trkpt>
      <trkpt lat="49.10282" lon="1.11499">
        <ele>40.200001</ele>
        <time>2015-12-13T09:35:26Z</time>
      </trkpt>
      <trkpt lat="49.1028" lon="1.11513">
        <ele>40.900002</ele>
        <time>2015-12-13T09:35:30Z</time>
      </trkpt>
      <trkpt lat="49.1028" lon="1.1153">
        <ele>41.900002</ele>
        <time>2015-12-13T09:35:35Z</time>
      </trkpt>
      <trkpt lat="49.10279" lon="1.11544">
        <ele>42.700001</ele>
        <time>2015-12-13T09:35:39Z</time>
      </trkpt>
      <trkpt lat="49.10281" lon="1.1156">
        <ele>43.700001</ele>
        <time>2015-12-13T09:35:44Z</time>
      </trkpt>
      <trkpt lat="49.10286" lon="1.11574">
        <ele>44.700001</ele>
        <time>2015-12-13T09:35:49Z</time>
      </trkpt>
      <trkpt lat="49.10289" lon="1.11588">
        <ele>45.700001</ele>
        <time>2015-12-13T09:35:54Z</time>
      </trkpt>
      <trkpt lat="49.10287" lon="1.11602">
        <ele>47.299999</ele>
        <time>2015-12-13T09:36:01Z</time>
      </trkpt>
      <trkpt lat="49.1028" lon="1.11611">
        <ele>48.700001</ele>
        <time>2015-12-13T09:36:07Z</time>
      </trkpt>
      <trkpt lat="49.10269" lon="1.11614">
        <ele>50.5</ele>
        <time>2015-12-13T09:36:14Z</time>
      </trkpt>
      <trkpt lat="49.10259" lon="1.11615">
        <ele>52.299999</ele>
        <time>2015-12-13T09:36:21Z</time>
      </trkpt>
      <trkpt lat="49.1025" lon="1.11618">
        <ele>53.700001</ele>
        <time>2015-12-13T09:36:27Z</time>
      </trkpt>
      <trkpt lat="49.10241" lon="1.11622">
        <ele>55.200001</ele>
        <time>2015-12-13T09:36:33Z</time>
      </trkpt>
      <trkpt lat="49.10231" lon="1.11623">
        <ele>56.5</ele>
        <time>2015-12-13T09:36:39Z</time>
      </trkpt>
      <trkpt lat="49.10222" lon="1.11621">
        <ele>57.900002</ele>
        <time>2015-12-13T09:36:45Z</time>
      </trkpt>
      <trkpt lat="49.10212" lon="1.11618">
        <ele>59.200001</ele>
        <time>2015-12-13T09:36:51Z</time>
      </trkpt>
      <trkpt lat="49.10202" lon="1.11615">
        <ele>60.400002</ele>
        <time>2015-12-13T09:36:57Z</time>
      </trkpt>
      <trkpt lat="49.10192" lon="1.11614">
        <ele>61.299999</ele>
        <time>2015-12-13T09:37:02Z</time>
      </trkpt>
      <trkpt lat="49.10181" lon="1.11613">
        <ele>62.400002</ele>
        <time>2015-12-13T09:37:07Z</time>
      </trkpt>
      <trkpt lat="49.10171" lon="1.11617">
        <ele>63.299999</ele>
        <time>2015-12-13T09:37:12Z</time>
      </trkpt>
      <trkpt lat="49.10162" lon="1.11623">
        <ele>64.199997</ele>
        <time>2015-12-13T09:37:17Z</time>
      </trkpt>
      <trkpt lat="49.10155" lon="1.11634">
        <ele>65.199997</ele>
        <time>2015-12-13T09:37:22Z</time>
      </trkpt>
      <trkpt lat="49.10151" lon="1.11647">
        <ele>66.099998</ele>
        <time>2015-12-13T09:37:27Z</time>
      </trkpt>
      <trkpt lat="49.10149" lon="1.11662">
        <ele>67.300003</ele>
        <time>2015-12-13T09:37:33Z</time>
      </trkpt>
      <trkpt lat="49.10147" lon="1.11677">
        <ele>68.5</ele>
        <time>2015-12-13T09:37:39Z</time>
      </trkpt>
      <trkpt lat="49.10152" lon="1.11691">
        <ele>70.300003</ele>
        <time>2015-12-13T09:37:46Z</time>
      </trkpt>
      <trkpt lat="49.10159" lon="1.11699">
        <ele>71.199997</ele>
        <time>2015-12-13T09:37:50Z</time>
      </trkpt>
      <trkpt lat="49.10167" lon="1.11707">
        <ele>72.099998</ele>
        <time>2015-12-13T09:37:54Z</time>
      </trkpt>
      <trkpt lat="49.10175" lon="1.11715">
        <ele>73</ele>
        <time>2015-12-13T09:37:58Z</time>
      </trkpt>
      <trkpt lat="49.10183" lon="1.11721">
        <ele>73.800003</ele>
        <time>2015-12-13T09:38:02Z</time>
      </trkpt>
      <trkpt lat="49.10192" lon="1.11729">
        <ele>74.800003</ele>
        <time>2015-12-13T09:38:06Z</time>
      </trkpt>
      <trkpt lat="49.10201" lon="1.11737">
        <ele>75.599998</ele>
        <time>2015-12-13T09:38:10Z</time>
      </trkpt>
      <trkpt lat="49.1021" lon="1.11745">
        <ele>76.300003</ele>
        <time>2015-12-13T09:38:14Z</time>
      </trkpt>
      <trkpt lat="49.10218" lon="1.11755">
        <ele>77</ele>
        <time>2015-12-13T09:38:18Z</time>
      </trkpt>
      <trkpt lat="49.10225" lon="1.11765">
        <ele>77.800003</ele>
        <time>2015-12-13T09:38:22Z</time>
      </trkpt>
      <trkpt lat="49.10232" lon="1.11776">
        <ele>78.599998</ele>
        <time>2015-12-13T09:38:26Z</time>
      </trkpt>
      <trkpt lat="49.10239" lon="1.11788">
        <ele>79.400002</ele>
        <time>2015-12-13T09:38:30Z</time>
      </trkpt>
      <trkpt lat="49.10245" lon="1.11799">
        <ele>80.199997</ele>
        <time>2015-12-13T09:38:34Z</time>
      </trkpt>
      <trkpt lat="49.10252" lon="1.11811">
        <ele>81</ele>
        <time>2015-12-13T09:38:38Z</time>
      </trkpt>
      <trkpt lat="49.10259" lon="1.11823">
        <ele>81.900002</ele>
        <time>2015-12-13T09:38:42Z</time>
      </trkpt>
      <trkpt lat="49.10266" lon="1.11835">
        <ele>82.599998</ele>
        <time>2015-12-13T09:38:46Z</time>
      </trkpt>
      <trkpt lat="49.10274" lon="1.11846">
        <ele>83.599998</ele>
        <time>2015-12-13T09:38:50Z</time>
      </trkpt>
      <trkpt lat="49.10281" lon="1.11857">
        <ele>84.400002</ele>
        <time>2015-12-13T09:38:54Z</time>
      </trkpt>
      <trkpt lat="49.10289" lon="1.11867">
        <ele>85.199997</ele>
        <time>2015-12-13T09:38:58Z</time>
      </trkpt>
      <trkpt lat="49.10296" lon="1.11879">
        <ele>86</ele>
        <time>2015-12-13T09:39:02Z</time>
      </trkpt>
      <trkpt lat="49.10302" lon="1.11891">
        <ele>86.900002</ele>
        <time>2015-12-13T09:39:06Z</time>
      </trkpt>
      <trkpt lat="49.10308" lon="1.11904">
        <ele>87.800003</ele>
        <time>2015-12-13T09:39:10Z</time>
      </trkpt>
      <trkpt lat="49.10313" lon="1.11916">
        <ele>88.800003</ele>
        <time>2015-12-13T09:39:14Z</time>
      </trkpt>
      <trkpt lat="49.10318" lon="1.1193">
        <ele>89.699997</ele>
        <time>2015-12-13T09:39:18Z</time>
      </trkpt>
      <trkpt lat="49.10322" lon="1.11943">
        <ele>90.599998</ele>
        <time>2015-12-13T09:39:22Z</time>
      </trkpt>
      <trkpt lat="49.10325" lon="1.11957">
        <ele>91.5</ele>
        <time>2015-12-13T09:39:26Z</time>
      </trkpt>
      <trkpt lat="49.10328" lon="1.11972">
        <ele>92.599998</ele>
        <time>2015-12-13T09:39:30Z</time>
      </trkpt>
      <trkpt lat="49.10332" lon="1.11986">
        <ele>93.5</ele>
        <time>2015-12-13T09:39:34Z</time>
      </trkpt>
      <trkpt lat="49.10336" lon="1.12">
        <ele>94.5</ele>
        <time>2015-12-13T09:39:38Z</time>
      </trkpt>
      <trkpt lat="49.10342" lon="1.12013">
        <ele>95.400002</ele>
        <time>2015-12-13T09:39:42Z</time>
      </trkpt>
      <trkpt lat="49.10349" lon="1.12026">
        <ele>96.300003</ele>
        <time>2015-12-13T09:39:46Z</time>
      </trkpt>
      <trkpt lat="49.10357" lon="1.12037">
        <ele>97.099998</ele>
        <time>2015-12-13T09:39:50Z</time>
      </trkpt>
      <trkpt lat="49.10365" lon="1.12049">
        <ele>98</ele>
        <time>2015-12-13T09:39:54Z</time>
      </trkpt>
      <trkpt lat="49.10374" lon="1.1206">
        <ele>98.900002</ele>
        <time>2015-12-13T09:39:58Z</time>
      </trkpt>
      <trkpt lat="49.10382" lon="1.12073">
        <ele>99.800003</ele>
        <time>2015-12-13T09:40:02Z</time>
      </trkpt>
      <trkpt lat="49.1039" lon="1.12086">
        <ele>100.699997</ele>
        <time>2015-12-13T09:40:06Z</time>
      </trkpt>
      <trkpt lat="49.10396" lon="1.12097">
        <ele>101.400002</ele>
        <time>2015-12-13T09:40:09Z</time>
      </trkpt>
      <trkpt lat="49.10402" lon="1.12108">
        <ele>102</ele>
        <time>2015-12-13T09:40:12Z</time>
      </trkpt>
      <trkpt lat="49.10408" lon="1.12118">
        <ele>102.699997</ele>
        <time>2015-12-13T09:40:15Z</time>
      </trkpt>
      <trkpt lat="49.10415" lon="1.12129">
        <ele>103.400002</ele>
        <time>2015-12-13T09:40:18Z</time>
      </trkpt>
      <trkpt lat="49.10421" lon="1.12139">
        <ele>104.199997</ele>
        <time>2015-12-13T09:40:21Z</time>
      </trkpt>
      <trkpt lat="49.10429" lon="1.12151">
        <ele>105.199997</ele>
        <time>2015-12-13T09:40:25Z</time>
      </trkpt>
      <trkpt lat="49.10438" lon="1.12163">
        <ele>106.099998</ele>
        <time>2015-12-13T09:40:29Z</time>
      </trkpt>
      <trkpt lat="49.10446" lon="1.12174">
        <ele>107.199997</ele>
        <time>2015-12-13T09:40:33Z</time>
      </trkpt>
      <trkpt lat="49.10455" lon="1.12184">
        <ele>108.199997</ele>
        <time>2015-12-13T09:40:37Z</time>
      </trkpt>
      <trkpt lat="49.10463" lon="1.12195">
        <ele>109.199997</ele>
        <time>2015-12-13T09:40:41Z</time>
      </trkpt>
      <trkpt lat="49.10468" lon="1.12207">
        <ele>110.099998</ele>
        <time>2015-12-13T09:40:45Z</time>
      </trkpt>
      <trkpt lat="49.10472" lon="1.12219">
        <ele>110.900002</ele>
        <time>2015-12-13T09:40:49Z</time>
      </trkpt>
      <trkpt lat="49.10477" lon="1.12234">
        <ele>114.400002</ele>
        <time>2015-12-13T09:46:29Z</time>
      </trkpt>
      <trkpt lat="49.10481" lon="1.12249">
        <ele>114.400002</ele>
        <time>2015-12-13T09:46:33Z</time>
      </trkpt>
      <trkpt lat="49.10484" lon="1.12263">
        <ele>114.400002</ele>
        <time>2015-12-13T09:46:36Z</time>
      </trkpt>
      <trkpt lat="49.10487" lon="1.12278">
        <ele>114.400002</ele>
        <time>2015-12-13T09:46:39Z</time>
      </trkpt>
      <trkpt lat="49.10491" lon="1.12292">
        <ele>114.5</ele>
        <time>2015-12-13T09:46:42Z</time>
      </trkpt>
      <trkpt lat="49.10494" lon="1.12306">
        <ele>114.699997</ele>
        <time>2015-12-13T09:46:45Z</time>
      </trkpt>
      <trkpt lat="49.10498" lon="1.12322">
        <ele>115</ele>
        <time>2015-12-13T09:46:49Z</time>
      </trkpt>
      <trkpt lat="49.10501" lon="1.12336">
        <ele>115.199997</ele>
        <time>2015-12-13T09:46:52Z</time>
      </trkpt>
      <trkpt lat="49.10505" lon="1.12353">
        <ele>115.5</ele>
        <time>2015-12-13T09:46:56Z</time>
      </trkpt>
      <trkpt lat="49.10508" lon="1.12367">
        <ele>115.800003</ele>
        <time>2015-12-13T09:46:59Z</time>
      </trkpt>
      <trkpt lat="49.10512" lon="1.12384">
        <ele>116.199997</ele>
        <time>2015-12-13T09:47:03Z</time>
      </trkpt>
      <trkpt lat="49.10516" lon="1.12397">
        <ele>116.599998</ele>
        <time>2015-12-13T09:47:06Z</time>
      </trkpt>
      <trkpt lat="49.10518" lon="1.1241">
        <ele>116.900002</ele>
        <time>2015-12-13T09:47:09Z</time>
      </trkpt>
      <trkpt lat="49.10522" lon="1.12425">
        <ele>117.300003</ele>
        <time>2015-12-13T09:47:12Z</time>
      </trkpt>
      <trkpt lat="49.10526" lon="1.12438">
        <ele>117.599998</ele>
        <time>2015-12-13T09:47:15Z</time>
      </trkpt>
      <trkpt lat="49.10529" lon="1.12451">
        <ele>117.900002</ele>
        <time>2015-12-13T09:47:18Z</time>
      </trkpt>
      <trkpt lat="49.10531" lon="1.12465">
        <ele>118.199997</ele>
        <time>2015-12-13T09:47:21Z</time>
      </trkpt>
      <trkpt lat="49.10535" lon="1.12482">
        <ele>118.599998</ele>
        <time>2015-12-13T09:47:24Z</time>
      </trkpt>
      <trkpt lat="49.10539" lon="1.12497">
        <ele>118.900002</ele>
        <time>2015-12-13T09:47:27Z</time>
      </trkpt>
      <trkpt lat="49.10544" lon="1.12513">
        <ele>119.199997</ele>
        <time>2015-12-13T09:47:30Z</time>
      </trkpt>
      <trkpt lat="49.10549" lon="1.12527">
        <ele>119.5</ele>
        <time>2015-12-13T09:47:33Z</time>
      </trkpt>
      <trkpt lat="49.10556" lon="1.12538">
        <ele>119.800003</ele>
        <time>2015-12-13T09:47:36Z</time>
      </trkpt>
      <trkpt lat="49.1056" lon="1.12553">
        <ele>120.699997</ele>
        <time>2015-12-13T09:47:41Z</time>
      </trkpt>
      <trkpt lat="49.10563" lon="1.1257">
        <ele>121.300003</ele>
        <time>2015-12-13T09:47:45Z</time>
      </trkpt>
      <trkpt lat="49.10564" lon="1.12584">
        <ele>121.599998</ele>
        <time>2015-12-13T09:47:48Z</time>
      </trkpt>
      <trkpt lat="49.10568" lon="1.12602">
        <ele>121.900002</ele>
        <time>2015-12-13T09:47:51Z</time>
      </trkpt>
      <trkpt lat="49.10574" lon="1.12619">
        <ele>122.199997</ele>
        <time>2015-12-13T09:47:54Z</time>
      </trkpt>
      <trkpt lat="49.10578" lon="1.12635">
        <ele>122.400002</ele>
        <time>2015-12-13T09:47:57Z</time>
      </trkpt>
      <trkpt lat="49.10583" lon="1.12651">
        <ele>122.5</ele>
        <time>2015-12-13T09:48:00Z</time>
      </trkpt>
      <trkpt lat="49.10588" lon="1.12669">
        <ele>122.699997</ele>
        <time>2015-12-13T09:48:03Z</time>
      </trkpt>
      <trkpt lat="49.10593" lon="1.12686">
        <ele>122.800003</ele>
        <time>2015-12-13T09:48:06Z</time>
      </trkpt>
      <trkpt lat="49.10598" lon="1.12702">
        <ele>122.900002</ele>
        <time>2015-12-13T09:48:09Z</time>
      </trkpt>
      <trkpt lat="49.10604" lon="1.12717">
        <ele>123</ele>
        <time>2015-12-13T09:48:12Z</time>
      </trkpt>
      <trkpt lat="49.10611" lon="1.12728">
        <ele>123.199997</ele>
        <time>2015-12-13T09:48:15Z</time>
      </trkpt>
      <trkpt lat="49.10619" lon="1.12735">
        <ele>123.400002</ele>
        <time>2015-12-13T09:48:18Z</time>
      </trkpt>
      <trkpt lat="49.10628" lon="1.1274">
        <ele>123.800003</ele>
        <time>2015-12-13T09:48:21Z</time>
      </trkpt>
      <trkpt lat="49.10639" lon="1.12746">
        <ele>124.400002</ele>
        <time>2015-12-13T09:48:25Z</time>
      </trkpt>
      <trkpt lat="49.1065" lon="1.12752">
        <ele>125.099998</ele>
        <time>2015-12-13T09:48:29Z</time>
      </trkpt>
      <trkpt lat="49.10661" lon="1.1276">
        <ele>125.900002</ele>
        <time>2015-12-13T09:48:33Z</time>
      </trkpt>
      <trkpt lat="49.10671" lon="1.12768">
        <ele>126.400002</ele>
        <time>2015-12-13T09:48:36Z</time>
      </trkpt>
      <trkpt lat="49.10682" lon="1.12775">
        <ele>127</ele>
        <time>2015-12-13T09:48:39Z</time>
      </trkpt>
      <trkpt lat="49.10693" lon="1.12783">
        <ele>127.5</ele>
        <time>2015-12-13T09:48:42Z</time>
      </trkpt>
      <trkpt lat="49.10705" lon="1.12793">
        <ele>127.900002</ele>
        <time>2015-12-13T09:48:45Z</time>
      </trkpt>
      <trkpt lat="49.10716" lon="1.128">
        <ele>128.300003</ele>
        <time>2015-12-13T09:48:48Z</time>
      </trkpt>
      <trkpt lat="49.10727" lon="1.12806">
        <ele>128.699997</ele>
        <time>2015-12-13T09:48:51Z</time>
      </trkpt>
      <trkpt lat="49.10737" lon="1.12813">
        <ele>129</ele>
        <time>2015-12-13T09:48:54Z</time>
      </trkpt>
      <trkpt lat="49.10748" lon="1.12821">
        <ele>129.300003</ele>
        <time>2015-12-13T09:48:57Z</time>
      </trkpt>
      <trkpt lat="49.10759" lon="1.12827">
        <ele>129.699997</ele>
        <time>2015-12-13T09:49:00Z</time>
      </trkpt>
      <trkpt lat="49.10767" lon="1.12833">
        <ele>129.899994</ele>
        <time>2015-12-13T09:49:02Z</time>
      </trkpt>
      <trkpt lat="49.10778" lon="1.1284">
        <ele>130.199997</ele>
        <time>2015-12-13T09:49:05Z</time>
      </trkpt>
      <trkpt lat="49.10789" lon="1.12848">
        <ele>130.5</ele>
        <time>2015-12-13T09:49:08Z</time>
      </trkpt>
      <trkpt lat="49.10794" lon="1.1286">
        <ele>130.800003</ele>
        <time>2015-12-13T09:49:11Z</time>
      </trkpt>
      <trkpt lat="49.10787" lon="1.12869">
        <ele>131.199997</ele>
        <time>2015-12-13T09:49:14Z</time>
      </trkpt>
      <trkpt lat="49.10776" lon="1.12877">
        <ele>131.5</ele>
        <time>2015-12-13T09:49:18Z</time>
      </trkpt>
      <trkpt lat="49.10765" lon="1.12881">
        <ele>131.800003</ele>
        <time>2015-12-13T09:49:21Z</time>
      </trkpt>
      <trkpt lat="49.10756" lon="1.12887">
        <ele>131.899994</ele>
        <time>2015-12-13T09:49:24Z</time>
      </trkpt>
      <trkpt lat="49.10744" lon="1.12896">
        <ele>132.100006</ele>
        <time>2015-12-13T09:49:27Z</time>
      </trkpt>
      <trkpt lat="49.10734" lon="1.12904">
        <ele>132.100006</ele>
        <time>2015-12-13T09:49:30Z</time>
      </trkpt>
      <trkpt lat="49.10723" lon="1.12916">
        <ele>132.100006</ele>
        <time>2015-12-13T09:49:33Z</time>
      </trkpt>
      <trkpt lat="49.10715" lon="1.12922">
        <ele>132.100006</ele>
        <time>2015-12-13T09:49:35Z</time>
      </trkpt>
      <trkpt lat="49.10701" lon="1.12929">
        <ele>132</ele>
        <time>2015-12-13T09:49:38Z</time>
      </trkpt>
      <trkpt lat="49.10693" lon="1.12934">
        <ele>132</ele>
        <time>2015-12-13T09:49:40Z</time>
      </trkpt>
      <trkpt lat="49.10682" lon="1.1294">
        <ele>132</ele>
        <time>2015-12-13T09:49:42Z</time>
      </trkpt>
      <trkpt lat="49.10674" lon="1.12947">
        <ele>131.800003</ele>
        <time>2015-12-13T09:49:44Z</time>
      </trkpt>
      <trkpt lat="49.10666" lon="1.12956">
        <ele>131.699997</ele>
        <time>2015-12-13T09:49:46Z</time>
      </trkpt>
      <trkpt lat="49.10657" lon="1.12964">
        <ele>131.5</ele>
        <time>2015-12-13T09:49:48Z</time>
      </trkpt>
      <trkpt lat="49.10648" lon="1.12972">
        <ele>131.300003</ele>
        <time>2015-12-13T09:49:50Z</time>
      </trkpt>
      <trkpt lat="49.10638" lon="1.1298">
        <ele>131.100006</ele>
        <time>2015-12-13T09:49:52Z</time>
      </trkpt>
      <trkpt lat="49.10627" lon="1.12991">
        <ele>130.800003</ele>
        <time>2015-12-13T09:49:54Z</time>
      </trkpt>
      <trkpt lat="49.10615" lon="1.13001">
        <ele>130.5</ele>
        <time>2015-12-13T09:49:56Z</time>
      </trkpt>
      <trkpt lat="49.10604" lon="1.13014">
        <ele>130.100006</ele>
        <time>2015-12-13T09:49:58Z</time>
      </trkpt>
      <trkpt lat="49.10592" lon="1.13021">
        <ele>129.600006</ele>
        <time>2015-12-13T09:50:00Z</time>
      </trkpt>
      <trkpt lat="49.10584" lon="1.13026">
        <ele>129.300003</ele>
        <time>2015-12-13T09:50:02Z</time>
      </trkpt>
      <trkpt lat="49.10574" lon="1.13034">
        <ele>128.899994</ele>
        <time>2015-12-13T09:50:05Z</time>
      </trkpt>
      <trkpt lat="49.10564" lon="1.13042">
        <ele>128.800003</ele>
        <time>2015-12-13T09:50:08Z</time>
      </trkpt>
      <trkpt lat="49.10555" lon="1.1305">
        <ele>128.899994</ele>
        <time>2015-12-13T09:50:11Z</time>
      </trkpt>
      <trkpt lat="49.10546" lon="1.13058">
        <ele>129</ele>
        <time>2015-12-13T09:50:14Z</time>
      </trkpt>
      <trkpt lat="49.10537" lon="1.13065">
        <ele>129.300003</ele>
        <time>2015-12-13T09:50:17Z</time>
      </trkpt>
      <trkpt lat="49.10528" lon="1.13072">
        <ele>129.5</ele>
        <time>2015-12-13T09:50:20Z</time>
      </trkpt>
      <trkpt lat="49.10518" lon="1.13079">
        <ele>129.699997</ele>
        <time>2015-12-13T09:50:23Z</time>
      </trkpt>
      <trkpt lat="49.10507" lon="1.13087">
        <ele>129.899994</ele>
        <time>2015-12-13T09:50:26Z</time>
      </trkpt>
      <trkpt lat="49.10498" lon="1.13097">
        <ele>130.300003</ele>
        <time>2015-12-13T09:50:29Z</time>
      </trkpt>
      <trkpt lat="49.10488" lon="1.13106">
        <ele>130.699997</ele>
        <time>2015-12-13T09:50:32Z</time>
      </trkpt>
      <trkpt lat="49.10477" lon="1.13113">
        <ele>131</ele>
        <time>2015-12-13T09:50:35Z</time>
      </trkpt>
      <trkpt lat="49.10466" lon="1.13122">
        <ele>131.300003</ele>
        <time>2015-12-13T09:50:38Z</time>
      </trkpt>
      <trkpt lat="49.10454" lon="1.13132">
        <ele>131.5</ele>
        <time>2015-12-13T09:50:41Z</time>
      </trkpt>
      <trkpt lat="49.10446" lon="1.13139">
        <ele>131.600006</ele>
        <time>2015-12-13T09:50:43Z</time>
      </trkpt>
      <trkpt lat="49.10437" lon="1.13145">
        <ele>131.800003</ele>
        <time>2015-12-13T09:50:45Z</time>
      </trkpt>
      <trkpt lat="49.10428" lon="1.13151">
        <ele>131.899994</ele>
        <time>2015-12-13T09:50:47Z</time>
      </trkpt>
      <trkpt lat="49.1042" lon="1.1316">
        <ele>131.899994</ele>
        <time>2015-12-13T09:50:49Z</time>
      </trkpt>
      <trkpt lat="49.10411" lon="1.1317">
        <ele>131.800003</ele>
        <time>2015-12-13T09:50:51Z</time>
      </trkpt>
      <trkpt lat="49.10402" lon="1.13177">
        <ele>131.399994</ele>
        <time>2015-12-13T09:50:53Z</time>
      </trkpt>
      <trkpt lat="49.10397" lon="1.13193">
        <ele>130.699997</ele>
        <time>2015-12-13T09:50:56Z</time>
      </trkpt>
      <trkpt lat="49.10399" lon="1.13211">
        <ele>130</ele>
        <time>2015-12-13T09:50:59Z</time>
      </trkpt>
      <trkpt lat="49.10403" lon="1.13227">
        <ele>129.5</ele>
        <time>2015-12-13T09:51:02Z</time>
      </trkpt>
      <trkpt lat="49.10404" lon="1.13245">
        <ele>129.100006</ele>
        <time>2015-12-13T09:51:06Z</time>
      </trkpt>
      <trkpt lat="49.10406" lon="1.13261">
        <ele>129</ele>
        <time>2015-12-13T09:51:09Z</time>
      </trkpt>
      <trkpt lat="49.1041" lon="1.13275">
        <ele>129</ele>
        <time>2015-12-13T09:51:12Z</time>
      </trkpt>
      <trkpt lat="49.10413" lon="1.13291">
        <ele>129</ele>
        <time>2015-12-13T09:51:15Z</time>
      </trkpt>
      <trkpt lat="49.10416" lon="1.13305">
        <ele>129.100006</ele>
        <time>2015-12-13T09:51:18Z</time>
      </trkpt>
      <trkpt lat="49.1042" lon="1.13321">
        <ele>129.399994</ele>
        <time>2015-12-13T09:51:22Z</time>
      </trkpt>
      <trkpt lat="49.10425" lon="1.13334">
        <ele>129.699997</ele>
        <time>2015-12-13T09:51:25Z</time>
      </trkpt>
      <trkpt lat="49.10428" lon="1.1335">
        <ele>130.199997</ele>
        <time>2015-12-13T09:51:29Z</time>
      </trkpt>
      <trkpt lat="49.10431" lon="1.13365">
        <ele>130.699997</ele>
        <time>2015-12-13T09:51:33Z</time>
      </trkpt>
      <trkpt lat="49.10435" lon="1.13381">
        <ele>131.399994</ele>
        <time>2015-12-13T09:51:37Z</time>
      </trkpt>
      <trkpt lat="49.10438" lon="1.13398">
        <ele>132.100006</ele>
        <time>2015-12-13T09:51:41Z</time>
      </trkpt>
      <trkpt lat="49.10441" lon="1.13416">
        <ele>132.699997</ele>
        <time>2015-12-13T09:51:45Z</time>
      </trkpt>
      <trkpt lat="49.10445" lon="1.13431">
        <ele>133.199997</ele>
        <time>2015-12-13T09:51:48Z</time>
      </trkpt>
      <trkpt lat="49.10448" lon="1.13445">
        <ele>133.600006</ele>
        <time>2015-12-13T09:51:51Z</time>
      </trkpt>
      <trkpt lat="49.10451" lon="1.13462">
        <ele>134.300003</ele>
        <time>2015-12-13T09:51:55Z</time>
      </trkpt>
      <trkpt lat="49.10457" lon="1.13475">
        <ele>134.699997</ele>
        <time>2015-12-13T09:51:58Z</time>
      </trkpt>
      <trkpt lat="49.1046" lon="1.13491">
        <ele>135.199997</ele>
        <time>2015-12-13T09:52:01Z</time>
      </trkpt>
      <trkpt lat="49.10464" lon="1.13506">
        <ele>135.600006</ele>
        <time>2015-12-13T09:52:04Z</time>
      </trkpt>
      <trkpt lat="49.10466" lon="1.13522">
        <ele>136</ele>
        <time>2015-12-13T09:52:07Z</time>
      </trkpt>
      <trkpt lat="49.10471" lon="1.13538">
        <ele>136.300003</ele>
        <time>2015-12-13T09:52:10Z</time>
      </trkpt>
      <trkpt lat="49.10475" lon="1.13556">
        <ele>136.800003</ele>
        <time>2015-12-13T09:52:13Z</time>
      </trkpt>
      <trkpt lat="49.10478" lon="1.13573">
        <ele>137.199997</ele>
        <time>2015-12-13T09:52:16Z</time>
      </trkpt>
      <trkpt lat="49.10484" lon="1.13591">
        <ele>137.5</ele>
        <time>2015-12-13T09:52:19Z</time>
      </trkpt>
      <trkpt lat="49.10485" lon="1.1361">
        <ele>137.800003</ele>
        <time>2015-12-13T09:52:22Z</time>
      </trkpt>
      <trkpt lat="49.1048" lon="1.13623">
        <ele>138</ele>
        <time>2015-12-13T09:52:24Z</time>
      </trkpt>
      <trkpt lat="49.10474" lon="1.13636">
        <ele>138.100006</ele>
        <time>2015-12-13T09:52:26Z</time>
      </trkpt>
      <trkpt lat="49.10467" lon="1.1365">
        <ele>138.199997</ele>
        <time>2015-12-13T09:52:28Z</time>
      </trkpt>
      <trkpt lat="49.10461" lon="1.13664">
        <ele>138.300003</ele>
        <time>2015-12-13T09:52:30Z</time>
      </trkpt>
      <trkpt lat="49.10454" lon="1.13681">
        <ele>138.399994</ele>
        <time>2015-12-13T09:52:32Z</time>
      </trkpt>
      <trkpt lat="49.10448" lon="1.13698">
        <ele>138.5</ele>
        <time>2015-12-13T09:52:34Z</time>
      </trkpt>
      <trkpt lat="49.10441" lon="1.13715">
        <ele>138.600006</ele>
        <time>2015-12-13T09:52:36Z</time>
      </trkpt>
      <trkpt lat="49.10435" lon="1.13733">
        <ele>138.600006</ele>
        <time>2015-12-13T09:52:38Z</time>
      </trkpt>
      <trkpt lat="49.10428" lon="1.13752">
        <ele>138.600006</ele>
        <time>2015-12-13T09:52:40Z</time>
      </trkpt>
      <trkpt lat="49.10421" lon="1.13772">
        <ele>138.5</ele>
        <time>2015-12-13T09:52:42Z</time>
      </trkpt>
      <trkpt lat="49.10414" lon="1.13793">
        <ele>138.399994</ele>
        <time>2015-12-13T09:52:44Z</time>
      </trkpt>
      <trkpt lat="49.10406" lon="1.13815">
        <ele>138.199997</ele>
        <time>2015-12-13T09:52:46Z</time>
      </trkpt>
      <trkpt lat="49.10398" lon="1.13836">
        <ele>137.899994</ele>
        <time>2015-12-13T09:52:48Z</time>
      </trkpt>
      <trkpt lat="49.10391" lon="1.13859">
        <ele>137.600006</ele>
        <time>2015-12-13T09:52:50Z</time>
      </trkpt>
      <trkpt lat="49.10382" lon="1.1388">
        <ele>137.300003</ele>
        <time>2015-12-13T09:52:52Z</time>
      </trkpt>
      <trkpt lat="49.10372" lon="1.139">
        <ele>137</ele>
        <time>2015-12-13T09:52:54Z</time>
      </trkpt>
      <trkpt lat="49.10363" lon="1.13919">
        <ele>136.600006</ele>
        <time>2015-12-13T09:52:56Z</time>
      </trkpt>
      <trkpt lat="49.10353" lon="1.13934">
        <ele>136.300003</ele>
        <time>2015-12-13T09:52:58Z</time>
      </trkpt>
      <trkpt lat="49.10345" lon="1.13948">
        <ele>135.899994</ele>
        <time>2015-12-13T09:53:00Z</time>
      </trkpt>
      <trkpt lat="49.10338" lon="1.13959">
        <ele>135.399994</ele>
        <time>2015-12-13T09:53:02Z</time>
      </trkpt>
      <trkpt lat="49.10328" lon="1.13956">
        <ele>134.699997</ele>
        <time>2015-12-13T09:53:05Z</time>
      </trkpt>
      <trkpt lat="49.10323" lon="1.13944">
        <ele>134.199997</ele>
        <time>2015-12-13T09:53:07Z</time>
      </trkpt>
      <trkpt lat="49.10315" lon="1.13935">
        <ele>133.699997</ele>
        <time>2015-12-13T09:53:09Z</time>
      </trkpt>
      <trkpt lat="49.10304" lon="1.13929">
        <ele>133</ele>
        <time>2015-12-13T09:53:11Z</time>
      </trkpt>
      <trkpt lat="49.10294" lon="1.13916">
        <ele>132.399994</ele>
        <time>2015-12-13T09:53:13Z</time>
      </trkpt>
      <trkpt lat="49.10284" lon="1.13903">
        <ele>131.899994</ele>
        <time>2015-12-13T09:53:15Z</time>
      </trkpt>
      <trkpt lat="49.10273" lon="1.13893">
        <ele>131.5</ele>
        <time>2015-12-13T09:53:17Z</time>
      </trkpt>
      <trkpt lat="49.10262" lon="1.13879">
        <ele>131.100006</ele>
        <time>2015-12-13T09:53:19Z</time>
      </trkpt>
      <trkpt lat="49.10251" lon="1.13866">
        <ele>130.699997</ele>
        <time>2015-12-13T09:53:21Z</time>
      </trkpt>
      <trkpt lat="49.1024" lon="1.13854">
        <ele>130.300003</ele>
        <time>2015-12-13T09:53:23Z</time>
      </trkpt>
      <trkpt lat="49.1023" lon="1.13848">
        <ele>129.800003</ele>
        <time>2015-12-13T09:53:25Z</time>
      </trkpt>
      <trkpt lat="49.1022" lon="1.13838">
        <ele>129.300003</ele>
        <time>2015-12-13T09:53:27Z</time>
      </trkpt>
      <trkpt lat="49.10208" lon="1.13828">
        <ele>128.800003</ele>
        <time>2015-12-13T09:53:29Z</time>
      </trkpt>
      <trkpt lat="49.10195" lon="1.13817">
        <ele>128.199997</ele>
        <time>2015-12-13T09:53:31Z</time>
      </trkpt>
      <trkpt lat="49.10185" lon="1.13811">
        <ele>127.5</ele>
        <time>2015-12-13T09:53:33Z</time>
      </trkpt>
      <trkpt lat="49.10172" lon="1.13809">
        <ele>126.599998</ele>
        <time>2015-12-13T09:53:35Z</time>
      </trkpt>
      <trkpt lat="49.1016" lon="1.13807">
        <ele>125.5</ele>
        <time>2015-12-13T09:53:37Z</time>
      </trkpt>
      <trkpt lat="49.10149" lon="1.13802">
        <ele>124.199997</ele>
        <time>2015-12-13T09:53:39Z</time>
      </trkpt>
      <trkpt lat="49.10138" lon="1.138">
        <ele>122.699997</ele>
        <time>2015-12-13T09:53:41Z</time>
      </trkpt>
      <trkpt lat="49.10126" lon="1.13804">
        <ele>120</ele>
        <time>2015-12-13T09:53:44Z</time>
      </trkpt>
      <trkpt lat="49.10116" lon="1.13813">
        <ele>118</ele>
        <time>2015-12-13T09:53:46Z</time>
      </trkpt>
      <trkpt lat="49.10105" lon="1.13825">
        <ele>115.900002</ele>
        <time>2015-12-13T09:53:48Z</time>
      </trkpt>
      <trkpt lat="49.10091" lon="1.13833">
        <ele>113.5</ele>
        <time>2015-12-13T09:53:50Z</time>
      </trkpt>
      <trkpt lat="49.10078" lon="1.13839">
        <ele>111.099998</ele>
        <time>2015-12-13T09:53:52Z</time>
      </trkpt>
      <trkpt lat="49.10065" lon="1.13846">
        <ele>108.5</ele>
        <time>2015-12-13T09:53:54Z</time>
      </trkpt>
      <trkpt lat="49.10053" lon="1.13852">
        <ele>105.699997</ele>
        <time>2015-12-13T09:53:56Z</time>
      </trkpt>
      <trkpt lat="49.10041" lon="1.13858">
        <ele>102.800003</ele>
        <time>2015-12-13T09:53:58Z</time>
      </trkpt>
      <trkpt lat="49.10032" lon="1.13864">
        <ele>101.199997</ele>
        <time>2015-12-13T09:53:59Z</time>
      </trkpt>
      <trkpt lat="49.1002" lon="1.13875">
        <ele>98.199997</ele>
        <time>2015-12-13T09:54:01Z</time>
      </trkpt>
      <trkpt lat="49.10009" lon="1.13889">
        <ele>95</ele>
        <time>2015-12-13T09:54:03Z</time>
      </trkpt>
      <trkpt lat="49.1" lon="1.13907">
        <ele>92</ele>
        <time>2015-12-13T09:54:05Z</time>
      </trkpt>
      <trkpt lat="49.09987" lon="1.13916">
        <ele>89</ele>
        <time>2015-12-13T09:54:07Z</time>
      </trkpt>
      <trkpt lat="49.0998" lon="1.13927">
        <ele>86</ele>
        <time>2015-12-13T09:54:09Z</time>
      </trkpt>
      <trkpt lat="49.09969" lon="1.13938">
        <ele>83.199997</ele>
        <time>2015-12-13T09:54:11Z</time>
      </trkpt>
      <trkpt lat="49.09961" lon="1.13944">
        <ele>81.800003</ele>
        <time>2015-12-13T09:54:12Z</time>
      </trkpt>
      <trkpt lat="49.09951" lon="1.13959">
        <ele>79.099998</ele>
        <time>2015-12-13T09:54:14Z</time>
      </trkpt>
      <trkpt lat="49.0994" lon="1.13975">
        <ele>76.300003</ele>
        <time>2015-12-13T09:54:16Z</time>
      </trkpt>
      <trkpt lat="49.09927" lon="1.13991">
        <ele>73.400002</ele>
        <time>2015-12-13T09:54:18Z</time>
      </trkpt>
      <trkpt lat="49.09919" lon="1.13999">
        <ele>72</ele>
        <time>2015-12-13T09:54:19Z</time>
      </trkpt>
      <trkpt lat="49.09905" lon="1.14009">
        <ele>69.199997</ele>
        <time>2015-12-13T09:54:21Z</time>
      </trkpt>
      <trkpt lat="49.09891" lon="1.14017">
        <ele>66.599998</ele>
        <time>2015-12-13T09:54:23Z</time>
      </trkpt>
      <trkpt lat="49.0988" lon="1.14025">
        <ele>64.099998</ele>
        <time>2015-12-13T09:54:25Z</time>
      </trkpt>
      <trkpt lat="49.09866" lon="1.14033">
        <ele>61.799999</ele>
        <time>2015-12-13T09:54:27Z</time>
      </trkpt>
      <trkpt lat="49.09849" lon="1.1404">
        <ele>59.400002</ele>
        <time>2015-12-13T09:54:29Z</time>
      </trkpt>
      <trkpt lat="49.0984" lon="1.14048">
        <ele>58.299999</ele>
        <time>2015-12-13T09:54:30Z</time>
      </trkpt>
      <trkpt lat="49.09828" lon="1.14057">
        <ele>56.200001</ele>
        <time>2015-12-13T09:54:32Z</time>
      </trkpt>
      <trkpt lat="49.09817" lon="1.1407">
        <ele>54.299999</ele>
        <time>2015-12-13T09:54:34Z</time>
      </trkpt>
      <trkpt lat="49.09805" lon="1.14079">
        <ele>52.5</ele>
        <time>2015-12-13T09:54:36Z</time>
      </trkpt>
      <trkpt lat="49.09795" lon="1.14076">
        <ele>50.799999</ele>
        <time>2015-12-13T09:54:38Z</time>
      </trkpt>
      <trkpt lat="49.09786" lon="1.14064">
        <ele>48.599998</ele>
        <time>2015-12-13T09:54:41Z</time>
      </trkpt>
      <trkpt lat="49.09772" lon="1.14062">
        <ele>46.700001</ele>
        <time>2015-12-13T09:54:44Z</time>
      </trkpt>
      <trkpt lat="49.09758" lon="1.14059">
        <ele>45.200001</ele>
        <time>2015-12-13T09:54:47Z</time>
      </trkpt>
      <trkpt lat="49.09748" lon="1.14054">
        <ele>44.299999</ele>
        <time>2015-12-13T09:54:49Z</time>
      </trkpt>
      <trkpt lat="49.09736" lon="1.14048">
        <ele>43.5</ele>
        <time>2015-12-13T09:54:51Z</time>
      </trkpt>
      <trkpt lat="49.09727" lon="1.1404">
        <ele>42.799999</ele>
        <time>2015-12-13T09:54:53Z</time>
      </trkpt>
      <trkpt lat="49.09718" lon="1.14031">
        <ele>42.200001</ele>
        <time>2015-12-13T09:54:55Z</time>
      </trkpt>
      <trkpt lat="49.09708" lon="1.14023">
        <ele>41.700001</ele>
        <time>2015-12-13T09:54:57Z</time>
      </trkpt>
      <trkpt lat="49.09697" lon="1.14023">
        <ele>41.200001</ele>
        <time>2015-12-13T09:54:59Z</time>
      </trkpt>
      <trkpt lat="49.09686" lon="1.14028">
        <ele>40.700001</ele>
        <time>2015-12-13T09:55:01Z</time>
      </trkpt>
      <trkpt lat="49.09676" lon="1.14033">
        <ele>40.299999</ele>
        <time>2015-12-13T09:55:03Z</time>
      </trkpt>
      <trkpt lat="49.09666" lon="1.14038">
        <ele>40</ele>
        <time>2015-12-13T09:55:05Z</time>
      </trkpt>
      <trkpt lat="49.09656" lon="1.14043">
        <ele>39.700001</ele>
        <time>2015-12-13T09:55:07Z</time>
      </trkpt>
      <trkpt lat="49.09646" lon="1.14047">
        <ele>39.400002</ele>
        <time>2015-12-13T09:55:09Z</time>
      </trkpt>
      <trkpt lat="49.09637" lon="1.14051">
        <ele>39.200001</ele>
        <time>2015-12-13T09:55:11Z</time>
      </trkpt>
      <trkpt lat="49.09628" lon="1.14055">
        <ele>39</ele>
        <time>2015-12-13T09:55:13Z</time>
      </trkpt>
      <trkpt lat="49.09618" lon="1.1406">
        <ele>38.799999</ele>
        <time>2015-12-13T09:55:15Z</time>
      </trkpt>
      <trkpt lat="49.09609" lon="1.14064">
        <ele>38.700001</ele>
        <time>2015-12-13T09:55:17Z</time>
      </trkpt>
      <trkpt lat="49.09599" lon="1.14069">
        <ele>38.599998</ele>
        <time>2015-12-13T09:55:19Z</time>
      </trkpt>
      <trkpt lat="49.09588" lon="1.14074">
        <ele>38.5</ele>
        <time>2015-12-13T09:55:21Z</time>
      </trkpt>
      <trkpt lat="49.09577" lon="1.14079">
        <ele>38.5</ele>
        <time>2015-12-13T09:55:23Z</time>
      </trkpt>
      <trkpt lat="49.09566" lon="1.14084">
        <ele>38.5</ele>
        <time>2015-12-13T09:55:25Z</time>
      </trkpt>
      <trkpt lat="49.09555" lon="1.14089">
        <ele>38.400002</ele>
        <time>2015-12-13T09:55:27Z</time>
      </trkpt>
      <trkpt lat="49.09544" lon="1.14094">
        <ele>38.400002</ele>
        <time>2015-12-13T09:55:29Z</time>
      </trkpt>
      <trkpt lat="49.09532" lon="1.14099">
        <ele>38.400002</ele>
        <time>2015-12-13T09:55:31Z</time>
      </trkpt>
      <trkpt lat="49.0952" lon="1.14104">
        <ele>38.299999</ele>
        <time>2015-12-13T09:55:33Z</time>
      </trkpt>
      <trkpt lat="49.09509" lon="1.14108">
        <ele>38.299999</ele>
        <time>2015-12-13T09:55:35Z</time>
      </trkpt>
      <trkpt lat="49.09497" lon="1.14113">
        <ele>38.299999</ele>
        <time>2015-12-13T09:55:37Z</time>
      </trkpt>
      <trkpt lat="49.09485" lon="1.14117">
        <ele>38.299999</ele>
        <time>2015-12-13T09:55:39Z</time>
      </trkpt>
      <trkpt lat="49.09473" lon="1.14121">
        <ele>38.299999</ele>
        <time>2015-12-13T09:55:41Z</time>
      </trkpt>
      <trkpt lat="49.09461" lon="1.14127">
        <ele>38.400002</ele>
        <time>2015-12-13T09:55:43Z</time>
      </trkpt>
      <trkpt lat="49.09448" lon="1.14132">
        <ele>38.400002</ele>
        <time>2015-12-13T09:55:45Z</time>
      </trkpt>
      <trkpt lat="49.09436" lon="1.14137">
        <ele>38.400002</ele>
        <time>2015-12-13T09:55:47Z</time>
      </trkpt>
      <trkpt lat="49.09425" lon="1.14142">
        <ele>38.400002</ele>
        <time>2015-12-13T09:55:49Z</time>
      </trkpt>
      <trkpt lat="49.09414" lon="1.14147">
        <ele>38.5</ele>
        <time>2015-12-13T09:55:51Z</time>
      </trkpt>
      <trkpt lat="49.09402" lon="1.14152">
        <ele>38.599998</ele>
        <time>2015-12-13T09:55:53Z</time>
      </trkpt>
      <trkpt lat="49.09391" lon="1.14157">
        <ele>38.599998</ele>
        <time>2015-12-13T09:55:55Z</time>
      </trkpt>
      <trkpt lat="49.0938" lon="1.14161">
        <ele>38.700001</ele>
        <time>2015-12-13T09:55:57Z</time>
      </trkpt>
      <trkpt lat="49.09369" lon="1.14166">
        <ele>38.799999</ele>
        <time>2015-12-13T09:55:59Z</time>
      </trkpt>
      <trkpt lat="49.09358" lon="1.1417">
        <ele>39</ele>
        <time>2015-12-13T09:56:01Z</time>
      </trkpt>
      <trkpt lat="49.09348" lon="1.14175">
        <ele>39.299999</ele>
        <time>2015-12-13T09:56:03Z</time>
      </trkpt>
      <trkpt lat="49.09337" lon="1.14179">
        <ele>39.5</ele>
        <time>2015-12-13T09:56:05Z</time>
      </trkpt>
      <trkpt lat="49.09327" lon="1.14182">
        <ele>39.799999</ele>
        <time>2015-12-13T09:56:07Z</time>
      </trkpt>
      <trkpt lat="49.09318" lon="1.14185">
        <ele>40.200001</ele>
        <time>2015-12-13T09:56:09Z</time>
      </trkpt>
      <trkpt lat="49.09308" lon="1.14189">
        <ele>40.5</ele>
        <time>2015-12-13T09:56:11Z</time>
      </trkpt>
      <trkpt lat="49.09298" lon="1.14193">
        <ele>40.799999</ele>
        <time>2015-12-13T09:56:13Z</time>
      </trkpt>
      <trkpt lat="49.09288" lon="1.14197">
        <ele>41</ele>
        <time>2015-12-13T09:56:15Z</time>
      </trkpt>
      <trkpt lat="49.09278" lon="1.142">
        <ele>41.400002</ele>
        <time>2015-12-13T09:56:17Z</time>
      </trkpt>
      <trkpt lat="49.09268" lon="1.14204">
        <ele>41.700001</ele>
        <time>2015-12-13T09:56:19Z</time>
      </trkpt>
      <trkpt lat="49.09258" lon="1.14207">
        <ele>42</ele>
        <time>2015-12-13T09:56:21Z</time>
      </trkpt>
      <trkpt lat="49.09248" lon="1.14209">
        <ele>42.299999</ele>
        <time>2015-12-13T09:56:23Z</time>
      </trkpt>
      <trkpt lat="49.09238" lon="1.14212">
        <ele>42.599998</ele>
        <time>2015-12-13T09:56:25Z</time>
      </trkpt>
      <trkpt lat="49.09228" lon="1.14213">
        <ele>42.900002</ele>
        <time>2015-12-13T09:56:27Z</time>
      </trkpt>
      <trkpt lat="49.09218" lon="1.14215">
        <ele>43.200001</ele>
        <time>2015-12-13T09:56:29Z</time>
      </trkpt>
      <trkpt lat="49.09208" lon="1.14216">
        <ele>43.5</ele>
        <time>2015-12-13T09:56:31Z</time>
      </trkpt>
      <trkpt lat="49.09198" lon="1.14217">
        <ele>43.900002</ele>
        <time>2015-12-13T09:56:33Z</time>
      </trkpt>
      <trkpt lat="49.09189" lon="1.14217">
        <ele>44.200001</ele>
        <time>2015-12-13T09:56:35Z</time>
      </trkpt>
      <trkpt lat="49.0918" lon="1.14215">
        <ele>44.5</ele>
        <time>2015-12-13T09:56:37Z</time>
      </trkpt>
      <trkpt lat="49.0917" lon="1.1421">
        <ele>44.700001</ele>
        <time>2015-12-13T09:56:39Z</time>
      </trkpt>
      <trkpt lat="49.0916" lon="1.14207">
        <ele>45</ele>
        <time>2015-12-13T09:56:41Z</time>
      </trkpt>
      <trkpt lat="49.09152" lon="1.14215">
        <ele>45.200001</ele>
        <time>2015-12-13T09:56:43Z</time>
      </trkpt>
      <trkpt lat="49.09148" lon="1.14232">
        <ele>45.400002</ele>
        <time>2015-12-13T09:56:46Z</time>
      </trkpt>
      <trkpt lat="49.09146" lon="1.14246">
        <ele>45.599998</ele>
        <time>2015-12-13T09:56:49Z</time>
      </trkpt>
      <trkpt lat="49.09143" lon="1.14263">
        <ele>46.099998</ele>
        <time>2015-12-13T09:56:53Z</time>
      </trkpt>
      <trkpt lat="49.0914" lon="1.14279">
        <ele>46.900002</ele>
        <time>2015-12-13T09:56:57Z</time>
      </trkpt>
      <trkpt lat="49.09139" lon="1.14294">
        <ele>47.599998</ele>
        <time>2015-12-13T09:57:01Z</time>
      </trkpt>
      <trkpt lat="49.09139" lon="1.14308">
        <ele>48.400002</ele>
        <time>2015-12-13T09:57:05Z</time>
      </trkpt>
      <trkpt lat="49.09141" lon="1.14322">
        <ele>49.200001</ele>
        <time>2015-12-13T09:57:09Z</time>
      </trkpt>
      <trkpt lat="49.09142" lon="1.14336">
        <ele>50.200001</ele>
        <time>2015-12-13T09:57:13Z</time>
      </trkpt>
      <trkpt lat="49.09144" lon="1.14351">
        <ele>51.400002</ele>
        <time>2015-12-13T09:57:18Z</time>
      </trkpt>
      <trkpt lat="49.09146" lon="1.14365">
        <ele>52.799999</ele>
        <time>2015-12-13T09:57:23Z</time>
      </trkpt>
      <trkpt lat="49.09149" lon="1.14379">
        <ele>54.200001</ele>
        <time>2015-12-13T09:57:28Z</time>
      </trkpt>
      <trkpt lat="49.09151" lon="1.14392">
        <ele>55.599998</ele>
        <time>2015-12-13T09:57:33Z</time>
      </trkpt>
      <trkpt lat="49.09155" lon="1.14407">
        <ele>57.299999</ele>
        <time>2015-12-13T09:57:39Z</time>
      </trkpt>
      <trkpt lat="49.0916" lon="1.14421">
        <ele>58.900002</ele>
        <time>2015-12-13T09:57:45Z</time>
      </trkpt>
      <trkpt lat="49.09166" lon="1.14432">
        <ele>60.299999</ele>
        <time>2015-12-13T09:57:51Z</time>
      </trkpt>
      <trkpt lat="49.09171" lon="1.14444">
        <ele>61.900002</ele>
        <time>2015-12-13T09:57:57Z</time>
      </trkpt>
      <trkpt lat="49.09176" lon="1.14457">
        <ele>63.5</ele>
        <time>2015-12-13T09:58:03Z</time>
      </trkpt>
      <trkpt lat="49.09177" lon="1.14472">
        <ele>65.199997</ele>
        <time>2015-12-13T09:58:10Z</time>
      </trkpt>
      <trkpt lat="49.09172" lon="1.14486">
        <ele>67.099998</ele>
        <time>2015-12-13T09:58:17Z</time>
      </trkpt>
      <trkpt lat="49.09167" lon="1.14498">
        <ele>68.699997</ele>
        <time>2015-12-13T09:58:23Z</time>
      </trkpt>
      <trkpt lat="49.09165" lon="1.14514">
        <ele>70.400002</ele>
        <time>2015-12-13T09:58:30Z</time>
      </trkpt>
      <trkpt lat="49.09168" lon="1.14528">
        <ele>71.699997</ele>
        <time>2015-12-13T09:58:36Z</time>
      </trkpt>
      <trkpt lat="49.09172" lon="1.14541">
        <ele>73.099998</ele>
        <time>2015-12-13T09:58:42Z</time>
      </trkpt>
      <trkpt lat="49.09174" lon="1.14556">
        <ele>74.599998</ele>
        <time>2015-12-13T09:58:49Z</time>
      </trkpt>
      <trkpt lat="49.09171" lon="1.1457">
        <ele>76.300003</ele>
        <time>2015-12-13T09:58:56Z</time>
      </trkpt>
      <trkpt lat="49.09165" lon="1.1458">
        <ele>77.599998</ele>
        <time>2015-12-13T09:59:02Z</time>
      </trkpt>
      <trkpt lat="49.09159" lon="1.14591">
        <ele>78.900002</ele>
        <time>2015-12-13T09:59:08Z</time>
      </trkpt>
      <trkpt lat="49.09153" lon="1.14605">
        <ele>80.300003</ele>
        <time>2015-12-13T09:59:14Z</time>
      </trkpt>
      <trkpt lat="49.09149" lon="1.14619">
        <ele>81.699997</ele>
        <time>2015-12-13T09:59:20Z</time>
      </trkpt>
      <trkpt lat="49.09146" lon="1.14633">
        <ele>83.099998</ele>
        <time>2015-12-13T09:59:26Z</time>
      </trkpt>
      <trkpt lat="49.09143" lon="1.14647">
        <ele>84.599998</ele>
        <time>2015-12-13T09:59:32Z</time>
      </trkpt>
      <trkpt lat="49.0914" lon="1.14662">
        <ele>86.199997</ele>
        <time>2015-12-13T09:59:39Z</time>
      </trkpt>
      <trkpt lat="49.0914" lon="1.14676">
        <ele>87.800003</ele>
        <time>2015-12-13T09:59:46Z</time>
      </trkpt>
      <trkpt lat="49.0915" lon="1.14676">
        <ele>89.199997</ele>
        <time>2015-12-13T09:59:52Z</time>
      </trkpt>
      <trkpt lat="49.09159" lon="1.14672">
        <ele>90.300003</ele>
        <time>2015-12-13T09:59:57Z</time>
      </trkpt>
      <trkpt lat="49.09169" lon="1.1467">
        <ele>91.5</ele>
        <time>2015-12-13T10:00:02Z</time>
      </trkpt>
      <trkpt lat="49.09178" lon="1.14669">
        <ele>92.5</ele>
        <time>2015-12-13T10:00:07Z</time>
      </trkpt>
      <trkpt lat="49.09189" lon="1.14669">
        <ele>93.599998</ele>
        <time>2015-12-13T10:00:12Z</time>
      </trkpt>
      <trkpt lat="49.09199" lon="1.14672">
        <ele>94.599998</ele>
        <time>2015-12-13T10:00:17Z</time>
      </trkpt>
      <trkpt lat="49.0921" lon="1.14678">
        <ele>95.599998</ele>
        <time>2015-12-13T10:00:22Z</time>
      </trkpt>
      <trkpt lat="49.09217" lon="1.14685">
        <ele>96.300003</ele>
        <time>2015-12-13T10:00:26Z</time>
      </trkpt>
      <trkpt lat="49.09227" lon="1.14693">
        <ele>97.099998</ele>
        <time>2015-12-13T10:00:31Z</time>
      </trkpt>
      <trkpt lat="49.09236" lon="1.14702">
        <ele>98.099998</ele>
        <time>2015-12-13T10:00:36Z</time>
      </trkpt>
      <trkpt lat="49.09244" lon="1.14711">
        <ele>99.099998</ele>
        <time>2015-12-13T10:00:41Z</time>
      </trkpt>
      <trkpt lat="49.09251" lon="1.14722">
        <ele>100.300003</ele>
        <time>2015-12-13T10:00:46Z</time>
      </trkpt>
      <trkpt lat="49.09257" lon="1.14734">
        <ele>101.300003</ele>
        <time>2015-12-13T10:00:51Z</time>
      </trkpt>
      <trkpt lat="49.09264" lon="1.14745">
        <ele>102.400002</ele>
        <time>2015-12-13T10:00:56Z</time>
      </trkpt>
      <trkpt lat="49.09271" lon="1.14756">
        <ele>103.5</ele>
        <time>2015-12-13T10:01:01Z</time>
      </trkpt>
      <trkpt lat="49.09279" lon="1.14766">
        <ele>104.599998</ele>
        <time>2015-12-13T10:01:06Z</time>
      </trkpt>
      <trkpt lat="49.09287" lon="1.14776">
        <ele>105.699997</ele>
        <time>2015-12-13T10:01:11Z</time>
      </trkpt>
      <trkpt lat="49.09296" lon="1.14784">
        <ele>107</ele>
        <time>2015-12-13T10:01:16Z</time>
      </trkpt>
      <trkpt lat="49.09302" lon="1.14794">
        <ele>108.099998</ele>
        <time>2015-12-13T10:01:21Z</time>
      </trkpt>
      <trkpt lat="49.09308" lon="1.14806">
        <ele>109.400002</ele>
        <time>2015-12-13T10:01:26Z</time>
      </trkpt>
      <trkpt lat="49.09314" lon="1.14819">
        <ele>110.599998</ele>
        <time>2015-12-13T10:01:31Z</time>
      </trkpt>
      <trkpt lat="49.09319" lon="1.14831">
        <ele>111.900002</ele>
        <time>2015-12-13T10:01:36Z</time>
      </trkpt>
      <trkpt lat="49.09324" lon="1.14843">
        <ele>112.800003</ele>
        <time>2015-12-13T10:01:40Z</time>
      </trkpt>
      <trkpt lat="49.0933" lon="1.14854">
        <ele>113.699997</ele>
        <time>2015-12-13T10:01:44Z</time>
      </trkpt>
      <trkpt lat="49.09337" lon="1.14865">
        <ele>114.900002</ele>
        <time>2015-12-13T10:01:49Z</time>
      </trkpt>
      <trkpt lat="49.09345" lon="1.14876">
        <ele>115.800003</ele>
        <time>2015-12-13T10:01:54Z</time>
      </trkpt>
      <trkpt lat="49.09352" lon="1.14886">
        <ele>116.800003</ele>
        <time>2015-12-13T10:01:59Z</time>
      </trkpt>
      <trkpt lat="49.09359" lon="1.14895">
        <ele>118</ele>
        <time>2015-12-13T10:02:05Z</time>
      </trkpt>
      <trkpt lat="49.09369" lon="1.14899">
        <ele>119.400002</ele>
        <time>2015-12-13T10:02:11Z</time>
      </trkpt>
      <trkpt lat="49.09378" lon="1.14902">
        <ele>120.900002</ele>
        <time>2015-12-13T10:02:17Z</time>
      </trkpt>
      <trkpt lat="49.09388" lon="1.14907">
        <ele>122.099998</ele>
        <time>2015-12-13T10:02:22Z</time>
      </trkpt>
      <trkpt lat="49.09398" lon="1.1491">
        <ele>123.300003</ele>
        <time>2015-12-13T10:02:27Z</time>
      </trkpt>
      <trkpt lat="49.09409" lon="1.14909">
        <ele>124.599998</ele>
        <time>2015-12-13T10:02:33Z</time>
      </trkpt>
      <trkpt lat="49.09419" lon="1.14909">
        <ele>125.400002</ele>
        <time>2015-12-13T10:02:37Z</time>
      </trkpt>
      <trkpt lat="49.09429" lon="1.14909">
        <ele>126.300003</ele>
        <time>2015-12-13T10:02:41Z</time>
      </trkpt>
      <trkpt lat="49.09439" lon="1.1491">
        <ele>127.099998</ele>
        <time>2015-12-13T10:02:45Z</time>
      </trkpt>
      <trkpt lat="49.09448" lon="1.14909">
        <ele>128.199997</ele>
        <time>2015-12-13T10:02:50Z</time>
      </trkpt>
      <trkpt lat="49.09459" lon="1.14912">
        <ele>129.300003</ele>
        <time>2015-12-13T10:02:55Z</time>
      </trkpt>
      <trkpt lat="49.09469" lon="1.14915">
        <ele>129.800003</ele>
        <time>2015-12-13T10:02:58Z</time>
      </trkpt>
      <trkpt lat="49.0948" lon="1.14914">
        <ele>130.600006</ele>
        <time>2015-12-13T10:03:02Z</time>
      </trkpt>
      <trkpt lat="49.0949" lon="1.14913">
        <ele>131.399994</ele>
        <time>2015-12-13T10:03:07Z</time>
      </trkpt>
      <trkpt lat="49.095" lon="1.14913">
        <ele>132</ele>
        <time>2015-12-13T10:03:11Z</time>
      </trkpt>
      <trkpt lat="49.09512" lon="1.14912">
        <ele>132.5</ele>
        <time>2015-12-13T10:03:15Z</time>
      </trkpt>
      <trkpt lat="49.09522" lon="1.14911">
        <ele>133</ele>
        <time>2015-12-13T10:03:18Z</time>
      </trkpt>
      <trkpt lat="49.0953" lon="1.14916">
        <ele>133.5</ele>
        <time>2015-12-13T10:03:23Z</time>
      </trkpt>
      <trkpt lat="49.09525" lon="1.14931">
        <ele>134.100006</ele>
        <time>2015-12-13T10:03:29Z</time>
      </trkpt>
      <trkpt lat="49.09518" lon="1.14944">
        <ele>134.399994</ele>
        <time>2015-12-13T10:03:34Z</time>
      </trkpt>
      <trkpt lat="49.0951" lon="1.14956">
        <ele>134.600006</ele>
        <time>2015-12-13T10:03:38Z</time>
      </trkpt>
      <trkpt lat="49.09502" lon="1.14967">
        <ele>134.800003</ele>
        <time>2015-12-13T10:03:41Z</time>
      </trkpt>
      <trkpt lat="49.09493" lon="1.14976">
        <ele>134.899994</ele>
        <time>2015-12-13T10:03:44Z</time>
      </trkpt>
      <trkpt lat="49.09486" lon="1.14988">
        <ele>135</ele>
        <time>2015-12-13T10:03:47Z</time>
      </trkpt>
      <trkpt lat="49.09477" lon="1.15001">
        <ele>134.899994</ele>
        <time>2015-12-13T10:03:50Z</time>
      </trkpt>
      <trkpt lat="49.09471" lon="1.15018">
        <ele>134.800003</ele>
        <time>2015-12-13T10:03:53Z</time>
      </trkpt>
      <trkpt lat="49.09464" lon="1.15028">
        <ele>134.699997</ele>
        <time>2015-12-13T10:03:56Z</time>
      </trkpt>
      <trkpt lat="49.0946" lon="1.1504">
        <ele>134.399994</ele>
        <time>2015-12-13T10:04:01Z</time>
      </trkpt>
      <trkpt lat="49.09459" lon="1.15054">
        <ele>133.199997</ele>
        <time>2015-12-13T10:04:26Z</time>
      </trkpt>
      <trkpt lat="49.09465" lon="1.15065">
        <ele>132.800003</ele>
        <time>2015-12-13T10:04:56Z</time>
      </trkpt>
      <trkpt lat="49.09464" lon="1.15081">
        <ele>132.800003</ele>
        <time>2015-12-13T10:05:25Z</time>
      </trkpt>
      <trkpt lat="49.09459" lon="1.15098">
        <ele>132.800003</ele>
        <time>2015-12-13T10:05:29Z</time>
      </trkpt>
      <trkpt lat="49.09455" lon="1.15112">
        <ele>132.800003</ele>
        <time>2015-12-13T10:05:32Z</time>
      </trkpt>
      <trkpt lat="49.09452" lon="1.15127">
        <ele>132.800003</ele>
        <time>2015-12-13T10:05:35Z</time>
      </trkpt>
      <trkpt lat="49.0945" lon="1.15142">
        <ele>132.800003</ele>
        <time>2015-12-13T10:05:38Z</time>
      </trkpt>
      <trkpt lat="49.09448" lon="1.15159">
        <ele>132.899994</ele>
        <time>2015-12-13T10:05:41Z</time>
      </trkpt>
      <trkpt lat="49.09446" lon="1.15175">
        <ele>133.100006</ele>
        <time>2015-12-13T10:05:44Z</time>
      </trkpt>
      <trkpt lat="49.09443" lon="1.15193">
        <ele>133.300003</ele>
        <time>2015-12-13T10:05:47Z</time>
      </trkpt>
      <trkpt lat="49.09442" lon="1.1521">
        <ele>133.5</ele>
        <time>2015-12-13T10:05:50Z</time>
      </trkpt>
      <trkpt lat="49.09441" lon="1.15224">
        <ele>133.600006</ele>
        <time>2015-12-13T10:05:53Z</time>
      </trkpt>
      <trkpt lat="49.09439" lon="1.15242">
        <ele>133.800003</ele>
        <time>2015-12-13T10:05:56Z</time>
      </trkpt>
      <trkpt lat="49.09434" lon="1.15259">
        <ele>133.899994</ele>
        <time>2015-12-13T10:05:59Z</time>
      </trkpt>
      <trkpt lat="49.09431" lon="1.15275">
        <ele>134</ele>
        <time>2015-12-13T10:06:02Z</time>
      </trkpt>
      <trkpt lat="49.09428" lon="1.15289">
        <ele>134.100006</ele>
        <time>2015-12-13T10:06:05Z</time>
      </trkpt>
      <trkpt lat="49.0942" lon="1.15299">
        <ele>134.300003</ele>
        <time>2015-12-13T10:06:09Z</time>
      </trkpt>
      <trkpt lat="49.09409" lon="1.15309">
        <ele>134.399994</ele>
        <time>2015-12-13T10:06:13Z</time>
      </trkpt>
      <trkpt lat="49.09401" lon="1.15316">
        <ele>134.5</ele>
        <time>2015-12-13T10:06:16Z</time>
      </trkpt>
      <trkpt lat="49.0939" lon="1.15327">
        <ele>134.699997</ele>
        <time>2015-12-13T10:06:19Z</time>
      </trkpt>
      <trkpt lat="49.09381" lon="1.15338">
        <ele>134.699997</ele>
        <time>2015-12-13T10:06:21Z</time>
      </trkpt>
      <trkpt lat="49.09372" lon="1.15348">
        <ele>134.800003</ele>
        <time>2015-12-13T10:06:23Z</time>
      </trkpt>
      <trkpt lat="49.09361" lon="1.15357">
        <ele>134.800003</ele>
        <time>2015-12-13T10:06:25Z</time>
      </trkpt>
      <trkpt lat="49.0935" lon="1.15367">
        <ele>134.800003</ele>
        <time>2015-12-13T10:06:27Z</time>
      </trkpt>
      <trkpt lat="49.09338" lon="1.15377">
        <ele>134.699997</ele>
        <time>2015-12-13T10:06:29Z</time>
      </trkpt>
      <trkpt lat="49.09328" lon="1.15389">
        <ele>134.600006</ele>
        <time>2015-12-13T10:06:31Z</time>
      </trkpt>
      <trkpt lat="49.0932" lon="1.15404">
        <ele>134.399994</ele>
        <time>2015-12-13T10:06:33Z</time>
      </trkpt>
      <trkpt lat="49.09313" lon="1.15417">
        <ele>134.199997</ele>
        <time>2015-12-13T10:06:35Z</time>
      </trkpt>
      <trkpt lat="49.09308" lon="1.15429">
        <ele>134.100006</ele>
        <time>2015-12-13T10:06:37Z</time>
      </trkpt>
      <trkpt lat="49.09303" lon="1.15442">
        <ele>133.800003</ele>
        <time>2015-12-13T10:06:39Z</time>
      </trkpt>
      <trkpt lat="49.09298" lon="1.15455">
        <ele>133.5</ele>
        <time>2015-12-13T10:06:41Z</time>
      </trkpt>
      <trkpt lat="49.09293" lon="1.1547">
        <ele>133.300003</ele>
        <time>2015-12-13T10:06:43Z</time>
      </trkpt>
      <trkpt lat="49.09284" lon="1.15485">
        <ele>133.100006</ele>
        <time>2015-12-13T10:06:45Z</time>
      </trkpt>
      <trkpt lat="49.09277" lon="1.15498">
        <ele>132.899994</ele>
        <time>2015-12-13T10:06:47Z</time>
      </trkpt>
      <trkpt lat="49.09271" lon="1.15511">
        <ele>132.699997</ele>
        <time>2015-12-13T10:06:49Z</time>
      </trkpt>
      <trkpt lat="49.09265" lon="1.15522">
        <ele>132.600006</ele>
        <time>2015-12-13T10:06:51Z</time>
      </trkpt>
      <trkpt lat="49.09259" lon="1.15532">
        <ele>132.5</ele>
        <time>2015-12-13T10:06:53Z</time>
      </trkpt>
      <trkpt lat="49.09251" lon="1.15545">
        <ele>132.5</ele>
        <time>2015-12-13T10:06:55Z</time>
      </trkpt>
      <trkpt lat="49.09244" lon="1.15556">
        <ele>132.399994</ele>
        <time>2015-12-13T10:06:57Z</time>
      </trkpt>
      <trkpt lat="49.09237" lon="1.15568">
        <ele>132.5</ele>
        <time>2015-12-13T10:06:59Z</time>
      </trkpt>
      <trkpt lat="49.0923" lon="1.15578">
        <ele>132.5</ele>
        <time>2015-12-13T10:07:01Z</time>
      </trkpt>
      <trkpt lat="49.09223" lon="1.1559">
        <ele>132.600006</ele>
        <time>2015-12-13T10:07:03Z</time>
      </trkpt>
      <trkpt lat="49.09217" lon="1.15601">
        <ele>132.600006</ele>
        <time>2015-12-13T10:07:05Z</time>
      </trkpt>
      <trkpt lat="49.0921" lon="1.15612">
        <ele>132.699997</ele>
        <time>2015-12-13T10:07:07Z</time>
      </trkpt>
      <trkpt lat="49.09204" lon="1.15624">
        <ele>132.800003</ele>
        <time>2015-12-13T10:07:09Z</time>
      </trkpt>
      <trkpt lat="49.09198" lon="1.15638">
        <ele>132.800003</ele>
        <time>2015-12-13T10:07:11Z</time>
      </trkpt>
      <trkpt lat="49.09192" lon="1.15649">
        <ele>133</ele>
        <time>2015-12-13T10:07:13Z</time>
      </trkpt>
      <trkpt lat="49.09185" lon="1.1566">
        <ele>133.199997</ele>
        <time>2015-12-13T10:07:15Z</time>
      </trkpt>
      <trkpt lat="49.09179" lon="1.15672">
        <ele>133.300003</ele>
        <time>2015-12-13T10:07:17Z</time>
      </trkpt>
      <trkpt lat="49.09173" lon="1.15687">
        <ele>133.5</ele>
        <time>2015-12-13T10:07:19Z</time>
      </trkpt>
      <trkpt lat="49.09166" lon="1.157">
        <ele>133.600006</ele>
        <time>2015-12-13T10:07:21Z</time>
      </trkpt>
      <trkpt lat="49.0916" lon="1.15712">
        <ele>133.800003</ele>
        <time>2015-12-13T10:07:23Z</time>
      </trkpt>
      <trkpt lat="49.09153" lon="1.15725">
        <ele>133.899994</ele>
        <time>2015-12-13T10:07:25Z</time>
      </trkpt>
      <trkpt lat="49.09144" lon="1.15739">
        <ele>134.100006</ele>
        <time>2015-12-13T10:07:28Z</time>
      </trkpt>
      <trkpt lat="49.09137" lon="1.15753">
        <ele>134.199997</ele>
        <time>2015-12-13T10:07:30Z</time>
      </trkpt>
      <trkpt lat="49.0913" lon="1.15767">
        <ele>134.300003</ele>
        <time>2015-12-13T10:07:32Z</time>
      </trkpt>
      <trkpt lat="49.09123" lon="1.1578">
        <ele>134.399994</ele>
        <time>2015-12-13T10:07:34Z</time>
      </trkpt>
      <trkpt lat="49.09117" lon="1.15794">
        <ele>134.5</ele>
        <time>2015-12-13T10:07:36Z</time>
      </trkpt>
      <trkpt lat="49.09109" lon="1.15808">
        <ele>134.600006</ele>
        <time>2015-12-13T10:07:38Z</time>
      </trkpt>
      <trkpt lat="49.09101" lon="1.15824">
        <ele>134.600006</ele>
        <time>2015-12-13T10:07:40Z</time>
      </trkpt>
      <trkpt lat="49.09094" lon="1.1584">
        <ele>134.699997</ele>
        <time>2015-12-13T10:07:42Z</time>
      </trkpt>
      <trkpt lat="49.09086" lon="1.15854">
        <ele>134.699997</ele>
        <time>2015-12-13T10:07:44Z</time>
      </trkpt>
      <trkpt lat="49.09079" lon="1.15868">
        <ele>134.800003</ele>
        <time>2015-12-13T10:07:46Z</time>
      </trkpt>
      <trkpt lat="49.09071" lon="1.15882">
        <ele>134.800003</ele>
        <time>2015-12-13T10:07:48Z</time>
      </trkpt>
      <trkpt lat="49.09065" lon="1.15896">
        <ele>134.899994</ele>
        <time>2015-12-13T10:07:50Z</time>
      </trkpt>
      <trkpt lat="49.09058" lon="1.15908">
        <ele>134.899994</ele>
        <time>2015-12-13T10:07:52Z</time>
      </trkpt>
      <trkpt lat="49.09052" lon="1.1592">
        <ele>135</ele>
        <time>2015-12-13T10:07:54Z</time>
      </trkpt>
      <trkpt lat="49.09044" lon="1.15934">
        <ele>135</ele>
        <time>2015-12-13T10:07:56Z</time>
      </trkpt>
      <trkpt lat="49.09037" lon="1.15947">
        <ele>135.100006</ele>
        <time>2015-12-13T10:07:58Z</time>
      </trkpt>
      <trkpt lat="49.09032" lon="1.1596">
        <ele>135.100006</ele>
        <time>2015-12-13T10:08:00Z</time>
      </trkpt>
      <trkpt lat="49.09026" lon="1.15971">
        <ele>135.199997</ele>
        <time>2015-12-13T10:08:02Z</time>
      </trkpt>
      <trkpt lat="49.09018" lon="1.15987">
        <ele>135.300003</ele>
        <time>2015-12-13T10:08:05Z</time>
      </trkpt>
      <trkpt lat="49.09012" lon="1.15999">
        <ele>135.399994</ele>
        <time>2015-12-13T10:08:07Z</time>
      </trkpt>
      <trkpt lat="49.09006" lon="1.16011">
        <ele>135.5</ele>
        <time>2015-12-13T10:08:09Z</time>
      </trkpt>
      <trkpt lat="49.08999" lon="1.16023">
        <ele>135.600006</ele>
        <time>2015-12-13T10:08:11Z</time>
      </trkpt>
      <trkpt lat="49.08992" lon="1.16035">
        <ele>135.699997</ele>
        <time>2015-12-13T10:08:13Z</time>
      </trkpt>
      <trkpt lat="49.08987" lon="1.16046">
        <ele>135.800003</ele>
        <time>2015-12-13T10:08:15Z</time>
      </trkpt>
      <trkpt lat="49.08981" lon="1.16058">
        <ele>136</ele>
        <time>2015-12-13T10:08:17Z</time>
      </trkpt>
      <trkpt lat="49.08974" lon="1.16071">
        <ele>136.100006</ele>
        <time>2015-12-13T10:08:19Z</time>
      </trkpt>
      <trkpt lat="49.08968" lon="1.16084">
        <ele>136.399994</ele>
        <time>2015-12-13T10:08:21Z</time>
      </trkpt>
      <trkpt lat="49.08962" lon="1.16094">
        <ele>136.600006</ele>
        <time>2015-12-13T10:08:23Z</time>
      </trkpt>
      <trkpt lat="49.08953" lon="1.16109">
        <ele>136.899994</ele>
        <time>2015-12-13T10:08:26Z</time>
      </trkpt>
      <trkpt lat="49.08947" lon="1.1612">
        <ele>137.100006</ele>
        <time>2015-12-13T10:08:28Z</time>
      </trkpt>
      <trkpt lat="49.08942" lon="1.16131">
        <ele>137.300003</ele>
        <time>2015-12-13T10:08:30Z</time>
      </trkpt>
      <trkpt lat="49.08936" lon="1.16143">
        <ele>137.5</ele>
        <time>2015-12-13T10:08:32Z</time>
      </trkpt>
      <trkpt lat="49.0893" lon="1.16154">
        <ele>137.600006</ele>
        <time>2015-12-13T10:08:34Z</time>
      </trkpt>
      <trkpt lat="49.08923" lon="1.16164">
        <ele>137.800003</ele>
        <time>2015-12-13T10:08:36Z</time>
      </trkpt>
      <trkpt lat="49.08917" lon="1.1618">
        <ele>137.899994</ele>
        <time>2015-12-13T10:08:38Z</time>
      </trkpt>
      <trkpt lat="49.0891" lon="1.16195">
        <ele>138.100006</ele>
        <time>2015-12-13T10:08:40Z</time>
      </trkpt>
      <trkpt lat="49.08904" lon="1.16206">
        <ele>138.199997</ele>
        <time>2015-12-13T10:08:42Z</time>
      </trkpt>
      <trkpt lat="49.08898" lon="1.16219">
        <ele>138.300003</ele>
        <time>2015-12-13T10:08:44Z</time>
      </trkpt>
      <trkpt lat="49.08892" lon="1.16232">
        <ele>138.399994</ele>
        <time>2015-12-13T10:08:46Z</time>
      </trkpt>
      <trkpt lat="49.08886" lon="1.16246">
        <ele>138.5</ele>
        <time>2015-12-13T10:08:48Z</time>
      </trkpt>
      <trkpt lat="49.0888" lon="1.16258">
        <ele>138.5</ele>
        <time>2015-12-13T10:08:50Z</time>
      </trkpt>
      <trkpt lat="49.08874" lon="1.16273">
        <ele>138.600006</ele>
        <time>2015-12-13T10:08:52Z</time>
      </trkpt>
      <trkpt lat="49.08868" lon="1.16284">
        <ele>138.699997</ele>
        <time>2015-12-13T10:08:54Z</time>
      </trkpt>
      <trkpt lat="49.08863" lon="1.16297">
        <ele>138.800003</ele>
        <time>2015-12-13T10:08:56Z</time>
      </trkpt>
      <trkpt lat="49.08856" lon="1.1631">
        <ele>138.899994</ele>
        <time>2015-12-13T10:08:58Z</time>
      </trkpt>
      <trkpt lat="49.08849" lon="1.16323">
        <ele>138.899994</ele>
        <time>2015-12-13T10:09:00Z</time>
      </trkpt>
      <trkpt lat="49.08842" lon="1.16336">
        <ele>139</ele>
        <time>2015-12-13T10:09:02Z</time>
      </trkpt>
      <trkpt lat="49.08834" lon="1.16348">
        <ele>139</ele>
        <time>2015-12-13T10:09:04Z</time>
      </trkpt>
      <trkpt lat="49.08826" lon="1.16362">
        <ele>139.100006</ele>
        <time>2015-12-13T10:09:06Z</time>
      </trkpt>
      <trkpt lat="49.08819" lon="1.16373">
        <ele>139.100006</ele>
        <time>2015-12-13T10:09:08Z</time>
      </trkpt>
      <trkpt lat="49.0881" lon="1.16384">
        <ele>139</ele>
        <time>2015-12-13T10:09:10Z</time>
      </trkpt>
      <trkpt lat="49.08802" lon="1.164">
        <ele>139</ele>
        <time>2015-12-13T10:09:12Z</time>
      </trkpt>
      <trkpt lat="49.08795" lon="1.16415">
        <ele>138.899994</ele>
        <time>2015-12-13T10:09:14Z</time>
      </trkpt>
      <trkpt lat="49.08787" lon="1.16431">
        <ele>138.699997</ele>
        <time>2015-12-13T10:09:16Z</time>
      </trkpt>
      <trkpt lat="49.0878" lon="1.16443">
        <ele>138.399994</ele>
        <time>2015-12-13T10:09:18Z</time>
      </trkpt>
      <trkpt lat="49.08773" lon="1.16455">
        <ele>138.100006</ele>
        <time>2015-12-13T10:09:20Z</time>
      </trkpt>
      <trkpt lat="49.08764" lon="1.16475">
        <ele>137.899994</ele>
        <time>2015-12-13T10:09:22Z</time>
      </trkpt>
      <trkpt lat="49.08757" lon="1.16489">
        <ele>137.600006</ele>
        <time>2015-12-13T10:09:24Z</time>
      </trkpt>
      <trkpt lat="49.08751" lon="1.16502">
        <ele>137.399994</ele>
        <time>2015-12-13T10:09:26Z</time>
      </trkpt>
      <trkpt lat="49.0875" lon="1.16517">
        <ele>137.199997</ele>
        <time>2015-12-13T10:09:28Z</time>
      </trkpt>
      <trkpt lat="49.08754" lon="1.16537">
        <ele>137</ele>
        <time>2015-12-13T10:09:30Z</time>
      </trkpt>
      <trkpt lat="49.08758" lon="1.16557">
        <ele>136.800003</ele>
        <time>2015-12-13T10:09:32Z</time>
      </trkpt>
      <trkpt lat="49.08762" lon="1.16577">
        <ele>136.600006</ele>
        <time>2015-12-13T10:09:34Z</time>
      </trkpt>
      <trkpt lat="49.08767" lon="1.16595">
        <ele>136.399994</ele>
        <time>2015-12-13T10:09:36Z</time>
      </trkpt>
      <trkpt lat="49.08771" lon="1.16611">
        <ele>136.300003</ele>
        <time>2015-12-13T10:09:38Z</time>
      </trkpt>
      <trkpt lat="49.08774" lon="1.1663">
        <ele>136.199997</ele>
        <time>2015-12-13T10:09:40Z</time>
      </trkpt>
      <trkpt lat="49.08779" lon="1.16647">
        <ele>136</ele>
        <time>2015-12-13T10:09:42Z</time>
      </trkpt>
      <trkpt lat="49.08784" lon="1.16662">
        <ele>136</ele>
        <time>2015-12-13T10:09:44Z</time>
      </trkpt>
      <trkpt lat="49.08788" lon="1.16677">
        <ele>135.899994</ele>
        <time>2015-12-13T10:09:46Z</time>
      </trkpt>
      <trkpt lat="49.08792" lon="1.16693">
        <ele>135.899994</ele>
        <time>2015-12-13T10:09:48Z</time>
      </trkpt>
      <trkpt lat="49.08795" lon="1.16712">
        <ele>135.899994</ele>
        <time>2015-12-13T10:09:51Z</time>
      </trkpt>
      <trkpt lat="49.0879" lon="1.16724">
        <ele>135.899994</ele>
        <time>2015-12-13T10:09:53Z</time>
      </trkpt>
      <trkpt lat="49.08783" lon="1.16737">
        <ele>135.899994</ele>
        <time>2015-12-13T10:09:55Z</time>
      </trkpt>
      <trkpt lat="49.08773" lon="1.16746">
        <ele>135.899994</ele>
        <time>2015-12-13T10:09:57Z</time>
      </trkpt>
      <trkpt lat="49.08764" lon="1.16759">
        <ele>136</ele>
        <time>2015-12-13T10:09:59Z</time>
      </trkpt>
      <trkpt lat="49.08754" lon="1.16773">
        <ele>136</ele>
        <time>2015-12-13T10:10:01Z</time>
      </trkpt>
      <trkpt lat="49.08747" lon="1.16788">
        <ele>136</ele>
        <time>2015-12-13T10:10:03Z</time>
      </trkpt>
      <trkpt lat="49.0874" lon="1.16804">
        <ele>136.100006</ele>
        <time>2015-12-13T10:10:05Z</time>
      </trkpt>
      <trkpt lat="49.08734" lon="1.16823">
        <ele>136.100006</ele>
        <time>2015-12-13T10:10:07Z</time>
      </trkpt>
      <trkpt lat="49.0873" lon="1.16841">
        <ele>136.100006</ele>
        <time>2015-12-13T10:10:09Z</time>
      </trkpt>
      <trkpt lat="49.08726" lon="1.16856">
        <ele>136.100006</ele>
        <time>2015-12-13T10:10:11Z</time>
      </trkpt>
      <trkpt lat="49.08723" lon="1.16874">
        <ele>136.199997</ele>
        <time>2015-12-13T10:10:13Z</time>
      </trkpt>
      <trkpt lat="49.0872" lon="1.16891">
        <ele>136.199997</ele>
        <time>2015-12-13T10:10:15Z</time>
      </trkpt>
      <trkpt lat="49.08718" lon="1.16905">
        <ele>136.300003</ele>
        <time>2015-12-13T10:10:17Z</time>
      </trkpt>
      <trkpt lat="49.08715" lon="1.1692">
        <ele>136.399994</ele>
        <time>2015-12-13T10:10:19Z</time>
      </trkpt>
      <trkpt lat="49.08711" lon="1.16939">
        <ele>136.699997</ele>
        <time>2015-12-13T10:10:22Z</time>
      </trkpt>
      <trkpt lat="49.08707" lon="1.16952">
        <ele>136.800003</ele>
        <time>2015-12-13T10:10:24Z</time>
      </trkpt>
      <trkpt lat="49.08703" lon="1.16967">
        <ele>137</ele>
        <time>2015-12-13T10:10:26Z</time>
      </trkpt>
      <trkpt lat="49.08697" lon="1.16982">
        <ele>137.100006</ele>
        <time>2015-12-13T10:10:28Z</time>
      </trkpt>
      <trkpt lat="49.0869" lon="1.16994">
        <ele>137.199997</ele>
        <time>2015-12-13T10:10:30Z</time>
      </trkpt>
      <trkpt lat="49.08682" lon="1.17004">
        <ele>137.300003</ele>
        <time>2015-12-13T10:10:32Z</time>
      </trkpt>
      <trkpt lat="49.08673" lon="1.17015">
        <ele>137.399994</ele>
        <time>2015-12-13T10:10:34Z</time>
      </trkpt>
      <trkpt lat="49.08664" lon="1.17025">
        <ele>137.5</ele>
        <time>2015-12-13T10:10:36Z</time>
      </trkpt>
      <trkpt lat="49.08657" lon="1.17035">
        <ele>137.600006</ele>
        <time>2015-12-13T10:10:38Z</time>
      </trkpt>
      <trkpt lat="49.08651" lon="1.17048">
        <ele>137.699997</ele>
        <time>2015-12-13T10:10:40Z</time>
      </trkpt>
      <trkpt lat="49.08645" lon="1.17062">
        <ele>137.800003</ele>
        <time>2015-12-13T10:10:42Z</time>
      </trkpt>
      <trkpt lat="49.08639" lon="1.17076">
        <ele>137.899994</ele>
        <time>2015-12-13T10:10:44Z</time>
      </trkpt>
      <trkpt lat="49.08634" lon="1.1709">
        <ele>138.100006</ele>
        <time>2015-12-13T10:10:46Z</time>
      </trkpt>
      <trkpt lat="49.08628" lon="1.17104">
        <ele>138.100006</ele>
        <time>2015-12-13T10:10:48Z</time>
      </trkpt>
      <trkpt lat="49.08622" lon="1.17118">
        <ele>138.100006</ele>
        <time>2015-12-13T10:10:50Z</time>
      </trkpt>
      <trkpt lat="49.08619" lon="1.17134">
        <ele>138.300003</ele>
        <time>2015-12-13T10:10:52Z</time>
      </trkpt>
      <trkpt lat="49.08619" lon="1.1715">
        <ele>138.399994</ele>
        <time>2015-12-13T10:10:54Z</time>
      </trkpt>
      <trkpt lat="49.08624" lon="1.17168">
        <ele>138.600006</ele>
        <time>2015-12-13T10:10:57Z</time>
      </trkpt>
      <trkpt lat="49.08627" lon="1.17181">
        <ele>138.800003</ele>
        <time>2015-12-13T10:10:59Z</time>
      </trkpt>
      <trkpt lat="49.08631" lon="1.17195">
        <ele>139</ele>
        <time>2015-12-13T10:11:01Z</time>
      </trkpt>
      <trkpt lat="49.08633" lon="1.1721">
        <ele>139.199997</ele>
        <time>2015-12-13T10:11:03Z</time>
      </trkpt>
      <trkpt lat="49.08636" lon="1.17225">
        <ele>139.399994</ele>
        <time>2015-12-13T10:11:05Z</time>
      </trkpt>
      <trkpt lat="49.08638" lon="1.17239">
        <ele>139.600006</ele>
        <time>2015-12-13T10:11:07Z</time>
      </trkpt>
      <trkpt lat="49.08641" lon="1.17253">
        <ele>139.800003</ele>
        <time>2015-12-13T10:11:09Z</time>
      </trkpt>
      <trkpt lat="49.08645" lon="1.17269">
        <ele>140</ele>
        <time>2015-12-13T10:11:12Z</time>
      </trkpt>
      <trkpt lat="49.08649" lon="1.17286">
        <ele>140.300003</ele>
        <time>2015-12-13T10:11:15Z</time>
      </trkpt>
      <trkpt lat="49.08653" lon="1.17304">
        <ele>140.600006</ele>
        <time>2015-12-13T10:11:18Z</time>
      </trkpt>
      <trkpt lat="49.08656" lon="1.17319">
        <ele>140.800003</ele>
        <time>2015-12-13T10:11:20Z</time>
      </trkpt>
      <trkpt lat="49.08661" lon="1.17337">
        <ele>141.199997</ele>
        <time>2015-12-13T10:11:23Z</time>
      </trkpt>
      <trkpt lat="49.08664" lon="1.17355">
        <ele>141.5</ele>
        <time>2015-12-13T10:11:26Z</time>
      </trkpt>
      <trkpt lat="49.08668" lon="1.17372">
        <ele>141.800003</ele>
        <time>2015-12-13T10:11:29Z</time>
      </trkpt>
      <trkpt lat="49.08671" lon="1.17388">
        <ele>142.199997</ele>
        <time>2015-12-13T10:11:32Z</time>
      </trkpt>
      <trkpt lat="49.08673" lon="1.17403">
        <ele>142.5</ele>
        <time>2015-12-13T10:11:35Z</time>
      </trkpt>
      <trkpt lat="49.08677" lon="1.17418">
        <ele>142.800003</ele>
        <time>2015-12-13T10:11:38Z</time>
      </trkpt>
      <trkpt lat="49.08679" lon="1.17433">
        <ele>143.199997</ele>
        <time>2015-12-13T10:11:41Z</time>
      </trkpt>
      <trkpt lat="49.0868" lon="1.17447">
        <ele>143.399994</ele>
        <time>2015-12-13T10:11:44Z</time>
      </trkpt>
      <trkpt lat="49.08673" lon="1.1746">
        <ele>143.699997</ele>
        <time>2015-12-13T10:11:47Z</time>
      </trkpt>
      <trkpt lat="49.08663" lon="1.17468">
        <ele>143.899994</ele>
        <time>2015-12-13T10:11:50Z</time>
      </trkpt>
      <trkpt lat="49.0865" lon="1.17474">
        <ele>144.199997</ele>
        <time>2015-12-13T10:11:53Z</time>
      </trkpt>
      <trkpt lat="49.08639" lon="1.17481">
        <ele>144.399994</ele>
        <time>2015-12-13T10:11:56Z</time>
      </trkpt>
      <trkpt lat="49.08627" lon="1.17488">
        <ele>144.600006</ele>
        <time>2015-12-13T10:11:59Z</time>
      </trkpt>
      <trkpt lat="49.08615" lon="1.17494">
        <ele>144.699997</ele>
        <time>2015-12-13T10:12:02Z</time>
      </trkpt>
      <trkpt lat="49.08606" lon="1.17499">
        <ele>144.800003</ele>
        <time>2015-12-13T10:12:04Z</time>
      </trkpt>
      <trkpt lat="49.08597" lon="1.17504">
        <ele>144.899994</ele>
        <time>2015-12-13T10:12:06Z</time>
      </trkpt>
      <trkpt lat="49.08588" lon="1.17509">
        <ele>145</ele>
        <time>2015-12-13T10:12:08Z</time>
      </trkpt>
      <trkpt lat="49.08579" lon="1.17515">
        <ele>145</ele>
        <time>2015-12-13T10:12:10Z</time>
      </trkpt>
      <trkpt lat="49.0857" lon="1.17519">
        <ele>145.100006</ele>
        <time>2015-12-13T10:12:12Z</time>
      </trkpt>
      <trkpt lat="49.08558" lon="1.17527">
        <ele>145.199997</ele>
        <time>2015-12-13T10:12:15Z</time>
      </trkpt>
      <trkpt lat="49.08545" lon="1.17533">
        <ele>145.199997</ele>
        <time>2015-12-13T10:12:18Z</time>
      </trkpt>
      <trkpt lat="49.08534" lon="1.1754">
        <ele>145.300003</ele>
        <time>2015-12-13T10:12:21Z</time>
      </trkpt>
      <trkpt lat="49.08526" lon="1.17549">
        <ele>145.300003</ele>
        <time>2015-12-13T10:12:23Z</time>
      </trkpt>
      <trkpt lat="49.08516" lon="1.17562">
        <ele>145.399994</ele>
        <time>2015-12-13T10:12:26Z</time>
      </trkpt>
      <trkpt lat="49.08509" lon="1.17571">
        <ele>145.399994</ele>
        <time>2015-12-13T10:12:28Z</time>
      </trkpt>
      <trkpt lat="49.08502" lon="1.17581">
        <ele>145.399994</ele>
        <time>2015-12-13T10:12:30Z</time>
      </trkpt>
      <trkpt lat="49.08493" lon="1.17594">
        <ele>145.5</ele>
        <time>2015-12-13T10:12:33Z</time>
      </trkpt>
      <trkpt lat="49.08485" lon="1.17606">
        <ele>145.5</ele>
        <time>2015-12-13T10:12:36Z</time>
      </trkpt>
      <trkpt lat="49.08476" lon="1.1762">
        <ele>145.5</ele>
        <time>2015-12-13T10:12:39Z</time>
      </trkpt>
      <trkpt lat="49.08468" lon="1.17632">
        <ele>145.600006</ele>
        <time>2015-12-13T10:12:42Z</time>
      </trkpt>
      <trkpt lat="49.08459" lon="1.17645">
        <ele>145.600006</ele>
        <time>2015-12-13T10:12:45Z</time>
      </trkpt>
      <trkpt lat="49.0845" lon="1.17657">
        <ele>145.600006</ele>
        <time>2015-12-13T10:12:48Z</time>
      </trkpt>
      <trkpt lat="49.0844" lon="1.17671">
        <ele>145.699997</ele>
        <time>2015-12-13T10:12:51Z</time>
      </trkpt>
      <trkpt lat="49.08431" lon="1.17683">
        <ele>145.699997</ele>
        <time>2015-12-13T10:12:54Z</time>
      </trkpt>
      <trkpt lat="49.08421" lon="1.17694">
        <ele>145.699997</ele>
        <time>2015-12-13T10:12:57Z</time>
      </trkpt>
      <trkpt lat="49.08412" lon="1.17706">
        <ele>145.699997</ele>
        <time>2015-12-13T10:13:00Z</time>
      </trkpt>
      <trkpt lat="49.08405" lon="1.17714">
        <ele>145.699997</ele>
        <time>2015-12-13T10:13:02Z</time>
      </trkpt>
      <trkpt lat="49.08396" lon="1.17718">
        <ele>145.800003</ele>
        <time>2015-12-13T10:13:04Z</time>
      </trkpt>
      <trkpt lat="49.08387" lon="1.17721">
        <ele>145.800003</ele>
        <time>2015-12-13T10:13:06Z</time>
      </trkpt>
      <trkpt lat="49.08375" lon="1.17724">
        <ele>145.800003</ele>
        <time>2015-12-13T10:13:09Z</time>
      </trkpt>
      <trkpt lat="49.08366" lon="1.17732">
        <ele>145.800003</ele>
        <time>2015-12-13T10:13:12Z</time>
      </trkpt>
      <trkpt lat="49.08358" lon="1.17741">
        <ele>145.899994</ele>
        <time>2015-12-13T10:13:14Z</time>
      </trkpt>
      <trkpt lat="49.08351" lon="1.17751">
        <ele>145.899994</ele>
        <time>2015-12-13T10:13:16Z</time>
      </trkpt>
      <trkpt lat="49.08344" lon="1.17761">
        <ele>145.899994</ele>
        <time>2015-12-13T10:13:18Z</time>
      </trkpt>
      <trkpt lat="49.08336" lon="1.17771">
        <ele>145.899994</ele>
        <time>2015-12-13T10:13:20Z</time>
      </trkpt>
      <trkpt lat="49.08329" lon="1.17781">
        <ele>145.899994</ele>
        <time>2015-12-13T10:13:22Z</time>
      </trkpt>
      <trkpt lat="49.08319" lon="1.17787">
        <ele>145.899994</ele>
        <time>2015-12-13T10:13:24Z</time>
      </trkpt>
      <trkpt lat="49.08307" lon="1.1779">
        <ele>145.899994</ele>
        <time>2015-12-13T10:13:26Z</time>
      </trkpt>
      <trkpt lat="49.08295" lon="1.17796">
        <ele>145.899994</ele>
        <time>2015-12-13T10:13:28Z</time>
      </trkpt>
      <trkpt lat="49.08285" lon="1.17806">
        <ele>145.800003</ele>
        <time>2015-12-13T10:13:30Z</time>
      </trkpt>
      <trkpt lat="49.08274" lon="1.17817">
        <ele>145.800003</ele>
        <time>2015-12-13T10:13:32Z</time>
      </trkpt>
      <trkpt lat="49.08263" lon="1.17829">
        <ele>145.600006</ele>
        <time>2015-12-13T10:13:34Z</time>
      </trkpt>
      <trkpt lat="49.08252" lon="1.1784">
        <ele>145.5</ele>
        <time>2015-12-13T10:13:36Z</time>
      </trkpt>
      <trkpt lat="49.08242" lon="1.17852">
        <ele>145.300003</ele>
        <time>2015-12-13T10:13:38Z</time>
      </trkpt>
      <trkpt lat="49.08231" lon="1.17864">
        <ele>145.199997</ele>
        <time>2015-12-13T10:13:40Z</time>
      </trkpt>
      <trkpt lat="49.0822" lon="1.17875">
        <ele>145</ele>
        <time>2015-12-13T10:13:42Z</time>
      </trkpt>
      <trkpt lat="49.08208" lon="1.17886">
        <ele>144.699997</ele>
        <time>2015-12-13T10:13:44Z</time>
      </trkpt>
      <trkpt lat="49.08197" lon="1.17898">
        <ele>144.5</ele>
        <time>2015-12-13T10:13:46Z</time>
      </trkpt>
      <trkpt lat="49.08186" lon="1.17909">
        <ele>144.300003</ele>
        <time>2015-12-13T10:13:48Z</time>
      </trkpt>
      <trkpt lat="49.08173" lon="1.17916">
        <ele>144</ele>
        <time>2015-12-13T10:13:50Z</time>
      </trkpt>
      <trkpt lat="49.08159" lon="1.17917">
        <ele>143.699997</ele>
        <time>2015-12-13T10:13:52Z</time>
      </trkpt>
      <trkpt lat="49.08144" lon="1.17916">
        <ele>143.300003</ele>
        <time>2015-12-13T10:13:54Z</time>
      </trkpt>
      <trkpt lat="49.0813" lon="1.17918">
        <ele>143</ele>
        <time>2015-12-13T10:13:56Z</time>
      </trkpt>
      <trkpt lat="49.08115" lon="1.17917">
        <ele>142.5</ele>
        <time>2015-12-13T10:13:58Z</time>
      </trkpt>
      <trkpt lat="49.08102" lon="1.17903">
        <ele>142</ele>
        <time>2015-12-13T10:14:00Z</time>
      </trkpt>
      <trkpt lat="49.0809" lon="1.17887">
        <ele>141.5</ele>
        <time>2015-12-13T10:14:02Z</time>
      </trkpt>
      <trkpt lat="49.08077" lon="1.17871">
        <ele>140.800003</ele>
        <time>2015-12-13T10:14:04Z</time>
      </trkpt>
      <trkpt lat="49.08069" lon="1.17864">
        <ele>140.5</ele>
        <time>2015-12-13T10:14:05Z</time>
      </trkpt>
      <trkpt lat="49.08053" lon="1.17853">
        <ele>139.699997</ele>
        <time>2015-12-13T10:14:07Z</time>
      </trkpt>
      <trkpt lat="49.08045" lon="1.17847">
        <ele>139.199997</ele>
        <time>2015-12-13T10:14:08Z</time>
      </trkpt>
      <trkpt lat="49.08037" lon="1.1784">
        <ele>138.699997</ele>
        <time>2015-12-13T10:14:09Z</time>
      </trkpt>
      <trkpt lat="49.08028" lon="1.17829">
        <ele>138.199997</ele>
        <time>2015-12-13T10:14:10Z</time>
      </trkpt>
      <trkpt lat="49.0802" lon="1.17818">
        <ele>137.600006</ele>
        <time>2015-12-13T10:14:11Z</time>
      </trkpt>
      <trkpt lat="49.08013" lon="1.17805">
        <ele>137.100006</ele>
        <time>2015-12-13T10:14:12Z</time>
      </trkpt>
      <trkpt lat="49.08006" lon="1.17792">
        <ele>136.5</ele>
        <time>2015-12-13T10:14:13Z</time>
      </trkpt>
      <trkpt lat="49.07999" lon="1.17778">
        <ele>135.899994</ele>
        <time>2015-12-13T10:14:14Z</time>
      </trkpt>
      <trkpt lat="49.07992" lon="1.17764">
        <ele>135.300003</ele>
        <time>2015-12-13T10:14:15Z</time>
      </trkpt>
      <trkpt lat="49.07985" lon="1.1775">
        <ele>134.699997</ele>
        <time>2015-12-13T10:14:16Z</time>
      </trkpt>
      <trkpt lat="49.07979" lon="1.17736">
        <ele>134</ele>
        <time>2015-12-13T10:14:17Z</time>
      </trkpt>
      <trkpt lat="49.07972" lon="1.17721">
        <ele>133.199997</ele>
        <time>2015-12-13T10:14:18Z</time>
      </trkpt>
      <trkpt lat="49.07966" lon="1.17705">
        <ele>132.5</ele>
        <time>2015-12-13T10:14:19Z</time>
      </trkpt>
      <trkpt lat="49.07961" lon="1.17689">
        <ele>131.699997</ele>
        <time>2015-12-13T10:14:20Z</time>
      </trkpt>
      <trkpt lat="49.07957" lon="1.17673">
        <ele>130.899994</ele>
        <time>2015-12-13T10:14:21Z</time>
      </trkpt>
      <trkpt lat="49.07957" lon="1.17655">
        <ele>130.199997</ele>
        <time>2015-12-13T10:14:22Z</time>
      </trkpt>
      <trkpt lat="49.07959" lon="1.17638">
        <ele>129.399994</ele>
        <time>2015-12-13T10:14:23Z</time>
      </trkpt>
      <trkpt lat="49.07961" lon="1.1762">
        <ele>128.5</ele>
        <time>2015-12-13T10:14:24Z</time>
      </trkpt>
      <trkpt lat="49.07962" lon="1.17602">
        <ele>127.599998</ele>
        <time>2015-12-13T10:14:25Z</time>
      </trkpt>
      <trkpt lat="49.07964" lon="1.17584">
        <ele>126.699997</ele>
        <time>2015-12-13T10:14:26Z</time>
      </trkpt>
      <trkpt lat="49.07966" lon="1.17566">
        <ele>125.800003</ele>
        <time>2015-12-13T10:14:27Z</time>
      </trkpt>
      <trkpt lat="49.07968" lon="1.17548">
        <ele>124.900002</ele>
        <time>2015-12-13T10:14:28Z</time>
      </trkpt>
      <trkpt lat="49.0797" lon="1.1753">
        <ele>124.099998</ele>
        <time>2015-12-13T10:14:29Z</time>
      </trkpt>
      <trkpt lat="49.07973" lon="1.17512">
        <ele>123.199997</ele>
        <time>2015-12-13T10:14:30Z</time>
      </trkpt>
      <trkpt lat="49.07978" lon="1.17495">
        <ele>122.199997</ele>
        <time>2015-12-13T10:14:31Z</time>
      </trkpt>
      <trkpt lat="49.07981" lon="1.17478">
        <ele>121.300003</ele>
        <time>2015-12-13T10:14:32Z</time>
      </trkpt>
      <trkpt lat="49.07985" lon="1.17461">
        <ele>120.5</ele>
        <time>2015-12-13T10:14:33Z</time>
      </trkpt>
      <trkpt lat="49.07989" lon="1.17444">
        <ele>119.599998</ele>
        <time>2015-12-13T10:14:34Z</time>
      </trkpt>
      <trkpt lat="49.07992" lon="1.17428">
        <ele>118.699997</ele>
        <time>2015-12-13T10:14:35Z</time>
      </trkpt>
      <trkpt lat="49.07996" lon="1.17412">
        <ele>117.900002</ele>
        <time>2015-12-13T10:14:36Z</time>
      </trkpt>
      <trkpt lat="49.08" lon="1.17396">
        <ele>117.099998</ele>
        <time>2015-12-13T10:14:37Z</time>
      </trkpt>
      <trkpt lat="49.08005" lon="1.17381">
        <ele>116.199997</ele>
        <time>2015-12-13T10:14:38Z</time>
      </trkpt>
      <trkpt lat="49.0801" lon="1.17366">
        <ele>115.400002</ele>
        <time>2015-12-13T10:14:39Z</time>
      </trkpt>
      <trkpt lat="49.08015" lon="1.17351">
        <ele>114.599998</ele>
        <time>2015-12-13T10:14:40Z</time>
      </trkpt>
      <trkpt lat="49.08021" lon="1.17337">
        <ele>113.800003</ele>
        <time>2015-12-13T10:14:41Z</time>
      </trkpt>
      <trkpt lat="49.08027" lon="1.17323">
        <ele>112.900002</ele>
        <time>2015-12-13T10:14:42Z</time>
      </trkpt>
      <trkpt lat="49.08032" lon="1.17308">
        <ele>112</ele>
        <time>2015-12-13T10:14:43Z</time>
      </trkpt>
      <trkpt lat="49.08038" lon="1.17293">
        <ele>111.199997</ele>
        <time>2015-12-13T10:14:44Z</time>
      </trkpt>
      <trkpt lat="49.08043" lon="1.17278">
        <ele>110.300003</ele>
        <time>2015-12-13T10:14:45Z</time>
      </trkpt>
      <trkpt lat="49.08049" lon="1.17263">
        <ele>109.400002</ele>
        <time>2015-12-13T10:14:46Z</time>
      </trkpt>
      <trkpt lat="49.08054" lon="1.17248">
        <ele>108.5</ele>
        <time>2015-12-13T10:14:47Z</time>
      </trkpt>
      <trkpt lat="49.08058" lon="1.17232">
        <ele>107.699997</ele>
        <time>2015-12-13T10:14:48Z</time>
      </trkpt>
      <trkpt lat="49.08061" lon="1.17216">
        <ele>106.900002</ele>
        <time>2015-12-13T10:14:49Z</time>
      </trkpt>
      <trkpt lat="49.08064" lon="1.172">
        <ele>106.099998</ele>
        <time>2015-12-13T10:14:50Z</time>
      </trkpt>
      <trkpt lat="49.08065" lon="1.17184">
        <ele>105.300003</ele>
        <time>2015-12-13T10:14:51Z</time>
      </trkpt>
      <trkpt lat="49.08066" lon="1.17168">
        <ele>104.5</ele>
        <time>2015-12-13T10:14:52Z</time>
      </trkpt>
      <trkpt lat="49.08066" lon="1.17152">
        <ele>103.800003</ele>
        <time>2015-12-13T10:14:53Z</time>
      </trkpt>
      <trkpt lat="49.08065" lon="1.17136">
        <ele>103</ele>
        <time>2015-12-13T10:14:54Z</time>
      </trkpt>
      <trkpt lat="49.08063" lon="1.1712">
        <ele>102.300003</ele>
        <time>2015-12-13T10:14:55Z</time>
      </trkpt>
      <trkpt lat="49.08061" lon="1.17105">
        <ele>101.599998</ele>
        <time>2015-12-13T10:14:56Z</time>
      </trkpt>
      <trkpt lat="49.08057" lon="1.17091">
        <ele>100.900002</ele>
        <time>2015-12-13T10:14:57Z</time>
      </trkpt>
      <trkpt lat="49.08052" lon="1.17078">
        <ele>100.199997</ele>
        <time>2015-12-13T10:14:58Z</time>
      </trkpt>
      <trkpt lat="49.08047" lon="1.17065">
        <ele>99.599998</ele>
        <time>2015-12-13T10:14:59Z</time>
      </trkpt>
      <trkpt lat="49.08041" lon="1.17052">
        <ele>99</ele>
        <time>2015-12-13T10:15:00Z</time>
      </trkpt>
      <trkpt lat="49.08035" lon="1.17041">
        <ele>98.400002</ele>
        <time>2015-12-13T10:15:01Z</time>
      </trkpt>
      <trkpt lat="49.08028" lon="1.1703">
        <ele>97.800003</ele>
        <time>2015-12-13T10:15:02Z</time>
      </trkpt>
      <trkpt lat="49.08021" lon="1.17019">
        <ele>97.199997</ele>
        <time>2015-12-13T10:15:03Z</time>
      </trkpt>
      <trkpt lat="49.08013" lon="1.17008">
        <ele>96.699997</ele>
        <time>2015-12-13T10:15:04Z</time>
      </trkpt>
      <trkpt lat="49.08006" lon="1.16998">
        <ele>96.099998</ele>
        <time>2015-12-13T10:15:05Z</time>
      </trkpt>
      <trkpt lat="49.07998" lon="1.16987">
        <ele>95.5</ele>
        <time>2015-12-13T10:15:06Z</time>
      </trkpt>
      <trkpt lat="49.07991" lon="1.16977">
        <ele>95</ele>
        <time>2015-12-13T10:15:07Z</time>
      </trkpt>
      <trkpt lat="49.07983" lon="1.16966">
        <ele>94.5</ele>
        <time>2015-12-13T10:15:08Z</time>
      </trkpt>
      <trkpt lat="49.07976" lon="1.16956">
        <ele>94</ele>
        <time>2015-12-13T10:15:09Z</time>
      </trkpt>
      <trkpt lat="49.07968" lon="1.16945">
        <ele>93.400002</ele>
        <time>2015-12-13T10:15:10Z</time>
      </trkpt>
      <trkpt lat="49.07961" lon="1.16934">
        <ele>92.900002</ele>
        <time>2015-12-13T10:15:11Z</time>
      </trkpt>
      <trkpt lat="49.07954" lon="1.16923">
        <ele>92.400002</ele>
        <time>2015-12-13T10:15:12Z</time>
      </trkpt>
      <trkpt lat="49.07948" lon="1.16911">
        <ele>91.900002</ele>
        <time>2015-12-13T10:15:13Z</time>
      </trkpt>
      <trkpt lat="49.07941" lon="1.169">
        <ele>91.400002</ele>
        <time>2015-12-13T10:15:14Z</time>
      </trkpt>
      <trkpt lat="49.07936" lon="1.16889">
        <ele>91</ele>
        <time>2015-12-13T10:15:15Z</time>
      </trkpt>
      <trkpt lat="49.0793" lon="1.16876">
        <ele>90.5</ele>
        <time>2015-12-13T10:15:16Z</time>
      </trkpt>
      <trkpt lat="49.07926" lon="1.16864">
        <ele>90.099998</ele>
        <time>2015-12-13T10:15:17Z</time>
      </trkpt>
      <trkpt lat="49.07922" lon="1.16851">
        <ele>89.599998</ele>
        <time>2015-12-13T10:15:18Z</time>
      </trkpt>
      <trkpt lat="49.07918" lon="1.16838">
        <ele>89.199997</ele>
        <time>2015-12-13T10:15:19Z</time>
      </trkpt>
      <trkpt lat="49.07915" lon="1.16825">
        <ele>88.800003</ele>
        <time>2015-12-13T10:15:20Z</time>
      </trkpt>
      <trkpt lat="49.07913" lon="1.16811">
        <ele>88.300003</ele>
        <time>2015-12-13T10:15:21Z</time>
      </trkpt>
      <trkpt lat="49.0791" lon="1.16798">
        <ele>87.900002</ele>
        <time>2015-12-13T10:15:22Z</time>
      </trkpt>
      <trkpt lat="49.07908" lon="1.16784">
        <ele>87.5</ele>
        <time>2015-12-13T10:15:23Z</time>
      </trkpt>
      <trkpt lat="49.07906" lon="1.16769">
        <ele>87</ele>
        <time>2015-12-13T10:15:24Z</time>
      </trkpt>
      <trkpt lat="49.07904" lon="1.16755">
        <ele>86.5</ele>
        <time>2015-12-13T10:15:25Z</time>
      </trkpt>
      <trkpt lat="49.07901" lon="1.1674">
        <ele>86</ele>
        <time>2015-12-13T10:15:26Z</time>
      </trkpt>
      <trkpt lat="49.07899" lon="1.16725">
        <ele>85.5</ele>
        <time>2015-12-13T10:15:27Z</time>
      </trkpt>
      <trkpt lat="49.07897" lon="1.1671">
        <ele>84.900002</ele>
        <time>2015-12-13T10:15:28Z</time>
      </trkpt>
      <trkpt lat="49.07895" lon="1.16695">
        <ele>84.400002</ele>
        <time>2015-12-13T10:15:29Z</time>
      </trkpt>
      <trkpt lat="49.07892" lon="1.16679">
        <ele>83.800003</ele>
        <time>2015-12-13T10:15:30Z</time>
      </trkpt>
      <trkpt lat="49.0789" lon="1.16663">
        <ele>83.199997</ele>
        <time>2015-12-13T10:15:31Z</time>
      </trkpt>
      <trkpt lat="49.07887" lon="1.16648">
        <ele>82.599998</ele>
        <time>2015-12-13T10:15:32Z</time>
      </trkpt>
      <trkpt lat="49.07885" lon="1.16632">
        <ele>81.900002</ele>
        <time>2015-12-13T10:15:33Z</time>
      </trkpt>
      <trkpt lat="49.07883" lon="1.16616">
        <ele>81.300003</ele>
        <time>2015-12-13T10:15:34Z</time>
      </trkpt>
      <trkpt lat="49.0788" lon="1.166">
        <ele>80.699997</ele>
        <time>2015-12-13T10:15:35Z</time>
      </trkpt>
      <trkpt lat="49.07878" lon="1.16584">
        <ele>80</ele>
        <time>2015-12-13T10:15:36Z</time>
      </trkpt>
      <trkpt lat="49.07875" lon="1.16568">
        <ele>79.400002</ele>
        <time>2015-12-13T10:15:37Z</time>
      </trkpt>
      <trkpt lat="49.07873" lon="1.16553">
        <ele>78.699997</ele>
        <time>2015-12-13T10:15:38Z</time>
      </trkpt>
      <trkpt lat="49.0787" lon="1.16537">
        <ele>78.099998</ele>
        <time>2015-12-13T10:15:39Z</time>
      </trkpt>
      <trkpt lat="49.07868" lon="1.16522">
        <ele>77.5</ele>
        <time>2015-12-13T10:15:40Z</time>
      </trkpt>
      <trkpt lat="49.07866" lon="1.16506">
        <ele>76.900002</ele>
        <time>2015-12-13T10:15:41Z</time>
      </trkpt>
      <trkpt lat="49.07863" lon="1.16491">
        <ele>76.199997</ele>
        <time>2015-12-13T10:15:42Z</time>
      </trkpt>
      <trkpt lat="49.07861" lon="1.16476">
        <ele>75.599998</ele>
        <time>2015-12-13T10:15:43Z</time>
      </trkpt>
      <trkpt lat="49.07859" lon="1.16461">
        <ele>75</ele>
        <time>2015-12-13T10:15:44Z</time>
      </trkpt>
      <trkpt lat="49.07857" lon="1.16446">
        <ele>74.5</ele>
        <time>2015-12-13T10:15:45Z</time>
      </trkpt>
      <trkpt lat="49.07855" lon="1.16432">
        <ele>73.900002</ele>
        <time>2015-12-13T10:15:46Z</time>
      </trkpt>
      <trkpt lat="49.07852" lon="1.16419">
        <ele>73.199997</ele>
        <time>2015-12-13T10:15:47Z</time>
      </trkpt>
      <trkpt lat="49.07848" lon="1.16394">
        <ele>72</ele>
        <time>2015-12-13T10:15:49Z</time>
      </trkpt>
      <trkpt lat="49.07839" lon="1.16371">
        <ele>70.900002</ele>
        <time>2015-12-13T10:15:51Z</time>
      </trkpt>
      <trkpt lat="49.07829" lon="1.16349">
        <ele>69.800003</ele>
        <time>2015-12-13T10:15:53Z</time>
      </trkpt>
      <trkpt lat="49.07823" lon="1.16338">
        <ele>69.300003</ele>
        <time>2015-12-13T10:15:54Z</time>
      </trkpt>
      <trkpt lat="49.07817" lon="1.16327">
        <ele>68.800003</ele>
        <time>2015-12-13T10:15:55Z</time>
      </trkpt>
      <trkpt lat="49.07811" lon="1.16316">
        <ele>68.199997</ele>
        <time>2015-12-13T10:15:56Z</time>
      </trkpt>
      <trkpt lat="49.07805" lon="1.16305">
        <ele>67.599998</ele>
        <time>2015-12-13T10:15:57Z</time>
      </trkpt>
      <trkpt lat="49.07799" lon="1.16293">
        <ele>67</ele>
        <time>2015-12-13T10:15:58Z</time>
      </trkpt>
      <trkpt lat="49.07792" lon="1.16281">
        <ele>66.400002</ele>
        <time>2015-12-13T10:15:59Z</time>
      </trkpt>
      <trkpt lat="49.07785" lon="1.16269">
        <ele>65.800003</ele>
        <time>2015-12-13T10:16:00Z</time>
      </trkpt>
      <trkpt lat="49.07779" lon="1.16256">
        <ele>65.199997</ele>
        <time>2015-12-13T10:16:01Z</time>
      </trkpt>
      <trkpt lat="49.07772" lon="1.16243">
        <ele>64.599998</ele>
        <time>2015-12-13T10:16:02Z</time>
      </trkpt>
      <trkpt lat="49.07765" lon="1.1623">
        <ele>63.900002</ele>
        <time>2015-12-13T10:16:03Z</time>
      </trkpt>
      <trkpt lat="49.07757" lon="1.16217">
        <ele>63.299999</ele>
        <time>2015-12-13T10:16:04Z</time>
      </trkpt>
      <trkpt lat="49.07751" lon="1.16204">
        <ele>62.599998</ele>
        <time>2015-12-13T10:16:05Z</time>
      </trkpt>
      <trkpt lat="49.07744" lon="1.16191">
        <ele>61.900002</ele>
        <time>2015-12-13T10:16:06Z</time>
      </trkpt>
      <trkpt lat="49.07736" lon="1.16178">
        <ele>61.200001</ele>
        <time>2015-12-13T10:16:07Z</time>
      </trkpt>
      <trkpt lat="49.07729" lon="1.16165">
        <ele>60.599998</ele>
        <time>2015-12-13T10:16:08Z</time>
      </trkpt>
      <trkpt lat="49.07722" lon="1.16153">
        <ele>59.900002</ele>
        <time>2015-12-13T10:16:09Z</time>
      </trkpt>
      <trkpt lat="49.07715" lon="1.16141">
        <ele>59.299999</ele>
        <time>2015-12-13T10:16:10Z</time>
      </trkpt>
      <trkpt lat="49.07709" lon="1.16129">
        <ele>58.700001</ele>
        <time>2015-12-13T10:16:11Z</time>
      </trkpt>
      <trkpt lat="49.07702" lon="1.16117">
        <ele>58.099998</ele>
        <time>2015-12-13T10:16:12Z</time>
      </trkpt>
      <trkpt lat="49.07696" lon="1.16105">
        <ele>57.5</ele>
        <time>2015-12-13T10:16:13Z</time>
      </trkpt>
      <trkpt lat="49.0769" lon="1.16093">
        <ele>56.900002</ele>
        <time>2015-12-13T10:16:14Z</time>
      </trkpt>
      <trkpt lat="49.07684" lon="1.16082">
        <ele>56.400002</ele>
        <time>2015-12-13T10:16:15Z</time>
      </trkpt>
      <trkpt lat="49.07678" lon="1.16071">
        <ele>55.900002</ele>
        <time>2015-12-13T10:16:16Z</time>
      </trkpt>
      <trkpt lat="49.07672" lon="1.1606">
        <ele>55.5</ele>
        <time>2015-12-13T10:16:17Z</time>
      </trkpt>
      <trkpt lat="49.07661" lon="1.1604">
        <ele>54.599998</ele>
        <time>2015-12-13T10:16:19Z</time>
      </trkpt>
      <trkpt lat="49.0765" lon="1.1602">
        <ele>53.900002</ele>
        <time>2015-12-13T10:16:21Z</time>
      </trkpt>
      <trkpt lat="49.0764" lon="1.16002">
        <ele>53.200001</ele>
        <time>2015-12-13T10:16:23Z</time>
      </trkpt>
      <trkpt lat="49.0763" lon="1.15984">
        <ele>52.599998</ele>
        <time>2015-12-13T10:16:25Z</time>
      </trkpt>
      <trkpt lat="49.07621" lon="1.15966">
        <ele>52.099998</ele>
        <time>2015-12-13T10:16:27Z</time>
      </trkpt>
      <trkpt lat="49.07612" lon="1.15949">
        <ele>51.599998</ele>
        <time>2015-12-13T10:16:29Z</time>
      </trkpt>
      <trkpt lat="49.07602" lon="1.15933">
        <ele>51.200001</ele>
        <time>2015-12-13T10:16:31Z</time>
      </trkpt>
      <trkpt lat="49.07594" lon="1.15916">
        <ele>50.799999</ele>
        <time>2015-12-13T10:16:33Z</time>
      </trkpt>
      <trkpt lat="49.07586" lon="1.159">
        <ele>50.5</ele>
        <time>2015-12-13T10:16:35Z</time>
      </trkpt>
      <trkpt lat="49.07578" lon="1.15884">
        <ele>50.200001</ele>
        <time>2015-12-13T10:16:37Z</time>
      </trkpt>
      <trkpt lat="49.0757" lon="1.15868">
        <ele>49.900002</ele>
        <time>2015-12-13T10:16:39Z</time>
      </trkpt>
      <trkpt lat="49.07561" lon="1.15851">
        <ele>49.700001</ele>
        <time>2015-12-13T10:16:41Z</time>
      </trkpt>
      <trkpt lat="49.07552" lon="1.15835">
        <ele>49.5</ele>
        <time>2015-12-13T10:16:43Z</time>
      </trkpt>
      <trkpt lat="49.07544" lon="1.15819">
        <ele>49.400002</ele>
        <time>2015-12-13T10:16:45Z</time>
      </trkpt>
      <trkpt lat="49.07535" lon="1.15804">
        <ele>49.200001</ele>
        <time>2015-12-13T10:16:47Z</time>
      </trkpt>
      <trkpt lat="49.07527" lon="1.15789">
        <ele>49.099998</ele>
        <time>2015-12-13T10:16:49Z</time>
      </trkpt>
      <trkpt lat="49.0752" lon="1.15777">
        <ele>49</ele>
        <time>2015-12-13T10:16:51Z</time>
      </trkpt>
      <trkpt lat="49.07512" lon="1.15764">
        <ele>48.900002</ele>
        <time>2015-12-13T10:16:53Z</time>
      </trkpt>
      <trkpt lat="49.07504" lon="1.15754">
        <ele>48.799999</ele>
        <time>2015-12-13T10:16:55Z</time>
      </trkpt>
      <trkpt lat="49.07495" lon="1.15747">
        <ele>48.599998</ele>
        <time>2015-12-13T10:16:59Z</time>
      </trkpt>
      <trkpt lat="49.07489" lon="1.15759">
        <ele>48.200001</ele>
        <time>2015-12-13T10:17:05Z</time>
      </trkpt>
      <trkpt lat="49.07485" lon="1.15772">
        <ele>48.099998</ele>
        <time>2015-12-13T10:17:08Z</time>
      </trkpt>
      <trkpt lat="49.0748" lon="1.15786">
        <ele>48</ele>
        <time>2015-12-13T10:17:11Z</time>
      </trkpt>
      <trkpt lat="49.07474" lon="1.158">
        <ele>47.900002</ele>
        <time>2015-12-13T10:17:14Z</time>
      </trkpt>
      <trkpt lat="49.07468" lon="1.15815">
        <ele>47.900002</ele>
        <time>2015-12-13T10:17:17Z</time>
      </trkpt>
      <trkpt lat="49.07462" lon="1.15832">
        <ele>47.799999</ele>
        <time>2015-12-13T10:17:20Z</time>
      </trkpt>
      <trkpt lat="49.07456" lon="1.15846">
        <ele>47.799999</ele>
        <time>2015-12-13T10:17:23Z</time>
      </trkpt>
      <trkpt lat="49.07449" lon="1.15858">
        <ele>47.900002</ele>
        <time>2015-12-13T10:17:26Z</time>
      </trkpt>
      <trkpt lat="49.07439" lon="1.15872">
        <ele>47.900002</ele>
        <time>2015-12-13T10:17:29Z</time>
      </trkpt>
      <trkpt lat="49.0743" lon="1.15884">
        <ele>48</ele>
        <time>2015-12-13T10:17:32Z</time>
      </trkpt>
      <trkpt lat="49.0742" lon="1.15894">
        <ele>48</ele>
        <time>2015-12-13T10:17:35Z</time>
      </trkpt>
      <trkpt lat="49.07411" lon="1.15908">
        <ele>48.099998</ele>
        <time>2015-12-13T10:17:38Z</time>
      </trkpt>
      <trkpt lat="49.074" lon="1.15921">
        <ele>48.099998</ele>
        <time>2015-12-13T10:17:41Z</time>
      </trkpt>
      <trkpt lat="49.07397" lon="1.1594">
        <ele>48.099998</ele>
        <time>2015-12-13T10:17:44Z</time>
      </trkpt>
      <trkpt lat="49.07391" lon="1.15956">
        <ele>48.099998</ele>
        <time>2015-12-13T10:17:47Z</time>
      </trkpt>
      <trkpt lat="49.07384" lon="1.15967">
        <ele>48.200001</ele>
        <time>2015-12-13T10:17:49Z</time>
      </trkpt>
      <trkpt lat="49.07377" lon="1.15978">
        <ele>48.200001</ele>
        <time>2015-12-13T10:17:51Z</time>
      </trkpt>
      <trkpt lat="49.0737" lon="1.1599">
        <ele>48.299999</ele>
        <time>2015-12-13T10:17:53Z</time>
      </trkpt>
      <trkpt lat="49.07364" lon="1.16001">
        <ele>48.299999</ele>
        <time>2015-12-13T10:17:55Z</time>
      </trkpt>
      <trkpt lat="49.07357" lon="1.16013">
        <ele>48.299999</ele>
        <time>2015-12-13T10:17:57Z</time>
      </trkpt>
      <trkpt lat="49.0735" lon="1.16024">
        <ele>48.400002</ele>
        <time>2015-12-13T10:17:59Z</time>
      </trkpt>
      <trkpt lat="49.07343" lon="1.16035">
        <ele>48.299999</ele>
        <time>2015-12-13T10:18:01Z</time>
      </trkpt>
      <trkpt lat="49.07337" lon="1.16046">
        <ele>48.200001</ele>
        <time>2015-12-13T10:18:03Z</time>
      </trkpt>
      <trkpt lat="49.0733" lon="1.16056">
        <ele>48.200001</ele>
        <time>2015-12-13T10:18:05Z</time>
      </trkpt>
      <trkpt lat="49.07323" lon="1.16065">
        <ele>48.200001</ele>
        <time>2015-12-13T10:18:07Z</time>
      </trkpt>
      <trkpt lat="49.07316" lon="1.16074">
        <ele>48.200001</ele>
        <time>2015-12-13T10:18:09Z</time>
      </trkpt>
      <trkpt lat="49.07309" lon="1.16084">
        <ele>48.200001</ele>
        <time>2015-12-13T10:18:11Z</time>
      </trkpt>
      <trkpt lat="49.07302" lon="1.16094">
        <ele>48.200001</ele>
        <time>2015-12-13T10:18:13Z</time>
      </trkpt>
      <trkpt lat="49.07294" lon="1.16103">
        <ele>48.200001</ele>
        <time>2015-12-13T10:18:15Z</time>
      </trkpt>
      <trkpt lat="49.07287" lon="1.16114">
        <ele>48.299999</ele>
        <time>2015-12-13T10:18:17Z</time>
      </trkpt>
      <trkpt lat="49.07279" lon="1.16124">
        <ele>48.299999</ele>
        <time>2015-12-13T10:18:19Z</time>
      </trkpt>
      <trkpt lat="49.07272" lon="1.16135">
        <ele>48.299999</ele>
        <time>2015-12-13T10:18:21Z</time>
      </trkpt>
      <trkpt lat="49.07265" lon="1.16146">
        <ele>48.299999</ele>
        <time>2015-12-13T10:18:23Z</time>
      </trkpt>
      <trkpt lat="49.07258" lon="1.16156">
        <ele>48.400002</ele>
        <time>2015-12-13T10:18:25Z</time>
      </trkpt>
      <trkpt lat="49.0725" lon="1.16167">
        <ele>48.400002</ele>
        <time>2015-12-13T10:18:27Z</time>
      </trkpt>
      <trkpt lat="49.07244" lon="1.16178">
        <ele>48.5</ele>
        <time>2015-12-13T10:18:29Z</time>
      </trkpt>
      <trkpt lat="49.07238" lon="1.1619">
        <ele>48.5</ele>
        <time>2015-12-13T10:18:31Z</time>
      </trkpt>
      <trkpt lat="49.07232" lon="1.16202">
        <ele>48.5</ele>
        <time>2015-12-13T10:18:33Z</time>
      </trkpt>
      <trkpt lat="49.07226" lon="1.16214">
        <ele>48.5</ele>
        <time>2015-12-13T10:18:35Z</time>
      </trkpt>
      <trkpt lat="49.0722" lon="1.16225">
        <ele>48.599998</ele>
        <time>2015-12-13T10:18:37Z</time>
      </trkpt>
      <trkpt lat="49.07213" lon="1.16235">
        <ele>48.599998</ele>
        <time>2015-12-13T10:18:39Z</time>
      </trkpt>
      <trkpt lat="49.07205" lon="1.16245">
        <ele>48.599998</ele>
        <time>2015-12-13T10:18:41Z</time>
      </trkpt>
      <trkpt lat="49.07198" lon="1.16255">
        <ele>48.700001</ele>
        <time>2015-12-13T10:18:43Z</time>
      </trkpt>
      <trkpt lat="49.07192" lon="1.16266">
        <ele>48.799999</ele>
        <time>2015-12-13T10:18:45Z</time>
      </trkpt>
      <trkpt lat="49.07186" lon="1.16277">
        <ele>48.900002</ele>
        <time>2015-12-13T10:18:47Z</time>
      </trkpt>
      <trkpt lat="49.0718" lon="1.16289">
        <ele>49</ele>
        <time>2015-12-13T10:18:49Z</time>
      </trkpt>
      <trkpt lat="49.07174" lon="1.16302">
        <ele>49</ele>
        <time>2015-12-13T10:18:51Z</time>
      </trkpt>
      <trkpt lat="49.07168" lon="1.16314">
        <ele>49.099998</ele>
        <time>2015-12-13T10:18:53Z</time>
      </trkpt>
      <trkpt lat="49.07162" lon="1.16326">
        <ele>49.200001</ele>
        <time>2015-12-13T10:18:55Z</time>
      </trkpt>
      <trkpt lat="49.07155" lon="1.16338">
        <ele>49.200001</ele>
        <time>2015-12-13T10:18:57Z</time>
      </trkpt>
      <trkpt lat="49.07147" lon="1.16347">
        <ele>49.299999</ele>
        <time>2015-12-13T10:18:59Z</time>
      </trkpt>
      <trkpt lat="49.07137" lon="1.16354">
        <ele>49.299999</ele>
        <time>2015-12-13T10:19:01Z</time>
      </trkpt>
      <trkpt lat="49.07127" lon="1.16358">
        <ele>49.400002</ele>
        <time>2015-12-13T10:19:03Z</time>
      </trkpt>
      <trkpt lat="49.07117" lon="1.16363">
        <ele>49.400002</ele>
        <time>2015-12-13T10:19:05Z</time>
      </trkpt>
      <trkpt lat="49.07109" lon="1.1637">
        <ele>49.400002</ele>
        <time>2015-12-13T10:19:07Z</time>
      </trkpt>
      <trkpt lat="49.071" lon="1.16379">
        <ele>49.5</ele>
        <time>2015-12-13T10:19:09Z</time>
      </trkpt>
      <trkpt lat="49.07091" lon="1.16389">
        <ele>49.5</ele>
        <time>2015-12-13T10:19:11Z</time>
      </trkpt>
      <trkpt lat="49.07083" lon="1.16399">
        <ele>49.5</ele>
        <time>2015-12-13T10:19:13Z</time>
      </trkpt>
      <trkpt lat="49.07075" lon="1.16409">
        <ele>49.5</ele>
        <time>2015-12-13T10:19:15Z</time>
      </trkpt>
      <trkpt lat="49.07068" lon="1.16419">
        <ele>49.5</ele>
        <time>2015-12-13T10:19:17Z</time>
      </trkpt>
      <trkpt lat="49.07061" lon="1.16429">
        <ele>49.5</ele>
        <time>2015-12-13T10:19:19Z</time>
      </trkpt>
      <trkpt lat="49.07054" lon="1.16439">
        <ele>49.5</ele>
        <time>2015-12-13T10:19:21Z</time>
      </trkpt>
      <trkpt lat="49.07046" lon="1.16449">
        <ele>49.599998</ele>
        <time>2015-12-13T10:19:23Z</time>
      </trkpt>
      <trkpt lat="49.07039" lon="1.16459">
        <ele>49.599998</ele>
        <time>2015-12-13T10:19:25Z</time>
      </trkpt>
      <trkpt lat="49.07032" lon="1.16468">
        <ele>49.599998</ele>
        <time>2015-12-13T10:19:27Z</time>
      </trkpt>
      <trkpt lat="49.07024" lon="1.16477">
        <ele>49.599998</ele>
        <time>2015-12-13T10:19:29Z</time>
      </trkpt>
      <trkpt lat="49.07016" lon="1.16485">
        <ele>49.599998</ele>
        <time>2015-12-13T10:19:31Z</time>
      </trkpt>
      <trkpt lat="49.07008" lon="1.16492">
        <ele>49.599998</ele>
        <time>2015-12-13T10:19:33Z</time>
      </trkpt>
      <trkpt lat="49.06999" lon="1.16499">
        <ele>49.599998</ele>
        <time>2015-12-13T10:19:35Z</time>
      </trkpt>
      <trkpt lat="49.06991" lon="1.16507">
        <ele>49.599998</ele>
        <time>2015-12-13T10:19:37Z</time>
      </trkpt>
      <trkpt lat="49.06983" lon="1.16516">
        <ele>49.599998</ele>
        <time>2015-12-13T10:19:39Z</time>
      </trkpt>
      <trkpt lat="49.06975" lon="1.16525">
        <ele>49.599998</ele>
        <time>2015-12-13T10:19:41Z</time>
      </trkpt>
      <trkpt lat="49.06968" lon="1.16534">
        <ele>49.700001</ele>
        <time>2015-12-13T10:19:43Z</time>
      </trkpt>
      <trkpt lat="49.06961" lon="1.16544">
        <ele>49.700001</ele>
        <time>2015-12-13T10:19:45Z</time>
      </trkpt>
      <trkpt lat="49.06953" lon="1.16554">
        <ele>49.700001</ele>
        <time>2015-12-13T10:19:47Z</time>
      </trkpt>
      <trkpt lat="49.06946" lon="1.16564">
        <ele>49.700001</ele>
        <time>2015-12-13T10:19:49Z</time>
      </trkpt>
      <trkpt lat="49.06938" lon="1.16575">
        <ele>49.700001</ele>
        <time>2015-12-13T10:19:51Z</time>
      </trkpt>
      <trkpt lat="49.06931" lon="1.16585">
        <ele>49.700001</ele>
        <time>2015-12-13T10:19:53Z</time>
      </trkpt>
      <trkpt lat="49.06923" lon="1.16596">
        <ele>49.700001</ele>
        <time>2015-12-13T10:19:55Z</time>
      </trkpt>
      <trkpt lat="49.06915" lon="1.16606">
        <ele>49.700001</ele>
        <time>2015-12-13T10:19:57Z</time>
      </trkpt>
      <trkpt lat="49.06907" lon="1.16616">
        <ele>49.700001</ele>
        <time>2015-12-13T10:19:59Z</time>
      </trkpt>
      <trkpt lat="49.06899" lon="1.16626">
        <ele>49.700001</ele>
        <time>2015-12-13T10:20:01Z</time>
      </trkpt>
      <trkpt lat="49.06891" lon="1.16636">
        <ele>49.799999</ele>
        <time>2015-12-13T10:20:03Z</time>
      </trkpt>
      <trkpt lat="49.06883" lon="1.16647">
        <ele>49.799999</ele>
        <time>2015-12-13T10:20:05Z</time>
      </trkpt>
      <trkpt lat="49.06875" lon="1.16657">
        <ele>49.799999</ele>
        <time>2015-12-13T10:20:07Z</time>
      </trkpt>
      <trkpt lat="49.06867" lon="1.16667">
        <ele>49.799999</ele>
        <time>2015-12-13T10:20:09Z</time>
      </trkpt>
      <trkpt lat="49.06859" lon="1.16677">
        <ele>49.799999</ele>
        <time>2015-12-13T10:20:11Z</time>
      </trkpt>
      <trkpt lat="49.06851" lon="1.16687">
        <ele>49.799999</ele>
        <time>2015-12-13T10:20:13Z</time>
      </trkpt>
      <trkpt lat="49.06843" lon="1.16698">
        <ele>49.799999</ele>
        <time>2015-12-13T10:20:15Z</time>
      </trkpt>
      <trkpt lat="49.06835" lon="1.16708">
        <ele>49.799999</ele>
        <time>2015-12-13T10:20:17Z</time>
      </trkpt>
      <trkpt lat="49.06826" lon="1.16718">
        <ele>49.900002</ele>
        <time>2015-12-13T10:20:19Z</time>
      </trkpt>
      <trkpt lat="49.06819" lon="1.16728">
        <ele>49.900002</ele>
        <time>2015-12-13T10:20:21Z</time>
      </trkpt>
      <trkpt lat="49.0681" lon="1.16738">
        <ele>49.900002</ele>
        <time>2015-12-13T10:20:23Z</time>
      </trkpt>
      <trkpt lat="49.06802" lon="1.16747">
        <ele>49.900002</ele>
        <time>2015-12-13T10:20:25Z</time>
      </trkpt>
      <trkpt lat="49.06794" lon="1.16758">
        <ele>49.900002</ele>
        <time>2015-12-13T10:20:27Z</time>
      </trkpt>
      <trkpt lat="49.06786" lon="1.16768">
        <ele>49.900002</ele>
        <time>2015-12-13T10:20:29Z</time>
      </trkpt>
      <trkpt lat="49.0678" lon="1.16779">
        <ele>50</ele>
        <time>2015-12-13T10:20:31Z</time>
      </trkpt>
      <trkpt lat="49.06772" lon="1.16789">
        <ele>50.099998</ele>
        <time>2015-12-13T10:20:33Z</time>
      </trkpt>
      <trkpt lat="49.06764" lon="1.168">
        <ele>50.200001</ele>
        <time>2015-12-13T10:20:35Z</time>
      </trkpt>
      <trkpt lat="49.06756" lon="1.1681">
        <ele>50.200001</ele>
        <time>2015-12-13T10:20:37Z</time>
      </trkpt>
      <trkpt lat="49.06748" lon="1.1682">
        <ele>50.299999</ele>
        <time>2015-12-13T10:20:39Z</time>
      </trkpt>
      <trkpt lat="49.06741" lon="1.16831">
        <ele>50.400002</ele>
        <time>2015-12-13T10:20:41Z</time>
      </trkpt>
      <trkpt lat="49.06733" lon="1.16841">
        <ele>50.400002</ele>
        <time>2015-12-13T10:20:43Z</time>
      </trkpt>
      <trkpt lat="49.06725" lon="1.1685">
        <ele>50.5</ele>
        <time>2015-12-13T10:20:45Z</time>
      </trkpt>
      <trkpt lat="49.06717" lon="1.1686">
        <ele>50.5</ele>
        <time>2015-12-13T10:20:47Z</time>
      </trkpt>
      <trkpt lat="49.0671" lon="1.16871">
        <ele>50.599998</ele>
        <time>2015-12-13T10:20:49Z</time>
      </trkpt>
      <trkpt lat="49.06702" lon="1.1688">
        <ele>50.599998</ele>
        <time>2015-12-13T10:20:51Z</time>
      </trkpt>
      <trkpt lat="49.06695" lon="1.1689">
        <ele>50.799999</ele>
        <time>2015-12-13T10:20:53Z</time>
      </trkpt>
      <trkpt lat="49.06685" lon="1.16902">
        <ele>50.900002</ele>
        <time>2015-12-13T10:20:56Z</time>
      </trkpt>
      <trkpt lat="49.06676" lon="1.16908">
        <ele>51.200001</ele>
        <time>2015-12-13T10:21:00Z</time>
      </trkpt>
      <trkpt lat="49.06667" lon="1.16895">
        <ele>51.400002</ele>
        <time>2015-12-13T10:21:04Z</time>
      </trkpt>
      <trkpt lat="49.0666" lon="1.1688">
        <ele>51.5</ele>
        <time>2015-12-13T10:21:07Z</time>
      </trkpt>
      <trkpt lat="49.06654" lon="1.16868">
        <ele>51.599998</ele>
        <time>2015-12-13T10:21:09Z</time>
      </trkpt>
      <trkpt lat="49.06649" lon="1.16854">
        <ele>51.599998</ele>
        <time>2015-12-13T10:21:11Z</time>
      </trkpt>
      <trkpt lat="49.06644" lon="1.1684">
        <ele>51.700001</ele>
        <time>2015-12-13T10:21:13Z</time>
      </trkpt>
      <trkpt lat="49.06638" lon="1.16825">
        <ele>51.799999</ele>
        <time>2015-12-13T10:21:15Z</time>
      </trkpt>
      <trkpt lat="49.06631" lon="1.1681">
        <ele>51.799999</ele>
        <time>2015-12-13T10:21:17Z</time>
      </trkpt>
      <trkpt lat="49.06625" lon="1.16795">
        <ele>51.900002</ele>
        <time>2015-12-13T10:21:19Z</time>
      </trkpt>
      <trkpt lat="49.06619" lon="1.1678">
        <ele>51.900002</ele>
        <time>2015-12-13T10:21:21Z</time>
      </trkpt>
      <trkpt lat="49.06612" lon="1.16765">
        <ele>51.900002</ele>
        <time>2015-12-13T10:21:23Z</time>
      </trkpt>
      <trkpt lat="49.06606" lon="1.1675">
        <ele>52</ele>
        <time>2015-12-13T10:21:25Z</time>
      </trkpt>
      <trkpt lat="49.066" lon="1.16736">
        <ele>52</ele>
        <time>2015-12-13T10:21:27Z</time>
      </trkpt>
      <trkpt lat="49.06594" lon="1.16721">
        <ele>52</ele>
        <time>2015-12-13T10:21:29Z</time>
      </trkpt>
      <trkpt lat="49.06588" lon="1.16706">
        <ele>52.099998</ele>
        <time>2015-12-13T10:21:31Z</time>
      </trkpt>
      <trkpt lat="49.06581" lon="1.16691">
        <ele>52.099998</ele>
        <time>2015-12-13T10:21:33Z</time>
      </trkpt>
      <trkpt lat="49.06575" lon="1.16676">
        <ele>52.099998</ele>
        <time>2015-12-13T10:21:35Z</time>
      </trkpt>
      <trkpt lat="49.06569" lon="1.16661">
        <ele>52.099998</ele>
        <time>2015-12-13T10:21:37Z</time>
      </trkpt>
      <trkpt lat="49.06562" lon="1.16645">
        <ele>52.200001</ele>
        <time>2015-12-13T10:21:39Z</time>
      </trkpt>
      <trkpt lat="49.06556" lon="1.1663">
        <ele>52.200001</ele>
        <time>2015-12-13T10:21:41Z</time>
      </trkpt>
      <trkpt lat="49.0655" lon="1.16614">
        <ele>52.200001</ele>
        <time>2015-12-13T10:21:43Z</time>
      </trkpt>
      <trkpt lat="49.06543" lon="1.16599">
        <ele>52.200001</ele>
        <time>2015-12-13T10:21:45Z</time>
      </trkpt>
      <trkpt lat="49.06537" lon="1.16584">
        <ele>52.200001</ele>
        <time>2015-12-13T10:21:47Z</time>
      </trkpt>
      <trkpt lat="49.06531" lon="1.16569">
        <ele>52.299999</ele>
        <time>2015-12-13T10:21:49Z</time>
      </trkpt>
      <trkpt lat="49.06525" lon="1.16554">
        <ele>52.299999</ele>
        <time>2015-12-13T10:21:51Z</time>
      </trkpt>
      <trkpt lat="49.06519" lon="1.16539">
        <ele>52.299999</ele>
        <time>2015-12-13T10:21:53Z</time>
      </trkpt>
      <trkpt lat="49.06513" lon="1.16524">
        <ele>52.299999</ele>
        <time>2015-12-13T10:21:55Z</time>
      </trkpt>
      <trkpt lat="49.06507" lon="1.16509">
        <ele>52.299999</ele>
        <time>2015-12-13T10:21:57Z</time>
      </trkpt>
      <trkpt lat="49.06501" lon="1.16495">
        <ele>52.299999</ele>
        <time>2015-12-13T10:21:59Z</time>
      </trkpt>
      <trkpt lat="49.06495" lon="1.1648">
        <ele>52.400002</ele>
        <time>2015-12-13T10:22:01Z</time>
      </trkpt>
      <trkpt lat="49.06488" lon="1.16466">
        <ele>52.400002</ele>
        <time>2015-12-13T10:22:03Z</time>
      </trkpt>
      <trkpt lat="49.06482" lon="1.16452">
        <ele>52.400002</ele>
        <time>2015-12-13T10:22:05Z</time>
      </trkpt>
      <trkpt lat="49.06476" lon="1.16437">
        <ele>52.400002</ele>
        <time>2015-12-13T10:22:07Z</time>
      </trkpt>
      <trkpt lat="49.0647" lon="1.16423">
        <ele>52.5</ele>
        <time>2015-12-13T10:22:09Z</time>
      </trkpt>
      <trkpt lat="49.06465" lon="1.16408">
        <ele>52.599998</ele>
        <time>2015-12-13T10:22:11Z</time>
      </trkpt>
      <trkpt lat="49.06459" lon="1.16394">
        <ele>52.700001</ele>
        <time>2015-12-13T10:22:13Z</time>
      </trkpt>
      <trkpt lat="49.06453" lon="1.1638">
        <ele>52.799999</ele>
        <time>2015-12-13T10:22:15Z</time>
      </trkpt>
      <trkpt lat="49.06447" lon="1.16366">
        <ele>52.900002</ele>
        <time>2015-12-13T10:22:17Z</time>
      </trkpt>
      <trkpt lat="49.06442" lon="1.16352">
        <ele>53</ele>
        <time>2015-12-13T10:22:19Z</time>
      </trkpt>
      <trkpt lat="49.06436" lon="1.16338">
        <ele>53.099998</ele>
        <time>2015-12-13T10:22:21Z</time>
      </trkpt>
      <trkpt lat="49.0643" lon="1.16325">
        <ele>53.200001</ele>
        <time>2015-12-13T10:22:23Z</time>
      </trkpt>
      <trkpt lat="49.06424" lon="1.16313">
        <ele>53.400002</ele>
        <time>2015-12-13T10:22:25Z</time>
      </trkpt>
      <trkpt lat="49.06417" lon="1.16303">
        <ele>53.599998</ele>
        <time>2015-12-13T10:22:27Z</time>
      </trkpt>
      <trkpt lat="49.06406" lon="1.16293">
        <ele>53.900002</ele>
        <time>2015-12-13T10:22:30Z</time>
      </trkpt>
      <trkpt lat="49.06397" lon="1.16289">
        <ele>54.200001</ele>
        <time>2015-12-13T10:22:32Z</time>
      </trkpt>
      <trkpt lat="49.06388" lon="1.16286">
        <ele>54.5</ele>
        <time>2015-12-13T10:22:34Z</time>
      </trkpt>
      <trkpt lat="49.06379" lon="1.16283">
        <ele>54.799999</ele>
        <time>2015-12-13T10:22:36Z</time>
      </trkpt>
      <trkpt lat="49.06369" lon="1.16281">
        <ele>55.200001</ele>
        <time>2015-12-13T10:22:38Z</time>
      </trkpt>
      <trkpt lat="49.06358" lon="1.16279">
        <ele>55.400002</ele>
        <time>2015-12-13T10:22:40Z</time>
      </trkpt>
      <trkpt lat="49.06347" lon="1.16279">
        <ele>55.799999</ele>
        <time>2015-12-13T10:22:42Z</time>
      </trkpt>
      <trkpt lat="49.06338" lon="1.16279">
        <ele>56.099998</ele>
        <time>2015-12-13T10:22:44Z</time>
      </trkpt>
      <trkpt lat="49.06328" lon="1.1628">
        <ele>56.400002</ele>
        <time>2015-12-13T10:22:46Z</time>
      </trkpt>
      <trkpt lat="49.06318" lon="1.16281">
        <ele>56.700001</ele>
        <time>2015-12-13T10:22:48Z</time>
      </trkpt>
      <trkpt lat="49.06309" lon="1.16283">
        <ele>57</ele>
        <time>2015-12-13T10:22:50Z</time>
      </trkpt>
      <trkpt lat="49.06296" lon="1.16287">
        <ele>57.400002</ele>
        <time>2015-12-13T10:22:53Z</time>
      </trkpt>
      <trkpt lat="49.06287" lon="1.16289">
        <ele>57.799999</ele>
        <time>2015-12-13T10:22:55Z</time>
      </trkpt>
      <trkpt lat="49.06278" lon="1.16291">
        <ele>58.099998</ele>
        <time>2015-12-13T10:22:57Z</time>
      </trkpt>
      <trkpt lat="49.06265" lon="1.16292">
        <ele>58.700001</ele>
        <time>2015-12-13T10:23:00Z</time>
      </trkpt>
      <trkpt lat="49.06256" lon="1.16293">
        <ele>59.099998</ele>
        <time>2015-12-13T10:23:02Z</time>
      </trkpt>
      <trkpt lat="49.06246" lon="1.16295">
        <ele>59.400002</ele>
        <time>2015-12-13T10:23:04Z</time>
      </trkpt>
      <trkpt lat="49.06237" lon="1.16297">
        <ele>59.700001</ele>
        <time>2015-12-13T10:23:06Z</time>
      </trkpt>
      <trkpt lat="49.06228" lon="1.16298">
        <ele>60</ele>
        <time>2015-12-13T10:23:08Z</time>
      </trkpt>
      <trkpt lat="49.06218" lon="1.16299">
        <ele>60.200001</ele>
        <time>2015-12-13T10:23:10Z</time>
      </trkpt>
      <trkpt lat="49.06208" lon="1.16301">
        <ele>60.5</ele>
        <time>2015-12-13T10:23:12Z</time>
      </trkpt>
      <trkpt lat="49.06199" lon="1.16302">
        <ele>60.700001</ele>
        <time>2015-12-13T10:23:14Z</time>
      </trkpt>
      <trkpt lat="49.06189" lon="1.16303">
        <ele>60.900002</ele>
        <time>2015-12-13T10:23:16Z</time>
      </trkpt>
      <trkpt lat="49.06179" lon="1.16304">
        <ele>61.099998</ele>
        <time>2015-12-13T10:23:18Z</time>
      </trkpt>
      <trkpt lat="49.06168" lon="1.16306">
        <ele>61.400002</ele>
        <time>2015-12-13T10:23:20Z</time>
      </trkpt>
      <trkpt lat="49.06158" lon="1.16307">
        <ele>61.599998</ele>
        <time>2015-12-13T10:23:22Z</time>
      </trkpt>
      <trkpt lat="49.06147" lon="1.16309">
        <ele>61.799999</ele>
        <time>2015-12-13T10:23:24Z</time>
      </trkpt>
      <trkpt lat="49.06136" lon="1.1631">
        <ele>61.900002</ele>
        <time>2015-12-13T10:23:26Z</time>
      </trkpt>
      <trkpt lat="49.06125" lon="1.16312">
        <ele>62.099998</ele>
        <time>2015-12-13T10:23:28Z</time>
      </trkpt>
      <trkpt lat="49.06114" lon="1.16314">
        <ele>62.200001</ele>
        <time>2015-12-13T10:23:30Z</time>
      </trkpt>
      <trkpt lat="49.06102" lon="1.16315">
        <ele>62.299999</ele>
        <time>2015-12-13T10:23:32Z</time>
      </trkpt>
      <trkpt lat="49.0609" lon="1.16315">
        <ele>62.5</ele>
        <time>2015-12-13T10:23:34Z</time>
      </trkpt>
      <trkpt lat="49.06078" lon="1.16314">
        <ele>62.599998</ele>
        <time>2015-12-13T10:23:36Z</time>
      </trkpt>
      <trkpt lat="49.06066" lon="1.16311">
        <ele>62.599998</ele>
        <time>2015-12-13T10:23:38Z</time>
      </trkpt>
      <trkpt lat="49.06054" lon="1.16308">
        <ele>62.700001</ele>
        <time>2015-12-13T10:23:40Z</time>
      </trkpt>
      <trkpt lat="49.06041" lon="1.16304">
        <ele>62.599998</ele>
        <time>2015-12-13T10:23:42Z</time>
      </trkpt>
      <trkpt lat="49.06028" lon="1.163">
        <ele>62.5</ele>
        <time>2015-12-13T10:23:44Z</time>
      </trkpt>
      <trkpt lat="49.06014" lon="1.16295">
        <ele>62.400002</ele>
        <time>2015-12-13T10:23:46Z</time>
      </trkpt>
      <trkpt lat="49.06" lon="1.16289">
        <ele>62.200001</ele>
        <time>2015-12-13T10:23:48Z</time>
      </trkpt>
      <trkpt lat="49.05985" lon="1.16284">
        <ele>62.099998</ele>
        <time>2015-12-13T10:23:50Z</time>
      </trkpt>
      <trkpt lat="49.05971" lon="1.16279">
        <ele>61.900002</ele>
        <time>2015-12-13T10:23:52Z</time>
      </trkpt>
      <trkpt lat="49.05955" lon="1.16274">
        <ele>61.599998</ele>
        <time>2015-12-13T10:23:54Z</time>
      </trkpt>
      <trkpt lat="49.0594" lon="1.16268">
        <ele>61.299999</ele>
        <time>2015-12-13T10:23:56Z</time>
      </trkpt>
      <trkpt lat="49.05924" lon="1.16263">
        <ele>61.099998</ele>
        <time>2015-12-13T10:23:58Z</time>
      </trkpt>
      <trkpt lat="49.05908" lon="1.16258">
        <ele>60.799999</ele>
        <time>2015-12-13T10:24:00Z</time>
      </trkpt>
      <trkpt lat="49.05893" lon="1.16252">
        <ele>60.599998</ele>
        <time>2015-12-13T10:24:02Z</time>
      </trkpt>
      <trkpt lat="49.05877" lon="1.16248">
        <ele>60.299999</ele>
        <time>2015-12-13T10:24:04Z</time>
      </trkpt>
      <trkpt lat="49.05862" lon="1.16244">
        <ele>60</ele>
        <time>2015-12-13T10:24:06Z</time>
      </trkpt>
      <trkpt lat="49.05846" lon="1.16239">
        <ele>59.700001</ele>
        <time>2015-12-13T10:24:08Z</time>
      </trkpt>
      <trkpt lat="49.05831" lon="1.16233">
        <ele>59.5</ele>
        <time>2015-12-13T10:24:10Z</time>
      </trkpt>
      <trkpt lat="49.05816" lon="1.16226">
        <ele>59.200001</ele>
        <time>2015-12-13T10:24:12Z</time>
      </trkpt>
      <trkpt lat="49.05802" lon="1.16216">
        <ele>59</ele>
        <time>2015-12-13T10:24:14Z</time>
      </trkpt>
      <trkpt lat="49.05789" lon="1.16205">
        <ele>58.700001</ele>
        <time>2015-12-13T10:24:16Z</time>
      </trkpt>
      <trkpt lat="49.05777" lon="1.16192">
        <ele>58.5</ele>
        <time>2015-12-13T10:24:18Z</time>
      </trkpt>
      <trkpt lat="49.05766" lon="1.16178">
        <ele>58.299999</ele>
        <time>2015-12-13T10:24:20Z</time>
      </trkpt>
      <trkpt lat="49.05756" lon="1.16163">
        <ele>58.200001</ele>
        <time>2015-12-13T10:24:22Z</time>
      </trkpt>
      <trkpt lat="49.05747" lon="1.16149">
        <ele>58</ele>
        <time>2015-12-13T10:24:24Z</time>
      </trkpt>
      <trkpt lat="49.05737" lon="1.16135">
        <ele>57.900002</ele>
        <time>2015-12-13T10:24:26Z</time>
      </trkpt>
      <trkpt lat="49.05729" lon="1.16122">
        <ele>57.799999</ele>
        <time>2015-12-13T10:24:28Z</time>
      </trkpt>
      <trkpt lat="49.05719" lon="1.16109">
        <ele>57.700001</ele>
        <time>2015-12-13T10:24:30Z</time>
      </trkpt>
      <trkpt lat="49.0571" lon="1.16096">
        <ele>57.599998</ele>
        <time>2015-12-13T10:24:32Z</time>
      </trkpt>
      <trkpt lat="49.057" lon="1.16083">
        <ele>57.599998</ele>
        <time>2015-12-13T10:24:34Z</time>
      </trkpt>
      <trkpt lat="49.05691" lon="1.1607">
        <ele>57.5</ele>
        <time>2015-12-13T10:24:36Z</time>
      </trkpt>
      <trkpt lat="49.05682" lon="1.16057">
        <ele>57.5</ele>
        <time>2015-12-13T10:24:38Z</time>
      </trkpt>
      <trkpt lat="49.05673" lon="1.16045">
        <ele>57.400002</ele>
        <time>2015-12-13T10:24:40Z</time>
      </trkpt>
      <trkpt lat="49.05664" lon="1.16034">
        <ele>57.400002</ele>
        <time>2015-12-13T10:24:42Z</time>
      </trkpt>
      <trkpt lat="49.05656" lon="1.16023">
        <ele>57.400002</ele>
        <time>2015-12-13T10:24:44Z</time>
      </trkpt>
      <trkpt lat="49.05648" lon="1.16012">
        <ele>57.299999</ele>
        <time>2015-12-13T10:24:46Z</time>
      </trkpt>
      <trkpt lat="49.05638" lon="1.16001">
        <ele>57.299999</ele>
        <time>2015-12-13T10:24:48Z</time>
      </trkpt>
      <trkpt lat="49.05629" lon="1.1599">
        <ele>57.400002</ele>
        <time>2015-12-13T10:24:50Z</time>
      </trkpt>
      <trkpt lat="49.05619" lon="1.15978">
        <ele>57.5</ele>
        <time>2015-12-13T10:24:52Z</time>
      </trkpt>
      <trkpt lat="49.05609" lon="1.15966">
        <ele>57.599998</ele>
        <time>2015-12-13T10:24:54Z</time>
      </trkpt>
      <trkpt lat="49.056" lon="1.15953">
        <ele>57.700001</ele>
        <time>2015-12-13T10:24:56Z</time>
      </trkpt>
      <trkpt lat="49.0559" lon="1.15941">
        <ele>57.799999</ele>
        <time>2015-12-13T10:24:58Z</time>
      </trkpt>
      <trkpt lat="49.05581" lon="1.1593">
        <ele>57.799999</ele>
        <time>2015-12-13T10:25:00Z</time>
      </trkpt>
      <trkpt lat="49.05571" lon="1.15918">
        <ele>57.900002</ele>
        <time>2015-12-13T10:25:02Z</time>
      </trkpt>
      <trkpt lat="49.05561" lon="1.15906">
        <ele>58</ele>
        <time>2015-12-13T10:25:04Z</time>
      </trkpt>
      <trkpt lat="49.0555" lon="1.15894">
        <ele>58</ele>
        <time>2015-12-13T10:25:06Z</time>
      </trkpt>
      <trkpt lat="49.05539" lon="1.15883">
        <ele>58.099998</ele>
        <time>2015-12-13T10:25:08Z</time>
      </trkpt>
      <trkpt lat="49.05528" lon="1.15872">
        <ele>58.099998</ele>
        <time>2015-12-13T10:25:10Z</time>
      </trkpt>
      <trkpt lat="49.05517" lon="1.15861">
        <ele>58.099998</ele>
        <time>2015-12-13T10:25:12Z</time>
      </trkpt>
      <trkpt lat="49.05506" lon="1.1585">
        <ele>58.200001</ele>
        <time>2015-12-13T10:25:14Z</time>
      </trkpt>
      <trkpt lat="49.05496" lon="1.15839">
        <ele>58.200001</ele>
        <time>2015-12-13T10:25:16Z</time>
      </trkpt>
      <trkpt lat="49.05485" lon="1.15829">
        <ele>58.299999</ele>
        <time>2015-12-13T10:25:18Z</time>
      </trkpt>
      <trkpt lat="49.05475" lon="1.15819">
        <ele>58.299999</ele>
        <time>2015-12-13T10:25:20Z</time>
      </trkpt>
      <trkpt lat="49.05465" lon="1.15809">
        <ele>58.400002</ele>
        <time>2015-12-13T10:25:22Z</time>
      </trkpt>
      <trkpt lat="49.05455" lon="1.158">
        <ele>58.400002</ele>
        <time>2015-12-13T10:25:24Z</time>
      </trkpt>
      <trkpt lat="49.05445" lon="1.15791">
        <ele>58.5</ele>
        <time>2015-12-13T10:25:26Z</time>
      </trkpt>
      <trkpt lat="49.05435" lon="1.15781">
        <ele>58.599998</ele>
        <time>2015-12-13T10:25:28Z</time>
      </trkpt>
      <trkpt lat="49.05424" lon="1.15771">
        <ele>58.700001</ele>
        <time>2015-12-13T10:25:30Z</time>
      </trkpt>
      <trkpt lat="49.05413" lon="1.15763">
        <ele>58.799999</ele>
        <time>2015-12-13T10:25:32Z</time>
      </trkpt>
      <trkpt lat="49.05401" lon="1.15756">
        <ele>58.900002</ele>
        <time>2015-12-13T10:25:34Z</time>
      </trkpt>
      <trkpt lat="49.0539" lon="1.15749">
        <ele>59</ele>
        <time>2015-12-13T10:25:36Z</time>
      </trkpt>
      <trkpt lat="49.05377" lon="1.15743">
        <ele>59.099998</ele>
        <time>2015-12-13T10:25:38Z</time>
      </trkpt>
      <trkpt lat="49.05365" lon="1.15738">
        <ele>59.200001</ele>
        <time>2015-12-13T10:25:40Z</time>
      </trkpt>
      <trkpt lat="49.05352" lon="1.15733">
        <ele>59.299999</ele>
        <time>2015-12-13T10:25:42Z</time>
      </trkpt>
      <trkpt lat="49.0534" lon="1.15729">
        <ele>59.299999</ele>
        <time>2015-12-13T10:25:44Z</time>
      </trkpt>
      <trkpt lat="49.05328" lon="1.15725">
        <ele>59.400002</ele>
        <time>2015-12-13T10:25:46Z</time>
      </trkpt>
      <trkpt lat="49.05316" lon="1.15722">
        <ele>59.400002</ele>
        <time>2015-12-13T10:25:48Z</time>
      </trkpt>
      <trkpt lat="49.05305" lon="1.15718">
        <ele>59.5</ele>
        <time>2015-12-13T10:25:50Z</time>
      </trkpt>
      <trkpt lat="49.05293" lon="1.15716">
        <ele>59.5</ele>
        <time>2015-12-13T10:25:52Z</time>
      </trkpt>
      <trkpt lat="49.05281" lon="1.15713">
        <ele>59.700001</ele>
        <time>2015-12-13T10:25:54Z</time>
      </trkpt>
      <trkpt lat="49.0527" lon="1.1571">
        <ele>59.799999</ele>
        <time>2015-12-13T10:25:56Z</time>
      </trkpt>
      <trkpt lat="49.05258" lon="1.15707">
        <ele>59.900002</ele>
        <time>2015-12-13T10:25:58Z</time>
      </trkpt>
      <trkpt lat="49.05246" lon="1.15704">
        <ele>60.099998</ele>
        <time>2015-12-13T10:26:00Z</time>
      </trkpt>
      <trkpt lat="49.05235" lon="1.15703">
        <ele>60.099998</ele>
        <time>2015-12-13T10:26:02Z</time>
      </trkpt>
      <trkpt lat="49.05223" lon="1.15702">
        <ele>60.200001</ele>
        <time>2015-12-13T10:26:04Z</time>
      </trkpt>
      <trkpt lat="49.05211" lon="1.15701">
        <ele>60.299999</ele>
        <time>2015-12-13T10:26:06Z</time>
      </trkpt>
      <trkpt lat="49.05198" lon="1.157">
        <ele>60.400002</ele>
        <time>2015-12-13T10:26:08Z</time>
      </trkpt>
      <trkpt lat="49.05184" lon="1.157">
        <ele>60.5</ele>
        <time>2015-12-13T10:26:10Z</time>
      </trkpt>
      <trkpt lat="49.05171" lon="1.15699">
        <ele>60.5</ele>
        <time>2015-12-13T10:26:12Z</time>
      </trkpt>
      <trkpt lat="49.05158" lon="1.15698">
        <ele>60.5</ele>
        <time>2015-12-13T10:26:14Z</time>
      </trkpt>
      <trkpt lat="49.05145" lon="1.15699">
        <ele>60.5</ele>
        <time>2015-12-13T10:26:16Z</time>
      </trkpt>
      <trkpt lat="49.05132" lon="1.157">
        <ele>60.5</ele>
        <time>2015-12-13T10:26:18Z</time>
      </trkpt>
      <trkpt lat="49.05119" lon="1.15701">
        <ele>60.400002</ele>
        <time>2015-12-13T10:26:20Z</time>
      </trkpt>
      <trkpt lat="49.05105" lon="1.15701">
        <ele>60.400002</ele>
        <time>2015-12-13T10:26:22Z</time>
      </trkpt>
      <trkpt lat="49.05092" lon="1.15703">
        <ele>60.400002</ele>
        <time>2015-12-13T10:26:24Z</time>
      </trkpt>
      <trkpt lat="49.05079" lon="1.15703">
        <ele>60.400002</ele>
        <time>2015-12-13T10:26:26Z</time>
      </trkpt>
      <trkpt lat="49.05066" lon="1.15704">
        <ele>60.400002</ele>
        <time>2015-12-13T10:26:28Z</time>
      </trkpt>
      <trkpt lat="49.05054" lon="1.15705">
        <ele>60.400002</ele>
        <time>2015-12-13T10:26:30Z</time>
      </trkpt>
      <trkpt lat="49.05042" lon="1.15706">
        <ele>60.400002</ele>
        <time>2015-12-13T10:26:32Z</time>
      </trkpt>
      <trkpt lat="49.0503" lon="1.15708">
        <ele>60.400002</ele>
        <time>2015-12-13T10:26:34Z</time>
      </trkpt>
      <trkpt lat="49.05018" lon="1.15706">
        <ele>60.299999</ele>
        <time>2015-12-13T10:26:36Z</time>
      </trkpt>
      <trkpt lat="49.05005" lon="1.15706">
        <ele>60.299999</ele>
        <time>2015-12-13T10:26:38Z</time>
      </trkpt>
      <trkpt lat="49.04993" lon="1.15706">
        <ele>60.299999</ele>
        <time>2015-12-13T10:26:40Z</time>
      </trkpt>
      <trkpt lat="49.0498" lon="1.15706">
        <ele>60.299999</ele>
        <time>2015-12-13T10:26:42Z</time>
      </trkpt>
      <trkpt lat="49.04969" lon="1.15707">
        <ele>60.299999</ele>
        <time>2015-12-13T10:26:44Z</time>
      </trkpt>
      <trkpt lat="49.04957" lon="1.15707">
        <ele>60.299999</ele>
        <time>2015-12-13T10:26:46Z</time>
      </trkpt>
      <trkpt lat="49.04946" lon="1.15708">
        <ele>60.299999</ele>
        <time>2015-12-13T10:26:48Z</time>
      </trkpt>
      <trkpt lat="49.04935" lon="1.15709">
        <ele>60.299999</ele>
        <time>2015-12-13T10:26:50Z</time>
      </trkpt>
      <trkpt lat="49.04923" lon="1.1571">
        <ele>60.400002</ele>
        <time>2015-12-13T10:26:52Z</time>
      </trkpt>
      <trkpt lat="49.0491" lon="1.1571">
        <ele>60.400002</ele>
        <time>2015-12-13T10:26:54Z</time>
      </trkpt>
      <trkpt lat="49.04899" lon="1.15711">
        <ele>60.5</ele>
        <time>2015-12-13T10:26:56Z</time>
      </trkpt>
      <trkpt lat="49.04887" lon="1.15711">
        <ele>60.599998</ele>
        <time>2015-12-13T10:26:58Z</time>
      </trkpt>
      <trkpt lat="49.04875" lon="1.15711">
        <ele>60.700001</ele>
        <time>2015-12-13T10:27:00Z</time>
      </trkpt>
      <trkpt lat="49.04863" lon="1.15712">
        <ele>60.700001</ele>
        <time>2015-12-13T10:27:02Z</time>
      </trkpt>
      <trkpt lat="49.04851" lon="1.15712">
        <ele>60.799999</ele>
        <time>2015-12-13T10:27:04Z</time>
      </trkpt>
      <trkpt lat="49.04839" lon="1.15712">
        <ele>61</ele>
        <time>2015-12-13T10:27:06Z</time>
      </trkpt>
      <trkpt lat="49.04827" lon="1.15712">
        <ele>61.099998</ele>
        <time>2015-12-13T10:27:08Z</time>
      </trkpt>
      <trkpt lat="49.04817" lon="1.15708">
        <ele>61.299999</ele>
        <time>2015-12-13T10:27:10Z</time>
      </trkpt>
      <trkpt lat="49.04809" lon="1.15694">
        <ele>61.5</ele>
        <time>2015-12-13T10:27:13Z</time>
      </trkpt>
      <trkpt lat="49.048" lon="1.15696">
        <ele>61.700001</ele>
        <time>2015-12-13T10:27:15Z</time>
      </trkpt>
      <trkpt lat="49.0479" lon="1.15695">
        <ele>61.900002</ele>
        <time>2015-12-13T10:27:17Z</time>
      </trkpt>
      <trkpt lat="49.0478" lon="1.15694">
        <ele>62</ele>
        <time>2015-12-13T10:27:19Z</time>
      </trkpt>
      <trkpt lat="49.04771" lon="1.15693">
        <ele>62.200001</ele>
        <time>2015-12-13T10:27:21Z</time>
      </trkpt>
      <trkpt lat="49.04762" lon="1.15692">
        <ele>62.299999</ele>
        <time>2015-12-13T10:27:23Z</time>
      </trkpt>
      <trkpt lat="49.04752" lon="1.15692">
        <ele>62.400002</ele>
        <time>2015-12-13T10:27:25Z</time>
      </trkpt>
      <trkpt lat="49.04742" lon="1.15691">
        <ele>62.5</ele>
        <time>2015-12-13T10:27:27Z</time>
      </trkpt>
      <trkpt lat="49.04733" lon="1.15691">
        <ele>62.599998</ele>
        <time>2015-12-13T10:27:29Z</time>
      </trkpt>
      <trkpt lat="49.04723" lon="1.1569">
        <ele>62.599998</ele>
        <time>2015-12-13T10:27:31Z</time>
      </trkpt>
      <trkpt lat="49.04714" lon="1.15689">
        <ele>62.700001</ele>
        <time>2015-12-13T10:27:33Z</time>
      </trkpt>
      <trkpt lat="49.04704" lon="1.15688">
        <ele>62.799999</ele>
        <time>2015-12-13T10:27:35Z</time>
      </trkpt>
      <trkpt lat="49.04695" lon="1.15688">
        <ele>62.799999</ele>
        <time>2015-12-13T10:27:37Z</time>
      </trkpt>
      <trkpt lat="49.04685" lon="1.15688">
        <ele>62.900002</ele>
        <time>2015-12-13T10:27:39Z</time>
      </trkpt>
      <trkpt lat="49.04676" lon="1.15687">
        <ele>62.900002</ele>
        <time>2015-12-13T10:27:41Z</time>
      </trkpt>
      <trkpt lat="49.04666" lon="1.15686">
        <ele>63</ele>
        <time>2015-12-13T10:27:43Z</time>
      </trkpt>
      <trkpt lat="49.04657" lon="1.15685">
        <ele>63</ele>
        <time>2015-12-13T10:27:45Z</time>
      </trkpt>
      <trkpt lat="49.04648" lon="1.15685">
        <ele>63</ele>
        <time>2015-12-13T10:27:47Z</time>
      </trkpt>
      <trkpt lat="49.04634" lon="1.15685">
        <ele>62.900002</ele>
        <time>2015-12-13T10:27:50Z</time>
      </trkpt>
      <trkpt lat="49.04625" lon="1.15686">
        <ele>62.900002</ele>
        <time>2015-12-13T10:27:52Z</time>
      </trkpt>
      <trkpt lat="49.04616" lon="1.15687">
        <ele>62.799999</ele>
        <time>2015-12-13T10:27:54Z</time>
      </trkpt>
      <trkpt lat="49.04606" lon="1.15689">
        <ele>62.799999</ele>
        <time>2015-12-13T10:27:56Z</time>
      </trkpt>
      <trkpt lat="49.04597" lon="1.15689">
        <ele>62.799999</ele>
        <time>2015-12-13T10:27:58Z</time>
      </trkpt>
      <trkpt lat="49.04585" lon="1.15693">
        <ele>62.799999</ele>
        <time>2015-12-13T10:28:01Z</time>
      </trkpt>
      <trkpt lat="49.04574" lon="1.15699">
        <ele>62.799999</ele>
        <time>2015-12-13T10:28:04Z</time>
      </trkpt>
      <trkpt lat="49.04562" lon="1.15704">
        <ele>62.799999</ele>
        <time>2015-12-13T10:28:07Z</time>
      </trkpt>
      <trkpt lat="49.04551" lon="1.15707">
        <ele>62.799999</ele>
        <time>2015-12-13T10:28:10Z</time>
      </trkpt>
      <trkpt lat="49.04544" lon="1.157">
        <ele>62.799999</ele>
        <time>2015-12-13T10:28:13Z</time>
      </trkpt>
    </trkseg>
  </trk>
</gpx>